<?xml version="1.0" encoding="UTF-8" standalone="no" ?>
<gpx xmlns="http://www.topografix.com/GPX/1/0"
 creator="BT747 V1.68.32" version="1.0"
 xmlns:xsi="http://www.w3.org/2001/XMLSchema-instance"  xsi:schemaLocation="http://www.topografix.com/GPX/1/0 http://www.topografix.com/GPX/1/0/gpx.xsd">
<name>GPS-20101009</name>
<trk>
<name>#00008# 2010-10-09T10:10:33Z</name>
<trkseg>
<trkpt lat="50.42282085" lon="9.56084602" >
<ele>214.613</ele>
<time>2010-10-09T10:10:33Z</time>
<speed>0.0443</speed>
<name>trkpt-2010-10-09T10:10:33Z</name>
<cmt>
<![CDATA[TIME: 09-OCT-10 10:10:33<br>RCR: T <b>(TimeStamp)</b>
<br>VALID: SPS<br>LATITUDE: 50.422821 N<br>LONGITUDE: 9.560846 E<br>HEIGHT: 214.613 m<br>SPEED: 0.159 km/h<br>DISTANCE: 152.71 m]]>
</cmt>
<sym>TimeStamp</sym>
<type>T</type>
<fix>3d</fix>
</trkpt>
<trkpt lat="50.42462953" lon="9.56140126" >
<ele>425.440</ele>
<time>2010-10-09T10:10:43Z</time>
<speed>0.0817</speed>
<name>trkpt-2010-10-09T10:10:43Z</name>
<cmt>
<![CDATA[TIME: 09-OCT-10 10:10:43<br>RCR: T <b>(TimeStamp)</b>
<br>VALID: SPS<br>LATITUDE: 50.424630 N<br>LONGITUDE: 9.561401 E<br>HEIGHT: 425.440 m<br>SPEED: 0.294 km/h<br>DISTANCE: 294.09 m]]>
</cmt>
<sym>TimeStamp</sym>
<type>T</type>
<fix>3d</fix>
</trkpt>
<trkpt lat="50.42383755" lon="9.56126156" >
<ele>344.694</ele>
<time>2010-10-09T10:10:53Z</time>
<speed>0.2581</speed>
<name>trkpt-2010-10-09T10:10:53Z</name>
<cmt>
<![CDATA[TIME: 09-OCT-10 10:10:53<br>RCR: T <b>(TimeStamp)</b>
<br>VALID: SPS<br>LATITUDE: 50.423838 N<br>LONGITUDE: 9.561262 E<br>HEIGHT: 344.694 m<br>SPEED: 0.929 km/h<br>DISTANCE: 119.92 m]]>
</cmt>
<sym>TimeStamp</sym>
<type>T</type>
<fix>3d</fix>
</trkpt>
<trkpt lat="50.42424253" lon="9.56111262" >
<ele>378.135</ele>
<time>2010-10-09T10:11:03Z</time>
<speed>0.0197</speed>
<name>trkpt-2010-10-09T10:11:03Z</name>
<cmt>
<![CDATA[TIME: 09-OCT-10 10:11:03<br>RCR: T <b>(TimeStamp)</b>
<br>VALID: SPS<br>LATITUDE: 50.424243 N<br>LONGITUDE: 9.561113 E<br>HEIGHT: 378.135 m<br>SPEED: 0.071 km/h<br>DISTANCE: 57.10 m]]>
</cmt>
<sym>TimeStamp</sym>
<type>T</type>
<fix>3d</fix>
</trkpt>
<trkpt lat="50.42342643" lon="9.56079703" >
<ele>277.879</ele>
<time>2010-10-09T10:11:13Z</time>
<speed>0.0934</speed>
<name>trkpt-2010-10-09T10:11:13Z</name>
<cmt>
<![CDATA[TIME: 09-OCT-10 10:11:13<br>RCR: T <b>(TimeStamp)</b>
<br>VALID: SPS<br>LATITUDE: 50.423426 N<br>LONGITUDE: 9.560797 E<br>HEIGHT: 277.879 m<br>SPEED: 0.336 km/h<br>DISTANCE: 137.10 m]]>
</cmt>
<sym>TimeStamp</sym>
<type>T</type>
<fix>3d</fix>
</trkpt>
<trkpt lat="50.42357828" lon="9.56095544" >
<ele>298.098</ele>
<time>2010-10-09T10:11:23Z</time>
<speed>0.1337</speed>
<name>trkpt-2010-10-09T10:11:23Z</name>
<cmt>
<![CDATA[TIME: 09-OCT-10 10:11:23<br>RCR: T <b>(TimeStamp)</b>
<br>VALID: SPS<br>LATITUDE: 50.423578 N<br>LONGITUDE: 9.560955 E<br>HEIGHT: 298.098 m<br>SPEED: 0.481 km/h<br>DISTANCE: 28.65 m]]>
</cmt>
<sym>TimeStamp</sym>
<type>T</type>
<fix>3d</fix>
</trkpt>
<trkpt lat="50.42355715" lon="9.56092671" >
<ele>285.251</ele>
<time>2010-10-09T10:11:33Z</time>
<speed>1.3717</speed>
<name>trkpt-2010-10-09T10:11:33Z</name>
<cmt>
<![CDATA[TIME: 09-OCT-10 10:11:33<br>RCR: T <b>(TimeStamp)</b>
<br>VALID: SPS<br>LATITUDE: 50.423557 N<br>LONGITUDE: 9.560927 E<br>HEIGHT: 285.251 m<br>SPEED: 4.938 km/h<br>DISTANCE: 13.22 m]]>
</cmt>
<sym>TimeStamp</sym>
<type>T</type>
<fix>3d</fix>
</trkpt>
<trkpt lat="50.42350887" lon="9.56118087" >
<ele>288.978</ele>
<time>2010-10-09T10:11:43Z</time>
<speed>2.4906</speed>
<name>trkpt-2010-10-09T10:11:43Z</name>
<cmt>
<![CDATA[TIME: 09-OCT-10 10:11:43<br>RCR: T <b>(TimeStamp)</b>
<br>VALID: SPS<br>LATITUDE: 50.423509 N<br>LONGITUDE: 9.561181 E<br>HEIGHT: 288.978 m<br>SPEED: 8.966 km/h<br>DISTANCE: 19.21 m]]>
</cmt>
<sym>TimeStamp</sym>
<type>T</type>
<fix>3d</fix>
</trkpt>
<trkpt lat="50.42330890" lon="9.56171653" >
<ele>287.178</ele>
<time>2010-10-09T10:11:53Z</time>
<speed>5.3320</speed>
<name>trkpt-2010-10-09T10:11:53Z</name>
<cmt>
<![CDATA[TIME: 09-OCT-10 10:11:53<br>RCR: T <b>(TimeStamp)</b>
<br>VALID: SPS<br>LATITUDE: 50.423309 N<br>LONGITUDE: 9.561717 E<br>HEIGHT: 287.178 m<br>SPEED: 19.195 km/h<br>DISTANCE: 44.13 m]]>
</cmt>
<sym>TimeStamp</sym>
<type>T</type>
<fix>3d</fix>
</trkpt>
<trkpt lat="50.42321216" lon="9.56282812" >
<ele>283.728</ele>
<time>2010-10-09T10:12:03Z</time>
<speed>10.6416</speed>
<name>trkpt-2010-10-09T10:12:03Z</name>
<cmt>
<![CDATA[TIME: 09-OCT-10 10:12:03<br>RCR: T <b>(TimeStamp)</b>
<br>VALID: SPS<br>LATITUDE: 50.423212 N<br>LONGITUDE: 9.562828 E<br>HEIGHT: 283.728 m<br>SPEED: 38.310 km/h<br>DISTANCE: 79.80 m]]>
</cmt>
<sym>TimeStamp</sym>
<type>T</type>
<fix>3d</fix>
</trkpt>
<trkpt lat="50.42265088" lon="9.56373499" >
<ele>282.431</ele>
<time>2010-10-09T10:12:13Z</time>
<speed>6.2219</speed>
<name>trkpt-2010-10-09T10:12:13Z</name>
<cmt>
<![CDATA[TIME: 09-OCT-10 10:12:13<br>RCR: T <b>(TimeStamp)</b>
<br>VALID: SPS<br>LATITUDE: 50.422651 N<br>LONGITUDE: 9.563735 E<br>HEIGHT: 282.431 m<br>SPEED: 22.399 km/h<br>DISTANCE: 89.74 m]]>
</cmt>
<sym>TimeStamp</sym>
<type>T</type>
<fix>3d</fix>
</trkpt>
<trkpt lat="50.42263401" lon="9.56446592" >
<ele>284.117</ele>
<time>2010-10-09T10:12:23Z</time>
<speed>7.4085</speed>
<name>trkpt-2010-10-09T10:12:23Z</name>
<cmt>
<![CDATA[TIME: 09-OCT-10 10:12:23<br>RCR: T <b>(TimeStamp)</b>
<br>VALID: SPS<br>LATITUDE: 50.422634 N<br>LONGITUDE: 9.564466 E<br>HEIGHT: 284.117 m<br>SPEED: 26.670 km/h<br>DISTANCE: 52.01 m]]>
</cmt>
<sym>TimeStamp</sym>
<type>T</type>
<fix>3d</fix>
</trkpt>
<trkpt lat="50.42273299" lon="9.56534020" >
<ele>285.717</ele>
<time>2010-10-09T10:12:33Z</time>
<speed>2.9413</speed>
<name>trkpt-2010-10-09T10:12:33Z</name>
<cmt>
<![CDATA[TIME: 09-OCT-10 10:12:33<br>RCR: T <b>(TimeStamp)</b>
<br>VALID: SPS<br>LATITUDE: 50.422733 N<br>LONGITUDE: 9.565340 E<br>HEIGHT: 285.717 m<br>SPEED: 10.589 km/h<br>DISTANCE: 63.12 m]]>
</cmt>
<sym>TimeStamp</sym>
<type>T</type>
<fix>3d</fix>
</trkpt>
<trkpt lat="50.42299210" lon="9.56584730" >
<ele>290.602</ele>
<time>2010-10-09T10:12:43Z</time>
<speed>6.6109</speed>
<name>trkpt-2010-10-09T10:12:43Z</name>
<cmt>
<![CDATA[TIME: 09-OCT-10 10:12:43<br>RCR: T <b>(TimeStamp)</b>
<br>VALID: SPS<br>LATITUDE: 50.422992 N<br>LONGITUDE: 9.565847 E<br>HEIGHT: 290.602 m<br>SPEED: 23.799 km/h<br>DISTANCE: 46.41 m]]>
</cmt>
<sym>TimeStamp</sym>
<type>T</type>
<fix>3d</fix>
</trkpt>
<trkpt lat="50.42350353" lon="9.56621769" >
<ele>295.250</ele>
<time>2010-10-09T10:12:53Z</time>
<speed>4.2251</speed>
<name>trkpt-2010-10-09T10:12:53Z</name>
<cmt>
<![CDATA[TIME: 09-OCT-10 10:12:53<br>RCR: T <b>(TimeStamp)</b>
<br>VALID: SPS<br>LATITUDE: 50.423504 N<br>LONGITUDE: 9.566218 E<br>HEIGHT: 295.250 m<br>SPEED: 15.210 km/h<br>DISTANCE: 62.86 m]]>
</cmt>
<sym>TimeStamp</sym>
<type>T</type>
<fix>3d</fix>
</trkpt>
<trkpt lat="50.42354528" lon="9.56674976" >
<ele>297.781</ele>
<time>2010-10-09T10:13:03Z</time>
<speed>3.4316</speed>
<name>trkpt-2010-10-09T10:13:03Z</name>
<cmt>
<![CDATA[TIME: 09-OCT-10 10:13:03<br>RCR: T <b>(TimeStamp)</b>
<br>VALID: SPS<br>LATITUDE: 50.423545 N<br>LONGITUDE: 9.566750 E<br>HEIGHT: 297.781 m<br>SPEED: 12.354 km/h<br>DISTANCE: 38.18 m]]>
</cmt>
<sym>TimeStamp</sym>
<type>T</type>
<fix>3d</fix>
</trkpt>
<trkpt lat="50.42339157" lon="9.56727389" >
<ele>296.968</ele>
<time>2010-10-09T10:13:13Z</time>
<speed>3.7403</speed>
<name>trkpt-2010-10-09T10:13:13Z</name>
<cmt>
<![CDATA[TIME: 09-OCT-10 10:13:13<br>RCR: T <b>(TimeStamp)</b>
<br>VALID: SPS<br>LATITUDE: 50.423392 N<br>LONGITUDE: 9.567274 E<br>HEIGHT: 296.968 m<br>SPEED: 13.465 km/h<br>DISTANCE: 40.99 m]]>
</cmt>
<sym>TimeStamp</sym>
<type>T</type>
<fix>3d</fix>
</trkpt>
<trkpt lat="50.42308876" lon="9.56802145" >
<ele>299.657</ele>
<time>2010-10-09T10:13:23Z</time>
<speed>6.4040</speed>
<name>trkpt-2010-10-09T10:13:23Z</name>
<cmt>
<![CDATA[TIME: 09-OCT-10 10:13:23<br>RCR: T <b>(TimeStamp)</b>
<br>VALID: SPS<br>LATITUDE: 50.423089 N<br>LONGITUDE: 9.568021 E<br>HEIGHT: 299.657 m<br>SPEED: 23.054 km/h<br>DISTANCE: 62.96 m]]>
</cmt>
<sym>TimeStamp</sym>
<type>T</type>
<fix>3d</fix>
</trkpt>
<trkpt lat="50.42309437" lon="9.56906189" >
<ele>298.911</ele>
<time>2010-10-09T10:13:33Z</time>
<speed>9.0872</speed>
<name>trkpt-2010-10-09T10:13:33Z</name>
<cmt>
<![CDATA[TIME: 09-OCT-10 10:13:33<br>RCR: T <b>(TimeStamp)</b>
<br>VALID: SPS<br>LATITUDE: 50.423094 N<br>LONGITUDE: 9.569062 E<br>HEIGHT: 298.911 m<br>SPEED: 32.714 km/h<br>DISTANCE: 73.95 m]]>
</cmt>
<sym>TimeStamp</sym>
<type>T</type>
<fix>3d</fix>
</trkpt>
<trkpt lat="50.42379988" lon="9.56966196" >
<ele>291.153</ele>
<time>2010-10-09T10:13:43Z</time>
<speed>7.6660</speed>
<name>trkpt-2010-10-09T10:13:43Z</name>
<cmt>
<![CDATA[TIME: 09-OCT-10 10:13:43<br>RCR: T <b>(TimeStamp)</b>
<br>VALID: SPS<br>LATITUDE: 50.423800 N<br>LONGITUDE: 9.569662 E<br>HEIGHT: 291.153 m<br>SPEED: 27.598 km/h<br>DISTANCE: 89.66 m]]>
</cmt>
<sym>TimeStamp</sym>
<type>T</type>
<fix>3d</fix>
</trkpt>
<trkpt lat="50.42427569" lon="9.57040163" >
<ele>286.620</ele>
<time>2010-10-09T10:13:53Z</time>
<speed>7.2436</speed>
<name>trkpt-2010-10-09T10:13:53Z</name>
<cmt>
<![CDATA[TIME: 09-OCT-10 10:13:53<br>RCR: T <b>(TimeStamp)</b>
<br>VALID: SPS<br>LATITUDE: 50.424276 N<br>LONGITUDE: 9.570402 E<br>HEIGHT: 286.620 m<br>SPEED: 26.077 km/h<br>DISTANCE: 74.74 m]]>
</cmt>
<sym>TimeStamp</sym>
<type>T</type>
<fix>3d</fix>
</trkpt>
<trkpt lat="50.42464529" lon="9.57128207" >
<ele>284.037</ele>
<time>2010-10-09T10:14:03Z</time>
<speed>7.1091</speed>
<name>trkpt-2010-10-09T10:14:03Z</name>
<cmt>
<![CDATA[TIME: 09-OCT-10 10:14:03<br>RCR: T <b>(TimeStamp)</b>
<br>VALID: SPS<br>LATITUDE: 50.424645 N<br>LONGITUDE: 9.571282 E<br>HEIGHT: 284.037 m<br>SPEED: 25.593 km/h<br>DISTANCE: 74.91 m]]>
</cmt>
<sym>TimeStamp</sym>
<type>T</type>
<fix>3d</fix>
</trkpt>
<trkpt lat="50.42499209" lon="9.57214264" >
<ele>280.857</ele>
<time>2010-10-09T10:14:13Z</time>
<speed>6.8005</speed>
<name>trkpt-2010-10-09T10:14:13Z</name>
<cmt>
<![CDATA[TIME: 09-OCT-10 10:14:13<br>RCR: T <b>(TimeStamp)</b>
<br>VALID: SPS<br>LATITUDE: 50.424992 N<br>LONGITUDE: 9.572143 E<br>HEIGHT: 280.857 m<br>SPEED: 24.482 km/h<br>DISTANCE: 72.38 m]]>
</cmt>
<sym>TimeStamp</sym>
<type>T</type>
<fix>3d</fix>
</trkpt>
<trkpt lat="50.42523345" lon="9.57258828" >
<ele>281.935</ele>
<time>2010-10-09T10:14:23Z</time>
<speed>2.5926</speed>
<name>trkpt-2010-10-09T10:14:23Z</name>
<cmt>
<![CDATA[TIME: 09-OCT-10 10:14:23<br>RCR: T <b>(TimeStamp)</b>
<br>VALID: SPS<br>LATITUDE: 50.425233 N<br>LONGITUDE: 9.572588 E<br>HEIGHT: 281.935 m<br>SPEED: 9.333 km/h<br>DISTANCE: 41.53 m]]>
</cmt>
<sym>TimeStamp</sym>
<type>T</type>
<fix>3d</fix>
</trkpt>
<trkpt lat="50.42530557" lon="9.57310305" >
<ele>282.859</ele>
<time>2010-10-09T10:14:33Z</time>
<speed>3.5652</speed>
<name>trkpt-2010-10-09T10:14:33Z</name>
<cmt>
<![CDATA[TIME: 09-OCT-10 10:14:33<br>RCR: T <b>(TimeStamp)</b>
<br>VALID: SPS<br>LATITUDE: 50.425306 N<br>LONGITUDE: 9.573103 E<br>HEIGHT: 282.859 m<br>SPEED: 12.835 km/h<br>DISTANCE: 37.46 m]]>
</cmt>
<sym>TimeStamp</sym>
<type>T</type>
<fix>3d</fix>
</trkpt>
<trkpt lat="50.42543015" lon="9.57366699" >
<ele>281.945</ele>
<time>2010-10-09T10:14:43Z</time>
<speed>4.2027</speed>
<name>trkpt-2010-10-09T10:14:43Z</name>
<cmt>
<![CDATA[TIME: 09-OCT-10 10:14:43<br>RCR: T <b>(TimeStamp)</b>
<br>VALID: SPS<br>LATITUDE: 50.425430 N<br>LONGITUDE: 9.573667 E<br>HEIGHT: 281.945 m<br>SPEED: 15.130 km/h<br>DISTANCE: 42.42 m]]>
</cmt>
<sym>TimeStamp</sym>
<type>T</type>
<fix>3d</fix>
</trkpt>
<trkpt lat="50.42556771" lon="9.57421869" >
<ele>281.781</ele>
<time>2010-10-09T10:14:53Z</time>
<speed>4.0665</speed>
<name>trkpt-2010-10-09T10:14:53Z</name>
<cmt>
<![CDATA[TIME: 09-OCT-10 10:14:53<br>RCR: T <b>(TimeStamp)</b>
<br>VALID: SPS<br>LATITUDE: 50.425568 N<br>LONGITUDE: 9.574219 E<br>HEIGHT: 281.781 m<br>SPEED: 14.640 km/h<br>DISTANCE: 42.09 m]]>
</cmt>
<sym>TimeStamp</sym>
<type>T</type>
<fix>3d</fix>
</trkpt>
<trkpt lat="50.42569622" lon="9.57483314" >
<ele>281.715</ele>
<time>2010-10-09T10:15:03Z</time>
<speed>4.2039</speed>
<name>trkpt-2010-10-09T10:15:03Z</name>
<cmt>
<![CDATA[TIME: 09-OCT-10 10:15:03<br>RCR: T <b>(TimeStamp)</b>
<br>VALID: SPS<br>LATITUDE: 50.425696 N<br>LONGITUDE: 9.574833 E<br>HEIGHT: 281.715 m<br>SPEED: 15.134 km/h<br>DISTANCE: 45.95 m]]>
</cmt>
<sym>TimeStamp</sym>
<type>T</type>
<fix>3d</fix>
</trkpt>
<trkpt lat="50.42582145" lon="9.57544967" >
<ele>282.538</ele>
<time>2010-10-09T10:15:13Z</time>
<speed>3.6517</speed>
<name>trkpt-2010-10-09T10:15:13Z</name>
<cmt>
<![CDATA[TIME: 09-OCT-10 10:15:13<br>RCR: T <b>(TimeStamp)</b>
<br>VALID: SPS<br>LATITUDE: 50.425821 N<br>LONGITUDE: 9.575450 E<br>HEIGHT: 282.538 m<br>SPEED: 13.146 km/h<br>DISTANCE: 45.98 m]]>
</cmt>
<sym>TimeStamp</sym>
<type>T</type>
<fix>3d</fix>
</trkpt>
<trkpt lat="50.42592342" lon="9.57589058" >
<ele>283.715</ele>
<time>2010-10-09T10:15:23Z</time>
<speed>2.7070</speed>
<name>trkpt-2010-10-09T10:15:23Z</name>
<cmt>
<![CDATA[TIME: 09-OCT-10 10:15:23<br>RCR: T <b>(TimeStamp)</b>
<br>VALID: SPS<br>LATITUDE: 50.425923 N<br>LONGITUDE: 9.575891 E<br>HEIGHT: 283.715 m<br>SPEED: 9.745 km/h<br>DISTANCE: 33.34 m]]>
</cmt>
<sym>TimeStamp</sym>
<type>T</type>
<fix>3d</fix>
</trkpt>
<trkpt lat="50.42601564" lon="9.57644206" >
<ele>284.434</ele>
<time>2010-10-09T10:15:33Z</time>
<speed>4.9060</speed>
<name>trkpt-2010-10-09T10:15:33Z</name>
<cmt>
<![CDATA[TIME: 09-OCT-10 10:15:33<br>RCR: T <b>(TimeStamp)</b>
<br>VALID: SPS<br>LATITUDE: 50.426016 N<br>LONGITUDE: 9.576442 E<br>HEIGHT: 284.434 m<br>SPEED: 17.662 km/h<br>DISTANCE: 40.52 m]]>
</cmt>
<sym>TimeStamp</sym>
<type>T</type>
<fix>3d</fix>
</trkpt>
<trkpt lat="50.42619271" lon="9.57720233" >
<ele>284.713</ele>
<time>2010-10-09T10:15:43Z</time>
<speed>6.3694</speed>
<name>trkpt-2010-10-09T10:15:43Z</name>
<cmt>
<![CDATA[TIME: 09-OCT-10 10:15:43<br>RCR: T <b>(TimeStamp)</b>
<br>VALID: SPS<br>LATITUDE: 50.426193 N<br>LONGITUDE: 9.577202 E<br>HEIGHT: 284.713 m<br>SPEED: 22.930 km/h<br>DISTANCE: 57.51 m]]>
</cmt>
<sym>TimeStamp</sym>
<type>T</type>
<fix>3d</fix>
</trkpt>
<trkpt lat="50.42649877" lon="9.57803568" >
<ele>285.529</ele>
<time>2010-10-09T10:15:53Z</time>
<speed>7.0949</speed>
<name>trkpt-2010-10-09T10:15:53Z</name>
<cmt>
<![CDATA[TIME: 09-OCT-10 10:15:53<br>RCR: T <b>(TimeStamp)</b>
<br>VALID: SPS<br>LATITUDE: 50.426499 N<br>LONGITUDE: 9.578036 E<br>HEIGHT: 285.529 m<br>SPEED: 25.542 km/h<br>DISTANCE: 68.31 m]]>
</cmt>
<sym>TimeStamp</sym>
<type>T</type>
<fix>3d</fix>
</trkpt>
<trkpt lat="50.42688764" lon="9.57895739" >
<ele>286.302</ele>
<time>2010-10-09T10:16:03Z</time>
<speed>8.1692</speed>
<name>trkpt-2010-10-09T10:16:03Z</name>
<cmt>
<![CDATA[TIME: 09-OCT-10 10:16:03<br>RCR: T <b>(TimeStamp)</b>
<br>VALID: SPS<br>LATITUDE: 50.426888 N<br>LONGITUDE: 9.578957 E<br>HEIGHT: 286.302 m<br>SPEED: 29.409 km/h<br>DISTANCE: 78.50 m]]>
</cmt>
<sym>TimeStamp</sym>
<type>T</type>
<fix>3d</fix>
</trkpt>
<trkpt lat="50.42743674" lon="9.57998514" >
<ele>283.822</ele>
<time>2010-10-09T10:16:13Z</time>
<speed>10.8277</speed>
<name>trkpt-2010-10-09T10:16:13Z</name>
<cmt>
<![CDATA[TIME: 09-OCT-10 10:16:13<br>RCR: T <b>(TimeStamp)</b>
<br>VALID: SPS<br>LATITUDE: 50.427437 N<br>LONGITUDE: 9.579985 E<br>HEIGHT: 283.822 m<br>SPEED: 38.980 km/h<br>DISTANCE: 95.24 m]]>
</cmt>
<sym>TimeStamp</sym>
<type>T</type>
<fix>3d</fix>
</trkpt>
<trkpt lat="50.42830319" lon="9.58134021" >
<ele>281.702</ele>
<time>2010-10-09T10:16:23Z</time>
<speed>13.8286</speed>
<name>trkpt-2010-10-09T10:16:23Z</name>
<cmt>
<![CDATA[TIME: 09-OCT-10 10:16:23<br>RCR: T <b>(TimeStamp)</b>
<br>VALID: SPS<br>LATITUDE: 50.428303 N<br>LONGITUDE: 9.581340 E<br>HEIGHT: 281.702 m<br>SPEED: 49.783 km/h<br>DISTANCE: 136.26 m]]>
</cmt>
<sym>TimeStamp</sym>
<type>T</type>
<fix>3d</fix>
</trkpt>
<trkpt lat="50.42914495" lon="9.58260123" >
<ele>274.481</ele>
<time>2010-10-09T10:16:33Z</time>
<speed>11.2323</speed>
<name>trkpt-2010-10-09T10:16:33Z</name>
<cmt>
<![CDATA[TIME: 09-OCT-10 10:16:33<br>RCR: T <b>(TimeStamp)</b>
<br>VALID: SPS<br>LATITUDE: 50.429145 N<br>LONGITUDE: 9.582601 E<br>HEIGHT: 274.481 m<br>SPEED: 40.436 km/h<br>DISTANCE: 129.81 m]]>
</cmt>
<sym>TimeStamp</sym>
<type>T</type>
<fix>3d</fix>
</trkpt>
<trkpt lat="50.42971602" lon="9.58365074" >
<ele>276.716</ele>
<time>2010-10-09T10:16:43Z</time>
<speed>6.8082</speed>
<name>trkpt-2010-10-09T10:16:43Z</name>
<cmt>
<![CDATA[TIME: 09-OCT-10 10:16:43<br>RCR: T <b>(TimeStamp)</b>
<br>VALID: SPS<br>LATITUDE: 50.429716 N<br>LONGITUDE: 9.583651 E<br>HEIGHT: 276.716 m<br>SPEED: 24.509 km/h<br>DISTANCE: 97.99 m]]>
</cmt>
<sym>TimeStamp</sym>
<type>T</type>
<fix>3d</fix>
</trkpt>
<trkpt lat="50.42995244" lon="9.58405785" >
<ele>280.142</ele>
<time>2010-10-09T10:16:53Z</time>
<speed>1.9866</speed>
<name>trkpt-2010-10-09T10:16:53Z</name>
<cmt>
<![CDATA[TIME: 09-OCT-10 10:16:53<br>RCR: T <b>(TimeStamp)</b>
<br>VALID: SPS<br>LATITUDE: 50.429952 N<br>LONGITUDE: 9.584058 E<br>HEIGHT: 280.142 m<br>SPEED: 7.152 km/h<br>DISTANCE: 39.25 m]]>
</cmt>
<sym>TimeStamp</sym>
<type>T</type>
<fix>3d</fix>
</trkpt>
<trkpt lat="50.43012186" lon="9.58434827" >
<ele>282.834</ele>
<time>2010-10-09T10:17:03Z</time>
<speed>2.1469</speed>
<name>trkpt-2010-10-09T10:17:03Z</name>
<cmt>
<![CDATA[TIME: 09-OCT-10 10:17:03<br>RCR: T <b>(TimeStamp)</b>
<br>VALID: SPS<br>LATITUDE: 50.430122 N<br>LONGITUDE: 9.584348 E<br>HEIGHT: 282.834 m<br>SPEED: 7.729 km/h<br>DISTANCE: 28.08 m]]>
</cmt>
<sym>TimeStamp</sym>
<type>T</type>
<fix>3d</fix>
</trkpt>
<trkpt lat="50.43025686" lon="9.58463193" >
<ele>284.015</ele>
<time>2010-10-09T10:17:13Z</time>
<speed>2.5738</speed>
<name>trkpt-2010-10-09T10:17:13Z</name>
<cmt>
<![CDATA[TIME: 09-OCT-10 10:17:13<br>RCR: T <b>(TimeStamp)</b>
<br>VALID: SPS<br>LATITUDE: 50.430257 N<br>LONGITUDE: 9.584632 E<br>HEIGHT: 284.015 m<br>SPEED: 9.266 km/h<br>DISTANCE: 25.16 m]]>
</cmt>
<sym>TimeStamp</sym>
<type>T</type>
<fix>3d</fix>
</trkpt>
<trkpt lat="50.43039793" lon="9.58496922" >
<ele>284.207</ele>
<time>2010-10-09T10:17:23Z</time>
<speed>2.5497</speed>
<name>trkpt-2010-10-09T10:17:23Z</name>
<cmt>
<![CDATA[TIME: 09-OCT-10 10:17:23<br>RCR: T <b>(TimeStamp)</b>
<br>VALID: SPS<br>LATITUDE: 50.430398 N<br>LONGITUDE: 9.584969 E<br>HEIGHT: 284.207 m<br>SPEED: 9.179 km/h<br>DISTANCE: 28.65 m]]>
</cmt>
<sym>TimeStamp</sym>
<type>T</type>
<fix>3d</fix>
</trkpt>
<trkpt lat="50.43056963" lon="9.58525635" >
<ele>285.165</ele>
<time>2010-10-09T10:17:33Z</time>
<speed>2.1839</speed>
<name>trkpt-2010-10-09T10:17:33Z</name>
<cmt>
<![CDATA[TIME: 09-OCT-10 10:17:33<br>RCR: T <b>(TimeStamp)</b>
<br>VALID: SPS<br>LATITUDE: 50.430570 N<br>LONGITUDE: 9.585256 E<br>HEIGHT: 285.165 m<br>SPEED: 7.862 km/h<br>DISTANCE: 27.96 m]]>
</cmt>
<sym>TimeStamp</sym>
<type>T</type>
<fix>3d</fix>
</trkpt>
<trkpt lat="50.43074098" lon="9.58554038" >
<ele>287.715</ele>
<time>2010-10-09T10:17:43Z</time>
<speed>2.3188</speed>
<name>trkpt-2010-10-09T10:17:43Z</name>
<cmt>
<![CDATA[TIME: 09-OCT-10 10:17:43<br>RCR: T <b>(TimeStamp)</b>
<br>VALID: SPS<br>LATITUDE: 50.430741 N<br>LONGITUDE: 9.585540 E<br>HEIGHT: 287.715 m<br>SPEED: 8.348 km/h<br>DISTANCE: 27.88 m]]>
</cmt>
<sym>TimeStamp</sym>
<type>T</type>
<fix>3d</fix>
</trkpt>
<trkpt lat="50.43090480" lon="9.58584103" >
<ele>290.208</ele>
<time>2010-10-09T10:17:53Z</time>
<speed>2.5601</speed>
<name>trkpt-2010-10-09T10:17:53Z</name>
<cmt>
<![CDATA[TIME: 09-OCT-10 10:17:53<br>RCR: T <b>(TimeStamp)</b>
<br>VALID: SPS<br>LATITUDE: 50.430905 N<br>LONGITUDE: 9.585841 E<br>HEIGHT: 290.208 m<br>SPEED: 9.216 km/h<br>DISTANCE: 28.19 m]]>
</cmt>
<sym>TimeStamp</sym>
<type>T</type>
<fix>3d</fix>
</trkpt>
<trkpt lat="50.43110574" lon="9.58612755" >
<ele>295.225</ele>
<time>2010-10-09T10:18:03Z</time>
<speed>2.3204</speed>
<name>trkpt-2010-10-09T10:18:03Z</name>
<cmt>
<![CDATA[TIME: 09-OCT-10 10:18:03<br>RCR: T <b>(TimeStamp)</b>
<br>VALID: SPS<br>LATITUDE: 50.431106 N<br>LONGITUDE: 9.586128 E<br>HEIGHT: 295.225 m<br>SPEED: 8.354 km/h<br>DISTANCE: 30.65 m]]>
</cmt>
<sym>TimeStamp</sym>
<type>T</type>
<fix>3d</fix>
</trkpt>
<trkpt lat="50.43124090" lon="9.58642693" >
<ele>292.669</ele>
<time>2010-10-09T10:18:13Z</time>
<speed>3.1166</speed>
<name>trkpt-2010-10-09T10:18:13Z</name>
<cmt>
<![CDATA[TIME: 09-OCT-10 10:18:13<br>RCR: T <b>(TimeStamp)</b>
<br>VALID: SPS<br>LATITUDE: 50.431241 N<br>LONGITUDE: 9.586427 E<br>HEIGHT: 292.669 m<br>SPEED: 11.220 km/h<br>DISTANCE: 26.17 m]]>
</cmt>
<sym>TimeStamp</sym>
<type>T</type>
<fix>3d</fix>
</trkpt>
<trkpt lat="50.43145182" lon="9.58683404" >
<ele>296.277</ele>
<time>2010-10-09T10:18:23Z</time>
<speed>3.8167</speed>
<name>trkpt-2010-10-09T10:18:23Z</name>
<cmt>
<![CDATA[TIME: 09-OCT-10 10:18:23<br>RCR: T <b>(TimeStamp)</b>
<br>VALID: SPS<br>LATITUDE: 50.431452 N<br>LONGITUDE: 9.586834 E<br>HEIGHT: 296.277 m<br>SPEED: 13.740 km/h<br>DISTANCE: 37.42 m]]>
</cmt>
<sym>TimeStamp</sym>
<type>T</type>
<fix>3d</fix>
</trkpt>
<trkpt lat="50.43172417" lon="9.58731378" >
<ele>298.474</ele>
<time>2010-10-09T10:18:33Z</time>
<speed>4.2294</speed>
<name>trkpt-2010-10-09T10:18:33Z</name>
<cmt>
<![CDATA[TIME: 09-OCT-10 10:18:33<br>RCR: T <b>(TimeStamp)</b>
<br>VALID: SPS<br>LATITUDE: 50.431724 N<br>LONGITUDE: 9.587314 E<br>HEIGHT: 298.474 m<br>SPEED: 15.226 km/h<br>DISTANCE: 45.66 m]]>
</cmt>
<sym>TimeStamp</sym>
<type>T</type>
<fix>3d</fix>
</trkpt>
<trkpt lat="50.43208108" lon="9.58786365" >
<ele>304.410</ele>
<time>2010-10-09T10:18:43Z</time>
<speed>5.6707</speed>
<name>trkpt-2010-10-09T10:18:43Z</name>
<cmt>
<![CDATA[TIME: 09-OCT-10 10:18:43<br>RCR: T <b>(TimeStamp)</b>
<br>VALID: SPS<br>LATITUDE: 50.432081 N<br>LONGITUDE: 9.587864 E<br>HEIGHT: 304.410 m<br>SPEED: 20.415 km/h<br>DISTANCE: 56.02 m]]>
</cmt>
<sym>TimeStamp</sym>
<type>T</type>
<fix>3d</fix>
</trkpt>
<trkpt lat="50.43245047" lon="9.58848861" >
<ele>306.821</ele>
<time>2010-10-09T10:18:53Z</time>
<speed>6.4825</speed>
<name>trkpt-2010-10-09T10:18:53Z</name>
<cmt>
<![CDATA[TIME: 09-OCT-10 10:18:53<br>RCR: T <b>(TimeStamp)</b>
<br>VALID: SPS<br>LATITUDE: 50.432450 N<br>LONGITUDE: 9.588489 E<br>HEIGHT: 306.821 m<br>SPEED: 23.337 km/h<br>DISTANCE: 60.55 m]]>
</cmt>
<sym>TimeStamp</sym>
<type>T</type>
<fix>3d</fix>
</trkpt>
<trkpt lat="50.43290489" lon="9.58928772" >
<ele>302.101</ele>
<time>2010-10-09T10:19:03Z</time>
<speed>8.9759</speed>
<name>trkpt-2010-10-09T10:19:03Z</name>
<cmt>
<![CDATA[TIME: 09-OCT-10 10:19:03<br>RCR: T <b>(TimeStamp)</b>
<br>VALID: SPS<br>LATITUDE: 50.432905 N<br>LONGITUDE: 9.589288 E<br>HEIGHT: 302.101 m<br>SPEED: 32.313 km/h<br>DISTANCE: 76.17 m]]>
</cmt>
<sym>TimeStamp</sym>
<type>T</type>
<fix>3d</fix>
</trkpt>
<trkpt lat="50.43356611" lon="9.59047179" >
<ele>295.174</ele>
<time>2010-10-09T10:19:13Z</time>
<speed>12.4082</speed>
<name>trkpt-2010-10-09T10:19:13Z</name>
<cmt>
<![CDATA[TIME: 09-OCT-10 10:19:13<br>RCR: T <b>(TimeStamp)</b>
<br>VALID: SPS<br>LATITUDE: 50.433566 N<br>LONGITUDE: 9.590472 E<br>HEIGHT: 295.174 m<br>SPEED: 44.670 km/h<br>DISTANCE: 111.97 m]]>
</cmt>
<sym>TimeStamp</sym>
<type>T</type>
<fix>3d</fix>
</trkpt>
<trkpt lat="50.43434939" lon="9.59169231" >
<ele>290.199</ele>
<time>2010-10-09T10:19:23Z</time>
<speed>11.5414</speed>
<name>trkpt-2010-10-09T10:19:23Z</name>
<cmt>
<![CDATA[TIME: 09-OCT-10 10:19:23<br>RCR: T <b>(TimeStamp)</b>
<br>VALID: SPS<br>LATITUDE: 50.434349 N<br>LONGITUDE: 9.591692 E<br>HEIGHT: 290.199 m<br>SPEED: 41.549 km/h<br>DISTANCE: 123.04 m]]>
</cmt>
<sym>TimeStamp</sym>
<type>T</type>
<fix>3d</fix>
</trkpt>
<trkpt lat="50.43508309" lon="9.59267263" >
<ele>284.046</ele>
<time>2010-10-09T10:19:33Z</time>
<speed>10.2562</speed>
<name>trkpt-2010-10-09T10:19:33Z</name>
<cmt>
<![CDATA[TIME: 09-OCT-10 10:19:33<br>RCR: T <b>(TimeStamp)</b>
<br>VALID: SPS<br>LATITUDE: 50.435083 N<br>LONGITUDE: 9.592673 E<br>HEIGHT: 284.046 m<br>SPEED: 36.922 km/h<br>DISTANCE: 107.48 m]]>
</cmt>
<sym>TimeStamp</sym>
<type>T</type>
<fix>3d</fix>
</trkpt>
<trkpt lat="50.43581749" lon="9.59357240" >
<ele>285.359</ele>
<time>2010-10-09T10:19:43Z</time>
<speed>9.4006</speed>
<name>trkpt-2010-10-09T10:19:43Z</name>
<cmt>
<![CDATA[TIME: 09-OCT-10 10:19:43<br>RCR: T <b>(TimeStamp)</b>
<br>VALID: SPS<br>LATITUDE: 50.435817 N<br>LONGITUDE: 9.593572 E<br>HEIGHT: 285.359 m<br>SPEED: 33.842 km/h<br>DISTANCE: 103.74 m]]>
</cmt>
<sym>TimeStamp</sym>
<type>T</type>
<fix>3d</fix>
</trkpt>
<trkpt lat="50.43646105" lon="9.59434503" >
<ele>285.182</ele>
<time>2010-10-09T10:19:53Z</time>
<speed>8.8452</speed>
<name>trkpt-2010-10-09T10:19:53Z</name>
<cmt>
<![CDATA[TIME: 09-OCT-10 10:19:53<br>RCR: T <b>(TimeStamp)</b>
<br>VALID: SPS<br>LATITUDE: 50.436461 N<br>LONGITUDE: 9.594345 E<br>HEIGHT: 285.182 m<br>SPEED: 31.843 km/h<br>DISTANCE: 90.22 m]]>
</cmt>
<sym>TimeStamp</sym>
<type>T</type>
<fix>3d</fix>
</trkpt>
<trkpt lat="50.43713370" lon="9.59516572" >
<ele>284.081</ele>
<time>2010-10-09T10:20:03Z</time>
<speed>10.3159</speed>
<name>trkpt-2010-10-09T10:20:03Z</name>
<cmt>
<![CDATA[TIME: 09-OCT-10 10:20:03<br>RCR: T <b>(TimeStamp)</b>
<br>VALID: SPS<br>LATITUDE: 50.437134 N<br>LONGITUDE: 9.595166 E<br>HEIGHT: 284.081 m<br>SPEED: 37.137 km/h<br>DISTANCE: 94.87 m]]>
</cmt>
<sym>TimeStamp</sym>
<type>T</type>
<fix>3d</fix>
</trkpt>
<trkpt lat="50.43787276" lon="9.59610040" >
<ele>280.331</ele>
<time>2010-10-09T10:20:13Z</time>
<speed>10.2354</speed>
<name>trkpt-2010-10-09T10:20:13Z</name>
<cmt>
<![CDATA[TIME: 09-OCT-10 10:20:13<br>RCR: T <b>(TimeStamp)</b>
<br>VALID: SPS<br>LATITUDE: 50.437873 N<br>LONGITUDE: 9.596100 E<br>HEIGHT: 280.331 m<br>SPEED: 36.847 km/h<br>DISTANCE: 105.75 m]]>
</cmt>
<sym>TimeStamp</sym>
<type>T</type>
<fix>3d</fix>
</trkpt>
<trkpt lat="50.43865851" lon="9.59683034" >
<ele>278.284</ele>
<time>2010-10-09T10:20:23Z</time>
<speed>9.7973</speed>
<name>trkpt-2010-10-09T10:20:23Z</name>
<cmt>
<![CDATA[TIME: 09-OCT-10 10:20:23<br>RCR: T <b>(TimeStamp)</b>
<br>VALID: SPS<br>LATITUDE: 50.438659 N<br>LONGITUDE: 9.596830 E<br>HEIGHT: 278.284 m<br>SPEED: 35.270 km/h<br>DISTANCE: 101.66 m]]>
</cmt>
<sym>TimeStamp</sym>
<type>T</type>
<fix>3d</fix>
</trkpt>
<trkpt lat="50.43941663" lon="9.59761430" >
<ele>275.933</ele>
<time>2010-10-09T10:20:33Z</time>
<speed>9.9942</speed>
<name>trkpt-2010-10-09T10:20:33Z</name>
<cmt>
<![CDATA[TIME: 09-OCT-10 10:20:33<br>RCR: T <b>(TimeStamp)</b>
<br>VALID: SPS<br>LATITUDE: 50.439417 N<br>LONGITUDE: 9.597614 E<br>HEIGHT: 275.933 m<br>SPEED: 35.979 km/h<br>DISTANCE: 101.09 m]]>
</cmt>
<sym>TimeStamp</sym>
<type>T</type>
<fix>3d</fix>
</trkpt>
<trkpt lat="50.44006832" lon="9.59837124" >
<ele>274.142</ele>
<time>2010-10-09T10:20:43Z</time>
<speed>8.5448</speed>
<name>trkpt-2010-10-09T10:20:43Z</name>
<cmt>
<![CDATA[TIME: 09-OCT-10 10:20:43<br>RCR: T <b>(TimeStamp)</b>
<br>VALID: SPS<br>LATITUDE: 50.440068 N<br>LONGITUDE: 9.598371 E<br>HEIGHT: 274.142 m<br>SPEED: 30.761 km/h<br>DISTANCE: 90.28 m]]>
</cmt>
<sym>TimeStamp</sym>
<type>T</type>
<fix>3d</fix>
</trkpt>
<trkpt lat="50.44066456" lon="9.59897583" >
<ele>274.972</ele>
<time>2010-10-09T10:20:53Z</time>
<speed>7.2452</speed>
<name>trkpt-2010-10-09T10:20:53Z</name>
<cmt>
<![CDATA[TIME: 09-OCT-10 10:20:53<br>RCR: T <b>(TimeStamp)</b>
<br>VALID: SPS<br>LATITUDE: 50.440665 N<br>LONGITUDE: 9.598976 E<br>HEIGHT: 274.972 m<br>SPEED: 26.083 km/h<br>DISTANCE: 79.02 m]]>
</cmt>
<sym>TimeStamp</sym>
<type>T</type>
<fix>3d</fix>
</trkpt>
<trkpt lat="50.44115319" lon="9.59945998" >
<ele>275.349</ele>
<time>2010-10-09T10:21:03Z</time>
<speed>5.5049</speed>
<name>trkpt-2010-10-09T10:21:03Z</name>
<cmt>
<![CDATA[TIME: 09-OCT-10 10:21:03<br>RCR: T <b>(TimeStamp)</b>
<br>VALID: SPS<br>LATITUDE: 50.441153 N<br>LONGITUDE: 9.599460 E<br>HEIGHT: 275.349 m<br>SPEED: 19.818 km/h<br>DISTANCE: 64.32 m]]>
</cmt>
<sym>TimeStamp</sym>
<type>T</type>
<fix>3d</fix>
</trkpt>
<trkpt lat="50.44154037" lon="9.59984848" >
<ele>277.525</ele>
<time>2010-10-09T10:21:13Z</time>
<speed>4.6496</speed>
<name>trkpt-2010-10-09T10:21:13Z</name>
<cmt>
<![CDATA[TIME: 09-OCT-10 10:21:13<br>RCR: T <b>(TimeStamp)</b>
<br>VALID: SPS<br>LATITUDE: 50.441540 N<br>LONGITUDE: 9.599848 E<br>HEIGHT: 277.525 m<br>SPEED: 16.738 km/h<br>DISTANCE: 51.20 m]]>
</cmt>
<sym>TimeStamp</sym>
<type>T</type>
<fix>3d</fix>
</trkpt>
<trkpt lat="50.44183888" lon="9.60019343" >
<ele>280.803</ele>
<time>2010-10-09T10:21:23Z</time>
<speed>3.5141</speed>
<name>trkpt-2010-10-09T10:21:23Z</name>
<cmt>
<![CDATA[TIME: 09-OCT-10 10:21:23<br>RCR: T <b>(TimeStamp)</b>
<br>VALID: SPS<br>LATITUDE: 50.441839 N<br>LONGITUDE: 9.600193 E<br>HEIGHT: 280.803 m<br>SPEED: 12.651 km/h<br>DISTANCE: 41.40 m]]>
</cmt>
<sym>TimeStamp</sym>
<type>T</type>
<fix>3d</fix>
</trkpt>
<trkpt lat="50.44213948" lon="9.60055100" >
<ele>281.260</ele>
<time>2010-10-09T10:21:33Z</time>
<speed>4.5201</speed>
<name>trkpt-2010-10-09T10:21:33Z</name>
<cmt>
<![CDATA[TIME: 09-OCT-10 10:21:33<br>RCR: T <b>(TimeStamp)</b>
<br>VALID: SPS<br>LATITUDE: 50.442139 N<br>LONGITUDE: 9.600551 E<br>HEIGHT: 281.260 m<br>SPEED: 16.272 km/h<br>DISTANCE: 42.00 m]]>
</cmt>
<sym>TimeStamp</sym>
<type>T</type>
<fix>3d</fix>
</trkpt>
<trkpt lat="50.44241810" lon="9.60102687" >
<ele>283.260</ele>
<time>2010-10-09T10:21:43Z</time>
<speed>4.0479</speed>
<name>trkpt-2010-10-09T10:21:43Z</name>
<cmt>
<![CDATA[TIME: 09-OCT-10 10:21:43<br>RCR: T <b>(TimeStamp)</b>
<br>VALID: SPS<br>LATITUDE: 50.442418 N<br>LONGITUDE: 9.601027 E<br>HEIGHT: 283.260 m<br>SPEED: 14.572 km/h<br>DISTANCE: 45.91 m]]>
</cmt>
<sym>TimeStamp</sym>
<type>T</type>
<fix>3d</fix>
</trkpt>
<trkpt lat="50.44282452" lon="9.60154041" >
<ele>279.877</ele>
<time>2010-10-09T10:21:53Z</time>
<speed>6.6337</speed>
<name>trkpt-2010-10-09T10:21:53Z</name>
<cmt>
<![CDATA[TIME: 09-OCT-10 10:21:53<br>RCR: T <b>(TimeStamp)</b>
<br>VALID: SPS<br>LATITUDE: 50.442825 N<br>LONGITUDE: 9.601540 E<br>HEIGHT: 279.877 m<br>SPEED: 23.881 km/h<br>DISTANCE: 58.19 m]]>
</cmt>
<sym>TimeStamp</sym>
<type>T</type>
<fix>3d</fix>
</trkpt>
<trkpt lat="50.44323018" lon="9.60216245" >
<ele>280.884</ele>
<time>2010-10-09T10:22:03Z</time>
<speed>5.7131</speed>
<name>trkpt-2010-10-09T10:22:03Z</name>
<cmt>
<![CDATA[TIME: 09-OCT-10 10:22:03<br>RCR: T <b>(TimeStamp)</b>
<br>VALID: SPS<br>LATITUDE: 50.443230 N<br>LONGITUDE: 9.602162 E<br>HEIGHT: 280.884 m<br>SPEED: 20.567 km/h<br>DISTANCE: 63.17 m]]>
</cmt>
<sym>TimeStamp</sym>
<type>T</type>
<fix>3d</fix>
</trkpt>
<trkpt lat="50.44363188" lon="9.60287219" >
<ele>286.823</ele>
<time>2010-10-09T10:22:13Z</time>
<speed>5.9542</speed>
<name>trkpt-2010-10-09T10:22:13Z</name>
<cmt>
<![CDATA[TIME: 09-OCT-10 10:22:13<br>RCR: T <b>(TimeStamp)</b>
<br>VALID: SPS<br>LATITUDE: 50.443632 N<br>LONGITUDE: 9.602872 E<br>HEIGHT: 286.823 m<br>SPEED: 21.435 km/h<br>DISTANCE: 67.63 m]]>
</cmt>
<sym>TimeStamp</sym>
<type>T</type>
<fix>3d</fix>
</trkpt>
<trkpt lat="50.44399136" lon="9.60355127" >
<ele>289.621</ele>
<time>2010-10-09T10:22:23Z</time>
<speed>5.9078</speed>
<name>trkpt-2010-10-09T10:22:23Z</name>
<cmt>
<![CDATA[TIME: 09-OCT-10 10:22:23<br>RCR: T <b>(TimeStamp)</b>
<br>VALID: SPS<br>LATITUDE: 50.443991 N<br>LONGITUDE: 9.603551 E<br>HEIGHT: 289.621 m<br>SPEED: 21.268 km/h<br>DISTANCE: 62.72 m]]>
</cmt>
<sym>TimeStamp</sym>
<type>T</type>
<fix>3d</fix>
</trkpt>
<trkpt lat="50.44429389" lon="9.60422953" >
<ele>287.854</ele>
<time>2010-10-09T10:22:33Z</time>
<speed>5.5934</speed>
<name>trkpt-2010-10-09T10:22:33Z</name>
<cmt>
<![CDATA[TIME: 09-OCT-10 10:22:33<br>RCR: T <b>(TimeStamp)</b>
<br>VALID: SPS<br>LATITUDE: 50.444294 N<br>LONGITUDE: 9.604230 E<br>HEIGHT: 287.854 m<br>SPEED: 20.136 km/h<br>DISTANCE: 58.80 m]]>
</cmt>
<sym>TimeStamp</sym>
<type>T</type>
<fix>3d</fix>
</trkpt>
<trkpt lat="50.44441645" lon="9.60463161" >
<ele>290.348</ele>
<time>2010-10-09T10:22:43Z</time>
<speed>0.1669</speed>
<name>trkpt-2010-10-09T10:22:43Z</name>
<cmt>
<![CDATA[TIME: 09-OCT-10 10:22:43<br>RCR: T <b>(TimeStamp)</b>
<br>VALID: SPS<br>LATITUDE: 50.444416 N<br>LONGITUDE: 9.604632 E<br>HEIGHT: 290.348 m<br>SPEED: 0.601 km/h<br>DISTANCE: 31.75 m]]>
</cmt>
<sym>TimeStamp</sym>
<type>T</type>
<fix>3d</fix>
</trkpt>
<trkpt lat="50.44442457" lon="9.60463278" >
<ele>290.772</ele>
<time>2010-10-09T10:22:53Z</time>
<speed>0.0256</speed>
<name>trkpt-2010-10-09T10:22:53Z</name>
<cmt>
<![CDATA[TIME: 09-OCT-10 10:22:53<br>RCR: T <b>(TimeStamp)</b>
<br>VALID: SPS<br>LATITUDE: 50.444425 N<br>LONGITUDE: 9.604633 E<br>HEIGHT: 290.772 m<br>SPEED: 0.092 km/h<br>DISTANCE: 1.00 m]]>
</cmt>
<sym>TimeStamp</sym>
<type>T</type>
<fix>3d</fix>
</trkpt>
<trkpt lat="50.44442495" lon="9.60463356" >
<ele>290.625</ele>
<time>2010-10-09T10:23:03Z</time>
<speed>0.0567</speed>
<name>trkpt-2010-10-09T10:23:03Z</name>
<cmt>
<![CDATA[TIME: 09-OCT-10 10:23:03<br>RCR: T <b>(TimeStamp)</b>
<br>VALID: SPS<br>LATITUDE: 50.444425 N<br>LONGITUDE: 9.604634 E<br>HEIGHT: 290.625 m<br>SPEED: 0.204 km/h<br>DISTANCE: 0.16 m]]>
</cmt>
<sym>TimeStamp</sym>
<type>T</type>
<fix>3d</fix>
</trkpt>
<trkpt lat="50.44442464" lon="9.60463387" >
<ele>290.693</ele>
<time>2010-10-09T10:23:13Z</time>
<speed>0.0010</speed>
<name>trkpt-2010-10-09T10:23:13Z</name>
<cmt>
<![CDATA[TIME: 09-OCT-10 10:23:13<br>RCR: T <b>(TimeStamp)</b>
<br>VALID: SPS<br>LATITUDE: 50.444425 N<br>LONGITUDE: 9.604634 E<br>HEIGHT: 290.693 m<br>SPEED: 0.004 km/h<br>DISTANCE: 0.08 m]]>
</cmt>
<sym>TimeStamp</sym>
<type>T</type>
<fix>3d</fix>
</trkpt>
<trkpt lat="50.44442412" lon="9.60463407" >
<ele>290.717</ele>
<time>2010-10-09T10:23:23Z</time>
<speed>0.0023</speed>
<name>trkpt-2010-10-09T10:23:23Z</name>
<cmt>
<![CDATA[TIME: 09-OCT-10 10:23:23<br>RCR: T <b>(TimeStamp)</b>
<br>VALID: SPS<br>LATITUDE: 50.444424 N<br>LONGITUDE: 9.604634 E<br>HEIGHT: 290.717 m<br>SPEED: 0.008 km/h<br>DISTANCE: 0.06 m]]>
</cmt>
<sym>TimeStamp</sym>
<type>T</type>
<fix>3d</fix>
</trkpt>
<trkpt lat="50.44442282" lon="9.60463469" >
<ele>290.639</ele>
<time>2010-10-09T10:23:33Z</time>
<speed>0.0031</speed>
<name>trkpt-2010-10-09T10:23:33Z</name>
<cmt>
<![CDATA[TIME: 09-OCT-10 10:23:33<br>RCR: T <b>(TimeStamp)</b>
<br>VALID: SPS<br>LATITUDE: 50.444423 N<br>LONGITUDE: 9.604635 E<br>HEIGHT: 290.639 m<br>SPEED: 0.011 km/h<br>DISTANCE: 0.17 m]]>
</cmt>
<sym>TimeStamp</sym>
<type>T</type>
<fix>3d</fix>
</trkpt>
<trkpt lat="50.44442094" lon="9.60463521" >
<ele>290.609</ele>
<time>2010-10-09T10:23:43Z</time>
<speed>0.0024</speed>
<name>trkpt-2010-10-09T10:23:43Z</name>
<cmt>
<![CDATA[TIME: 09-OCT-10 10:23:43<br>RCR: T <b>(TimeStamp)</b>
<br>VALID: SPS<br>LATITUDE: 50.444421 N<br>LONGITUDE: 9.604635 E<br>HEIGHT: 290.609 m<br>SPEED: 0.009 km/h<br>DISTANCE: 0.21 m]]>
</cmt>
<sym>TimeStamp</sym>
<type>T</type>
<fix>3d</fix>
</trkpt>
<trkpt lat="50.44441914" lon="9.60463555" >
<ele>290.668</ele>
<time>2010-10-09T10:23:53Z</time>
<speed>0.0038</speed>
<name>trkpt-2010-10-09T10:23:53Z</name>
<cmt>
<![CDATA[TIME: 09-OCT-10 10:23:53<br>RCR: T <b>(TimeStamp)</b>
<br>VALID: SPS<br>LATITUDE: 50.444419 N<br>LONGITUDE: 9.604636 E<br>HEIGHT: 290.668 m<br>SPEED: 0.014 km/h<br>DISTANCE: 0.21 m]]>
</cmt>
<sym>TimeStamp</sym>
<type>T</type>
<fix>3d</fix>
</trkpt>
<trkpt lat="50.44445157" lon="9.60476951" >
<ele>289.543</ele>
<time>2010-10-09T10:24:03Z</time>
<speed>2.4102</speed>
<name>trkpt-2010-10-09T10:24:03Z</name>
<cmt>
<![CDATA[TIME: 09-OCT-10 10:24:03<br>RCR: T <b>(TimeStamp)</b>
<br>VALID: SPS<br>LATITUDE: 50.444452 N<br>LONGITUDE: 9.604770 E<br>HEIGHT: 289.543 m<br>SPEED: 8.677 km/h<br>DISTANCE: 10.24 m]]>
</cmt>
<sym>TimeStamp</sym>
<type>T</type>
<fix>3d</fix>
</trkpt>
<trkpt lat="50.44453514" lon="9.60514698" >
<ele>285.318</ele>
<time>2010-10-09T10:24:13Z</time>
<speed>2.4032</speed>
<name>trkpt-2010-10-09T10:24:13Z</name>
<cmt>
<![CDATA[TIME: 09-OCT-10 10:24:13<br>RCR: T <b>(TimeStamp)</b>
<br>VALID: SPS<br>LATITUDE: 50.444535 N<br>LONGITUDE: 9.605147 E<br>HEIGHT: 285.318 m<br>SPEED: 8.651 km/h<br>DISTANCE: 28.69 m]]>
</cmt>
<sym>TimeStamp</sym>
<type>T</type>
<fix>3d</fix>
</trkpt>
<trkpt lat="50.44460029" lon="9.60567735" >
<ele>282.362</ele>
<time>2010-10-09T10:24:23Z</time>
<speed>3.8689</speed>
<name>trkpt-2010-10-09T10:24:23Z</name>
<cmt>
<![CDATA[TIME: 09-OCT-10 10:24:23<br>RCR: T <b>(TimeStamp)</b>
<br>VALID: SPS<br>LATITUDE: 50.444600 N<br>LONGITUDE: 9.605677 E<br>HEIGHT: 282.362 m<br>SPEED: 13.928 km/h<br>DISTANCE: 38.48 m]]>
</cmt>
<sym>TimeStamp</sym>
<type>T</type>
<fix>3d</fix>
</trkpt>
<trkpt lat="50.44480878" lon="9.60636167" >
<ele>278.957</ele>
<time>2010-10-09T10:24:33Z</time>
<speed>6.2411</speed>
<name>trkpt-2010-10-09T10:24:33Z</name>
<cmt>
<![CDATA[TIME: 09-OCT-10 10:24:33<br>RCR: T <b>(TimeStamp)</b>
<br>VALID: SPS<br>LATITUDE: 50.444809 N<br>LONGITUDE: 9.606362 E<br>HEIGHT: 278.957 m<br>SPEED: 22.468 km/h<br>DISTANCE: 53.97 m]]>
</cmt>
<sym>TimeStamp</sym>
<type>T</type>
<fix>3d</fix>
</trkpt>
<trkpt lat="50.44510955" lon="9.60717421" >
<ele>276.698</ele>
<time>2010-10-09T10:24:43Z</time>
<speed>6.5629</speed>
<name>trkpt-2010-10-09T10:24:43Z</name>
<cmt>
<![CDATA[TIME: 09-OCT-10 10:24:43<br>RCR: T <b>(TimeStamp)</b>
<br>VALID: SPS<br>LATITUDE: 50.445110 N<br>LONGITUDE: 9.607174 E<br>HEIGHT: 276.698 m<br>SPEED: 23.626 km/h<br>DISTANCE: 66.75 m]]>
</cmt>
<sym>TimeStamp</sym>
<type>T</type>
<fix>3d</fix>
</trkpt>
<trkpt lat="50.44564258" lon="9.60803518" >
<ele>281.553</ele>
<time>2010-10-09T10:24:53Z</time>
<speed>7.3007</speed>
<name>trkpt-2010-10-09T10:24:53Z</name>
<cmt>
<![CDATA[TIME: 09-OCT-10 10:24:53<br>RCR: T <b>(TimeStamp)</b>
<br>VALID: SPS<br>LATITUDE: 50.445643 N<br>LONGITUDE: 9.608035 E<br>HEIGHT: 281.553 m<br>SPEED: 26.282 km/h<br>DISTANCE: 85.32 m]]>
</cmt>
<sym>TimeStamp</sym>
<type>T</type>
<fix>3d</fix>
</trkpt>
<trkpt lat="50.44624635" lon="9.60862883" >
<ele>283.219</ele>
<time>2010-10-09T10:25:03Z</time>
<speed>7.1743</speed>
<name>trkpt-2010-10-09T10:25:03Z</name>
<cmt>
<![CDATA[TIME: 09-OCT-10 10:25:03<br>RCR: T <b>(TimeStamp)</b>
<br>VALID: SPS<br>LATITUDE: 50.446246 N<br>LONGITUDE: 9.608629 E<br>HEIGHT: 283.219 m<br>SPEED: 25.828 km/h<br>DISTANCE: 79.32 m]]>
</cmt>
<sym>TimeStamp</sym>
<type>T</type>
<fix>3d</fix>
</trkpt>
<trkpt lat="50.44677664" lon="9.60916638" >
<ele>283.959</ele>
<time>2010-10-09T10:25:13Z</time>
<speed>6.5047</speed>
<name>trkpt-2010-10-09T10:25:13Z</name>
<cmt>
<![CDATA[TIME: 09-OCT-10 10:25:13<br>RCR: T <b>(TimeStamp)</b>
<br>VALID: SPS<br>LATITUDE: 50.446777 N<br>LONGITUDE: 9.609166 E<br>HEIGHT: 283.959 m<br>SPEED: 23.417 km/h<br>DISTANCE: 70.28 m]]>
</cmt>
<sym>TimeStamp</sym>
<type>T</type>
<fix>3d</fix>
</trkpt>
<trkpt lat="50.44708152" lon="9.60978256" >
<ele>285.690</ele>
<time>2010-10-09T10:25:23Z</time>
<speed>5.1710</speed>
<name>trkpt-2010-10-09T10:25:23Z</name>
<cmt>
<![CDATA[TIME: 09-OCT-10 10:25:23<br>RCR: T <b>(TimeStamp)</b>
<br>VALID: SPS<br>LATITUDE: 50.447082 N<br>LONGITUDE: 9.609783 E<br>HEIGHT: 285.690 m<br>SPEED: 18.616 km/h<br>DISTANCE: 55.40 m]]>
</cmt>
<sym>TimeStamp</sym>
<type>T</type>
<fix>3d</fix>
</trkpt>
<trkpt lat="50.44687148" lon="9.61058944" >
<ele>285.389</ele>
<time>2010-10-09T10:25:33Z</time>
<speed>5.7305</speed>
<name>trkpt-2010-10-09T10:25:33Z</name>
<cmt>
<![CDATA[TIME: 09-OCT-10 10:25:33<br>RCR: T <b>(TimeStamp)</b>
<br>VALID: SPS<br>LATITUDE: 50.446871 N<br>LONGITUDE: 9.610589 E<br>HEIGHT: 285.389 m<br>SPEED: 20.630 km/h<br>DISTANCE: 61.90 m]]>
</cmt>
<sym>TimeStamp</sym>
<type>T</type>
<fix>3d</fix>
</trkpt>
<trkpt lat="50.44669975" lon="9.61135592" >
<ele>283.085</ele>
<time>2010-10-09T10:25:43Z</time>
<speed>6.0002</speed>
<name>trkpt-2010-10-09T10:25:43Z</name>
<cmt>
<![CDATA[TIME: 09-OCT-10 10:25:43<br>RCR: T <b>(TimeStamp)</b>
<br>VALID: SPS<br>LATITUDE: 50.446700 N<br>LONGITUDE: 9.611356 E<br>HEIGHT: 283.085 m<br>SPEED: 21.601 km/h<br>DISTANCE: 57.75 m]]>
</cmt>
<sym>TimeStamp</sym>
<type>T</type>
<fix>3d</fix>
</trkpt>
<trkpt lat="50.44634359" lon="9.61205056" >
<ele>282.338</ele>
<time>2010-10-09T10:25:53Z</time>
<speed>6.9468</speed>
<name>trkpt-2010-10-09T10:25:53Z</name>
<cmt>
<![CDATA[TIME: 09-OCT-10 10:25:53<br>RCR: T <b>(TimeStamp)</b>
<br>VALID: SPS<br>LATITUDE: 50.446344 N<br>LONGITUDE: 9.612051 E<br>HEIGHT: 282.338 m<br>SPEED: 25.008 km/h<br>DISTANCE: 63.29 m]]>
</cmt>
<sym>TimeStamp</sym>
<type>T</type>
<fix>3d</fix>
</trkpt>
<trkpt lat="50.44681013" lon="9.61318224" >
<ele>274.735</ele>
<time>2010-10-09T10:26:03Z</time>
<speed>11.2593</speed>
<name>trkpt-2010-10-09T10:26:03Z</name>
<cmt>
<![CDATA[TIME: 09-OCT-10 10:26:03<br>RCR: T <b>(TimeStamp)</b>
<br>VALID: SPS<br>LATITUDE: 50.446810 N<br>LONGITUDE: 9.613182 E<br>HEIGHT: 274.735 m<br>SPEED: 40.534 km/h<br>DISTANCE: 95.99 m]]>
</cmt>
<sym>TimeStamp</sym>
<type>T</type>
<fix>3d</fix>
</trkpt>
<trkpt lat="50.44762524" lon="9.61420272" >
<ele>269.304</ele>
<time>2010-10-09T10:26:13Z</time>
<speed>11.4593</speed>
<name>trkpt-2010-10-09T10:26:13Z</name>
<cmt>
<![CDATA[TIME: 09-OCT-10 10:26:13<br>RCR: T <b>(TimeStamp)</b>
<br>VALID: SPS<br>LATITUDE: 50.447625 N<br>LONGITUDE: 9.614203 E<br>HEIGHT: 269.304 m<br>SPEED: 41.253 km/h<br>DISTANCE: 116.22 m]]>
</cmt>
<sym>TimeStamp</sym>
<type>T</type>
<fix>3d</fix>
</trkpt>
<trkpt lat="50.44846510" lon="9.61490370" >
<ele>266.128</ele>
<time>2010-10-09T10:26:23Z</time>
<speed>9.7404</speed>
<name>trkpt-2010-10-09T10:26:23Z</name>
<cmt>
<![CDATA[TIME: 09-OCT-10 10:26:23<br>RCR: T <b>(TimeStamp)</b>
<br>VALID: SPS<br>LATITUDE: 50.448465 N<br>LONGITUDE: 9.614904 E<br>HEIGHT: 266.128 m<br>SPEED: 35.065 km/h<br>DISTANCE: 105.92 m]]>
</cmt>
<sym>TimeStamp</sym>
<type>T</type>
<fix>3d</fix>
</trkpt>
<trkpt lat="50.44922495" lon="9.61538349" >
<ele>265.220</ele>
<time>2010-10-09T10:26:33Z</time>
<speed>8.6308</speed>
<name>trkpt-2010-10-09T10:26:33Z</name>
<cmt>
<![CDATA[TIME: 09-OCT-10 10:26:33<br>RCR: T <b>(TimeStamp)</b>
<br>VALID: SPS<br>LATITUDE: 50.449225 N<br>LONGITUDE: 9.615383 E<br>HEIGHT: 265.220 m<br>SPEED: 31.071 km/h<br>DISTANCE: 91.14 m]]>
</cmt>
<sym>TimeStamp</sym>
<type>T</type>
<fix>3d</fix>
</trkpt>
<trkpt lat="50.44985744" lon="9.61574550" >
<ele>266.003</ele>
<time>2010-10-09T10:26:43Z</time>
<speed>5.9585</speed>
<name>trkpt-2010-10-09T10:26:43Z</name>
<cmt>
<![CDATA[TIME: 09-OCT-10 10:26:43<br>RCR: T <b>(TimeStamp)</b>
<br>VALID: SPS<br>LATITUDE: 50.449857 N<br>LONGITUDE: 9.615745 E<br>HEIGHT: 266.003 m<br>SPEED: 21.450 km/h<br>DISTANCE: 74.92 m]]>
</cmt>
<sym>TimeStamp</sym>
<type>T</type>
<fix>3d</fix>
</trkpt>
<trkpt lat="50.45038396" lon="9.61561723" >
<ele>267.793</ele>
<time>2010-10-09T10:26:53Z</time>
<speed>4.4534</speed>
<name>trkpt-2010-10-09T10:26:53Z</name>
<cmt>
<![CDATA[TIME: 09-OCT-10 10:26:53<br>RCR: T <b>(TimeStamp)</b>
<br>VALID: SPS<br>LATITUDE: 50.450384 N<br>LONGITUDE: 9.615617 E<br>HEIGHT: 267.793 m<br>SPEED: 16.032 km/h<br>DISTANCE: 59.30 m]]>
</cmt>
<sym>TimeStamp</sym>
<type>T</type>
<fix>3d</fix>
</trkpt>
<trkpt lat="50.45062885" lon="9.61520206" >
<ele>274.481</ele>
<time>2010-10-09T10:27:03Z</time>
<speed>3.0394</speed>
<name>trkpt-2010-10-09T10:27:03Z</name>
<cmt>
<![CDATA[TIME: 09-OCT-10 10:27:03<br>RCR: T <b>(TimeStamp)</b>
<br>VALID: SPS<br>LATITUDE: 50.450629 N<br>LONGITUDE: 9.615202 E<br>HEIGHT: 274.481 m<br>SPEED: 10.942 km/h<br>DISTANCE: 40.70 m]]>
</cmt>
<sym>TimeStamp</sym>
<type>T</type>
<fix>3d</fix>
</trkpt>
<trkpt lat="50.45085440" lon="9.61485904" >
<ele>278.757</ele>
<time>2010-10-09T10:27:13Z</time>
<speed>3.6958</speed>
<name>trkpt-2010-10-09T10:27:13Z</name>
<cmt>
<![CDATA[TIME: 09-OCT-10 10:27:13<br>RCR: T <b>(TimeStamp)</b>
<br>VALID: SPS<br>LATITUDE: 50.450854 N<br>LONGITUDE: 9.614859 E<br>HEIGHT: 278.757 m<br>SPEED: 13.305 km/h<br>DISTANCE: 35.23 m]]>
</cmt>
<sym>TimeStamp</sym>
<type>T</type>
<fix>3d</fix>
</trkpt>
<trkpt lat="50.45120300" lon="9.61457206" >
<ele>279.091</ele>
<time>2010-10-09T10:27:23Z</time>
<speed>4.1237</speed>
<name>trkpt-2010-10-09T10:27:23Z</name>
<cmt>
<![CDATA[TIME: 09-OCT-10 10:27:23<br>RCR: T <b>(TimeStamp)</b>
<br>VALID: SPS<br>LATITUDE: 50.451203 N<br>LONGITUDE: 9.614572 E<br>HEIGHT: 279.091 m<br>SPEED: 14.845 km/h<br>DISTANCE: 43.81 m]]>
</cmt>
<sym>TimeStamp</sym>
<type>T</type>
<fix>3d</fix>
</trkpt>
<trkpt lat="50.45160791" lon="9.61500786" >
<ele>274.196</ele>
<time>2010-10-09T10:27:33Z</time>
<speed>6.3746</speed>
<name>trkpt-2010-10-09T10:27:33Z</name>
<cmt>
<![CDATA[TIME: 09-OCT-10 10:27:33<br>RCR: T <b>(TimeStamp)</b>
<br>VALID: SPS<br>LATITUDE: 50.451608 N<br>LONGITUDE: 9.615008 E<br>HEIGHT: 274.196 m<br>SPEED: 22.949 km/h<br>DISTANCE: 54.87 m]]>
</cmt>
<sym>TimeStamp</sym>
<type>T</type>
<fix>3d</fix>
</trkpt>
<trkpt lat="50.45189137" lon="9.61583134" >
<ele>265.926</ele>
<time>2010-10-09T10:27:43Z</time>
<speed>6.6258</speed>
<name>trkpt-2010-10-09T10:27:43Z</name>
<cmt>
<![CDATA[TIME: 09-OCT-10 10:27:43<br>RCR: T <b>(TimeStamp)</b>
<br>VALID: SPS<br>LATITUDE: 50.451891 N<br>LONGITUDE: 9.615831 E<br>HEIGHT: 265.926 m<br>SPEED: 23.853 km/h<br>DISTANCE: 66.96 m]]>
</cmt>
<sym>TimeStamp</sym>
<type>T</type>
<fix>3d</fix>
</trkpt>
<trkpt lat="50.45216706" lon="9.61658521" >
<ele>260.448</ele>
<time>2010-10-09T10:27:53Z</time>
<speed>5.9538</speed>
<name>trkpt-2010-10-09T10:27:53Z</name>
<cmt>
<![CDATA[TIME: 09-OCT-10 10:27:53<br>RCR: T <b>(TimeStamp)</b>
<br>VALID: SPS<br>LATITUDE: 50.452167 N<br>LONGITUDE: 9.616585 E<br>HEIGHT: 260.448 m<br>SPEED: 21.434 km/h<br>DISTANCE: 61.95 m]]>
</cmt>
<sym>TimeStamp</sym>
<type>T</type>
<fix>3d</fix>
</trkpt>
<trkpt lat="50.45221454" lon="9.61716375" >
<ele>259.046</ele>
<time>2010-10-09T10:28:03Z</time>
<speed>3.9675</speed>
<name>trkpt-2010-10-09T10:28:03Z</name>
<cmt>
<![CDATA[TIME: 09-OCT-10 10:28:03<br>RCR: T <b>(TimeStamp)</b>
<br>VALID: SPS<br>LATITUDE: 50.452215 N<br>LONGITUDE: 9.617164 E<br>HEIGHT: 259.046 m<br>SPEED: 14.283 km/h<br>DISTANCE: 41.45 m]]>
</cmt>
<sym>TimeStamp</sym>
<type>T</type>
<fix>3d</fix>
</trkpt>
<trkpt lat="50.45195162" lon="9.61759349" >
<ele>265.498</ele>
<time>2010-10-09T10:28:13Z</time>
<speed>3.9131</speed>
<name>trkpt-2010-10-09T10:28:13Z</name>
<cmt>
<![CDATA[TIME: 09-OCT-10 10:28:13<br>RCR: T <b>(TimeStamp)</b>
<br>VALID: SPS<br>LATITUDE: 50.451952 N<br>LONGITUDE: 9.617593 E<br>HEIGHT: 265.498 m<br>SPEED: 14.087 km/h<br>DISTANCE: 42.76 m]]>
</cmt>
<sym>TimeStamp</sym>
<type>T</type>
<fix>3d</fix>
</trkpt>
<trkpt lat="50.45177901" lon="9.61798549" >
<ele>269.716</ele>
<time>2010-10-09T10:28:23Z</time>
<speed>2.7346</speed>
<name>trkpt-2010-10-09T10:28:23Z</name>
<cmt>
<![CDATA[TIME: 09-OCT-10 10:28:23<br>RCR: T <b>(TimeStamp)</b>
<br>VALID: SPS<br>LATITUDE: 50.451779 N<br>LONGITUDE: 9.617985 E<br>HEIGHT: 269.716 m<br>SPEED: 9.845 km/h<br>DISTANCE: 34.08 m]]>
</cmt>
<sym>TimeStamp</sym>
<type>T</type>
<fix>3d</fix>
</trkpt>
<trkpt lat="50.45164080" lon="9.61834300" >
<ele>272.786</ele>
<time>2010-10-09T10:28:33Z</time>
<speed>3.0670</speed>
<name>trkpt-2010-10-09T10:28:33Z</name>
<cmt>
<![CDATA[TIME: 09-OCT-10 10:28:33<br>RCR: T <b>(TimeStamp)</b>
<br>VALID: SPS<br>LATITUDE: 50.451641 N<br>LONGITUDE: 9.618343 E<br>HEIGHT: 272.786 m<br>SPEED: 11.041 km/h<br>DISTANCE: 29.84 m]]>
</cmt>
<sym>TimeStamp</sym>
<type>T</type>
<fix>3d</fix>
</trkpt>
<trkpt lat="50.45150745" lon="9.61873725" >
<ele>274.186</ele>
<time>2010-10-09T10:28:43Z</time>
<speed>3.4538</speed>
<name>trkpt-2010-10-09T10:28:43Z</name>
<cmt>
<![CDATA[TIME: 09-OCT-10 10:28:43<br>RCR: T <b>(TimeStamp)</b>
<br>VALID: SPS<br>LATITUDE: 50.451507 N<br>LONGITUDE: 9.618737 E<br>HEIGHT: 274.186 m<br>SPEED: 12.434 km/h<br>DISTANCE: 31.72 m]]>
</cmt>
<sym>TimeStamp</sym>
<type>T</type>
<fix>3d</fix>
</trkpt>
<trkpt lat="50.45132610" lon="9.61925745" >
<ele>271.855</ele>
<time>2010-10-09T10:28:53Z</time>
<speed>5.8018</speed>
<name>trkpt-2010-10-09T10:28:53Z</name>
<cmt>
<![CDATA[TIME: 09-OCT-10 10:28:53<br>RCR: T <b>(TimeStamp)</b>
<br>VALID: SPS<br>LATITUDE: 50.451326 N<br>LONGITUDE: 9.619257 E<br>HEIGHT: 271.855 m<br>SPEED: 20.886 km/h<br>DISTANCE: 42.16 m]]>
</cmt>
<sym>TimeStamp</sym>
<type>T</type>
<fix>3d</fix>
</trkpt>
<trkpt lat="50.45103124" lon="9.62009987" >
<ele>269.157</ele>
<time>2010-10-09T10:29:03Z</time>
<speed>6.9858</speed>
<name>trkpt-2010-10-09T10:29:03Z</name>
<cmt>
<![CDATA[TIME: 09-OCT-10 10:29:03<br>RCR: T <b>(TimeStamp)</b>
<br>VALID: SPS<br>LATITUDE: 50.451031 N<br>LONGITUDE: 9.620100 E<br>HEIGHT: 269.157 m<br>SPEED: 25.149 km/h<br>DISTANCE: 68.29 m]]>
</cmt>
<sym>TimeStamp</sym>
<type>T</type>
<fix>3d</fix>
</trkpt>
<trkpt lat="50.45090827" lon="9.62092695" >
<ele>268.276</ele>
<time>2010-10-09T10:29:13Z</time>
<speed>7.2014</speed>
<name>trkpt-2010-10-09T10:29:13Z</name>
<cmt>
<![CDATA[TIME: 09-OCT-10 10:29:13<br>RCR: T <b>(TimeStamp)</b>
<br>VALID: SPS<br>LATITUDE: 50.450908 N<br>LONGITUDE: 9.620927 E<br>HEIGHT: 268.276 m<br>SPEED: 25.925 km/h<br>DISTANCE: 60.32 m]]>
</cmt>
<sym>TimeStamp</sym>
<type>T</type>
<fix>3d</fix>
</trkpt>
<trkpt lat="50.45145964" lon="9.62145394" >
<ele>267.087</ele>
<time>2010-10-09T10:29:23Z</time>
<speed>5.5096</speed>
<name>trkpt-2010-10-09T10:29:23Z</name>
<cmt>
<![CDATA[TIME: 09-OCT-10 10:29:23<br>RCR: T <b>(TimeStamp)</b>
<br>VALID: SPS<br>LATITUDE: 50.451460 N<br>LONGITUDE: 9.621454 E<br>HEIGHT: 267.087 m<br>SPEED: 19.835 km/h<br>DISTANCE: 71.87 m]]>
</cmt>
<sym>TimeStamp</sym>
<type>T</type>
<fix>3d</fix>
</trkpt>
<trkpt lat="50.45206930" lon="9.62190910" >
<ele>266.839</ele>
<time>2010-10-09T10:29:33Z</time>
<speed>4.9925</speed>
<name>trkpt-2010-10-09T10:29:33Z</name>
<cmt>
<![CDATA[TIME: 09-OCT-10 10:29:33<br>RCR: T <b>(TimeStamp)</b>
<br>VALID: SPS<br>LATITUDE: 50.452069 N<br>LONGITUDE: 9.621909 E<br>HEIGHT: 266.839 m<br>SPEED: 17.973 km/h<br>DISTANCE: 75.13 m]]>
</cmt>
<sym>TimeStamp</sym>
<type>T</type>
<fix>3d</fix>
</trkpt>
<trkpt lat="50.45243650" lon="9.62209064" >
<ele>271.581</ele>
<time>2010-10-09T10:29:43Z</time>
<speed>0.7113</speed>
<name>trkpt-2010-10-09T10:29:43Z</name>
<cmt>
<![CDATA[TIME: 09-OCT-10 10:29:43<br>RCR: T <b>(TimeStamp)</b>
<br>VALID: SPS<br>LATITUDE: 50.452436 N<br>LONGITUDE: 9.622091 E<br>HEIGHT: 271.581 m<br>SPEED: 2.561 km/h<br>DISTANCE: 43.10 m]]>
</cmt>
<sym>TimeStamp</sym>
<type>T</type>
<fix>3d</fix>
</trkpt>
<trkpt lat="50.45271158" lon="9.62225080" >
<ele>275.934</ele>
<time>2010-10-09T10:29:53Z</time>
<speed>3.0236</speed>
<name>trkpt-2010-10-09T10:29:53Z</name>
<cmt>
<![CDATA[TIME: 09-OCT-10 10:29:53<br>RCR: T <b>(TimeStamp)</b>
<br>VALID: SPS<br>LATITUDE: 50.452712 N<br>LONGITUDE: 9.622251 E<br>HEIGHT: 275.934 m<br>SPEED: 10.885 km/h<br>DISTANCE: 32.94 m]]>
</cmt>
<sym>TimeStamp</sym>
<type>T</type>
<fix>3d</fix>
</trkpt>
<trkpt lat="50.45301492" lon="9.62241562" >
<ele>277.521</ele>
<time>2010-10-09T10:30:03Z</time>
<speed>3.2211</speed>
<name>trkpt-2010-10-09T10:30:03Z</name>
<cmt>
<![CDATA[TIME: 09-OCT-10 10:30:03<br>RCR: T <b>(TimeStamp)</b>
<br>VALID: SPS<br>LATITUDE: 50.453015 N<br>LONGITUDE: 9.622416 E<br>HEIGHT: 277.521 m<br>SPEED: 11.596 km/h<br>DISTANCE: 35.75 m]]>
</cmt>
<sym>TimeStamp</sym>
<type>T</type>
<fix>3d</fix>
</trkpt>
<trkpt lat="50.45328768" lon="9.62257252" >
<ele>279.167</ele>
<time>2010-10-09T10:30:13Z</time>
<speed>3.2109</speed>
<name>trkpt-2010-10-09T10:30:13Z</name>
<cmt>
<![CDATA[TIME: 09-OCT-10 10:30:13<br>RCR: T <b>(TimeStamp)</b>
<br>VALID: SPS<br>LATITUDE: 50.453288 N<br>LONGITUDE: 9.622573 E<br>HEIGHT: 279.167 m<br>SPEED: 11.559 km/h<br>DISTANCE: 32.37 m]]>
</cmt>
<sym>TimeStamp</sym>
<type>T</type>
<fix>3d</fix>
</trkpt>
<trkpt lat="50.45356271" lon="9.62271714" >
<ele>281.181</ele>
<time>2010-10-09T10:30:23Z</time>
<speed>3.4036</speed>
<name>trkpt-2010-10-09T10:30:23Z</name>
<cmt>
<![CDATA[TIME: 09-OCT-10 10:30:23<br>RCR: T <b>(TimeStamp)</b>
<br>VALID: SPS<br>LATITUDE: 50.453563 N<br>LONGITUDE: 9.622717 E<br>HEIGHT: 281.181 m<br>SPEED: 12.253 km/h<br>DISTANCE: 32.34 m]]>
</cmt>
<sym>TimeStamp</sym>
<type>T</type>
<fix>3d</fix>
</trkpt>
<trkpt lat="50.45384001" lon="9.62283635" >
<ele>282.005</ele>
<time>2010-10-09T10:30:33Z</time>
<speed>2.6260</speed>
<name>trkpt-2010-10-09T10:30:33Z</name>
<cmt>
<![CDATA[TIME: 09-OCT-10 10:30:33<br>RCR: T <b>(TimeStamp)</b>
<br>VALID: SPS<br>LATITUDE: 50.453840 N<br>LONGITUDE: 9.622836 E<br>HEIGHT: 282.005 m<br>SPEED: 9.454 km/h<br>DISTANCE: 32.00 m]]>
</cmt>
<sym>TimeStamp</sym>
<type>T</type>
<fix>3d</fix>
</trkpt>
<trkpt lat="50.45408970" lon="9.62297964" >
<ele>284.273</ele>
<time>2010-10-09T10:30:43Z</time>
<speed>2.8431</speed>
<name>trkpt-2010-10-09T10:30:43Z</name>
<cmt>
<![CDATA[TIME: 09-OCT-10 10:30:43<br>RCR: T <b>(TimeStamp)</b>
<br>VALID: SPS<br>LATITUDE: 50.454090 N<br>LONGITUDE: 9.622980 E<br>HEIGHT: 284.273 m<br>SPEED: 10.235 km/h<br>DISTANCE: 29.67 m]]>
</cmt>
<sym>TimeStamp</sym>
<type>T</type>
<fix>3d</fix>
</trkpt>
<trkpt lat="50.45432249" lon="9.62307924" >
<ele>286.262</ele>
<time>2010-10-09T10:30:53Z</time>
<speed>2.6880</speed>
<name>trkpt-2010-10-09T10:30:53Z</name>
<cmt>
<![CDATA[TIME: 09-OCT-10 10:30:53<br>RCR: T <b>(TimeStamp)</b>
<br>VALID: SPS<br>LATITUDE: 50.454322 N<br>LONGITUDE: 9.623079 E<br>HEIGHT: 286.262 m<br>SPEED: 9.677 km/h<br>DISTANCE: 26.92 m]]>
</cmt>
<sym>TimeStamp</sym>
<type>T</type>
<fix>3d</fix>
</trkpt>
<trkpt lat="50.45453138" lon="9.62324590" >
<ele>284.125</ele>
<time>2010-10-09T10:31:03Z</time>
<speed>2.2444</speed>
<name>trkpt-2010-10-09T10:31:03Z</name>
<cmt>
<![CDATA[TIME: 09-OCT-10 10:31:03<br>RCR: T <b>(TimeStamp)</b>
<br>VALID: SPS<br>LATITUDE: 50.454531 N<br>LONGITUDE: 9.623246 E<br>HEIGHT: 284.125 m<br>SPEED: 8.080 km/h<br>DISTANCE: 26.17 m]]>
</cmt>
<sym>TimeStamp</sym>
<type>T</type>
<fix>3d</fix>
</trkpt>
<trkpt lat="50.45467059" lon="9.62349915" >
<ele>284.837</ele>
<time>2010-10-09T10:31:13Z</time>
<speed>2.3137</speed>
<name>trkpt-2010-10-09T10:31:13Z</name>
<cmt>
<![CDATA[TIME: 09-OCT-10 10:31:13<br>RCR: T <b>(TimeStamp)</b>
<br>VALID: SPS<br>LATITUDE: 50.454671 N<br>LONGITUDE: 9.623499 E<br>HEIGHT: 284.837 m<br>SPEED: 8.329 km/h<br>DISTANCE: 23.74 m]]>
</cmt>
<sym>TimeStamp</sym>
<type>T</type>
<fix>3d</fix>
</trkpt>
<trkpt lat="50.45477604" lon="9.62380064" >
<ele>280.226</ele>
<time>2010-10-09T10:31:23Z</time>
<speed>2.3678</speed>
<name>trkpt-2010-10-09T10:31:23Z</name>
<cmt>
<![CDATA[TIME: 09-OCT-10 10:31:23<br>RCR: T <b>(TimeStamp)</b>
<br>VALID: SPS<br>LATITUDE: 50.454776 N<br>LONGITUDE: 9.623801 E<br>HEIGHT: 280.226 m<br>SPEED: 8.524 km/h<br>DISTANCE: 24.85 m]]>
</cmt>
<sym>TimeStamp</sym>
<type>T</type>
<fix>3d</fix>
</trkpt>
<trkpt lat="50.45492737" lon="9.62414944" >
<ele>284.695</ele>
<time>2010-10-09T10:31:33Z</time>
<speed>2.9514</speed>
<name>trkpt-2010-10-09T10:31:33Z</name>
<cmt>
<![CDATA[TIME: 09-OCT-10 10:31:33<br>RCR: T <b>(TimeStamp)</b>
<br>VALID: SPS<br>LATITUDE: 50.454927 N<br>LONGITUDE: 9.624149 E<br>HEIGHT: 284.695 m<br>SPEED: 10.625 km/h<br>DISTANCE: 30.28 m]]>
</cmt>
<sym>TimeStamp</sym>
<type>T</type>
<fix>3d</fix>
</trkpt>
<trkpt lat="50.45482399" lon="9.62400635" >
<ele>290.025</ele>
<time>2010-10-09T10:31:43Z</time>
<speed>2.0077</speed>
<name>trkpt-2010-10-09T10:31:43Z</name>
<cmt>
<![CDATA[TIME: 09-OCT-10 10:31:43<br>RCR: T <b>(TimeStamp)</b>
<br>VALID: SPS<br>LATITUDE: 50.454824 N<br>LONGITUDE: 9.624006 E<br>HEIGHT: 290.025 m<br>SPEED: 7.228 km/h<br>DISTANCE: 16.25 m]]>
</cmt>
<sym>TimeStamp</sym>
<type>T</type>
<fix>3d</fix>
</trkpt>
<trkpt lat="50.45468815" lon="9.62373067" >
<ele>295.540</ele>
<time>2010-10-09T10:31:53Z</time>
<speed>2.0724</speed>
<name>trkpt-2010-10-09T10:31:53Z</name>
<cmt>
<![CDATA[TIME: 09-OCT-10 10:31:53<br>RCR: T <b>(TimeStamp)</b>
<br>VALID: SPS<br>LATITUDE: 50.454688 N<br>LONGITUDE: 9.623731 E<br>HEIGHT: 295.540 m<br>SPEED: 7.461 km/h<br>DISTANCE: 25.34 m]]>
</cmt>
<sym>TimeStamp</sym>
<type>T</type>
<fix>3d</fix>
</trkpt>
<trkpt lat="50.45448859" lon="9.62381176" >
<ele>299.631</ele>
<time>2010-10-09T10:32:03Z</time>
<speed>1.0563</speed>
<name>trkpt-2010-10-09T10:32:03Z</name>
<cmt>
<![CDATA[TIME: 09-OCT-10 10:32:03<br>RCR: T <b>(TimeStamp)</b>
<br>VALID: SPS<br>LATITUDE: 50.454489 N<br>LONGITUDE: 9.623812 E<br>HEIGHT: 299.631 m<br>SPEED: 3.803 km/h<br>DISTANCE: 23.30 m]]>
</cmt>
<sym>TimeStamp</sym>
<type>T</type>
<fix>3d</fix>
</trkpt>
<trkpt lat="50.45433803" lon="9.62407305" >
<ele>302.861</ele>
<time>2010-10-09T10:32:13Z</time>
<speed>2.4196</speed>
<name>trkpt-2010-10-09T10:32:13Z</name>
<cmt>
<![CDATA[TIME: 09-OCT-10 10:32:13<br>RCR: T <b>(TimeStamp)</b>
<br>VALID: SPS<br>LATITUDE: 50.454338 N<br>LONGITUDE: 9.624073 E<br>HEIGHT: 302.861 m<br>SPEED: 8.711 km/h<br>DISTANCE: 25.21 m]]>
</cmt>
<sym>TimeStamp</sym>
<type>T</type>
<fix>3d</fix>
</trkpt>
<trkpt lat="50.45421247" lon="9.62431732" >
<ele>304.704</ele>
<time>2010-10-09T10:32:23Z</time>
<speed>2.3340</speed>
<name>trkpt-2010-10-09T10:32:23Z</name>
<cmt>
<![CDATA[TIME: 09-OCT-10 10:32:23<br>RCR: T <b>(TimeStamp)</b>
<br>VALID: SPS<br>LATITUDE: 50.454212 N<br>LONGITUDE: 9.624317 E<br>HEIGHT: 304.704 m<br>SPEED: 8.403 km/h<br>DISTANCE: 22.35 m]]>
</cmt>
<sym>TimeStamp</sym>
<type>T</type>
<fix>3d</fix>
</trkpt>
<trkpt lat="50.45408404" lon="9.62459607" >
<ele>305.955</ele>
<time>2010-10-09T10:32:33Z</time>
<speed>2.1746</speed>
<name>trkpt-2010-10-09T10:32:33Z</name>
<cmt>
<![CDATA[TIME: 09-OCT-10 10:32:33<br>RCR: T <b>(TimeStamp)</b>
<br>VALID: SPS<br>LATITUDE: 50.454084 N<br>LONGITUDE: 9.624596 E<br>HEIGHT: 305.955 m<br>SPEED: 7.829 km/h<br>DISTANCE: 24.45 m]]>
</cmt>
<sym>TimeStamp</sym>
<type>T</type>
<fix>3d</fix>
</trkpt>
<trkpt lat="50.45395742" lon="9.62477214" >
<ele>306.703</ele>
<time>2010-10-09T10:32:43Z</time>
<speed>2.3140</speed>
<name>trkpt-2010-10-09T10:32:43Z</name>
<cmt>
<![CDATA[TIME: 09-OCT-10 10:32:43<br>RCR: T <b>(TimeStamp)</b>
<br>VALID: SPS<br>LATITUDE: 50.453957 N<br>LONGITUDE: 9.624772 E<br>HEIGHT: 306.703 m<br>SPEED: 8.330 km/h<br>DISTANCE: 18.85 m]]>
</cmt>
<sym>TimeStamp</sym>
<type>T</type>
<fix>3d</fix>
</trkpt>
<trkpt lat="50.45383331" lon="9.62498684" >
<ele>308.449</ele>
<time>2010-10-09T10:32:53Z</time>
<speed>2.3240</speed>
<name>trkpt-2010-10-09T10:32:53Z</name>
<cmt>
<![CDATA[TIME: 09-OCT-10 10:32:53<br>RCR: T <b>(TimeStamp)</b>
<br>VALID: SPS<br>LATITUDE: 50.453833 N<br>LONGITUDE: 9.624987 E<br>HEIGHT: 308.449 m<br>SPEED: 8.366 km/h<br>DISTANCE: 20.64 m]]>
</cmt>
<sym>TimeStamp</sym>
<type>T</type>
<fix>3d</fix>
</trkpt>
<trkpt lat="50.45368821" lon="9.62524645" >
<ele>310.929</ele>
<time>2010-10-09T10:33:03Z</time>
<speed>2.3481</speed>
<name>trkpt-2010-10-09T10:33:03Z</name>
<cmt>
<![CDATA[TIME: 09-OCT-10 10:33:03<br>RCR: T <b>(TimeStamp)</b>
<br>VALID: SPS<br>LATITUDE: 50.453688 N<br>LONGITUDE: 9.625246 E<br>HEIGHT: 310.929 m<br>SPEED: 8.453 km/h<br>DISTANCE: 24.63 m]]>
</cmt>
<sym>TimeStamp</sym>
<type>T</type>
<fix>3d</fix>
</trkpt>
<trkpt lat="50.45352770" lon="9.62550415" >
<ele>313.266</ele>
<time>2010-10-09T10:33:13Z</time>
<speed>2.1668</speed>
<name>trkpt-2010-10-09T10:33:13Z</name>
<cmt>
<![CDATA[TIME: 09-OCT-10 10:33:13<br>RCR: T <b>(TimeStamp)</b>
<br>VALID: SPS<br>LATITUDE: 50.453528 N<br>LONGITUDE: 9.625504 E<br>HEIGHT: 313.266 m<br>SPEED: 7.801 km/h<br>DISTANCE: 25.68 m]]>
</cmt>
<sym>TimeStamp</sym>
<type>T</type>
<fix>3d</fix>
</trkpt>
<trkpt lat="50.45342547" lon="9.62574964" >
<ele>315.446</ele>
<time>2010-10-09T10:33:23Z</time>
<speed>1.8832</speed>
<name>trkpt-2010-10-09T10:33:23Z</name>
<cmt>
<![CDATA[TIME: 09-OCT-10 10:33:23<br>RCR: T <b>(TimeStamp)</b>
<br>VALID: SPS<br>LATITUDE: 50.453425 N<br>LONGITUDE: 9.625750 E<br>HEIGHT: 315.446 m<br>SPEED: 6.779 km/h<br>DISTANCE: 20.93 m]]>
</cmt>
<sym>TimeStamp</sym>
<type>T</type>
<fix>3d</fix>
</trkpt>
<trkpt lat="50.45333536" lon="9.62585915" >
<ele>317.064</ele>
<time>2010-10-09T10:33:33Z</time>
<speed>2.1039</speed>
<name>trkpt-2010-10-09T10:33:33Z</name>
<cmt>
<![CDATA[TIME: 09-OCT-10 10:33:33<br>RCR: T <b>(TimeStamp)</b>
<br>VALID: SPS<br>LATITUDE: 50.453335 N<br>LONGITUDE: 9.625859 E<br>HEIGHT: 317.064 m<br>SPEED: 7.574 km/h<br>DISTANCE: 12.79 m]]>
</cmt>
<sym>TimeStamp</sym>
<type>T</type>
<fix>3d</fix>
</trkpt>
<trkpt lat="50.45329793" lon="9.62590963" >
<ele>316.741</ele>
<time>2010-10-09T10:33:43Z</time>
<speed>0.0594</speed>
<name>trkpt-2010-10-09T10:33:43Z</name>
<cmt>
<![CDATA[TIME: 09-OCT-10 10:33:43<br>RCR: T <b>(TimeStamp)</b>
<br>VALID: SPS<br>LATITUDE: 50.453298 N<br>LONGITUDE: 9.625910 E<br>HEIGHT: 316.741 m<br>SPEED: 0.214 km/h<br>DISTANCE: 5.50 m]]>
</cmt>
<sym>TimeStamp</sym>
<type>T</type>
<fix>3d</fix>
</trkpt>
<trkpt lat="50.45328765" lon="9.62598375" >
<ele>316.108</ele>
<time>2010-10-09T10:33:53Z</time>
<speed>1.6378</speed>
<name>trkpt-2010-10-09T10:33:53Z</name>
<cmt>
<![CDATA[TIME: 09-OCT-10 10:33:53<br>RCR: T <b>(TimeStamp)</b>
<br>VALID: SPS<br>LATITUDE: 50.453288 N<br>LONGITUDE: 9.625984 E<br>HEIGHT: 316.108 m<br>SPEED: 5.896 km/h<br>DISTANCE: 5.42 m]]>
</cmt>
<sym>TimeStamp</sym>
<type>T</type>
<fix>3d</fix>
</trkpt>
<trkpt lat="50.45320233" lon="9.62614302" >
<ele>318.138</ele>
<time>2010-10-09T10:34:03Z</time>
<speed>1.8084</speed>
<name>trkpt-2010-10-09T10:34:03Z</name>
<cmt>
<![CDATA[TIME: 09-OCT-10 10:34:03<br>RCR: T <b>(TimeStamp)</b>
<br>VALID: SPS<br>LATITUDE: 50.453202 N<br>LONGITUDE: 9.626143 E<br>HEIGHT: 318.138 m<br>SPEED: 6.510 km/h<br>DISTANCE: 14.91 m]]>
</cmt>
<sym>TimeStamp</sym>
<type>T</type>
<fix>3d</fix>
</trkpt>
<trkpt lat="50.45312471" lon="9.62635073" >
<ele>318.524</ele>
<time>2010-10-09T10:34:13Z</time>
<speed>1.8605</speed>
<name>trkpt-2010-10-09T10:34:13Z</name>
<cmt>
<![CDATA[TIME: 09-OCT-10 10:34:13<br>RCR: T <b>(TimeStamp)</b>
<br>VALID: SPS<br>LATITUDE: 50.453125 N<br>LONGITUDE: 9.626351 E<br>HEIGHT: 318.524 m<br>SPEED: 6.698 km/h<br>DISTANCE: 17.10 m]]>
</cmt>
<sym>TimeStamp</sym>
<type>T</type>
<fix>3d</fix>
</trkpt>
<trkpt lat="50.45300270" lon="9.62649876" >
<ele>320.149</ele>
<time>2010-10-09T10:34:23Z</time>
<speed>1.8149</speed>
<name>trkpt-2010-10-09T10:34:23Z</name>
<cmt>
<![CDATA[TIME: 09-OCT-10 10:34:23<br>RCR: T <b>(TimeStamp)</b>
<br>VALID: SPS<br>LATITUDE: 50.453003 N<br>LONGITUDE: 9.626499 E<br>HEIGHT: 320.149 m<br>SPEED: 6.534 km/h<br>DISTANCE: 17.25 m]]>
</cmt>
<sym>TimeStamp</sym>
<type>T</type>
<fix>3d</fix>
</trkpt>
<trkpt lat="50.45288887" lon="9.62665957" >
<ele>321.521</ele>
<time>2010-10-09T10:34:33Z</time>
<speed>1.9460</speed>
<name>trkpt-2010-10-09T10:34:33Z</name>
<cmt>
<![CDATA[TIME: 09-OCT-10 10:34:33<br>RCR: T <b>(TimeStamp)</b>
<br>VALID: SPS<br>LATITUDE: 50.452889 N<br>LONGITUDE: 9.626660 E<br>HEIGHT: 321.521 m<br>SPEED: 7.005 km/h<br>DISTANCE: 17.11 m]]>
</cmt>
<sym>TimeStamp</sym>
<type>T</type>
<fix>3d</fix>
</trkpt>
<trkpt lat="50.45281059" lon="9.62686471" >
<ele>323.270</ele>
<time>2010-10-09T10:34:43Z</time>
<speed>1.6173</speed>
<name>trkpt-2010-10-09T10:34:43Z</name>
<cmt>
<![CDATA[TIME: 09-OCT-10 10:34:43<br>RCR: T <b>(TimeStamp)</b>
<br>VALID: SPS<br>LATITUDE: 50.452811 N<br>LONGITUDE: 9.626865 E<br>HEIGHT: 323.270 m<br>SPEED: 5.822 km/h<br>DISTANCE: 17.06 m]]>
</cmt>
<sym>TimeStamp</sym>
<type>T</type>
<fix>3d</fix>
</trkpt>
<trkpt lat="50.45271974" lon="9.62702241" >
<ele>324.796</ele>
<time>2010-10-09T10:34:53Z</time>
<speed>1.6482</speed>
<name>trkpt-2010-10-09T10:34:53Z</name>
<cmt>
<![CDATA[TIME: 09-OCT-10 10:34:53<br>RCR: T <b>(TimeStamp)</b>
<br>VALID: SPS<br>LATITUDE: 50.452720 N<br>LONGITUDE: 9.627022 E<br>HEIGHT: 324.796 m<br>SPEED: 5.933 km/h<br>DISTANCE: 15.16 m]]>
</cmt>
<sym>TimeStamp</sym>
<type>T</type>
<fix>3d</fix>
</trkpt>
<trkpt lat="50.45263174" lon="9.62718707" >
<ele>327.551</ele>
<time>2010-10-09T10:35:03Z</time>
<speed>1.9886</speed>
<name>trkpt-2010-10-09T10:35:03Z</name>
<cmt>
<![CDATA[TIME: 09-OCT-10 10:35:03<br>RCR: T <b>(TimeStamp)</b>
<br>VALID: SPS<br>LATITUDE: 50.452632 N<br>LONGITUDE: 9.627187 E<br>HEIGHT: 327.551 m<br>SPEED: 7.159 km/h<br>DISTANCE: 15.50 m]]>
</cmt>
<sym>TimeStamp</sym>
<type>T</type>
<fix>3d</fix>
</trkpt>
<trkpt lat="50.45251315" lon="9.62735458" >
<ele>327.800</ele>
<time>2010-10-09T10:35:13Z</time>
<speed>0.9071</speed>
<name>trkpt-2010-10-09T10:35:13Z</name>
<cmt>
<![CDATA[TIME: 09-OCT-10 10:35:13<br>RCR: T <b>(TimeStamp)</b>
<br>VALID: SPS<br>LATITUDE: 50.452513 N<br>LONGITUDE: 9.627355 E<br>HEIGHT: 327.800 m<br>SPEED: 3.266 km/h<br>DISTANCE: 17.77 m]]>
</cmt>
<sym>TimeStamp</sym>
<type>T</type>
<fix>3d</fix>
</trkpt>
<trkpt lat="50.45251350" lon="9.62735032" >
<ele>327.652</ele>
<time>2010-10-09T10:35:23Z</time>
<speed>0.0899</speed>
<name>trkpt-2010-10-09T10:35:23Z</name>
<cmt>
<![CDATA[TIME: 09-OCT-10 10:35:23<br>RCR: T <b>(TimeStamp)</b>
<br>VALID: SPS<br>LATITUDE: 50.452514 N<br>LONGITUDE: 9.627350 E<br>HEIGHT: 327.652 m<br>SPEED: 0.324 km/h<br>DISTANCE: 0.34 m]]>
</cmt>
<sym>TimeStamp</sym>
<type>T</type>
<fix>3d</fix>
</trkpt>
<trkpt lat="50.45249932" lon="9.62736748" >
<ele>327.498</ele>
<time>2010-10-09T10:35:33Z</time>
<speed>0.0739</speed>
<name>trkpt-2010-10-09T10:35:33Z</name>
<cmt>
<![CDATA[TIME: 09-OCT-10 10:35:33<br>RCR: T <b>(TimeStamp)</b>
<br>VALID: SPS<br>LATITUDE: 50.452499 N<br>LONGITUDE: 9.627367 E<br>HEIGHT: 327.498 m<br>SPEED: 0.266 km/h<br>DISTANCE: 2.00 m]]>
</cmt>
<sym>TimeStamp</sym>
<type>T</type>
<fix>3d</fix>
</trkpt>
<trkpt lat="50.45250432" lon="9.62736492" >
<ele>327.694</ele>
<time>2010-10-09T10:35:43Z</time>
<speed>0.0600</speed>
<name>trkpt-2010-10-09T10:35:43Z</name>
<cmt>
<![CDATA[TIME: 09-OCT-10 10:35:43<br>RCR: T <b>(TimeStamp)</b>
<br>VALID: SPS<br>LATITUDE: 50.452504 N<br>LONGITUDE: 9.627365 E<br>HEIGHT: 327.694 m<br>SPEED: 0.216 km/h<br>DISTANCE: 0.62 m]]>
</cmt>
<sym>TimeStamp</sym>
<type>T</type>
<fix>3d</fix>
</trkpt>
<trkpt lat="50.45245515" lon="9.62751250" >
<ele>329.082</ele>
<time>2010-10-09T10:35:53Z</time>
<speed>2.0792</speed>
<name>trkpt-2010-10-09T10:35:53Z</name>
<cmt>
<![CDATA[TIME: 09-OCT-10 10:35:53<br>RCR: T <b>(TimeStamp)</b>
<br>VALID: SPS<br>LATITUDE: 50.452455 N<br>LONGITUDE: 9.627512 E<br>HEIGHT: 329.082 m<br>SPEED: 7.485 km/h<br>DISTANCE: 11.90 m]]>
</cmt>
<sym>TimeStamp</sym>
<type>T</type>
<fix>3d</fix>
</trkpt>
<trkpt lat="50.45236928" lon="9.62776531" >
<ele>331.798</ele>
<time>2010-10-09T10:36:03Z</time>
<speed>1.6599</speed>
<name>trkpt-2010-10-09T10:36:03Z</name>
<cmt>
<![CDATA[TIME: 09-OCT-10 10:36:03<br>RCR: T <b>(TimeStamp)</b>
<br>VALID: SPS<br>LATITUDE: 50.452369 N<br>LONGITUDE: 9.627765 E<br>HEIGHT: 331.798 m<br>SPEED: 5.976 km/h<br>DISTANCE: 20.52 m]]>
</cmt>
<sym>TimeStamp</sym>
<type>T</type>
<fix>3d</fix>
</trkpt>
<trkpt lat="50.45232362" lon="9.62804502" >
<ele>334.137</ele>
<time>2010-10-09T10:36:13Z</time>
<speed>1.6050</speed>
<name>trkpt-2010-10-09T10:36:13Z</name>
<cmt>
<![CDATA[TIME: 09-OCT-10 10:36:13<br>RCR: T <b>(TimeStamp)</b>
<br>VALID: SPS<br>LATITUDE: 50.452324 N<br>LONGITUDE: 9.628045 E<br>HEIGHT: 334.137 m<br>SPEED: 5.778 km/h<br>DISTANCE: 20.64 m]]>
</cmt>
<sym>TimeStamp</sym>
<type>T</type>
<fix>3d</fix>
</trkpt>
<trkpt lat="50.45229163" lon="9.62832873" >
<ele>335.412</ele>
<time>2010-10-09T10:36:23Z</time>
<speed>1.7453</speed>
<name>trkpt-2010-10-09T10:36:23Z</name>
<cmt>
<![CDATA[TIME: 09-OCT-10 10:36:23<br>RCR: T <b>(TimeStamp)</b>
<br>VALID: SPS<br>LATITUDE: 50.452292 N<br>LONGITUDE: 9.628329 E<br>HEIGHT: 335.412 m<br>SPEED: 6.283 km/h<br>DISTANCE: 20.50 m]]>
</cmt>
<sym>TimeStamp</sym>
<type>T</type>
<fix>3d</fix>
</trkpt>
<trkpt lat="50.45227254" lon="9.62861505" >
<ele>336.355</ele>
<time>2010-10-09T10:36:33Z</time>
<speed>1.8527</speed>
<name>trkpt-2010-10-09T10:36:33Z</name>
<cmt>
<![CDATA[TIME: 09-OCT-10 10:36:33<br>RCR: T <b>(TimeStamp)</b>
<br>VALID: SPS<br>LATITUDE: 50.452273 N<br>LONGITUDE: 9.628615 E<br>HEIGHT: 336.355 m<br>SPEED: 6.670 km/h<br>DISTANCE: 20.47 m]]>
</cmt>
<sym>TimeStamp</sym>
<type>T</type>
<fix>3d</fix>
</trkpt>
<trkpt lat="50.45227669" lon="9.62882075" >
<ele>336.192</ele>
<time>2010-10-09T10:36:43Z</time>
<speed>2.0911</speed>
<name>trkpt-2010-10-09T10:36:43Z</name>
<cmt>
<![CDATA[TIME: 09-OCT-10 10:36:43<br>RCR: T <b>(TimeStamp)</b>
<br>VALID: SPS<br>LATITUDE: 50.452277 N<br>LONGITUDE: 9.628821 E<br>HEIGHT: 336.192 m<br>SPEED: 7.528 km/h<br>DISTANCE: 14.62 m]]>
</cmt>
<sym>TimeStamp</sym>
<type>T</type>
<fix>3d</fix>
</trkpt>
<trkpt lat="50.45227539" lon="9.62909244" >
<ele>336.946</ele>
<time>2010-10-09T10:36:53Z</time>
<speed>1.6871</speed>
<name>trkpt-2010-10-09T10:36:53Z</name>
<cmt>
<![CDATA[TIME: 09-OCT-10 10:36:53<br>RCR: T <b>(TimeStamp)</b>
<br>VALID: SPS<br>LATITUDE: 50.452275 N<br>LONGITUDE: 9.629092 E<br>HEIGHT: 336.946 m<br>SPEED: 6.073 km/h<br>DISTANCE: 19.31 m]]>
</cmt>
<sym>TimeStamp</sym>
<type>T</type>
<fix>3d</fix>
</trkpt>
<trkpt lat="50.45227442" lon="9.62945789" >
<ele>336.949</ele>
<time>2010-10-09T10:37:03Z</time>
<speed>2.4990</speed>
<name>trkpt-2010-10-09T10:37:03Z</name>
<cmt>
<![CDATA[TIME: 09-OCT-10 10:37:03<br>RCR: T <b>(TimeStamp)</b>
<br>VALID: SPS<br>LATITUDE: 50.452274 N<br>LONGITUDE: 9.629458 E<br>HEIGHT: 336.949 m<br>SPEED: 8.996 km/h<br>DISTANCE: 25.96 m]]>
</cmt>
<sym>TimeStamp</sym>
<type>T</type>
<fix>3d</fix>
</trkpt>
<trkpt lat="50.45233440" lon="9.62979100" >
<ele>336.462</ele>
<time>2010-10-09T10:37:13Z</time>
<speed>1.9615</speed>
<name>trkpt-2010-10-09T10:37:13Z</name>
<cmt>
<![CDATA[TIME: 09-OCT-10 10:37:13<br>RCR: T <b>(TimeStamp)</b>
<br>VALID: SPS<br>LATITUDE: 50.452334 N<br>LONGITUDE: 9.629791 E<br>HEIGHT: 336.462 m<br>SPEED: 7.061 km/h<br>DISTANCE: 24.59 m]]>
</cmt>
<sym>TimeStamp</sym>
<type>T</type>
<fix>3d</fix>
</trkpt>
<trkpt lat="50.45230500" lon="9.63020640" >
<ele>336.191</ele>
<time>2010-10-09T10:37:23Z</time>
<speed>2.2072</speed>
<name>trkpt-2010-10-09T10:37:23Z</name>
<cmt>
<![CDATA[TIME: 09-OCT-10 10:37:23<br>RCR: T <b>(TimeStamp)</b>
<br>VALID: SPS<br>LATITUDE: 50.452305 N<br>LONGITUDE: 9.630206 E<br>HEIGHT: 336.191 m<br>SPEED: 7.946 km/h<br>DISTANCE: 29.69 m]]>
</cmt>
<sym>TimeStamp</sym>
<type>T</type>
<fix>3d</fix>
</trkpt>
<trkpt lat="50.45224317" lon="9.63069271" >
<ele>333.723</ele>
<time>2010-10-09T10:37:33Z</time>
<speed>2.2845</speed>
<name>trkpt-2010-10-09T10:37:33Z</name>
<cmt>
<![CDATA[TIME: 09-OCT-10 10:37:33<br>RCR: T <b>(TimeStamp)</b>
<br>VALID: SPS<br>LATITUDE: 50.452243 N<br>LONGITUDE: 9.630693 E<br>HEIGHT: 333.723 m<br>SPEED: 8.224 km/h<br>DISTANCE: 35.30 m]]>
</cmt>
<sym>TimeStamp</sym>
<type>T</type>
<fix>3d</fix>
</trkpt>
<trkpt lat="50.45221924" lon="9.63103168" >
<ele>334.825</ele>
<time>2010-10-09T10:37:43Z</time>
<speed>1.9313</speed>
<name>trkpt-2010-10-09T10:37:43Z</name>
<cmt>
<![CDATA[TIME: 09-OCT-10 10:37:43<br>RCR: T <b>(TimeStamp)</b>
<br>VALID: SPS<br>LATITUDE: 50.452219 N<br>LONGITUDE: 9.631032 E<br>HEIGHT: 334.825 m<br>SPEED: 6.953 km/h<br>DISTANCE: 24.25 m]]>
</cmt>
<sym>TimeStamp</sym>
<type>T</type>
<fix>3d</fix>
</trkpt>
<trkpt lat="50.45228031" lon="9.63137596" >
<ele>337.884</ele>
<time>2010-10-09T10:37:53Z</time>
<speed>2.1468</speed>
<name>trkpt-2010-10-09T10:37:53Z</name>
<cmt>
<![CDATA[TIME: 09-OCT-10 10:37:53<br>RCR: T <b>(TimeStamp)</b>
<br>VALID: SPS<br>LATITUDE: 50.452280 N<br>LONGITUDE: 9.631376 E<br>HEIGHT: 337.884 m<br>SPEED: 7.728 km/h<br>DISTANCE: 25.56 m]]>
</cmt>
<sym>TimeStamp</sym>
<type>T</type>
<fix>3d</fix>
</trkpt>
<trkpt lat="50.45227772" lon="9.63179490" >
<ele>336.974</ele>
<time>2010-10-09T10:38:03Z</time>
<speed>2.5873</speed>
<name>trkpt-2010-10-09T10:38:03Z</name>
<cmt>
<![CDATA[TIME: 09-OCT-10 10:38:03<br>RCR: T <b>(TimeStamp)</b>
<br>VALID: SPS<br>LATITUDE: 50.452278 N<br>LONGITUDE: 9.631795 E<br>HEIGHT: 336.974 m<br>SPEED: 9.314 km/h<br>DISTANCE: 29.77 m]]>
</cmt>
<sym>TimeStamp</sym>
<type>T</type>
<fix>3d</fix>
</trkpt>
<trkpt lat="50.45218001" lon="9.63219310" >
<ele>336.045</ele>
<time>2010-10-09T10:38:13Z</time>
<speed>2.3313</speed>
<name>trkpt-2010-10-09T10:38:13Z</name>
<cmt>
<![CDATA[TIME: 09-OCT-10 10:38:13<br>RCR: T <b>(TimeStamp)</b>
<br>VALID: SPS<br>LATITUDE: 50.452180 N<br>LONGITUDE: 9.632193 E<br>HEIGHT: 336.045 m<br>SPEED: 8.393 km/h<br>DISTANCE: 30.31 m]]>
</cmt>
<sym>TimeStamp</sym>
<type>T</type>
<fix>3d</fix>
</trkpt>
<trkpt lat="50.45217032" lon="9.63257876" >
<ele>338.181</ele>
<time>2010-10-09T10:38:23Z</time>
<speed>2.2041</speed>
<name>trkpt-2010-10-09T10:38:23Z</name>
<cmt>
<![CDATA[TIME: 09-OCT-10 10:38:23<br>RCR: T <b>(TimeStamp)</b>
<br>VALID: SPS<br>LATITUDE: 50.452170 N<br>LONGITUDE: 9.632579 E<br>HEIGHT: 338.181 m<br>SPEED: 7.935 km/h<br>DISTANCE: 27.50 m]]>
</cmt>
<sym>TimeStamp</sym>
<type>T</type>
<fix>3d</fix>
</trkpt>
<trkpt lat="50.45217462" lon="9.63292167" >
<ele>345.973</ele>
<time>2010-10-09T10:38:33Z</time>
<speed>1.2823</speed>
<name>trkpt-2010-10-09T10:38:33Z</name>
<cmt>
<![CDATA[TIME: 09-OCT-10 10:38:33<br>RCR: T <b>(TimeStamp)</b>
<br>VALID: SPS<br>LATITUDE: 50.452175 N<br>LONGITUDE: 9.632922 E<br>HEIGHT: 345.973 m<br>SPEED: 4.616 km/h<br>DISTANCE: 25.58 m]]>
</cmt>
<sym>TimeStamp</sym>
<type>T</type>
<fix>3d</fix>
</trkpt>
<trkpt lat="50.45199455" lon="9.63332918" >
<ele>356.957</ele>
<time>2010-10-09T10:38:43Z</time>
<speed>3.4494</speed>
<name>trkpt-2010-10-09T10:38:43Z</name>
<cmt>
<![CDATA[TIME: 09-OCT-10 10:38:43<br>RCR: T <b>(TimeStamp)</b>
<br>VALID: SPS<br>LATITUDE: 50.451995 N<br>LONGITUDE: 9.633329 E<br>HEIGHT: 356.957 m<br>SPEED: 12.418 km/h<br>DISTANCE: 36.87 m]]>
</cmt>
<sym>TimeStamp</sym>
<type>T</type>
<fix>3d</fix>
</trkpt>
<trkpt lat="50.45183138" lon="9.63372243" >
<ele>363.304</ele>
<time>2010-10-09T10:38:53Z</time>
<speed>2.9759</speed>
<name>trkpt-2010-10-09T10:38:53Z</name>
<cmt>
<![CDATA[TIME: 09-OCT-10 10:38:53<br>RCR: T <b>(TimeStamp)</b>
<br>VALID: SPS<br>LATITUDE: 50.451831 N<br>LONGITUDE: 9.633722 E<br>HEIGHT: 363.304 m<br>SPEED: 10.713 km/h<br>DISTANCE: 33.91 m]]>
</cmt>
<sym>TimeStamp</sym>
<type>T</type>
<fix>3d</fix>
</trkpt>
<trkpt lat="50.45162790" lon="9.63421143" >
<ele>360.197</ele>
<time>2010-10-09T10:39:03Z</time>
<speed>3.3761</speed>
<name>trkpt-2010-10-09T10:39:03Z</name>
<cmt>
<![CDATA[TIME: 09-OCT-10 10:39:03<br>RCR: T <b>(TimeStamp)</b>
<br>VALID: SPS<br>LATITUDE: 50.451628 N<br>LONGITUDE: 9.634211 E<br>HEIGHT: 360.197 m<br>SPEED: 12.154 km/h<br>DISTANCE: 41.57 m]]>
</cmt>
<sym>TimeStamp</sym>
<type>T</type>
<fix>3d</fix>
</trkpt>
<trkpt lat="50.45145834" lon="9.63476857" >
<ele>361.190</ele>
<time>2010-10-09T10:39:13Z</time>
<speed>3.2430</speed>
<name>trkpt-2010-10-09T10:39:13Z</name>
<cmt>
<![CDATA[TIME: 09-OCT-10 10:39:13<br>RCR: T <b>(TimeStamp)</b>
<br>VALID: SPS<br>LATITUDE: 50.451458 N<br>LONGITUDE: 9.634769 E<br>HEIGHT: 361.190 m<br>SPEED: 11.675 km/h<br>DISTANCE: 43.85 m]]>
</cmt>
<sym>TimeStamp</sym>
<type>T</type>
<fix>3d</fix>
</trkpt>
<trkpt lat="50.45131810" lon="9.63524258" >
<ele>359.541</ele>
<time>2010-10-09T10:39:23Z</time>
<speed>3.5519</speed>
<name>trkpt-2010-10-09T10:39:23Z</name>
<cmt>
<![CDATA[TIME: 09-OCT-10 10:39:23<br>RCR: T <b>(TimeStamp)</b>
<br>VALID: SPS<br>LATITUDE: 50.451318 N<br>LONGITUDE: 9.635243 E<br>HEIGHT: 359.541 m<br>SPEED: 12.787 km/h<br>DISTANCE: 37.14 m]]>
</cmt>
<sym>TimeStamp</sym>
<type>T</type>
<fix>3d</fix>
</trkpt>
<trkpt lat="50.45122442" lon="9.63570018" >
<ele>360.705</ele>
<time>2010-10-09T10:39:33Z</time>
<speed>2.9464</speed>
<name>trkpt-2010-10-09T10:39:33Z</name>
<cmt>
<![CDATA[TIME: 09-OCT-10 10:39:33<br>RCR: T <b>(TimeStamp)</b>
<br>VALID: SPS<br>LATITUDE: 50.451224 N<br>LONGITUDE: 9.635700 E<br>HEIGHT: 360.705 m<br>SPEED: 10.607 km/h<br>DISTANCE: 34.15 m]]>
</cmt>
<sym>TimeStamp</sym>
<type>T</type>
<fix>3d</fix>
</trkpt>
<trkpt lat="50.45120738" lon="9.63618799" >
<ele>359.955</ele>
<time>2010-10-09T10:39:43Z</time>
<speed>3.1534</speed>
<name>trkpt-2010-10-09T10:39:43Z</name>
<cmt>
<![CDATA[TIME: 09-OCT-10 10:39:43<br>RCR: T <b>(TimeStamp)</b>
<br>VALID: SPS<br>LATITUDE: 50.451207 N<br>LONGITUDE: 9.636188 E<br>HEIGHT: 359.955 m<br>SPEED: 11.352 km/h<br>DISTANCE: 34.71 m]]>
</cmt>
<sym>TimeStamp</sym>
<type>T</type>
<fix>3d</fix>
</trkpt>
<trkpt lat="50.45115957" lon="9.63677973" >
<ele>360.113</ele>
<time>2010-10-09T10:39:53Z</time>
<speed>3.3465</speed>
<name>trkpt-2010-10-09T10:39:53Z</name>
<cmt>
<![CDATA[TIME: 09-OCT-10 10:39:53<br>RCR: T <b>(TimeStamp)</b>
<br>VALID: SPS<br>LATITUDE: 50.451160 N<br>LONGITUDE: 9.636780 E<br>HEIGHT: 360.113 m<br>SPEED: 12.048 km/h<br>DISTANCE: 42.37 m]]>
</cmt>
<sym>TimeStamp</sym>
<type>T</type>
<fix>3d</fix>
</trkpt>
<trkpt lat="50.45108699" lon="9.63737567" >
<ele>356.343</ele>
<time>2010-10-09T10:40:03Z</time>
<speed>3.2512</speed>
<name>trkpt-2010-10-09T10:40:03Z</name>
<cmt>
<![CDATA[TIME: 09-OCT-10 10:40:03<br>RCR: T <b>(TimeStamp)</b>
<br>VALID: SPS<br>LATITUDE: 50.451087 N<br>LONGITUDE: 9.637376 E<br>HEIGHT: 356.343 m<br>SPEED: 11.704 km/h<br>DISTANCE: 43.26 m]]>
</cmt>
<sym>TimeStamp</sym>
<type>T</type>
<fix>3d</fix>
</trkpt>
<trkpt lat="50.45108109" lon="9.63786579" >
<ele>360.110</ele>
<time>2010-10-09T10:40:13Z</time>
<speed>2.4673</speed>
<name>trkpt-2010-10-09T10:40:13Z</name>
<cmt>
<![CDATA[TIME: 09-OCT-10 10:40:13<br>RCR: T <b>(TimeStamp)</b>
<br>VALID: SPS<br>LATITUDE: 50.451081 N<br>LONGITUDE: 9.637866 E<br>HEIGHT: 360.110 m<br>SPEED: 8.882 km/h<br>DISTANCE: 35.02 m]]>
</cmt>
<sym>TimeStamp</sym>
<type>T</type>
<fix>3d</fix>
</trkpt>
<trkpt lat="50.45109585" lon="9.63838054" >
<ele>368.929</ele>
<time>2010-10-09T10:40:23Z</time>
<speed>2.6258</speed>
<name>trkpt-2010-10-09T10:40:23Z</name>
<cmt>
<![CDATA[TIME: 09-OCT-10 10:40:23<br>RCR: T <b>(TimeStamp)</b>
<br>VALID: SPS<br>LATITUDE: 50.451096 N<br>LONGITUDE: 9.638381 E<br>HEIGHT: 368.929 m<br>SPEED: 9.453 km/h<br>DISTANCE: 37.65 m]]>
</cmt>
<sym>TimeStamp</sym>
<type>T</type>
<fix>3d</fix>
</trkpt>
<trkpt lat="50.45106283" lon="9.63883037" >
<ele>373.429</ele>
<time>2010-10-09T10:40:33Z</time>
<speed>2.7917</speed>
<name>trkpt-2010-10-09T10:40:33Z</name>
<cmt>
<![CDATA[TIME: 09-OCT-10 10:40:33<br>RCR: T <b>(TimeStamp)</b>
<br>VALID: SPS<br>LATITUDE: 50.451063 N<br>LONGITUDE: 9.638830 E<br>HEIGHT: 373.429 m<br>SPEED: 10.050 km/h<br>DISTANCE: 32.47 m]]>
</cmt>
<sym>TimeStamp</sym>
<type>T</type>
<fix>3d</fix>
</trkpt>
<trkpt lat="50.45102951" lon="9.63929762" >
<ele>373.270</ele>
<time>2010-10-09T10:40:43Z</time>
<speed>3.5525</speed>
<name>trkpt-2010-10-09T10:40:43Z</name>
<cmt>
<![CDATA[TIME: 09-OCT-10 10:40:43<br>RCR: T <b>(TimeStamp)</b>
<br>VALID: SPS<br>LATITUDE: 50.451030 N<br>LONGITUDE: 9.639298 E<br>HEIGHT: 373.270 m<br>SPEED: 12.789 km/h<br>DISTANCE: 33.39 m]]>
</cmt>
<sym>TimeStamp</sym>
<type>T</type>
<fix>3d</fix>
</trkpt>
<trkpt lat="50.45101207" lon="9.63980675" >
<ele>372.994</ele>
<time>2010-10-09T10:40:53Z</time>
<speed>3.0378</speed>
<name>trkpt-2010-10-09T10:40:53Z</name>
<cmt>
<![CDATA[TIME: 09-OCT-10 10:40:53<br>RCR: T <b>(TimeStamp)</b>
<br>VALID: SPS<br>LATITUDE: 50.451012 N<br>LONGITUDE: 9.639807 E<br>HEIGHT: 372.994 m<br>SPEED: 10.936 km/h<br>DISTANCE: 36.22 m]]>
</cmt>
<sym>TimeStamp</sym>
<type>T</type>
<fix>3d</fix>
</trkpt>
<trkpt lat="50.45098277" lon="9.64028592" >
<ele>371.584</ele>
<time>2010-10-09T10:41:03Z</time>
<speed>3.2857</speed>
<name>trkpt-2010-10-09T10:41:03Z</name>
<cmt>
<![CDATA[TIME: 09-OCT-10 10:41:03<br>RCR: T <b>(TimeStamp)</b>
<br>VALID: SPS<br>LATITUDE: 50.450983 N<br>LONGITUDE: 9.640286 E<br>HEIGHT: 371.584 m<br>SPEED: 11.829 km/h<br>DISTANCE: 34.22 m]]>
</cmt>
<sym>TimeStamp</sym>
<type>T</type>
<fix>3d</fix>
</trkpt>
<trkpt lat="50.45095206" lon="9.64077333" >
<ele>375.380</ele>
<time>2010-10-09T10:41:13Z</time>
<speed>2.9313</speed>
<name>trkpt-2010-10-09T10:41:13Z</name>
<cmt>
<![CDATA[TIME: 09-OCT-10 10:41:13<br>RCR: T <b>(TimeStamp)</b>
<br>VALID: SPS<br>LATITUDE: 50.450952 N<br>LONGITUDE: 9.640773 E<br>HEIGHT: 375.380 m<br>SPEED: 10.553 km/h<br>DISTANCE: 34.99 m]]>
</cmt>
<sym>TimeStamp</sym>
<type>T</type>
<fix>3d</fix>
</trkpt>
<trkpt lat="50.45095279" lon="9.64127791" >
<ele>376.689</ele>
<time>2010-10-09T10:41:23Z</time>
<speed>2.9696</speed>
<name>trkpt-2010-10-09T10:41:23Z</name>
<cmt>
<![CDATA[TIME: 09-OCT-10 10:41:23<br>RCR: T <b>(TimeStamp)</b>
<br>VALID: SPS<br>LATITUDE: 50.450953 N<br>LONGITUDE: 9.641278 E<br>HEIGHT: 376.689 m<br>SPEED: 10.690 km/h<br>DISTANCE: 35.86 m]]>
</cmt>
<sym>TimeStamp</sym>
<type>T</type>
<fix>3d</fix>
</trkpt>
<trkpt lat="50.45093882" lon="9.64179346" >
<ele>375.414</ele>
<time>2010-10-09T10:41:33Z</time>
<speed>3.7409</speed>
<name>trkpt-2010-10-09T10:41:33Z</name>
<cmt>
<![CDATA[TIME: 09-OCT-10 10:41:33<br>RCR: T <b>(TimeStamp)</b>
<br>VALID: SPS<br>LATITUDE: 50.450939 N<br>LONGITUDE: 9.641793 E<br>HEIGHT: 375.414 m<br>SPEED: 13.467 km/h<br>DISTANCE: 36.67 m]]>
</cmt>
<sym>TimeStamp</sym>
<type>T</type>
<fix>3d</fix>
</trkpt>
<trkpt lat="50.45085602" lon="9.64244149" >
<ele>370.165</ele>
<time>2010-10-09T10:41:43Z</time>
<speed>5.0002</speed>
<name>trkpt-2010-10-09T10:41:43Z</name>
<cmt>
<![CDATA[TIME: 09-OCT-10 10:41:43<br>RCR: T <b>(TimeStamp)</b>
<br>VALID: SPS<br>LATITUDE: 50.450856 N<br>LONGITUDE: 9.642441 E<br>HEIGHT: 370.165 m<br>SPEED: 18.001 km/h<br>DISTANCE: 47.23 m]]>
</cmt>
<sym>TimeStamp</sym>
<type>T</type>
<fix>3d</fix>
</trkpt>
<trkpt lat="50.45076273" lon="9.64326754" >
<ele>363.922</ele>
<time>2010-10-09T10:41:53Z</time>
<speed>6.1156</speed>
<name>trkpt-2010-10-09T10:41:53Z</name>
<cmt>
<![CDATA[TIME: 09-OCT-10 10:41:53<br>RCR: T <b>(TimeStamp)</b>
<br>VALID: SPS<br>LATITUDE: 50.450763 N<br>LONGITUDE: 9.643268 E<br>HEIGHT: 363.922 m<br>SPEED: 22.016 km/h<br>DISTANCE: 59.91 m]]>
</cmt>
<sym>TimeStamp</sym>
<type>T</type>
<fix>3d</fix>
</trkpt>
<trkpt lat="50.45066429" lon="9.64418630" >
<ele>360.146</ele>
<time>2010-10-09T10:42:03Z</time>
<speed>6.1300</speed>
<name>trkpt-2010-10-09T10:42:03Z</name>
<cmt>
<![CDATA[TIME: 09-OCT-10 10:42:03<br>RCR: T <b>(TimeStamp)</b>
<br>VALID: SPS<br>LATITUDE: 50.450664 N<br>LONGITUDE: 9.644186 E<br>HEIGHT: 360.146 m<br>SPEED: 22.068 km/h<br>DISTANCE: 66.28 m]]>
</cmt>
<sym>TimeStamp</sym>
<type>T</type>
<fix>3d</fix>
</trkpt>
<trkpt lat="50.45062117" lon="9.64507733" >
<ele>358.347</ele>
<time>2010-10-09T10:42:13Z</time>
<speed>6.2503</speed>
<name>trkpt-2010-10-09T10:42:13Z</name>
<cmt>
<![CDATA[TIME: 09-OCT-10 10:42:13<br>RCR: T <b>(TimeStamp)</b>
<br>VALID: SPS<br>LATITUDE: 50.450621 N<br>LONGITUDE: 9.645077 E<br>HEIGHT: 358.347 m<br>SPEED: 22.501 km/h<br>DISTANCE: 63.49 m]]>
</cmt>
<sym>TimeStamp</sym>
<type>T</type>
<fix>3d</fix>
</trkpt>
<trkpt lat="50.45049228" lon="9.64591943" >
<ele>361.104</ele>
<time>2010-10-09T10:42:23Z</time>
<speed>5.3556</speed>
<name>trkpt-2010-10-09T10:42:23Z</name>
<cmt>
<![CDATA[TIME: 09-OCT-10 10:42:23<br>RCR: T <b>(TimeStamp)</b>
<br>VALID: SPS<br>LATITUDE: 50.450492 N<br>LONGITUDE: 9.645919 E<br>HEIGHT: 361.104 m<br>SPEED: 19.280 km/h<br>DISTANCE: 61.57 m]]>
</cmt>
<sym>TimeStamp</sym>
<type>T</type>
<fix>3d</fix>
</trkpt>
<trkpt lat="50.45031161" lon="9.64660756" >
<ele>364.523</ele>
<time>2010-10-09T10:42:33Z</time>
<speed>3.0607</speed>
<name>trkpt-2010-10-09T10:42:33Z</name>
<cmt>
<![CDATA[TIME: 09-OCT-10 10:42:33<br>RCR: T <b>(TimeStamp)</b>
<br>VALID: SPS<br>LATITUDE: 50.450312 N<br>LONGITUDE: 9.646608 E<br>HEIGHT: 364.523 m<br>SPEED: 11.019 km/h<br>DISTANCE: 52.96 m]]>
</cmt>
<sym>TimeStamp</sym>
<type>T</type>
<fix>3d</fix>
</trkpt>
<trkpt lat="50.45006789" lon="9.64713937" >
<ele>368.119</ele>
<time>2010-10-09T10:42:43Z</time>
<speed>2.7315</speed>
<name>trkpt-2010-10-09T10:42:43Z</name>
<cmt>
<![CDATA[TIME: 09-OCT-10 10:42:43<br>RCR: T <b>(TimeStamp)</b>
<br>VALID: SPS<br>LATITUDE: 50.450068 N<br>LONGITUDE: 9.647139 E<br>HEIGHT: 368.119 m<br>SPEED: 9.833 km/h<br>DISTANCE: 46.64 m]]>
</cmt>
<sym>TimeStamp</sym>
<type>T</type>
<fix>3d</fix>
</trkpt>
<trkpt lat="50.44990071" lon="9.64743232" >
<ele>369.318</ele>
<time>2010-10-09T10:42:53Z</time>
<speed>3.4447</speed>
<name>trkpt-2010-10-09T10:42:53Z</name>
<cmt>
<![CDATA[TIME: 09-OCT-10 10:42:53<br>RCR: T <b>(TimeStamp)</b>
<br>VALID: SPS<br>LATITUDE: 50.449901 N<br>LONGITUDE: 9.647432 E<br>HEIGHT: 369.318 m<br>SPEED: 12.401 km/h<br>DISTANCE: 27.93 m]]>
</cmt>
<sym>TimeStamp</sym>
<type>T</type>
<fix>3d</fix>
</trkpt>
<trkpt lat="50.44957798" lon="9.64768660" >
<ele>372.531</ele>
<time>2010-10-09T10:43:03Z</time>
<speed>2.6386</speed>
<name>trkpt-2010-10-09T10:43:03Z</name>
<cmt>
<![CDATA[TIME: 09-OCT-10 10:43:03<br>RCR: T <b>(TimeStamp)</b>
<br>VALID: SPS<br>LATITUDE: 50.449578 N<br>LONGITUDE: 9.647687 E<br>HEIGHT: 372.531 m<br>SPEED: 9.499 km/h<br>DISTANCE: 40.32 m]]>
</cmt>
<sym>TimeStamp</sym>
<type>T</type>
<fix>3d</fix>
</trkpt>
<trkpt lat="50.44931938" lon="9.64799193" >
<ele>377.620</ele>
<time>2010-10-09T10:43:13Z</time>
<speed>1.8745</speed>
<name>trkpt-2010-10-09T10:43:13Z</name>
<cmt>
<![CDATA[TIME: 09-OCT-10 10:43:13<br>RCR: T <b>(TimeStamp)</b>
<br>VALID: SPS<br>LATITUDE: 50.449319 N<br>LONGITUDE: 9.647992 E<br>HEIGHT: 377.620 m<br>SPEED: 6.748 km/h<br>DISTANCE: 36.39 m]]>
</cmt>
<sym>TimeStamp</sym>
<type>T</type>
<fix>3d</fix>
</trkpt>
<trkpt lat="50.44897643" lon="9.64834025" >
<ele>380.300</ele>
<time>2010-10-09T10:43:23Z</time>
<speed>3.0333</speed>
<name>trkpt-2010-10-09T10:43:23Z</name>
<cmt>
<![CDATA[TIME: 09-OCT-10 10:43:23<br>RCR: T <b>(TimeStamp)</b>
<br>VALID: SPS<br>LATITUDE: 50.448976 N<br>LONGITUDE: 9.648340 E<br>HEIGHT: 380.300 m<br>SPEED: 10.920 km/h<br>DISTANCE: 45.55 m]]>
</cmt>
<sym>TimeStamp</sym>
<type>T</type>
<fix>3d</fix>
</trkpt>
<trkpt lat="50.44860450" lon="9.64869013" >
<ele>382.607</ele>
<time>2010-10-09T10:43:33Z</time>
<speed>2.3568</speed>
<name>trkpt-2010-10-09T10:43:33Z</name>
<cmt>
<![CDATA[TIME: 09-OCT-10 10:43:33<br>RCR: T <b>(TimeStamp)</b>
<br>VALID: SPS<br>LATITUDE: 50.448604 N<br>LONGITUDE: 9.648690 E<br>HEIGHT: 382.607 m<br>SPEED: 8.485 km/h<br>DISTANCE: 48.32 m]]>
</cmt>
<sym>TimeStamp</sym>
<type>T</type>
<fix>3d</fix>
</trkpt>
<trkpt lat="50.44821874" lon="9.64908468" >
<ele>384.166</ele>
<time>2010-10-09T10:43:43Z</time>
<speed>2.5319</speed>
<name>trkpt-2010-10-09T10:43:43Z</name>
<cmt>
<![CDATA[TIME: 09-OCT-10 10:43:43<br>RCR: T <b>(TimeStamp)</b>
<br>VALID: SPS<br>LATITUDE: 50.448219 N<br>LONGITUDE: 9.649085 E<br>HEIGHT: 384.166 m<br>SPEED: 9.115 km/h<br>DISTANCE: 51.28 m]]>
</cmt>
<sym>TimeStamp</sym>
<type>T</type>
<fix>3d</fix>
</trkpt>
<trkpt lat="50.44784513" lon="9.64948774" >
<ele>387.485</ele>
<time>2010-10-09T10:43:53Z</time>
<speed>3.0791</speed>
<name>trkpt-2010-10-09T10:43:53Z</name>
<cmt>
<![CDATA[TIME: 09-OCT-10 10:43:53<br>RCR: T <b>(TimeStamp)</b>
<br>VALID: SPS<br>LATITUDE: 50.447845 N<br>LONGITUDE: 9.649488 E<br>HEIGHT: 387.485 m<br>SPEED: 11.085 km/h<br>DISTANCE: 50.58 m]]>
</cmt>
<sym>TimeStamp</sym>
<type>T</type>
<fix>3d</fix>
</trkpt>
<trkpt lat="50.44753148" lon="9.64989777" >
<ele>388.935</ele>
<time>2010-10-09T10:44:03Z</time>
<speed>2.2629</speed>
<name>trkpt-2010-10-09T10:44:03Z</name>
<cmt>
<![CDATA[TIME: 09-OCT-10 10:44:03<br>RCR: T <b>(TimeStamp)</b>
<br>VALID: SPS<br>LATITUDE: 50.447531 N<br>LONGITUDE: 9.649898 E<br>HEIGHT: 388.935 m<br>SPEED: 8.146 km/h<br>DISTANCE: 45.47 m]]>
</cmt>
<sym>TimeStamp</sym>
<type>T</type>
<fix>3d</fix>
</trkpt>
<trkpt lat="50.44727861" lon="9.65040281" >
<ele>387.878</ele>
<time>2010-10-09T10:44:13Z</time>
<speed>2.5701</speed>
<name>trkpt-2010-10-09T10:44:13Z</name>
<cmt>
<![CDATA[TIME: 09-OCT-10 10:44:13<br>RCR: T <b>(TimeStamp)</b>
<br>VALID: SPS<br>LATITUDE: 50.447279 N<br>LONGITUDE: 9.650403 E<br>HEIGHT: 387.878 m<br>SPEED: 9.252 km/h<br>DISTANCE: 45.60 m]]>
</cmt>
<sym>TimeStamp</sym>
<type>T</type>
<fix>3d</fix>
</trkpt>
<trkpt lat="50.44711931" lon="9.65081373" >
<ele>387.154</ele>
<time>2010-10-09T10:44:23Z</time>
<speed>3.2228</speed>
<name>trkpt-2010-10-09T10:44:23Z</name>
<cmt>
<![CDATA[TIME: 09-OCT-10 10:44:23<br>RCR: T <b>(TimeStamp)</b>
<br>VALID: SPS<br>LATITUDE: 50.447119 N<br>LONGITUDE: 9.650814 E<br>HEIGHT: 387.154 m<br>SPEED: 11.602 km/h<br>DISTANCE: 34.16 m]]>
</cmt>
<sym>TimeStamp</sym>
<type>T</type>
<fix>3d</fix>
</trkpt>
<trkpt lat="50.44696923" lon="9.65128875" >
<ele>388.642</ele>
<time>2010-10-09T10:44:33Z</time>
<speed>3.3414</speed>
<name>trkpt-2010-10-09T10:44:33Z</name>
<cmt>
<![CDATA[TIME: 09-OCT-10 10:44:33<br>RCR: T <b>(TimeStamp)</b>
<br>VALID: SPS<br>LATITUDE: 50.446969 N<br>LONGITUDE: 9.651289 E<br>HEIGHT: 388.642 m<br>SPEED: 12.029 km/h<br>DISTANCE: 37.68 m]]>
</cmt>
<sym>TimeStamp</sym>
<type>T</type>
<fix>3d</fix>
</trkpt>
<trkpt lat="50.44681988" lon="9.65176478" >
<ele>387.125</ele>
<time>2010-10-09T10:44:43Z</time>
<speed>3.0466</speed>
<name>trkpt-2010-10-09T10:44:43Z</name>
<cmt>
<![CDATA[TIME: 09-OCT-10 10:44:43<br>RCR: T <b>(TimeStamp)</b>
<br>VALID: SPS<br>LATITUDE: 50.446820 N<br>LONGITUDE: 9.651765 E<br>HEIGHT: 387.125 m<br>SPEED: 10.968 km/h<br>DISTANCE: 37.71 m]]>
</cmt>
<sym>TimeStamp</sym>
<type>T</type>
<fix>3d</fix>
</trkpt>
<trkpt lat="50.44670533" lon="9.65222692" >
<ele>390.032</ele>
<time>2010-10-09T10:44:53Z</time>
<speed>3.0839</speed>
<name>trkpt-2010-10-09T10:44:53Z</name>
<cmt>
<![CDATA[TIME: 09-OCT-10 10:44:53<br>RCR: T <b>(TimeStamp)</b>
<br>VALID: SPS<br>LATITUDE: 50.446705 N<br>LONGITUDE: 9.652227 E<br>HEIGHT: 390.032 m<br>SPEED: 11.102 km/h<br>DISTANCE: 35.33 m]]>
</cmt>
<sym>TimeStamp</sym>
<type>T</type>
<fix>3d</fix>
</trkpt>
<trkpt lat="50.44661083" lon="9.65265347" >
<ele>389.643</ele>
<time>2010-10-09T10:45:03Z</time>
<speed>2.7005</speed>
<name>trkpt-2010-10-09T10:45:03Z</name>
<cmt>
<![CDATA[TIME: 09-OCT-10 10:45:03<br>RCR: T <b>(TimeStamp)</b>
<br>VALID: SPS<br>LATITUDE: 50.446611 N<br>LONGITUDE: 9.652653 E<br>HEIGHT: 389.643 m<br>SPEED: 9.722 km/h<br>DISTANCE: 32.07 m]]>
</cmt>
<sym>TimeStamp</sym>
<type>T</type>
<fix>3d</fix>
</trkpt>
<trkpt lat="50.44651360" lon="9.65314538" >
<ele>389.269</ele>
<time>2010-10-09T10:45:13Z</time>
<speed>3.2126</speed>
<name>trkpt-2010-10-09T10:45:13Z</name>
<cmt>
<![CDATA[TIME: 09-OCT-10 10:45:13<br>RCR: T <b>(TimeStamp)</b>
<br>VALID: SPS<br>LATITUDE: 50.446514 N<br>LONGITUDE: 9.653145 E<br>HEIGHT: 389.269 m<br>SPEED: 11.565 km/h<br>DISTANCE: 36.58 m]]>
</cmt>
<sym>TimeStamp</sym>
<type>T</type>
<fix>3d</fix>
</trkpt>
<trkpt lat="50.44642410" lon="9.65353607" >
<ele>390.684</ele>
<time>2010-10-09T10:45:23Z</time>
<speed>2.2236</speed>
<name>trkpt-2010-10-09T10:45:23Z</name>
<cmt>
<![CDATA[TIME: 09-OCT-10 10:45:23<br>RCR: T <b>(TimeStamp)</b>
<br>VALID: SPS<br>LATITUDE: 50.446424 N<br>LONGITUDE: 9.653536 E<br>HEIGHT: 390.684 m<br>SPEED: 8.005 km/h<br>DISTANCE: 29.52 m]]>
</cmt>
<sym>TimeStamp</sym>
<type>T</type>
<fix>3d</fix>
</trkpt>
<trkpt lat="50.44629480" lon="9.65398958" >
<ele>392.636</ele>
<time>2010-10-09T10:45:33Z</time>
<speed>3.1998</speed>
<name>trkpt-2010-10-09T10:45:33Z</name>
<cmt>
<![CDATA[TIME: 09-OCT-10 10:45:33<br>RCR: T <b>(TimeStamp)</b>
<br>VALID: SPS<br>LATITUDE: 50.446295 N<br>LONGITUDE: 9.653990 E<br>HEIGHT: 392.636 m<br>SPEED: 11.519 km/h<br>DISTANCE: 35.33 m]]>
</cmt>
<sym>TimeStamp</sym>
<type>T</type>
<fix>3d</fix>
</trkpt>
<trkpt lat="50.44612501" lon="9.65441687" >
<ele>395.562</ele>
<time>2010-10-09T10:45:43Z</time>
<speed>3.1239</speed>
<name>trkpt-2010-10-09T10:45:43Z</name>
<cmt>
<![CDATA[TIME: 09-OCT-10 10:45:43<br>RCR: T <b>(TimeStamp)</b>
<br>VALID: SPS<br>LATITUDE: 50.446125 N<br>LONGITUDE: 9.654417 E<br>HEIGHT: 395.562 m<br>SPEED: 11.246 km/h<br>DISTANCE: 35.87 m]]>
</cmt>
<sym>TimeStamp</sym>
<type>T</type>
<fix>3d</fix>
</trkpt>
<trkpt lat="50.44593700" lon="9.65496525" >
<ele>399.126</ele>
<time>2010-10-09T10:45:53Z</time>
<speed>3.6269</speed>
<name>trkpt-2010-10-09T10:45:53Z</name>
<cmt>
<![CDATA[TIME: 09-OCT-10 10:45:53<br>RCR: T <b>(TimeStamp)</b>
<br>VALID: SPS<br>LATITUDE: 50.445937 N<br>LONGITUDE: 9.654965 E<br>HEIGHT: 399.126 m<br>SPEED: 13.057 km/h<br>DISTANCE: 44.36 m]]>
</cmt>
<sym>TimeStamp</sym>
<type>T</type>
<fix>3d</fix>
</trkpt>
<trkpt lat="50.44579257" lon="9.65539542" >
<ele>401.001</ele>
<time>2010-10-09T10:46:03Z</time>
<speed>3.0408</speed>
<name>trkpt-2010-10-09T10:46:03Z</name>
<cmt>
<![CDATA[TIME: 09-OCT-10 10:46:03<br>RCR: T <b>(TimeStamp)</b>
<br>VALID: SPS<br>LATITUDE: 50.445793 N<br>LONGITUDE: 9.655395 E<br>HEIGHT: 401.001 m<br>SPEED: 10.947 km/h<br>DISTANCE: 34.57 m]]>
</cmt>
<sym>TimeStamp</sym>
<type>T</type>
<fix>3d</fix>
</trkpt>
<trkpt lat="50.44560688" lon="9.65603238" >
<ele>402.591</ele>
<time>2010-10-09T10:46:13Z</time>
<speed>5.2192</speed>
<name>trkpt-2010-10-09T10:46:13Z</name>
<cmt>
<![CDATA[TIME: 09-OCT-10 10:46:13<br>RCR: T <b>(TimeStamp)</b>
<br>VALID: SPS<br>LATITUDE: 50.445607 N<br>LONGITUDE: 9.656032 E<br>HEIGHT: 402.591 m<br>SPEED: 18.789 km/h<br>DISTANCE: 49.77 m]]>
</cmt>
<sym>TimeStamp</sym>
<type>T</type>
<fix>3d</fix>
</trkpt>
<trkpt lat="50.44548990" lon="9.65689321" >
<ele>402.216</ele>
<time>2010-10-09T10:46:23Z</time>
<speed>6.9198</speed>
<name>trkpt-2010-10-09T10:46:23Z</name>
<cmt>
<![CDATA[TIME: 09-OCT-10 10:46:23<br>RCR: T <b>(TimeStamp)</b>
<br>VALID: SPS<br>LATITUDE: 50.445490 N<br>LONGITUDE: 9.656893 E<br>HEIGHT: 402.216 m<br>SPEED: 24.911 km/h<br>DISTANCE: 62.52 m]]>
</cmt>
<sym>TimeStamp</sym>
<type>T</type>
<fix>3d</fix>
</trkpt>
<trkpt lat="50.44536026" lon="9.65792839" >
<ele>403.329</ele>
<time>2010-10-09T10:46:33Z</time>
<speed>7.0297</speed>
<name>trkpt-2010-10-09T10:46:33Z</name>
<cmt>
<![CDATA[TIME: 09-OCT-10 10:46:33<br>RCR: T <b>(TimeStamp)</b>
<br>VALID: SPS<br>LATITUDE: 50.445360 N<br>LONGITUDE: 9.657928 E<br>HEIGHT: 403.329 m<br>SPEED: 25.307 km/h<br>DISTANCE: 74.94 m]]>
</cmt>
<sym>TimeStamp</sym>
<type>T</type>
<fix>3d</fix>
</trkpt>
<trkpt lat="50.44522656" lon="9.65904521" >
<ele>406.307</ele>
<time>2010-10-09T10:46:43Z</time>
<speed>8.2174</speed>
<name>trkpt-2010-10-09T10:46:43Z</name>
<cmt>
<![CDATA[TIME: 09-OCT-10 10:46:43<br>RCR: T <b>(TimeStamp)</b>
<br>VALID: SPS<br>LATITUDE: 50.445227 N<br>LONGITUDE: 9.659045 E<br>HEIGHT: 406.307 m<br>SPEED: 29.583 km/h<br>DISTANCE: 80.77 m]]>
</cmt>
<sym>TimeStamp</sym>
<type>T</type>
<fix>3d</fix>
</trkpt>
<trkpt lat="50.44508382" lon="9.66022605" >
<ele>405.521</ele>
<time>2010-10-09T10:46:53Z</time>
<speed>8.0200</speed>
<name>trkpt-2010-10-09T10:46:53Z</name>
<cmt>
<![CDATA[TIME: 09-OCT-10 10:46:53<br>RCR: T <b>(TimeStamp)</b>
<br>VALID: SPS<br>LATITUDE: 50.445084 N<br>LONGITUDE: 9.660226 E<br>HEIGHT: 405.521 m<br>SPEED: 28.872 km/h<br>DISTANCE: 85.38 m]]>
</cmt>
<sym>TimeStamp</sym>
<type>T</type>
<fix>3d</fix>
</trkpt>
<trkpt lat="50.44498319" lon="9.66118822" >
<ele>404.670</ele>
<time>2010-10-09T10:47:03Z</time>
<speed>6.3975</speed>
<name>trkpt-2010-10-09T10:47:03Z</name>
<cmt>
<![CDATA[TIME: 09-OCT-10 10:47:03<br>RCR: T <b>(TimeStamp)</b>
<br>VALID: SPS<br>LATITUDE: 50.444983 N<br>LONGITUDE: 9.661188 E<br>HEIGHT: 404.670 m<br>SPEED: 23.031 km/h<br>DISTANCE: 69.27 m]]>
</cmt>
<sym>TimeStamp</sym>
<type>T</type>
<fix>3d</fix>
</trkpt>
<trkpt lat="50.44476001" lon="9.66187803" >
<ele>406.013</ele>
<time>2010-10-09T10:47:13Z</time>
<speed>4.4552</speed>
<name>trkpt-2010-10-09T10:47:13Z</name>
<cmt>
<![CDATA[TIME: 09-OCT-10 10:47:13<br>RCR: T <b>(TimeStamp)</b>
<br>VALID: SPS<br>LATITUDE: 50.444760 N<br>LONGITUDE: 9.661878 E<br>HEIGHT: 406.013 m<br>SPEED: 16.039 km/h<br>DISTANCE: 54.95 m]]>
</cmt>
<sym>TimeStamp</sym>
<type>T</type>
<fix>3d</fix>
</trkpt>
<trkpt lat="50.44451273" lon="9.66239649" >
<ele>409.266</ele>
<time>2010-10-09T10:47:23Z</time>
<speed>2.7673</speed>
<name>trkpt-2010-10-09T10:47:23Z</name>
<cmt>
<![CDATA[TIME: 09-OCT-10 10:47:23<br>RCR: T <b>(TimeStamp)</b>
<br>VALID: SPS<br>LATITUDE: 50.444513 N<br>LONGITUDE: 9.662396 E<br>HEIGHT: 409.266 m<br>SPEED: 9.962 km/h<br>DISTANCE: 46.08 m]]>
</cmt>
<sym>TimeStamp</sym>
<type>T</type>
<fix>3d</fix>
</trkpt>
<trkpt lat="50.44424753" lon="9.66279364" >
<ele>408.327</ele>
<time>2010-10-09T10:47:33Z</time>
<speed>3.8686</speed>
<name>trkpt-2010-10-09T10:47:33Z</name>
<cmt>
<![CDATA[TIME: 09-OCT-10 10:47:33<br>RCR: T <b>(TimeStamp)</b>
<br>VALID: SPS<br>LATITUDE: 50.444248 N<br>LONGITUDE: 9.662794 E<br>HEIGHT: 408.327 m<br>SPEED: 13.927 km/h<br>DISTANCE: 40.83 m]]>
</cmt>
<sym>TimeStamp</sym>
<type>T</type>
<fix>3d</fix>
</trkpt>
<trkpt lat="50.44390313" lon="9.66318134" >
<ele>408.644</ele>
<time>2010-10-09T10:47:43Z</time>
<speed>2.8180</speed>
<name>trkpt-2010-10-09T10:47:43Z</name>
<cmt>
<![CDATA[TIME: 09-OCT-10 10:47:43<br>RCR: T <b>(TimeStamp)</b>
<br>VALID: SPS<br>LATITUDE: 50.443903 N<br>LONGITUDE: 9.663181 E<br>HEIGHT: 408.644 m<br>SPEED: 10.145 km/h<br>DISTANCE: 47.19 m]]>
</cmt>
<sym>TimeStamp</sym>
<type>T</type>
<fix>3d</fix>
</trkpt>
<trkpt lat="50.44361082" lon="9.66356186" >
<ele>407.683</ele>
<time>2010-10-09T10:47:53Z</time>
<speed>2.0182</speed>
<name>trkpt-2010-10-09T10:47:53Z</name>
<cmt>
<![CDATA[TIME: 09-OCT-10 10:47:53<br>RCR: T <b>(TimeStamp)</b>
<br>VALID: SPS<br>LATITUDE: 50.443611 N<br>LONGITUDE: 9.663562 E<br>HEIGHT: 407.683 m<br>SPEED: 7.266 km/h<br>DISTANCE: 42.30 m]]>
</cmt>
<sym>TimeStamp</sym>
<type>T</type>
<fix>3d</fix>
</trkpt>
<trkpt lat="50.44333545" lon="9.66390370" >
<ele>407.394</ele>
<time>2010-10-09T10:48:03Z</time>
<speed>2.7413</speed>
<name>trkpt-2010-10-09T10:48:03Z</name>
<cmt>
<![CDATA[TIME: 09-OCT-10 10:48:03<br>RCR: T <b>(TimeStamp)</b>
<br>VALID: SPS<br>LATITUDE: 50.443335 N<br>LONGITUDE: 9.663904 E<br>HEIGHT: 407.394 m<br>SPEED: 9.869 km/h<br>DISTANCE: 39.09 m]]>
</cmt>
<sym>TimeStamp</sym>
<type>T</type>
<fix>3d</fix>
</trkpt>
<trkpt lat="50.44300864" lon="9.66424526" >
<ele>409.911</ele>
<time>2010-10-09T10:48:13Z</time>
<speed>3.3609</speed>
<name>trkpt-2010-10-09T10:48:13Z</name>
<cmt>
<![CDATA[TIME: 09-OCT-10 10:48:13<br>RCR: T <b>(TimeStamp)</b>
<br>VALID: SPS<br>LATITUDE: 50.443009 N<br>LONGITUDE: 9.664245 E<br>HEIGHT: 409.911 m<br>SPEED: 12.099 km/h<br>DISTANCE: 43.78 m]]>
</cmt>
<sym>TimeStamp</sym>
<type>T</type>
<fix>3d</fix>
</trkpt>
<trkpt lat="50.44271180" lon="9.66466121" >
<ele>413.174</ele>
<time>2010-10-09T10:48:23Z</time>
<speed>3.9126</speed>
<name>trkpt-2010-10-09T10:48:23Z</name>
<cmt>
<![CDATA[TIME: 09-OCT-10 10:48:23<br>RCR: T <b>(TimeStamp)</b>
<br>VALID: SPS<br>LATITUDE: 50.442712 N<br>LONGITUDE: 9.664661 E<br>HEIGHT: 413.174 m<br>SPEED: 14.086 km/h<br>DISTANCE: 44.43 m]]>
</cmt>
<sym>TimeStamp</sym>
<type>T</type>
<fix>3d</fix>
</trkpt>
<trkpt lat="50.44230080" lon="9.66505234" >
<ele>415.470</ele>
<time>2010-10-09T10:48:33Z</time>
<speed>4.0377</speed>
<name>trkpt-2010-10-09T10:48:33Z</name>
<cmt>
<![CDATA[TIME: 09-OCT-10 10:48:33<br>RCR: T <b>(TimeStamp)</b>
<br>VALID: SPS<br>LATITUDE: 50.442301 N<br>LONGITUDE: 9.665052 E<br>HEIGHT: 415.470 m<br>SPEED: 14.536 km/h<br>DISTANCE: 53.55 m]]>
</cmt>
<sym>TimeStamp</sym>
<type>T</type>
<fix>3d</fix>
</trkpt>
<trkpt lat="50.44202893" lon="9.66535521" >
<ele>417.190</ele>
<time>2010-10-09T10:48:43Z</time>
<speed>2.9181</speed>
<name>trkpt-2010-10-09T10:48:43Z</name>
<cmt>
<![CDATA[TIME: 09-OCT-10 10:48:43<br>RCR: T <b>(TimeStamp)</b>
<br>VALID: SPS<br>LATITUDE: 50.442029 N<br>LONGITUDE: 9.665355 E<br>HEIGHT: 417.190 m<br>SPEED: 10.505 km/h<br>DISTANCE: 37.16 m]]>
</cmt>
<sym>TimeStamp</sym>
<type>T</type>
<fix>3d</fix>
</trkpt>
<trkpt lat="50.44159388" lon="9.66569600" >
<ele>417.350</ele>
<time>2010-10-09T10:48:53Z</time>
<speed>3.2404</speed>
<name>trkpt-2010-10-09T10:48:53Z</name>
<cmt>
<![CDATA[TIME: 09-OCT-10 10:48:53<br>RCR: T <b>(TimeStamp)</b>
<br>VALID: SPS<br>LATITUDE: 50.441594 N<br>LONGITUDE: 9.665696 E<br>HEIGHT: 417.350 m<br>SPEED: 11.665 km/h<br>DISTANCE: 54.12 m]]>
</cmt>
<sym>TimeStamp</sym>
<type>T</type>
<fix>3d</fix>
</trkpt>
<trkpt lat="50.44112062" lon="9.66592785" >
<ele>415.508</ele>
<time>2010-10-09T10:49:03Z</time>
<speed>2.9732</speed>
<name>trkpt-2010-10-09T10:49:03Z</name>
<cmt>
<![CDATA[TIME: 09-OCT-10 10:49:03<br>RCR: T <b>(TimeStamp)</b>
<br>VALID: SPS<br>LATITUDE: 50.441121 N<br>LONGITUDE: 9.665928 E<br>HEIGHT: 415.508 m<br>SPEED: 10.704 km/h<br>DISTANCE: 55.19 m]]>
</cmt>
<sym>TimeStamp</sym>
<type>T</type>
<fix>3d</fix>
</trkpt>
<trkpt lat="50.44072024" lon="9.66608283" >
<ele>411.171</ele>
<time>2010-10-09T10:49:13Z</time>
<speed>3.9287</speed>
<name>trkpt-2010-10-09T10:49:13Z</name>
<cmt>
<![CDATA[TIME: 09-OCT-10 10:49:13<br>RCR: T <b>(TimeStamp)</b>
<br>VALID: SPS<br>LATITUDE: 50.440720 N<br>LONGITUDE: 9.666083 E<br>HEIGHT: 411.171 m<br>SPEED: 14.143 km/h<br>DISTANCE: 46.09 m]]>
</cmt>
<sym>TimeStamp</sym>
<type>T</type>
<fix>3d</fix>
</trkpt>
<trkpt lat="50.44041091" lon="9.66625636" >
<ele>412.667</ele>
<time>2010-10-09T10:49:23Z</time>
<speed>2.7526</speed>
<name>trkpt-2010-10-09T10:49:23Z</name>
<cmt>
<![CDATA[TIME: 09-OCT-10 10:49:23<br>RCR: T <b>(TimeStamp)</b>
<br>VALID: SPS<br>LATITUDE: 50.440411 N<br>LONGITUDE: 9.666256 E<br>HEIGHT: 412.667 m<br>SPEED: 9.909 km/h<br>DISTANCE: 36.58 m]]>
</cmt>
<sym>TimeStamp</sym>
<type>T</type>
<fix>3d</fix>
</trkpt>
<trkpt lat="50.44003625" lon="9.66640745" >
<ele>412.058</ele>
<time>2010-10-09T10:49:33Z</time>
<speed>3.5579</speed>
<name>trkpt-2010-10-09T10:49:33Z</name>
<cmt>
<![CDATA[TIME: 09-OCT-10 10:49:33<br>RCR: T <b>(TimeStamp)</b>
<br>VALID: SPS<br>LATITUDE: 50.440036 N<br>LONGITUDE: 9.666407 E<br>HEIGHT: 412.058 m<br>SPEED: 12.809 km/h<br>DISTANCE: 43.04 m]]>
</cmt>
<sym>TimeStamp</sym>
<type>T</type>
<fix>3d</fix>
</trkpt>
<trkpt lat="50.43973799" lon="9.66650999" >
<ele>414.834</ele>
<time>2010-10-09T10:49:43Z</time>
<speed>2.6608</speed>
<name>trkpt-2010-10-09T10:49:43Z</name>
<cmt>
<![CDATA[TIME: 09-OCT-10 10:49:43<br>RCR: T <b>(TimeStamp)</b>
<br>VALID: SPS<br>LATITUDE: 50.439738 N<br>LONGITUDE: 9.666510 E<br>HEIGHT: 414.834 m<br>SPEED: 9.579 km/h<br>DISTANCE: 34.08 m]]>
</cmt>
<sym>TimeStamp</sym>
<type>T</type>
<fix>3d</fix>
</trkpt>
<trkpt lat="50.43938653" lon="9.66656203" >
<ele>413.106</ele>
<time>2010-10-09T10:49:53Z</time>
<speed>3.6007</speed>
<name>trkpt-2010-10-09T10:49:53Z</name>
<cmt>
<![CDATA[TIME: 09-OCT-10 10:49:53<br>RCR: T <b>(TimeStamp)</b>
<br>VALID: SPS<br>LATITUDE: 50.439387 N<br>LONGITUDE: 9.666562 E<br>HEIGHT: 413.106 m<br>SPEED: 12.963 km/h<br>DISTANCE: 39.31 m]]>
</cmt>
<sym>TimeStamp</sym>
<type>T</type>
<fix>3d</fix>
</trkpt>
<trkpt lat="50.43901795" lon="9.66654708" >
<ele>406.719</ele>
<time>2010-10-09T10:50:03Z</time>
<speed>3.7714</speed>
<name>trkpt-2010-10-09T10:50:03Z</name>
<cmt>
<![CDATA[TIME: 09-OCT-10 10:50:03<br>RCR: T <b>(TimeStamp)</b>
<br>VALID: SPS<br>LATITUDE: 50.439018 N<br>LONGITUDE: 9.666547 E<br>HEIGHT: 406.719 m<br>SPEED: 13.577 km/h<br>DISTANCE: 41.51 m]]>
</cmt>
<sym>TimeStamp</sym>
<type>T</type>
<fix>3d</fix>
</trkpt>
<trkpt lat="50.43852123" lon="9.66660053" >
<ele>398.978</ele>
<time>2010-10-09T10:50:13Z</time>
<speed>5.1190</speed>
<name>trkpt-2010-10-09T10:50:13Z</name>
<cmt>
<![CDATA[TIME: 09-OCT-10 10:50:13<br>RCR: T <b>(TimeStamp)</b>
<br>VALID: SPS<br>LATITUDE: 50.438521 N<br>LONGITUDE: 9.666601 E<br>HEIGHT: 398.978 m<br>SPEED: 18.428 km/h<br>DISTANCE: 55.93 m]]>
</cmt>
<sym>TimeStamp</sym>
<type>T</type>
<fix>3d</fix>
</trkpt>
<trkpt lat="50.43769568" lon="9.66676811" >
<ele>394.035</ele>
<time>2010-10-09T10:50:23Z</time>
<speed>7.0123</speed>
<name>trkpt-2010-10-09T10:50:23Z</name>
<cmt>
<![CDATA[TIME: 09-OCT-10 10:50:23<br>RCR: T <b>(TimeStamp)</b>
<br>VALID: SPS<br>LATITUDE: 50.437696 N<br>LONGITUDE: 9.666768 E<br>HEIGHT: 394.035 m<br>SPEED: 25.244 km/h<br>DISTANCE: 92.74 m]]>
</cmt>
<sym>TimeStamp</sym>
<type>T</type>
<fix>3d</fix>
</trkpt>
<trkpt lat="50.43706588" lon="9.66669117" >
<ele>395.968</ele>
<time>2010-10-09T10:50:33Z</time>
<speed>6.0029</speed>
<name>trkpt-2010-10-09T10:50:33Z</name>
<cmt>
<![CDATA[TIME: 09-OCT-10 10:50:33<br>RCR: T <b>(TimeStamp)</b>
<br>VALID: SPS<br>LATITUDE: 50.437066 N<br>LONGITUDE: 9.666691 E<br>HEIGHT: 395.968 m<br>SPEED: 21.610 km/h<br>DISTANCE: 70.30 m]]>
</cmt>
<sym>TimeStamp</sym>
<type>T</type>
<fix>3d</fix>
</trkpt>
<trkpt lat="50.43662246" lon="9.66658230" >
<ele>396.854</ele>
<time>2010-10-09T10:50:43Z</time>
<speed>3.5679</speed>
<name>trkpt-2010-10-09T10:50:43Z</name>
<cmt>
<![CDATA[TIME: 09-OCT-10 10:50:43<br>RCR: T <b>(TimeStamp)</b>
<br>VALID: SPS<br>LATITUDE: 50.436622 N<br>LONGITUDE: 9.666582 E<br>HEIGHT: 396.854 m<br>SPEED: 12.844 km/h<br>DISTANCE: 49.94 m]]>
</cmt>
<sym>TimeStamp</sym>
<type>T</type>
<fix>3d</fix>
</trkpt>
<trkpt lat="50.43636387" lon="9.66684781" >
<ele>400.209</ele>
<time>2010-10-09T10:50:53Z</time>
<speed>2.5837</speed>
<name>trkpt-2010-10-09T10:50:53Z</name>
<cmt>
<![CDATA[TIME: 09-OCT-10 10:50:53<br>RCR: T <b>(TimeStamp)</b>
<br>VALID: SPS<br>LATITUDE: 50.436364 N<br>LONGITUDE: 9.666848 E<br>HEIGHT: 400.209 m<br>SPEED: 9.301 km/h<br>DISTANCE: 34.56 m]]>
</cmt>
<sym>TimeStamp</sym>
<type>T</type>
<fix>3d</fix>
</trkpt>
<trkpt lat="50.43638275" lon="9.66699767" >
<ele>401.626</ele>
<time>2010-10-09T10:51:03Z</time>
<speed>0.0581</speed>
<name>trkpt-2010-10-09T10:51:03Z</name>
<cmt>
<![CDATA[TIME: 09-OCT-10 10:51:03<br>RCR: T <b>(TimeStamp)</b>
<br>VALID: SPS<br>LATITUDE: 50.436383 N<br>LONGITUDE: 9.666998 E<br>HEIGHT: 401.626 m<br>SPEED: 0.209 km/h<br>DISTANCE: 10.94 m]]>
</cmt>
<sym>TimeStamp</sym>
<type>T</type>
<fix>3d</fix>
</trkpt>
<trkpt lat="50.43638586" lon="9.66700469" >
<ele>401.836</ele>
<time>2010-10-09T10:51:13Z</time>
<speed>0.1155</speed>
<name>trkpt-2010-10-09T10:51:13Z</name>
<cmt>
<![CDATA[TIME: 09-OCT-10 10:51:13<br>RCR: T <b>(TimeStamp)</b>
<br>VALID: SPS<br>LATITUDE: 50.436386 N<br>LONGITUDE: 9.667005 E<br>HEIGHT: 401.836 m<br>SPEED: 0.416 km/h<br>DISTANCE: 0.64 m]]>
</cmt>
<sym>TimeStamp</sym>
<type>T</type>
<fix>3d</fix>
</trkpt>
<trkpt lat="50.43638862" lon="9.66700213" >
<ele>401.984</ele>
<time>2010-10-09T10:51:23Z</time>
<speed>0.2027</speed>
<name>trkpt-2010-10-09T10:51:23Z</name>
<cmt>
<![CDATA[TIME: 09-OCT-10 10:51:23<br>RCR: T <b>(TimeStamp)</b>
<br>VALID: SPS<br>LATITUDE: 50.436389 N<br>LONGITUDE: 9.667002 E<br>HEIGHT: 401.984 m<br>SPEED: 0.730 km/h<br>DISTANCE: 0.39 m]]>
</cmt>
<sym>TimeStamp</sym>
<type>T</type>
<fix>3d</fix>
</trkpt>
<trkpt lat="50.43638972" lon="9.66700233" >
<ele>402.091</ele>
<time>2010-10-09T10:51:33Z</time>
<speed>0.0019</speed>
<name>trkpt-2010-10-09T10:51:33Z</name>
<cmt>
<![CDATA[TIME: 09-OCT-10 10:51:33<br>RCR: T <b>(TimeStamp)</b>
<br>VALID: SPS<br>LATITUDE: 50.436390 N<br>LONGITUDE: 9.667002 E<br>HEIGHT: 402.091 m<br>SPEED: 0.007 km/h<br>DISTANCE: 0.16 m]]>
</cmt>
<sym>TimeStamp</sym>
<type>T</type>
<fix>3d</fix>
</trkpt>
<trkpt lat="50.43639080" lon="9.66700261" >
<ele>402.154</ele>
<time>2010-10-09T10:51:43Z</time>
<speed>0.0002</speed>
<name>trkpt-2010-10-09T10:51:43Z</name>
<cmt>
<![CDATA[TIME: 09-OCT-10 10:51:43<br>RCR: T <b>(TimeStamp)</b>
<br>VALID: SPS<br>LATITUDE: 50.436391 N<br>LONGITUDE: 9.667003 E<br>HEIGHT: 402.154 m<br>SPEED: 0.001 km/h<br>DISTANCE: 0.14 m]]>
</cmt>
<sym>TimeStamp</sym>
<type>T</type>
<fix>3d</fix>
</trkpt>
<trkpt lat="50.43639218" lon="9.66700282" >
<ele>402.255</ele>
<time>2010-10-09T10:51:53Z</time>
<speed>0.0036</speed>
<name>trkpt-2010-10-09T10:51:53Z</name>
<cmt>
<![CDATA[TIME: 09-OCT-10 10:51:53<br>RCR: T <b>(TimeStamp)</b>
<br>VALID: SPS<br>LATITUDE: 50.436392 N<br>LONGITUDE: 9.667003 E<br>HEIGHT: 402.255 m<br>SPEED: 0.013 km/h<br>DISTANCE: 0.18 m]]>
</cmt>
<sym>TimeStamp</sym>
<type>T</type>
<fix>3d</fix>
</trkpt>
<trkpt lat="50.43639952" lon="9.66700077" >
<ele>402.449</ele>
<time>2010-10-09T10:52:03Z</time>
<speed>0.0039</speed>
<name>trkpt-2010-10-09T10:52:03Z</name>
<cmt>
<![CDATA[TIME: 09-OCT-10 10:52:03<br>RCR: T <b>(TimeStamp)</b>
<br>VALID: SPS<br>LATITUDE: 50.436400 N<br>LONGITUDE: 9.667001 E<br>HEIGHT: 402.449 m<br>SPEED: 0.014 km/h<br>DISTANCE: 0.85 m]]>
</cmt>
<sym>TimeStamp</sym>
<type>T</type>
<fix>3d</fix>
</trkpt>
<trkpt lat="50.43640837" lon="9.66699675" >
<ele>402.451</ele>
<time>2010-10-09T10:52:13Z</time>
<speed>0.1346</speed>
<name>trkpt-2010-10-09T10:52:13Z</name>
<cmt>
<![CDATA[TIME: 09-OCT-10 10:52:13<br>RCR: T <b>(TimeStamp)</b>
<br>VALID: SPS<br>LATITUDE: 50.436408 N<br>LONGITUDE: 9.666997 E<br>HEIGHT: 402.451 m<br>SPEED: 0.485 km/h<br>DISTANCE: 1.02 m]]>
</cmt>
<sym>TimeStamp</sym>
<type>T</type>
<fix>3d</fix>
</trkpt>
<trkpt lat="50.43642822" lon="9.66699176" >
<ele>402.633</ele>
<time>2010-10-09T10:52:23Z</time>
<speed>0.3299</speed>
<name>trkpt-2010-10-09T10:52:23Z</name>
<cmt>
<![CDATA[TIME: 09-OCT-10 10:52:23<br>RCR: T <b>(TimeStamp)</b>
<br>VALID: SPS<br>LATITUDE: 50.436428 N<br>LONGITUDE: 9.666992 E<br>HEIGHT: 402.633 m<br>SPEED: 1.188 km/h<br>DISTANCE: 2.24 m]]>
</cmt>
<sym>TimeStamp</sym>
<type>T</type>
<fix>3d</fix>
</trkpt>
<trkpt lat="50.43645313" lon="9.66698086" >
<ele>403.567</ele>
<time>2010-10-09T10:52:33Z</time>
<speed>0.0652</speed>
<name>trkpt-2010-10-09T10:52:33Z</name>
<cmt>
<![CDATA[TIME: 09-OCT-10 10:52:33<br>RCR: T <b>(TimeStamp)</b>
<br>VALID: SPS<br>LATITUDE: 50.436453 N<br>LONGITUDE: 9.666981 E<br>HEIGHT: 403.567 m<br>SPEED: 0.235 km/h<br>DISTANCE: 3.03 m]]>
</cmt>
<sym>TimeStamp</sym>
<type>T</type>
<fix>3d</fix>
</trkpt>
<trkpt lat="50.43645741" lon="9.66697373" >
<ele>403.986</ele>
<time>2010-10-09T10:52:43Z</time>
<speed>0.1270</speed>
<name>trkpt-2010-10-09T10:52:43Z</name>
<cmt>
<![CDATA[TIME: 09-OCT-10 10:52:43<br>RCR: T <b>(TimeStamp)</b>
<br>VALID: SPS<br>LATITUDE: 50.436457 N<br>LONGITUDE: 9.666974 E<br>HEIGHT: 403.986 m<br>SPEED: 0.457 km/h<br>DISTANCE: 0.81 m]]>
</cmt>
<sym>TimeStamp</sym>
<type>T</type>
<fix>3d</fix>
</trkpt>
<trkpt lat="50.43645984" lon="9.66697136" >
<ele>404.199</ele>
<time>2010-10-09T10:52:53Z</time>
<speed>0.4212</speed>
<name>trkpt-2010-10-09T10:52:53Z</name>
<cmt>
<![CDATA[TIME: 09-OCT-10 10:52:53<br>RCR: T <b>(TimeStamp)</b>
<br>VALID: SPS<br>LATITUDE: 50.436460 N<br>LONGITUDE: 9.666971 E<br>HEIGHT: 404.199 m<br>SPEED: 1.516 km/h<br>DISTANCE: 0.38 m]]>
</cmt>
<sym>TimeStamp</sym>
<type>T</type>
<fix>3d</fix>
</trkpt>
<trkpt lat="50.43646021" lon="9.66678053" >
<ele>406.931</ele>
<time>2010-10-09T10:53:03Z</time>
<speed>0.9205</speed>
<name>trkpt-2010-10-09T10:53:03Z</name>
<cmt>
<![CDATA[TIME: 09-OCT-10 10:53:03<br>RCR: T <b>(TimeStamp)</b>
<br>VALID: SPS<br>LATITUDE: 50.436460 N<br>LONGITUDE: 9.666781 E<br>HEIGHT: 406.931 m<br>SPEED: 3.314 km/h<br>DISTANCE: 13.83 m]]>
</cmt>
<sym>TimeStamp</sym>
<type>T</type>
<fix>3d</fix>
</trkpt>
<trkpt lat="50.43619103" lon="9.66667895" >
<ele>405.858</ele>
<time>2010-10-09T10:53:13Z</time>
<speed>2.9428</speed>
<name>trkpt-2010-10-09T10:53:13Z</name>
<cmt>
<![CDATA[TIME: 09-OCT-10 10:53:13<br>RCR: T <b>(TimeStamp)</b>
<br>VALID: SPS<br>LATITUDE: 50.436191 N<br>LONGITUDE: 9.666679 E<br>HEIGHT: 405.858 m<br>SPEED: 10.594 km/h<br>DISTANCE: 30.82 m]]>
</cmt>
<sym>TimeStamp</sym>
<type>T</type>
<fix>3d</fix>
</trkpt>
<trkpt lat="50.43602018" lon="9.66660609" >
<ele>403.527</ele>
<time>2010-10-09T10:53:23Z</time>
<speed>2.0409</speed>
<name>trkpt-2010-10-09T10:53:23Z</name>
<cmt>
<![CDATA[TIME: 09-OCT-10 10:53:23<br>RCR: T <b>(TimeStamp)</b>
<br>VALID: SPS<br>LATITUDE: 50.436020 N<br>LONGITUDE: 9.666606 E<br>HEIGHT: 403.527 m<br>SPEED: 7.347 km/h<br>DISTANCE: 19.84 m]]>
</cmt>
<sym>TimeStamp</sym>
<type>T</type>
<fix>3d</fix>
</trkpt>
<trkpt lat="50.43575141" lon="9.66647615" >
<ele>396.018</ele>
<time>2010-10-09T10:53:33Z</time>
<speed>3.2669</speed>
<name>trkpt-2010-10-09T10:53:33Z</name>
<cmt>
<![CDATA[TIME: 09-OCT-10 10:53:33<br>RCR: T <b>(TimeStamp)</b>
<br>VALID: SPS<br>LATITUDE: 50.435751 N<br>LONGITUDE: 9.666476 E<br>HEIGHT: 396.018 m<br>SPEED: 11.761 km/h<br>DISTANCE: 32.18 m]]>
</cmt>
<sym>TimeStamp</sym>
<type>T</type>
<fix>3d</fix>
</trkpt>
<trkpt lat="50.43539946" lon="9.66632064" >
<ele>392.487</ele>
<time>2010-10-09T10:53:43Z</time>
<speed>3.9536</speed>
<name>trkpt-2010-10-09T10:53:43Z</name>
<cmt>
<![CDATA[TIME: 09-OCT-10 10:53:43<br>RCR: T <b>(TimeStamp)</b>
<br>VALID: SPS<br>LATITUDE: 50.435399 N<br>LONGITUDE: 9.666321 E<br>HEIGHT: 392.487 m<br>SPEED: 14.233 km/h<br>DISTANCE: 40.84 m]]>
</cmt>
<sym>TimeStamp</sym>
<type>T</type>
<fix>3d</fix>
</trkpt>
<trkpt lat="50.43494727" lon="9.66626210" >
<ele>399.378</ele>
<time>2010-10-09T10:53:53Z</time>
<speed>4.4649</speed>
<name>trkpt-2010-10-09T10:53:53Z</name>
<cmt>
<![CDATA[TIME: 09-OCT-10 10:53:53<br>RCR: T <b>(TimeStamp)</b>
<br>VALID: SPS<br>LATITUDE: 50.434947 N<br>LONGITUDE: 9.666262 E<br>HEIGHT: 399.378 m<br>SPEED: 16.074 km/h<br>DISTANCE: 50.94 m]]>
</cmt>
<sym>TimeStamp</sym>
<type>T</type>
<fix>3d</fix>
</trkpt>
<trkpt lat="50.43453650" lon="9.66621629" >
<ele>405.173</ele>
<time>2010-10-09T10:54:03Z</time>
<speed>3.6125</speed>
<name>trkpt-2010-10-09T10:54:03Z</name>
<cmt>
<![CDATA[TIME: 09-OCT-10 10:54:03<br>RCR: T <b>(TimeStamp)</b>
<br>VALID: SPS<br>LATITUDE: 50.434537 N<br>LONGITUDE: 9.666216 E<br>HEIGHT: 405.173 m<br>SPEED: 13.005 km/h<br>DISTANCE: 46.18 m]]>
</cmt>
<sym>TimeStamp</sym>
<type>T</type>
<fix>3d</fix>
</trkpt>
<trkpt lat="50.43425429" lon="9.66619802" >
<ele>408.667</ele>
<time>2010-10-09T10:54:13Z</time>
<speed>1.7164</speed>
<name>trkpt-2010-10-09T10:54:13Z</name>
<cmt>
<![CDATA[TIME: 09-OCT-10 10:54:13<br>RCR: T <b>(TimeStamp)</b>
<br>VALID: SPS<br>LATITUDE: 50.434254 N<br>LONGITUDE: 9.666198 E<br>HEIGHT: 408.667 m<br>SPEED: 6.179 km/h<br>DISTANCE: 31.62 m]]>
</cmt>
<sym>TimeStamp</sym>
<type>T</type>
<fix>3d</fix>
</trkpt>
<trkpt lat="50.43402357" lon="9.66613877" >
<ele>414.687</ele>
<time>2010-10-09T10:54:23Z</time>
<speed>2.5419</speed>
<name>trkpt-2010-10-09T10:54:23Z</name>
<cmt>
<![CDATA[TIME: 09-OCT-10 10:54:23<br>RCR: T <b>(TimeStamp)</b>
<br>VALID: SPS<br>LATITUDE: 50.434024 N<br>LONGITUDE: 9.666139 E<br>HEIGHT: 414.687 m<br>SPEED: 9.151 km/h<br>DISTANCE: 26.70 m]]>
</cmt>
<sym>TimeStamp</sym>
<type>T</type>
<fix>3d</fix>
</trkpt>
<trkpt lat="50.43389709" lon="9.66604406" >
<ele>415.575</ele>
<time>2010-10-09T10:54:33Z</time>
<speed>0.9562</speed>
<name>trkpt-2010-10-09T10:54:33Z</name>
<cmt>
<![CDATA[TIME: 09-OCT-10 10:54:33<br>RCR: T <b>(TimeStamp)</b>
<br>VALID: SPS<br>LATITUDE: 50.433897 N<br>LONGITUDE: 9.666044 E<br>HEIGHT: 415.575 m<br>SPEED: 3.442 km/h<br>DISTANCE: 15.62 m]]>
</cmt>
<sym>TimeStamp</sym>
<type>T</type>
<fix>3d</fix>
</trkpt>
<trkpt lat="50.43375350" lon="9.66593060" >
<ele>419.752</ele>
<time>2010-10-09T10:54:43Z</time>
<speed>0.6567</speed>
<name>trkpt-2010-10-09T10:54:43Z</name>
<cmt>
<![CDATA[TIME: 09-OCT-10 10:54:43<br>RCR: T <b>(TimeStamp)</b>
<br>VALID: SPS<br>LATITUDE: 50.433753 N<br>LONGITUDE: 9.665931 E<br>HEIGHT: 419.752 m<br>SPEED: 2.364 km/h<br>DISTANCE: 18.37 m]]>
</cmt>
<sym>TimeStamp</sym>
<type>T</type>
<fix>3d</fix>
</trkpt>
<trkpt lat="50.43363381" lon="9.66589566" >
<ele>423.657</ele>
<time>2010-10-09T10:54:53Z</time>
<speed>0.7857</speed>
<name>trkpt-2010-10-09T10:54:53Z</name>
<cmt>
<![CDATA[TIME: 09-OCT-10 10:54:53<br>RCR: T <b>(TimeStamp)</b>
<br>VALID: SPS<br>LATITUDE: 50.433634 N<br>LONGITUDE: 9.665896 E<br>HEIGHT: 423.657 m<br>SPEED: 2.829 km/h<br>DISTANCE: 14.10 m]]>
</cmt>
<sym>TimeStamp</sym>
<type>T</type>
<fix>3d</fix>
</trkpt>
<trkpt lat="50.43345566" lon="9.66585954" >
<ele>426.533</ele>
<time>2010-10-09T10:55:03Z</time>
<speed>0.7035</speed>
<name>trkpt-2010-10-09T10:55:03Z</name>
<cmt>
<![CDATA[TIME: 09-OCT-10 10:55:03<br>RCR: T <b>(TimeStamp)</b>
<br>VALID: SPS<br>LATITUDE: 50.433456 N<br>LONGITUDE: 9.665860 E<br>HEIGHT: 426.533 m<br>SPEED: 2.532 km/h<br>DISTANCE: 20.19 m]]>
</cmt>
<sym>TimeStamp</sym>
<type>T</type>
<fix>3d</fix>
</trkpt>
<trkpt lat="50.43336080" lon="9.66579409" >
<ele>428.451</ele>
<time>2010-10-09T10:55:13Z</time>
<speed>0.5855</speed>
<name>trkpt-2010-10-09T10:55:13Z</name>
<cmt>
<![CDATA[TIME: 09-OCT-10 10:55:13<br>RCR: T <b>(TimeStamp)</b>
<br>VALID: SPS<br>LATITUDE: 50.433361 N<br>LONGITUDE: 9.665794 E<br>HEIGHT: 428.451 m<br>SPEED: 2.108 km/h<br>DISTANCE: 11.69 m]]>
</cmt>
<sym>TimeStamp</sym>
<type>T</type>
<fix>3d</fix>
</trkpt>
<trkpt lat="50.43328321" lon="9.66570178" >
<ele>430.198</ele>
<time>2010-10-09T10:55:23Z</time>
<speed>0.4844</speed>
<name>trkpt-2010-10-09T10:55:23Z</name>
<cmt>
<![CDATA[TIME: 09-OCT-10 10:55:23<br>RCR: T <b>(TimeStamp)</b>
<br>VALID: SPS<br>LATITUDE: 50.433283 N<br>LONGITUDE: 9.665702 E<br>HEIGHT: 430.198 m<br>SPEED: 1.744 km/h<br>DISTANCE: 10.98 m]]>
</cmt>
<sym>TimeStamp</sym>
<type>T</type>
<fix>3d</fix>
</trkpt>
<trkpt lat="50.43306197" lon="9.66559282" >
<ele>433.057</ele>
<time>2010-10-09T10:55:33Z</time>
<speed>1.0520</speed>
<name>trkpt-2010-10-09T10:55:33Z</name>
<cmt>
<![CDATA[TIME: 09-OCT-10 10:55:33<br>RCR: T <b>(TimeStamp)</b>
<br>VALID: SPS<br>LATITUDE: 50.433062 N<br>LONGITUDE: 9.665593 E<br>HEIGHT: 433.057 m<br>SPEED: 3.787 km/h<br>DISTANCE: 25.96 m]]>
</cmt>
<sym>TimeStamp</sym>
<type>T</type>
<fix>3d</fix>
</trkpt>
<trkpt lat="50.43283409" lon="9.66552771" >
<ele>434.379</ele>
<time>2010-10-09T10:55:43Z</time>
<speed>1.2256</speed>
<name>trkpt-2010-10-09T10:55:43Z</name>
<cmt>
<![CDATA[TIME: 09-OCT-10 10:55:43<br>RCR: T <b>(TimeStamp)</b>
<br>VALID: SPS<br>LATITUDE: 50.432834 N<br>LONGITUDE: 9.665528 E<br>HEIGHT: 434.379 m<br>SPEED: 4.412 km/h<br>DISTANCE: 25.80 m]]>
</cmt>
<sym>TimeStamp</sym>
<type>T</type>
<fix>3d</fix>
</trkpt>
<trkpt lat="50.43256074" lon="9.66541188" >
<ele>437.259</ele>
<time>2010-10-09T10:55:53Z</time>
<speed>1.6686</speed>
<name>trkpt-2010-10-09T10:55:53Z</name>
<cmt>
<![CDATA[TIME: 09-OCT-10 10:55:53<br>RCR: T <b>(TimeStamp)</b>
<br>VALID: SPS<br>LATITUDE: 50.432561 N<br>LONGITUDE: 9.665412 E<br>HEIGHT: 437.259 m<br>SPEED: 6.007 km/h<br>DISTANCE: 31.63 m]]>
</cmt>
<sym>TimeStamp</sym>
<type>T</type>
<fix>3d</fix>
</trkpt>
<trkpt lat="50.43234565" lon="9.66535055" >
<ele>439.640</ele>
<time>2010-10-09T10:56:03Z</time>
<speed>1.4294</speed>
<name>trkpt-2010-10-09T10:56:03Z</name>
<cmt>
<![CDATA[TIME: 09-OCT-10 10:56:03<br>RCR: T <b>(TimeStamp)</b>
<br>VALID: SPS<br>LATITUDE: 50.432346 N<br>LONGITUDE: 9.665351 E<br>HEIGHT: 439.640 m<br>SPEED: 5.146 km/h<br>DISTANCE: 24.44 m]]>
</cmt>
<sym>TimeStamp</sym>
<type>T</type>
<fix>3d</fix>
</trkpt>
<trkpt lat="50.43215043" lon="9.66535141" >
<ele>441.892</ele>
<time>2010-10-09T10:56:13Z</time>
<speed>1.7170</speed>
<name>trkpt-2010-10-09T10:56:13Z</name>
<cmt>
<![CDATA[TIME: 09-OCT-10 10:56:13<br>RCR: T <b>(TimeStamp)</b>
<br>VALID: SPS<br>LATITUDE: 50.432150 N<br>LONGITUDE: 9.665351 E<br>HEIGHT: 441.892 m<br>SPEED: 6.181 km/h<br>DISTANCE: 21.83 m]]>
</cmt>
<sym>TimeStamp</sym>
<type>T</type>
<fix>3d</fix>
</trkpt>
<trkpt lat="50.43197280" lon="9.66534069" >
<ele>444.530</ele>
<time>2010-10-09T10:56:23Z</time>
<speed>0.8908</speed>
<name>trkpt-2010-10-09T10:56:23Z</name>
<cmt>
<![CDATA[TIME: 09-OCT-10 10:56:23<br>RCR: T <b>(TimeStamp)</b>
<br>VALID: SPS<br>LATITUDE: 50.431973 N<br>LONGITUDE: 9.665341 E<br>HEIGHT: 444.530 m<br>SPEED: 3.207 km/h<br>DISTANCE: 19.95 m]]>
</cmt>
<sym>TimeStamp</sym>
<type>T</type>
<fix>3d</fix>
</trkpt>
<trkpt lat="50.43176577" lon="9.66535631" >
<ele>447.186</ele>
<time>2010-10-09T10:56:33Z</time>
<speed>1.7825</speed>
<name>trkpt-2010-10-09T10:56:33Z</name>
<cmt>
<![CDATA[TIME: 09-OCT-10 10:56:33<br>RCR: T <b>(TimeStamp)</b>
<br>VALID: SPS<br>LATITUDE: 50.431766 N<br>LONGITUDE: 9.665356 E<br>HEIGHT: 447.186 m<br>SPEED: 6.417 km/h<br>DISTANCE: 23.21 m]]>
</cmt>
<sym>TimeStamp</sym>
<type>T</type>
<fix>3d</fix>
</trkpt>
<trkpt lat="50.43153881" lon="9.66537722" >
<ele>447.828</ele>
<time>2010-10-09T10:56:43Z</time>
<speed>1.8048</speed>
<name>trkpt-2010-10-09T10:56:43Z</name>
<cmt>
<![CDATA[TIME: 09-OCT-10 10:56:43<br>RCR: T <b>(TimeStamp)</b>
<br>VALID: SPS<br>LATITUDE: 50.431539 N<br>LONGITUDE: 9.665377 E<br>HEIGHT: 447.828 m<br>SPEED: 6.497 km/h<br>DISTANCE: 25.30 m]]>
</cmt>
<sym>TimeStamp</sym>
<type>T</type>
<fix>3d</fix>
</trkpt>
<trkpt lat="50.43133092" lon="9.66539342" >
<ele>445.436</ele>
<time>2010-10-09T10:56:53Z</time>
<speed>1.4340</speed>
<name>trkpt-2010-10-09T10:56:53Z</name>
<cmt>
<![CDATA[TIME: 09-OCT-10 10:56:53<br>RCR: T <b>(TimeStamp)</b>
<br>VALID: SPS<br>LATITUDE: 50.431331 N<br>LONGITUDE: 9.665393 E<br>HEIGHT: 445.436 m<br>SPEED: 5.162 km/h<br>DISTANCE: 23.28 m]]>
</cmt>
<sym>TimeStamp</sym>
<type>T</type>
<fix>3d</fix>
</trkpt>
<trkpt lat="50.43099441" lon="9.66548437" >
<ele>446.096</ele>
<time>2010-10-09T10:57:03Z</time>
<speed>3.9030</speed>
<name>trkpt-2010-10-09T10:57:03Z</name>
<cmt>
<![CDATA[TIME: 09-OCT-10 10:57:03<br>RCR: T <b>(TimeStamp)</b>
<br>VALID: SPS<br>LATITUDE: 50.430994 N<br>LONGITUDE: 9.665484 E<br>HEIGHT: 446.096 m<br>SPEED: 14.051 km/h<br>DISTANCE: 37.99 m]]>
</cmt>
<sym>TimeStamp</sym>
<type>T</type>
<fix>3d</fix>
</trkpt>
<trkpt lat="50.43050867" lon="9.66563443" >
<ele>443.815</ele>
<time>2010-10-09T10:57:13Z</time>
<speed>5.9191</speed>
<name>trkpt-2010-10-09T10:57:13Z</name>
<cmt>
<![CDATA[TIME: 09-OCT-10 10:57:13<br>RCR: T <b>(TimeStamp)</b>
<br>VALID: SPS<br>LATITUDE: 50.430509 N<br>LONGITUDE: 9.665634 E<br>HEIGHT: 443.815 m<br>SPEED: 21.309 km/h<br>DISTANCE: 55.13 m]]>
</cmt>
<sym>TimeStamp</sym>
<type>T</type>
<fix>3d</fix>
</trkpt>
<trkpt lat="50.42995739" lon="9.66574642" >
<ele>440.959</ele>
<time>2010-10-09T10:57:23Z</time>
<speed>6.6753</speed>
<name>trkpt-2010-10-09T10:57:23Z</name>
<cmt>
<![CDATA[TIME: 09-OCT-10 10:57:23<br>RCR: T <b>(TimeStamp)</b>
<br>VALID: SPS<br>LATITUDE: 50.429957 N<br>LONGITUDE: 9.665746 E<br>HEIGHT: 440.959 m<br>SPEED: 24.031 km/h<br>DISTANCE: 61.91 m]]>
</cmt>
<sym>TimeStamp</sym>
<type>T</type>
<fix>3d</fix>
</trkpt>
<trkpt lat="50.42922965" lon="9.66590493" >
<ele>441.993</ele>
<time>2010-10-09T10:57:33Z</time>
<speed>7.5285</speed>
<name>trkpt-2010-10-09T10:57:33Z</name>
<cmt>
<![CDATA[TIME: 09-OCT-10 10:57:33<br>RCR: T <b>(TimeStamp)</b>
<br>VALID: SPS<br>LATITUDE: 50.429230 N<br>LONGITUDE: 9.665905 E<br>HEIGHT: 441.993 m<br>SPEED: 27.103 km/h<br>DISTANCE: 81.74 m]]>
</cmt>
<sym>TimeStamp</sym>
<type>T</type>
<fix>3d</fix>
</trkpt>
<trkpt lat="50.42852354" lon="9.66605487" >
<ele>442.820</ele>
<time>2010-10-09T10:57:43Z</time>
<speed>7.3093</speed>
<name>trkpt-2010-10-09T10:57:43Z</name>
<cmt>
<![CDATA[TIME: 09-OCT-10 10:57:43<br>RCR: T <b>(TimeStamp)</b>
<br>VALID: SPS<br>LATITUDE: 50.428524 N<br>LONGITUDE: 9.666055 E<br>HEIGHT: 442.820 m<br>SPEED: 26.314 km/h<br>DISTANCE: 79.28 m]]>
</cmt>
<sym>TimeStamp</sym>
<type>T</type>
<fix>3d</fix>
</trkpt>
<trkpt lat="50.42787471" lon="9.66641486" >
<ele>440.559</ele>
<time>2010-10-09T10:57:53Z</time>
<speed>6.8449</speed>
<name>trkpt-2010-10-09T10:57:53Z</name>
<cmt>
<![CDATA[TIME: 09-OCT-10 10:57:53<br>RCR: T <b>(TimeStamp)</b>
<br>VALID: SPS<br>LATITUDE: 50.427875 N<br>LONGITUDE: 9.666415 E<br>HEIGHT: 440.559 m<br>SPEED: 24.642 km/h<br>DISTANCE: 76.61 m]]>
</cmt>
<sym>TimeStamp</sym>
<type>T</type>
<fix>3d</fix>
</trkpt>
<trkpt lat="50.42736362" lon="9.66659845" >
<ele>443.298</ele>
<time>2010-10-09T10:58:03Z</time>
<speed>5.5464</speed>
<name>trkpt-2010-10-09T10:58:03Z</name>
<cmt>
<![CDATA[TIME: 09-OCT-10 10:58:03<br>RCR: T <b>(TimeStamp)</b>
<br>VALID: SPS<br>LATITUDE: 50.427364 N<br>LONGITUDE: 9.666598 E<br>HEIGHT: 443.298 m<br>SPEED: 19.967 km/h<br>DISTANCE: 58.40 m]]>
</cmt>
<sym>TimeStamp</sym>
<type>T</type>
<fix>3d</fix>
</trkpt>
<trkpt lat="50.42655703" lon="9.66700344" >
<ele>437.533</ele>
<time>2010-10-09T10:58:13Z</time>
<speed>7.6269</speed>
<name>trkpt-2010-10-09T10:58:13Z</name>
<cmt>
<![CDATA[TIME: 09-OCT-10 10:58:13<br>RCR: T <b>(TimeStamp)</b>
<br>VALID: SPS<br>LATITUDE: 50.426557 N<br>LONGITUDE: 9.667003 E<br>HEIGHT: 437.533 m<br>SPEED: 27.457 km/h<br>DISTANCE: 94.41 m]]>
</cmt>
<sym>TimeStamp</sym>
<type>T</type>
<fix>3d</fix>
</trkpt>
<trkpt lat="50.42571959" lon="9.66722407" >
<ele>433.579</ele>
<time>2010-10-09T10:58:23Z</time>
<speed>7.4609</speed>
<name>trkpt-2010-10-09T10:58:23Z</name>
<cmt>
<![CDATA[TIME: 09-OCT-10 10:58:23<br>RCR: T <b>(TimeStamp)</b>
<br>VALID: SPS<br>LATITUDE: 50.425720 N<br>LONGITUDE: 9.667224 E<br>HEIGHT: 433.579 m<br>SPEED: 26.859 km/h<br>DISTANCE: 94.55 m]]>
</cmt>
<sym>TimeStamp</sym>
<type>T</type>
<fix>3d</fix>
</trkpt>
<trkpt lat="50.42500355" lon="9.66709139" >
<ele>428.798</ele>
<time>2010-10-09T10:58:33Z</time>
<speed>6.8945</speed>
<name>trkpt-2010-10-09T10:58:33Z</name>
<cmt>
<![CDATA[TIME: 09-OCT-10 10:58:33<br>RCR: T <b>(TimeStamp)</b>
<br>VALID: SPS<br>LATITUDE: 50.425004 N<br>LONGITUDE: 9.667091 E<br>HEIGHT: 428.798 m<br>SPEED: 24.820 km/h<br>DISTANCE: 80.35 m]]>
</cmt>
<sym>TimeStamp</sym>
<type>T</type>
<fix>3d</fix>
</trkpt>
<trkpt lat="50.42437980" lon="9.66713349" >
<ele>428.641</ele>
<time>2010-10-09T10:58:43Z</time>
<speed>5.2076</speed>
<name>trkpt-2010-10-09T10:58:43Z</name>
<cmt>
<![CDATA[TIME: 09-OCT-10 10:58:43<br>RCR: T <b>(TimeStamp)</b>
<br>VALID: SPS<br>LATITUDE: 50.424380 N<br>LONGITUDE: 9.667133 E<br>HEIGHT: 428.641 m<br>SPEED: 18.747 km/h<br>DISTANCE: 69.45 m]]>
</cmt>
<sym>TimeStamp</sym>
<type>T</type>
<fix>3d</fix>
</trkpt>
<trkpt lat="50.42377929" lon="9.66717979" >
<ele>431.493</ele>
<time>2010-10-09T10:58:53Z</time>
<speed>4.0778</speed>
<name>trkpt-2010-10-09T10:58:53Z</name>
<cmt>
<![CDATA[TIME: 09-OCT-10 10:58:53<br>RCR: T <b>(TimeStamp)</b>
<br>VALID: SPS<br>LATITUDE: 50.423779 N<br>LONGITUDE: 9.667180 E<br>HEIGHT: 431.493 m<br>SPEED: 14.680 km/h<br>DISTANCE: 66.95 m]]>
</cmt>
<sym>TimeStamp</sym>
<type>T</type>
<fix>3d</fix>
</trkpt>
<trkpt lat="50.42343847" lon="9.66734254" >
<ele>434.773</ele>
<time>2010-10-09T10:59:03Z</time>
<speed>4.7882</speed>
<name>trkpt-2010-10-09T10:59:03Z</name>
<cmt>
<![CDATA[TIME: 09-OCT-10 10:59:03<br>RCR: T <b>(TimeStamp)</b>
<br>VALID: SPS<br>LATITUDE: 50.423438 N<br>LONGITUDE: 9.667343 E<br>HEIGHT: 434.773 m<br>SPEED: 17.238 km/h<br>DISTANCE: 39.78 m]]>
</cmt>
<sym>TimeStamp</sym>
<type>T</type>
<fix>3d</fix>
</trkpt>
<trkpt lat="50.42314737" lon="9.66820132" >
<ele>435.930</ele>
<time>2010-10-09T10:59:13Z</time>
<speed>7.4532</speed>
<name>trkpt-2010-10-09T10:59:13Z</name>
<cmt>
<![CDATA[TIME: 09-OCT-10 10:59:13<br>RCR: T <b>(TimeStamp)</b>
<br>VALID: SPS<br>LATITUDE: 50.423147 N<br>LONGITUDE: 9.668201 E<br>HEIGHT: 435.930 m<br>SPEED: 26.832 km/h<br>DISTANCE: 69.10 m]]>
</cmt>
<sym>TimeStamp</sym>
<type>T</type>
<fix>3d</fix>
</trkpt>
<trkpt lat="50.42294256" lon="9.66939847" >
<ele>434.001</ele>
<time>2010-10-09T10:59:23Z</time>
<speed>8.8503</speed>
<name>trkpt-2010-10-09T10:59:23Z</name>
<cmt>
<![CDATA[TIME: 09-OCT-10 10:59:23<br>RCR: T <b>(TimeStamp)</b>
<br>VALID: SPS<br>LATITUDE: 50.422943 N<br>LONGITUDE: 9.669398 E<br>HEIGHT: 434.001 m<br>SPEED: 31.861 km/h<br>DISTANCE: 88.10 m]]>
</cmt>
<sym>TimeStamp</sym>
<type>T</type>
<fix>3d</fix>
</trkpt>
<trkpt lat="50.42301480" lon="9.67037733" >
<ele>426.178</ele>
<time>2010-10-09T10:59:33Z</time>
<speed>7.0085</speed>
<name>trkpt-2010-10-09T10:59:33Z</name>
<cmt>
<![CDATA[TIME: 09-OCT-10 10:59:33<br>RCR: T <b>(TimeStamp)</b>
<br>VALID: SPS<br>LATITUDE: 50.423015 N<br>LONGITUDE: 9.670377 E<br>HEIGHT: 426.178 m<br>SPEED: 25.231 km/h<br>DISTANCE: 70.47 m]]>
</cmt>
<sym>TimeStamp</sym>
<type>T</type>
<fix>3d</fix>
</trkpt>
<trkpt lat="50.42278895" lon="9.67099994" >
<ele>425.928</ele>
<time>2010-10-09T10:59:43Z</time>
<speed>5.8428</speed>
<name>trkpt-2010-10-09T10:59:43Z</name>
<cmt>
<![CDATA[TIME: 09-OCT-10 10:59:43<br>RCR: T <b>(TimeStamp)</b>
<br>VALID: SPS<br>LATITUDE: 50.422789 N<br>LONGITUDE: 9.671000 E<br>HEIGHT: 425.928 m<br>SPEED: 21.034 km/h<br>DISTANCE: 50.88 m]]>
</cmt>
<sym>TimeStamp</sym>
<type>T</type>
<fix>3d</fix>
</trkpt>
<trkpt lat="50.42233115" lon="9.67156174" >
<ele>425.502</ele>
<time>2010-10-09T10:59:53Z</time>
<speed>6.0309</speed>
<name>trkpt-2010-10-09T10:59:53Z</name>
<cmt>
<![CDATA[TIME: 09-OCT-10 10:59:53<br>RCR: T <b>(TimeStamp)</b>
<br>VALID: SPS<br>LATITUDE: 50.422331 N<br>LONGITUDE: 9.671562 E<br>HEIGHT: 425.502 m<br>SPEED: 21.711 km/h<br>DISTANCE: 64.72 m]]>
</cmt>
<sym>TimeStamp</sym>
<type>T</type>
<fix>3d</fix>
</trkpt>
<trkpt lat="50.42201961" lon="9.67225995" >
<ele>420.917</ele>
<time>2010-10-09T11:00:03Z</time>
<speed>3.8360</speed>
<name>trkpt-2010-10-09T11:00:03Z</name>
<cmt>
<![CDATA[TIME: 09-OCT-10 11:00:03<br>RCR: T <b>(TimeStamp)</b>
<br>VALID: SPS<br>LATITUDE: 50.422020 N<br>LONGITUDE: 9.672260 E<br>HEIGHT: 420.917 m<br>SPEED: 13.810 km/h<br>DISTANCE: 60.70 m]]>
</cmt>
<sym>TimeStamp</sym>
<type>T</type>
<fix>3d</fix>
</trkpt>
<trkpt lat="50.42162419" lon="9.67270483" >
<ele>419.165</ele>
<time>2010-10-09T11:00:13Z</time>
<speed>2.7614</speed>
<name>trkpt-2010-10-09T11:00:13Z</name>
<cmt>
<![CDATA[TIME: 09-OCT-10 11:00:13<br>RCR: T <b>(TimeStamp)</b>
<br>VALID: SPS<br>LATITUDE: 50.421624 N<br>LONGITUDE: 9.672705 E<br>HEIGHT: 419.165 m<br>SPEED: 9.941 km/h<br>DISTANCE: 54.20 m]]>
</cmt>
<sym>TimeStamp</sym>
<type>T</type>
<fix>3d</fix>
</trkpt>
<trkpt lat="50.42137770" lon="9.67288745" >
<ele>420.475</ele>
<time>2010-10-09T11:00:23Z</time>
<speed>2.2744</speed>
<name>trkpt-2010-10-09T11:00:23Z</name>
<cmt>
<![CDATA[TIME: 09-OCT-10 11:00:23<br>RCR: T <b>(TimeStamp)</b>
<br>VALID: SPS<br>LATITUDE: 50.421378 N<br>LONGITUDE: 9.672887 E<br>HEIGHT: 420.475 m<br>SPEED: 8.188 km/h<br>DISTANCE: 30.37 m]]>
</cmt>
<sym>TimeStamp</sym>
<type>T</type>
<fix>3d</fix>
</trkpt>
<trkpt lat="50.42098714" lon="9.67300164" >
<ele>419.144</ele>
<time>2010-10-09T11:00:33Z</time>
<speed>1.8508</speed>
<name>trkpt-2010-10-09T11:00:33Z</name>
<cmt>
<![CDATA[TIME: 09-OCT-10 11:00:33<br>RCR: T <b>(TimeStamp)</b>
<br>VALID: SPS<br>LATITUDE: 50.420987 N<br>LONGITUDE: 9.673002 E<br>HEIGHT: 419.144 m<br>SPEED: 6.663 km/h<br>DISTANCE: 44.22 m]]>
</cmt>
<sym>TimeStamp</sym>
<type>T</type>
<fix>3d</fix>
</trkpt>
<trkpt lat="50.42059068" lon="9.67298389" >
<ele>415.907</ele>
<time>2010-10-09T11:00:43Z</time>
<speed>1.1082</speed>
<name>trkpt-2010-10-09T11:00:43Z</name>
<cmt>
<![CDATA[TIME: 09-OCT-10 11:00:43<br>RCR: T <b>(TimeStamp)</b>
<br>VALID: SPS<br>LATITUDE: 50.420591 N<br>LONGITUDE: 9.672984 E<br>HEIGHT: 415.907 m<br>SPEED: 3.989 km/h<br>DISTANCE: 44.24 m]]>
</cmt>
<sym>TimeStamp</sym>
<type>T</type>
<fix>3d</fix>
</trkpt>
<trkpt lat="50.42041048" lon="9.67293976" >
<ele>412.851</ele>
<time>2010-10-09T11:00:53Z</time>
<speed>1.5717</speed>
<name>trkpt-2010-10-09T11:00:53Z</name>
<cmt>
<![CDATA[TIME: 09-OCT-10 11:00:53<br>RCR: T <b>(TimeStamp)</b>
<br>VALID: SPS<br>LATITUDE: 50.420410 N<br>LONGITUDE: 9.672940 E<br>HEIGHT: 412.851 m<br>SPEED: 5.658 km/h<br>DISTANCE: 20.52 m]]>
</cmt>
<sym>TimeStamp</sym>
<type>T</type>
<fix>3d</fix>
</trkpt>
<trkpt lat="50.42026002" lon="9.67282066" >
<ele>413.255</ele>
<time>2010-10-09T11:01:03Z</time>
<speed>0.5055</speed>
<name>trkpt-2010-10-09T11:01:03Z</name>
<cmt>
<![CDATA[TIME: 09-OCT-10 11:01:03<br>RCR: T <b>(TimeStamp)</b>
<br>VALID: SPS<br>LATITUDE: 50.420260 N<br>LONGITUDE: 9.672821 E<br>HEIGHT: 413.255 m<br>SPEED: 1.820 km/h<br>DISTANCE: 18.76 m]]>
</cmt>
<sym>TimeStamp</sym>
<type>T</type>
<fix>3d</fix>
</trkpt>
<trkpt lat="50.42011478" lon="9.67263762" >
<ele>411.407</ele>
<time>2010-10-09T11:01:13Z</time>
<speed>1.1268</speed>
<name>trkpt-2010-10-09T11:01:13Z</name>
<cmt>
<![CDATA[TIME: 09-OCT-10 11:01:13<br>RCR: T <b>(TimeStamp)</b>
<br>VALID: SPS<br>LATITUDE: 50.420115 N<br>LONGITUDE: 9.672638 E<br>HEIGHT: 411.407 m<br>SPEED: 4.057 km/h<br>DISTANCE: 20.83 m]]>
</cmt>
<sym>TimeStamp</sym>
<type>T</type>
<fix>3d</fix>
</trkpt>
<trkpt lat="50.41992649" lon="9.67246154" >
<ele>411.339</ele>
<time>2010-10-09T11:01:23Z</time>
<speed>0.6298</speed>
<name>trkpt-2010-10-09T11:01:23Z</name>
<cmt>
<![CDATA[TIME: 09-OCT-10 11:01:23<br>RCR: T <b>(TimeStamp)</b>
<br>VALID: SPS<br>LATITUDE: 50.419926 N<br>LONGITUDE: 9.672462 E<br>HEIGHT: 411.339 m<br>SPEED: 2.267 km/h<br>DISTANCE: 24.40 m]]>
</cmt>
<sym>TimeStamp</sym>
<type>T</type>
<fix>3d</fix>
</trkpt>
<trkpt lat="50.41964046" lon="9.67232634" >
<ele>410.152</ele>
<time>2010-10-09T11:01:33Z</time>
<speed>1.5788</speed>
<name>trkpt-2010-10-09T11:01:33Z</name>
<cmt>
<![CDATA[TIME: 09-OCT-10 11:01:33<br>RCR: T <b>(TimeStamp)</b>
<br>VALID: SPS<br>LATITUDE: 50.419640 N<br>LONGITUDE: 9.672326 E<br>HEIGHT: 410.152 m<br>SPEED: 5.684 km/h<br>DISTANCE: 33.26 m]]>
</cmt>
<sym>TimeStamp</sym>
<type>T</type>
<fix>3d</fix>
</trkpt>
<trkpt lat="50.41937426" lon="9.67225291" >
<ele>409.249</ele>
<time>2010-10-09T11:01:43Z</time>
<speed>0.9076</speed>
<name>trkpt-2010-10-09T11:01:43Z</name>
<cmt>
<![CDATA[TIME: 09-OCT-10 11:01:43<br>RCR: T <b>(TimeStamp)</b>
<br>VALID: SPS<br>LATITUDE: 50.419374 N<br>LONGITUDE: 9.672253 E<br>HEIGHT: 409.249 m<br>SPEED: 3.268 km/h<br>DISTANCE: 30.08 m]]>
</cmt>
<sym>TimeStamp</sym>
<type>T</type>
<fix>3d</fix>
</trkpt>
<trkpt lat="50.41917677" lon="9.67218829" >
<ele>410.783</ele>
<time>2010-10-09T11:01:53Z</time>
<speed>0.7587</speed>
<name>trkpt-2010-10-09T11:01:53Z</name>
<cmt>
<![CDATA[TIME: 09-OCT-10 11:01:53<br>RCR: T <b>(TimeStamp)</b>
<br>VALID: SPS<br>LATITUDE: 50.419177 N<br>LONGITUDE: 9.672188 E<br>HEIGHT: 410.783 m<br>SPEED: 2.731 km/h<br>DISTANCE: 22.50 m]]>
</cmt>
<sym>TimeStamp</sym>
<type>T</type>
<fix>3d</fix>
</trkpt>
<trkpt lat="50.41890421" lon="9.67218317" >
<ele>412.247</ele>
<time>2010-10-09T11:02:03Z</time>
<speed>1.2822</speed>
<name>trkpt-2010-10-09T11:02:03Z</name>
<cmt>
<![CDATA[TIME: 09-OCT-10 11:02:03<br>RCR: T <b>(TimeStamp)</b>
<br>VALID: SPS<br>LATITUDE: 50.418904 N<br>LONGITUDE: 9.672183 E<br>HEIGHT: 412.247 m<br>SPEED: 4.616 km/h<br>DISTANCE: 30.36 m]]>
</cmt>
<sym>TimeStamp</sym>
<type>T</type>
<fix>3d</fix>
</trkpt>
<trkpt lat="50.41853972" lon="9.67203731" >
<ele>411.407</ele>
<time>2010-10-09T11:02:13Z</time>
<speed>1.1430</speed>
<name>trkpt-2010-10-09T11:02:13Z</name>
<cmt>
<![CDATA[TIME: 09-OCT-10 11:02:13<br>RCR: T <b>(TimeStamp)</b>
<br>VALID: SPS<br>LATITUDE: 50.418540 N<br>LONGITUDE: 9.672037 E<br>HEIGHT: 411.407 m<br>SPEED: 4.115 km/h<br>DISTANCE: 41.86 m]]>
</cmt>
<sym>TimeStamp</sym>
<type>T</type>
<fix>3d</fix>
</trkpt>
<trkpt lat="50.41831037" lon="9.67195063" >
<ele>407.216</ele>
<time>2010-10-09T11:02:23Z</time>
<speed>2.3026</speed>
<name>trkpt-2010-10-09T11:02:23Z</name>
<cmt>
<![CDATA[TIME: 09-OCT-10 11:02:23<br>RCR: T <b>(TimeStamp)</b>
<br>VALID: SPS<br>LATITUDE: 50.418310 N<br>LONGITUDE: 9.671951 E<br>HEIGHT: 407.216 m<br>SPEED: 8.289 km/h<br>DISTANCE: 26.58 m]]>
</cmt>
<sym>TimeStamp</sym>
<type>T</type>
<fix>3d</fix>
</trkpt>
<trkpt lat="50.41811696" lon="9.67198521" >
<ele>403.052</ele>
<time>2010-10-09T11:02:33Z</time>
<speed>2.8611</speed>
<name>trkpt-2010-10-09T11:02:33Z</name>
<cmt>
<![CDATA[TIME: 09-OCT-10 11:02:33<br>RCR: T <b>(TimeStamp)</b>
<br>VALID: SPS<br>LATITUDE: 50.418117 N<br>LONGITUDE: 9.671985 E<br>HEIGHT: 403.052 m<br>SPEED: 10.300 km/h<br>DISTANCE: 22.05 m]]>
</cmt>
<sym>TimeStamp</sym>
<type>T</type>
<fix>3d</fix>
</trkpt>
<trkpt lat="50.41779416" lon="9.67224746" >
<ele>410.338</ele>
<time>2010-10-09T11:02:43Z</time>
<speed>2.1276</speed>
<name>trkpt-2010-10-09T11:02:43Z</name>
<cmt>
<![CDATA[TIME: 09-OCT-10 11:02:43<br>RCR: T <b>(TimeStamp)</b>
<br>VALID: SPS<br>LATITUDE: 50.417794 N<br>LONGITUDE: 9.672247 E<br>HEIGHT: 410.338 m<br>SPEED: 7.660 km/h<br>DISTANCE: 41.11 m]]>
</cmt>
<sym>TimeStamp</sym>
<type>T</type>
<fix>3d</fix>
</trkpt>
<trkpt lat="50.41749673" lon="9.67269169" >
<ele>419.953</ele>
<time>2010-10-09T11:02:53Z</time>
<speed>3.7778</speed>
<name>trkpt-2010-10-09T11:02:53Z</name>
<cmt>
<![CDATA[TIME: 09-OCT-10 11:02:53<br>RCR: T <b>(TimeStamp)</b>
<br>VALID: SPS<br>LATITUDE: 50.417497 N<br>LONGITUDE: 9.672692 E<br>HEIGHT: 419.953 m<br>SPEED: 13.600 km/h<br>DISTANCE: 46.73 m]]>
</cmt>
<sym>TimeStamp</sym>
<type>T</type>
<fix>3d</fix>
</trkpt>
<trkpt lat="50.41717023" lon="9.67323555" >
<ele>429.183</ele>
<time>2010-10-09T11:03:03Z</time>
<speed>3.9390</speed>
<name>trkpt-2010-10-09T11:03:03Z</name>
<cmt>
<![CDATA[TIME: 09-OCT-10 11:03:03<br>RCR: T <b>(TimeStamp)</b>
<br>VALID: SPS<br>LATITUDE: 50.417170 N<br>LONGITUDE: 9.673236 E<br>HEIGHT: 429.183 m<br>SPEED: 14.181 km/h<br>DISTANCE: 53.84 m]]>
</cmt>
<sym>TimeStamp</sym>
<type>T</type>
<fix>3d</fix>
</trkpt>
<trkpt lat="50.41684704" lon="9.67374525" >
<ele>438.047</ele>
<time>2010-10-09T11:03:13Z</time>
<speed>4.5334</speed>
<name>trkpt-2010-10-09T11:03:13Z</name>
<cmt>
<![CDATA[TIME: 09-OCT-10 11:03:13<br>RCR: T <b>(TimeStamp)</b>
<br>VALID: SPS<br>LATITUDE: 50.416847 N<br>LONGITUDE: 9.673745 E<br>HEIGHT: 438.047 m<br>SPEED: 16.320 km/h<br>DISTANCE: 51.80 m]]>
</cmt>
<sym>TimeStamp</sym>
<type>T</type>
<fix>3d</fix>
</trkpt>
<trkpt lat="50.41662233" lon="9.67416488" >
<ele>441.205</ele>
<time>2010-10-09T11:03:23Z</time>
<speed>2.4467</speed>
<name>trkpt-2010-10-09T11:03:23Z</name>
<cmt>
<![CDATA[TIME: 09-OCT-10 11:03:23<br>RCR: T <b>(TimeStamp)</b>
<br>VALID: SPS<br>LATITUDE: 50.416622 N<br>LONGITUDE: 9.674165 E<br>HEIGHT: 441.205 m<br>SPEED: 8.808 km/h<br>DISTANCE: 39.05 m]]>
</cmt>
<sym>TimeStamp</sym>
<type>T</type>
<fix>3d</fix>
</trkpt>
<trkpt lat="50.41643541" lon="9.67447868" >
<ele>443.139</ele>
<time>2010-10-09T11:03:33Z</time>
<speed>3.1036</speed>
<name>trkpt-2010-10-09T11:03:33Z</name>
<cmt>
<![CDATA[TIME: 09-OCT-10 11:03:33<br>RCR: T <b>(TimeStamp)</b>
<br>VALID: SPS<br>LATITUDE: 50.416435 N<br>LONGITUDE: 9.674479 E<br>HEIGHT: 443.139 m<br>SPEED: 11.173 km/h<br>DISTANCE: 30.56 m]]>
</cmt>
<sym>TimeStamp</sym>
<type>T</type>
<fix>3d</fix>
</trkpt>
<trkpt lat="50.41627079" lon="9.67475533" >
<ele>443.810</ele>
<time>2010-10-09T11:03:43Z</time>
<speed>3.0132</speed>
<name>trkpt-2010-10-09T11:03:43Z</name>
<cmt>
<![CDATA[TIME: 09-OCT-10 11:03:43<br>RCR: T <b>(TimeStamp)</b>
<br>VALID: SPS<br>LATITUDE: 50.416271 N<br>LONGITUDE: 9.674755 E<br>HEIGHT: 443.810 m<br>SPEED: 10.848 km/h<br>DISTANCE: 26.88 m]]>
</cmt>
<sym>TimeStamp</sym>
<type>T</type>
<fix>3d</fix>
</trkpt>
<trkpt lat="50.41608971" lon="9.67513020" >
<ele>444.471</ele>
<time>2010-10-09T11:03:53Z</time>
<speed>4.1334</speed>
<name>trkpt-2010-10-09T11:03:53Z</name>
<cmt>
<![CDATA[TIME: 09-OCT-10 11:03:53<br>RCR: T <b>(TimeStamp)</b>
<br>VALID: SPS<br>LATITUDE: 50.416090 N<br>LONGITUDE: 9.675130 E<br>HEIGHT: 444.471 m<br>SPEED: 14.880 km/h<br>DISTANCE: 33.41 m]]>
</cmt>
<sym>TimeStamp</sym>
<type>T</type>
<fix>3d</fix>
</trkpt>
<trkpt lat="50.41580357" lon="9.67564004" >
<ele>446.074</ele>
<time>2010-10-09T11:04:03Z</time>
<speed>4.9625</speed>
<name>trkpt-2010-10-09T11:04:03Z</name>
<cmt>
<![CDATA[TIME: 09-OCT-10 11:04:03<br>RCR: T <b>(TimeStamp)</b>
<br>VALID: SPS<br>LATITUDE: 50.415804 N<br>LONGITUDE: 9.675640 E<br>HEIGHT: 446.074 m<br>SPEED: 17.865 km/h<br>DISTANCE: 48.26 m]]>
</cmt>
<sym>TimeStamp</sym>
<type>T</type>
<fix>3d</fix>
</trkpt>
<trkpt lat="50.41548523" lon="9.67618309" >
<ele>446.162</ele>
<time>2010-10-09T11:04:13Z</time>
<speed>5.6543</speed>
<name>trkpt-2010-10-09T11:04:13Z</name>
<cmt>
<![CDATA[TIME: 09-OCT-10 11:04:13<br>RCR: T <b>(TimeStamp)</b>
<br>VALID: SPS<br>LATITUDE: 50.415485 N<br>LONGITUDE: 9.676183 E<br>HEIGHT: 446.162 m<br>SPEED: 20.355 km/h<br>DISTANCE: 52.38 m]]>
</cmt>
<sym>TimeStamp</sym>
<type>T</type>
<fix>3d</fix>
</trkpt>
<trkpt lat="50.41515863" lon="9.67679013" >
<ele>447.545</ele>
<time>2010-10-09T11:04:23Z</time>
<speed>5.3697</speed>
<name>trkpt-2010-10-09T11:04:23Z</name>
<cmt>
<![CDATA[TIME: 09-OCT-10 11:04:23<br>RCR: T <b>(TimeStamp)</b>
<br>VALID: SPS<br>LATITUDE: 50.415159 N<br>LONGITUDE: 9.676790 E<br>HEIGHT: 447.545 m<br>SPEED: 19.331 km/h<br>DISTANCE: 56.43 m]]>
</cmt>
<sym>TimeStamp</sym>
<type>T</type>
<fix>3d</fix>
</trkpt>
<trkpt lat="50.41485970" lon="9.67737039" >
<ele>449.264</ele>
<time>2010-10-09T11:04:33Z</time>
<speed>5.5354</speed>
<name>trkpt-2010-10-09T11:04:33Z</name>
<cmt>
<![CDATA[TIME: 09-OCT-10 11:04:33<br>RCR: T <b>(TimeStamp)</b>
<br>VALID: SPS<br>LATITUDE: 50.414860 N<br>LONGITUDE: 9.677370 E<br>HEIGHT: 449.264 m<br>SPEED: 19.927 km/h<br>DISTANCE: 53.01 m]]>
</cmt>
<sym>TimeStamp</sym>
<type>T</type>
<fix>3d</fix>
</trkpt>
<trkpt lat="50.41453759" lon="9.67793270" >
<ele>448.883</ele>
<time>2010-10-09T11:04:43Z</time>
<speed>5.6493</speed>
<name>trkpt-2010-10-09T11:04:43Z</name>
<cmt>
<![CDATA[TIME: 09-OCT-10 11:04:43<br>RCR: T <b>(TimeStamp)</b>
<br>VALID: SPS<br>LATITUDE: 50.414538 N<br>LONGITUDE: 9.677933 E<br>HEIGHT: 448.883 m<br>SPEED: 20.337 km/h<br>DISTANCE: 53.68 m]]>
</cmt>
<sym>TimeStamp</sym>
<type>T</type>
<fix>3d</fix>
</trkpt>
<trkpt lat="50.41421733" lon="9.67848712" >
<ele>449.499</ele>
<time>2010-10-09T11:04:53Z</time>
<speed>5.1852</speed>
<name>trkpt-2010-10-09T11:04:53Z</name>
<cmt>
<![CDATA[TIME: 09-OCT-10 11:04:53<br>RCR: T <b>(TimeStamp)</b>
<br>VALID: SPS<br>LATITUDE: 50.414217 N<br>LONGITUDE: 9.678487 E<br>HEIGHT: 449.499 m<br>SPEED: 18.667 km/h<br>DISTANCE: 53.13 m]]>
</cmt>
<sym>TimeStamp</sym>
<type>T</type>
<fix>3d</fix>
</trkpt>
<trkpt lat="50.41390023" lon="9.67902988" >
<ele>450.240</ele>
<time>2010-10-09T11:05:03Z</time>
<speed>4.9536</speed>
<name>trkpt-2010-10-09T11:05:03Z</name>
<cmt>
<![CDATA[TIME: 09-OCT-10 11:05:03<br>RCR: T <b>(TimeStamp)</b>
<br>VALID: SPS<br>LATITUDE: 50.413900 N<br>LONGITUDE: 9.679030 E<br>HEIGHT: 450.240 m<br>SPEED: 17.833 km/h<br>DISTANCE: 52.28 m]]>
</cmt>
<sym>TimeStamp</sym>
<type>T</type>
<fix>3d</fix>
</trkpt>
<trkpt lat="50.41357823" lon="9.67958168" >
<ele>452.469</ele>
<time>2010-10-09T11:05:13Z</time>
<speed>5.2991</speed>
<name>trkpt-2010-10-09T11:05:13Z</name>
<cmt>
<![CDATA[TIME: 09-OCT-10 11:05:13<br>RCR: T <b>(TimeStamp)</b>
<br>VALID: SPS<br>LATITUDE: 50.413578 N<br>LONGITUDE: 9.679582 E<br>HEIGHT: 452.469 m<br>SPEED: 19.077 km/h<br>DISTANCE: 53.17 m]]>
</cmt>
<sym>TimeStamp</sym>
<type>T</type>
<fix>3d</fix>
</trkpt>
<trkpt lat="50.41327257" lon="9.68009895" >
<ele>453.358</ele>
<time>2010-10-09T11:05:23Z</time>
<speed>4.6956</speed>
<name>trkpt-2010-10-09T11:05:23Z</name>
<cmt>
<![CDATA[TIME: 09-OCT-10 11:05:23<br>RCR: T <b>(TimeStamp)</b>
<br>VALID: SPS<br>LATITUDE: 50.413273 N<br>LONGITUDE: 9.680099 E<br>HEIGHT: 453.358 m<br>SPEED: 16.904 km/h<br>DISTANCE: 50.09 m]]>
</cmt>
<sym>TimeStamp</sym>
<type>T</type>
<fix>3d</fix>
</trkpt>
<trkpt lat="50.41302223" lon="9.68054930" >
<ele>456.074</ele>
<time>2010-10-09T11:05:33Z</time>
<speed>3.9488</speed>
<name>trkpt-2010-10-09T11:05:33Z</name>
<cmt>
<![CDATA[TIME: 09-OCT-10 11:05:33<br>RCR: T <b>(TimeStamp)</b>
<br>VALID: SPS<br>LATITUDE: 50.413022 N<br>LONGITUDE: 9.680549 E<br>HEIGHT: 456.074 m<br>SPEED: 14.216 km/h<br>DISTANCE: 42.52 m]]>
</cmt>
<sym>TimeStamp</sym>
<type>T</type>
<fix>3d</fix>
</trkpt>
<trkpt lat="50.41279739" lon="9.68095764" >
<ele>457.483</ele>
<time>2010-10-09T11:05:43Z</time>
<speed>4.1018</speed>
<name>trkpt-2010-10-09T11:05:43Z</name>
<cmt>
<![CDATA[TIME: 09-OCT-10 11:05:43<br>RCR: T <b>(TimeStamp)</b>
<br>VALID: SPS<br>LATITUDE: 50.412797 N<br>LONGITUDE: 9.680958 E<br>HEIGHT: 457.483 m<br>SPEED: 14.767 km/h<br>DISTANCE: 38.34 m]]>
</cmt>
<sym>TimeStamp</sym>
<type>T</type>
<fix>3d</fix>
</trkpt>
<trkpt lat="50.41253242" lon="9.68142744" >
<ele>459.324</ele>
<time>2010-10-09T11:05:53Z</time>
<speed>4.6379</speed>
<name>trkpt-2010-10-09T11:05:53Z</name>
<cmt>
<![CDATA[TIME: 09-OCT-10 11:05:53<br>RCR: T <b>(TimeStamp)</b>
<br>VALID: SPS<br>LATITUDE: 50.412532 N<br>LONGITUDE: 9.681427 E<br>HEIGHT: 459.324 m<br>SPEED: 16.697 km/h<br>DISTANCE: 44.58 m]]>
</cmt>
<sym>TimeStamp</sym>
<type>T</type>
<fix>3d</fix>
</trkpt>
<trkpt lat="50.41222558" lon="9.68195344" >
<ele>459.240</ele>
<time>2010-10-09T11:06:03Z</time>
<speed>4.7781</speed>
<name>trkpt-2010-10-09T11:06:03Z</name>
<cmt>
<![CDATA[TIME: 09-OCT-10 11:06:03<br>RCR: T <b>(TimeStamp)</b>
<br>VALID: SPS<br>LATITUDE: 50.412226 N<br>LONGITUDE: 9.681953 E<br>HEIGHT: 459.240 m<br>SPEED: 17.201 km/h<br>DISTANCE: 50.63 m]]>
</cmt>
<sym>TimeStamp</sym>
<type>T</type>
<fix>3d</fix>
</trkpt>
<trkpt lat="50.41195537" lon="9.68240316" >
<ele>459.379</ele>
<time>2010-10-09T11:06:13Z</time>
<speed>3.8606</speed>
<name>trkpt-2010-10-09T11:06:13Z</name>
<cmt>
<![CDATA[TIME: 09-OCT-10 11:06:13<br>RCR: T <b>(TimeStamp)</b>
<br>VALID: SPS<br>LATITUDE: 50.411955 N<br>LONGITUDE: 9.682403 E<br>HEIGHT: 459.379 m<br>SPEED: 13.898 km/h<br>DISTANCE: 43.88 m]]>
</cmt>
<sym>TimeStamp</sym>
<type>T</type>
<fix>3d</fix>
</trkpt>
<trkpt lat="50.41176489" lon="9.68290865" >
<ele>460.191</ele>
<time>2010-10-09T11:06:23Z</time>
<speed>3.9772</speed>
<name>trkpt-2010-10-09T11:06:23Z</name>
<cmt>
<![CDATA[TIME: 09-OCT-10 11:06:23<br>RCR: T <b>(TimeStamp)</b>
<br>VALID: SPS<br>LATITUDE: 50.411765 N<br>LONGITUDE: 9.682909 E<br>HEIGHT: 460.191 m<br>SPEED: 14.318 km/h<br>DISTANCE: 41.72 m]]>
</cmt>
<sym>TimeStamp</sym>
<type>T</type>
<fix>3d</fix>
</trkpt>
<trkpt lat="50.41149756" lon="9.68361927" >
<ele>462.182</ele>
<time>2010-10-09T11:06:33Z</time>
<speed>5.1379</speed>
<name>trkpt-2010-10-09T11:06:33Z</name>
<cmt>
<![CDATA[TIME: 09-OCT-10 11:06:33<br>RCR: T <b>(TimeStamp)</b>
<br>VALID: SPS<br>LATITUDE: 50.411498 N<br>LONGITUDE: 9.683619 E<br>HEIGHT: 462.182 m<br>SPEED: 18.497 km/h<br>DISTANCE: 58.65 m]]>
</cmt>
<sym>TimeStamp</sym>
<type>T</type>
<fix>3d</fix>
</trkpt>
<trkpt lat="50.41119646" lon="9.68441232" >
<ele>461.796</ele>
<time>2010-10-09T11:06:43Z</time>
<speed>7.0161</speed>
<name>trkpt-2010-10-09T11:06:43Z</name>
<cmt>
<![CDATA[TIME: 09-OCT-10 11:06:43<br>RCR: T <b>(TimeStamp)</b>
<br>VALID: SPS<br>LATITUDE: 50.411196 N<br>LONGITUDE: 9.684412 E<br>HEIGHT: 461.796 m<br>SPEED: 25.258 km/h<br>DISTANCE: 65.58 m]]>
</cmt>
<sym>TimeStamp</sym>
<type>T</type>
<fix>3d</fix>
</trkpt>
<trkpt lat="50.41085631" lon="9.68539058" >
<ele>458.532</ele>
<time>2010-10-09T11:06:53Z</time>
<speed>8.7386</speed>
<name>trkpt-2010-10-09T11:06:53Z</name>
<cmt>
<![CDATA[TIME: 09-OCT-10 11:06:53<br>RCR: T <b>(TimeStamp)</b>
<br>VALID: SPS<br>LATITUDE: 50.410856 N<br>LONGITUDE: 9.685391 E<br>HEIGHT: 458.532 m<br>SPEED: 31.459 km/h<br>DISTANCE: 79.24 m]]>
</cmt>
<sym>TimeStamp</sym>
<type>T</type>
<fix>3d</fix>
</trkpt>
<trkpt lat="50.41049286" lon="9.68644325" >
<ele>455.012</ele>
<time>2010-10-09T11:07:03Z</time>
<speed>7.8932</speed>
<name>trkpt-2010-10-09T11:07:03Z</name>
<cmt>
<![CDATA[TIME: 09-OCT-10 11:07:03<br>RCR: T <b>(TimeStamp)</b>
<br>VALID: SPS<br>LATITUDE: 50.410493 N<br>LONGITUDE: 9.686443 E<br>HEIGHT: 455.012 m<br>SPEED: 28.415 km/h<br>DISTANCE: 85.13 m]]>
</cmt>
<sym>TimeStamp</sym>
<type>T</type>
<fix>3d</fix>
</trkpt>
<trkpt lat="50.40996514" lon="9.68732174" >
<ele>448.012</ele>
<time>2010-10-09T11:07:13Z</time>
<speed>9.5501</speed>
<name>trkpt-2010-10-09T11:07:13Z</name>
<cmt>
<![CDATA[TIME: 09-OCT-10 11:07:13<br>RCR: T <b>(TimeStamp)</b>
<br>VALID: SPS<br>LATITUDE: 50.409965 N<br>LONGITUDE: 9.687322 E<br>HEIGHT: 448.012 m<br>SPEED: 34.380 km/h<br>DISTANCE: 86.00 m]]>
</cmt>
<sym>TimeStamp</sym>
<type>T</type>
<fix>3d</fix>
</trkpt>
<trkpt lat="50.40916184" lon="9.68820015" >
<ele>438.660</ele>
<time>2010-10-09T11:07:23Z</time>
<speed>11.3836</speed>
<name>trkpt-2010-10-09T11:07:23Z</name>
<cmt>
<![CDATA[TIME: 09-OCT-10 11:07:23<br>RCR: T <b>(TimeStamp)</b>
<br>VALID: SPS<br>LATITUDE: 50.409162 N<br>LONGITUDE: 9.688200 E<br>HEIGHT: 438.660 m<br>SPEED: 40.981 km/h<br>DISTANCE: 109.42 m]]>
</cmt>
<sym>TimeStamp</sym>
<type>T</type>
<fix>3d</fix>
</trkpt>
<trkpt lat="50.40824874" lon="9.68861396" >
<ele>432.559</ele>
<time>2010-10-09T11:07:33Z</time>
<speed>9.1814</speed>
<name>trkpt-2010-10-09T11:07:33Z</name>
<cmt>
<![CDATA[TIME: 09-OCT-10 11:07:33<br>RCR: T <b>(TimeStamp)</b>
<br>VALID: SPS<br>LATITUDE: 50.408249 N<br>LONGITUDE: 9.688614 E<br>HEIGHT: 432.559 m<br>SPEED: 33.053 km/h<br>DISTANCE: 105.93 m]]>
</cmt>
<sym>TimeStamp</sym>
<type>T</type>
<fix>3d</fix>
</trkpt>
<trkpt lat="50.40748889" lon="9.68896965" >
<ele>432.094</ele>
<time>2010-10-09T11:07:43Z</time>
<speed>8.0297</speed>
<name>trkpt-2010-10-09T11:07:43Z</name>
<cmt>
<![CDATA[TIME: 09-OCT-10 11:07:43<br>RCR: T <b>(TimeStamp)</b>
<br>VALID: SPS<br>LATITUDE: 50.407489 N<br>LONGITUDE: 9.688970 E<br>HEIGHT: 432.094 m<br>SPEED: 28.907 km/h<br>DISTANCE: 88.23 m]]>
</cmt>
<sym>TimeStamp</sym>
<type>T</type>
<fix>3d</fix>
</trkpt>
<trkpt lat="50.40683800" lon="9.68930031" >
<ele>429.045</ele>
<time>2010-10-09T11:07:53Z</time>
<speed>7.4818</speed>
<name>trkpt-2010-10-09T11:07:53Z</name>
<cmt>
<![CDATA[TIME: 09-OCT-10 11:07:53<br>RCR: T <b>(TimeStamp)</b>
<br>VALID: SPS<br>LATITUDE: 50.406838 N<br>LONGITUDE: 9.689300 E<br>HEIGHT: 429.045 m<br>SPEED: 26.934 km/h<br>DISTANCE: 76.19 m]]>
</cmt>
<sym>TimeStamp</sym>
<type>T</type>
<fix>3d</fix>
</trkpt>
<trkpt lat="50.40624898" lon="9.68942859" >
<ele>426.865</ele>
<time>2010-10-09T11:08:03Z</time>
<speed>5.0043</speed>
<name>trkpt-2010-10-09T11:08:03Z</name>
<cmt>
<![CDATA[TIME: 09-OCT-10 11:08:03<br>RCR: T <b>(TimeStamp)</b>
<br>VALID: SPS<br>LATITUDE: 50.406249 N<br>LONGITUDE: 9.689429 E<br>HEIGHT: 426.865 m<br>SPEED: 18.016 km/h<br>DISTANCE: 66.19 m]]>
</cmt>
<sym>TimeStamp</sym>
<type>T</type>
<fix>3d</fix>
</trkpt>
<trkpt lat="50.40598360" lon="9.68885491" >
<ele>423.962</ele>
<time>2010-10-09T11:08:13Z</time>
<speed>6.9904</speed>
<name>trkpt-2010-10-09T11:08:13Z</name>
<cmt>
<![CDATA[TIME: 09-OCT-10 11:08:13<br>RCR: T <b>(TimeStamp)</b>
<br>VALID: SPS<br>LATITUDE: 50.405984 N<br>LONGITUDE: 9.688855 E<br>HEIGHT: 423.962 m<br>SPEED: 25.165 km/h<br>DISTANCE: 50.43 m]]>
</cmt>
<sym>TimeStamp</sym>
<type>T</type>
<fix>3d</fix>
</trkpt>
<trkpt lat="50.40555147" lon="9.68784729" >
<ele>419.190</ele>
<time>2010-10-09T11:08:23Z</time>
<speed>9.4292</speed>
<name>trkpt-2010-10-09T11:08:23Z</name>
<cmt>
<![CDATA[TIME: 09-OCT-10 11:08:23<br>RCR: T <b>(TimeStamp)</b>
<br>VALID: SPS<br>LATITUDE: 50.405551 N<br>LONGITUDE: 9.687847 E<br>HEIGHT: 419.190 m<br>SPEED: 33.945 km/h<br>DISTANCE: 86.40 m]]>
</cmt>
<sym>TimeStamp</sym>
<type>T</type>
<fix>3d</fix>
</trkpt>
<trkpt lat="50.40504107" lon="9.68679740" >
<ele>413.004</ele>
<time>2010-10-09T11:08:33Z</time>
<speed>9.1095</speed>
<name>trkpt-2010-10-09T11:08:33Z</name>
<cmt>
<![CDATA[TIME: 09-OCT-10 11:08:33<br>RCR: T <b>(TimeStamp)</b>
<br>VALID: SPS<br>LATITUDE: 50.405041 N<br>LONGITUDE: 9.686797 E<br>HEIGHT: 413.004 m<br>SPEED: 32.794 km/h<br>DISTANCE: 93.99 m]]>
</cmt>
<sym>TimeStamp</sym>
<type>T</type>
<fix>3d</fix>
</trkpt>
<trkpt lat="50.40454599" lon="9.68589882" >
<ele>409.591</ele>
<time>2010-10-09T11:08:43Z</time>
<speed>6.1045</speed>
<name>trkpt-2010-10-09T11:08:43Z</name>
<cmt>
<![CDATA[TIME: 09-OCT-10 11:08:43<br>RCR: T <b>(TimeStamp)</b>
<br>VALID: SPS<br>LATITUDE: 50.404546 N<br>LONGITUDE: 9.685899 E<br>HEIGHT: 409.591 m<br>SPEED: 21.976 km/h<br>DISTANCE: 84.42 m]]>
</cmt>
<sym>TimeStamp</sym>
<type>T</type>
<fix>3d</fix>
</trkpt>
<trkpt lat="50.40404446" lon="9.68547204" >
<ele>410.837</ele>
<time>2010-10-09T11:08:53Z</time>
<speed>6.2913</speed>
<name>trkpt-2010-10-09T11:08:53Z</name>
<cmt>
<![CDATA[TIME: 09-OCT-10 11:08:53<br>RCR: T <b>(TimeStamp)</b>
<br>VALID: SPS<br>LATITUDE: 50.404044 N<br>LONGITUDE: 9.685472 E<br>HEIGHT: 410.837 m<br>SPEED: 22.649 km/h<br>DISTANCE: 63.52 m]]>
</cmt>
<sym>TimeStamp</sym>
<type>T</type>
<fix>3d</fix>
</trkpt>
<trkpt lat="50.40328945" lon="9.68545781" >
<ele>416.343</ele>
<time>2010-10-09T11:09:03Z</time>
<speed>9.0834</speed>
<name>trkpt-2010-10-09T11:09:03Z</name>
<cmt>
<![CDATA[TIME: 09-OCT-10 11:09:03<br>RCR: T <b>(TimeStamp)</b>
<br>VALID: SPS<br>LATITUDE: 50.403289 N<br>LONGITUDE: 9.685458 E<br>HEIGHT: 416.343 m<br>SPEED: 32.700 km/h<br>DISTANCE: 84.18 m]]>
</cmt>
<sym>TimeStamp</sym>
<type>T</type>
<fix>3d</fix>
</trkpt>
<trkpt lat="50.40235342" lon="9.68551953" >
<ele>414.556</ele>
<time>2010-10-09T11:09:13Z</time>
<speed>10.8973</speed>
<name>trkpt-2010-10-09T11:09:13Z</name>
<cmt>
<![CDATA[TIME: 09-OCT-10 11:09:13<br>RCR: T <b>(TimeStamp)</b>
<br>VALID: SPS<br>LATITUDE: 50.402353 N<br>LONGITUDE: 9.685520 E<br>HEIGHT: 414.556 m<br>SPEED: 39.230 km/h<br>DISTANCE: 104.24 m]]>
</cmt>
<sym>TimeStamp</sym>
<type>T</type>
<fix>3d</fix>
</trkpt>
<trkpt lat="50.40166697" lon="9.68522851" >
<ele>407.159</ele>
<time>2010-10-09T11:09:23Z</time>
<speed>6.3448</speed>
<name>trkpt-2010-10-09T11:09:23Z</name>
<cmt>
<![CDATA[TIME: 09-OCT-10 11:09:23<br>RCR: T <b>(TimeStamp)</b>
<br>VALID: SPS<br>LATITUDE: 50.401667 N<br>LONGITUDE: 9.685229 E<br>HEIGHT: 407.159 m<br>SPEED: 22.841 km/h<br>DISTANCE: 79.46 m]]>
</cmt>
<sym>TimeStamp</sym>
<type>T</type>
<fix>3d</fix>
</trkpt>
<trkpt lat="50.40132190" lon="9.68549073" >
<ele>411.178</ele>
<time>2010-10-09T11:09:33Z</time>
<speed>3.1323</speed>
<name>trkpt-2010-10-09T11:09:33Z</name>
<cmt>
<![CDATA[TIME: 09-OCT-10 11:09:33<br>RCR: T <b>(TimeStamp)</b>
<br>VALID: SPS<br>LATITUDE: 50.401322 N<br>LONGITUDE: 9.685491 E<br>HEIGHT: 411.178 m<br>SPEED: 11.276 km/h<br>DISTANCE: 42.86 m]]>
</cmt>
<sym>TimeStamp</sym>
<type>T</type>
<fix>3d</fix>
</trkpt>
<trkpt lat="50.40112059" lon="9.68572618" >
<ele>410.123</ele>
<time>2010-10-09T11:09:43Z</time>
<speed>2.0996</speed>
<name>trkpt-2010-10-09T11:09:43Z</name>
<cmt>
<![CDATA[TIME: 09-OCT-10 11:09:43<br>RCR: T <b>(TimeStamp)</b>
<br>VALID: SPS<br>LATITUDE: 50.401121 N<br>LONGITUDE: 9.685726 E<br>HEIGHT: 410.123 m<br>SPEED: 7.559 km/h<br>DISTANCE: 27.98 m]]>
</cmt>
<sym>TimeStamp</sym>
<type>T</type>
<fix>3d</fix>
</trkpt>
<trkpt lat="50.40105183" lon="9.68584088" >
<ele>405.465</ele>
<time>2010-10-09T11:09:53Z</time>
<speed>0.8354</speed>
<name>trkpt-2010-10-09T11:09:53Z</name>
<cmt>
<![CDATA[TIME: 09-OCT-10 11:09:53<br>RCR: T <b>(TimeStamp)</b>
<br>VALID: SPS<br>LATITUDE: 50.401052 N<br>LONGITUDE: 9.685841 E<br>HEIGHT: 405.465 m<br>SPEED: 3.008 km/h<br>DISTANCE: 12.11 m]]>
</cmt>
<sym>TimeStamp</sym>
<type>T</type>
<fix>3d</fix>
</trkpt>
<trkpt lat="50.40092218" lon="9.68587311" >
<ele>403.822</ele>
<time>2010-10-09T11:10:03Z</time>
<speed>1.5239</speed>
<name>trkpt-2010-10-09T11:10:03Z</name>
<cmt>
<![CDATA[TIME: 09-OCT-10 11:10:03<br>RCR: T <b>(TimeStamp)</b>
<br>VALID: SPS<br>LATITUDE: 50.400922 N<br>LONGITUDE: 9.685873 E<br>HEIGHT: 403.822 m<br>SPEED: 5.486 km/h<br>DISTANCE: 14.70 m]]>
</cmt>
<sym>TimeStamp</sym>
<type>T</type>
<fix>3d</fix>
</trkpt>
<trkpt lat="50.40072285" lon="9.68597830" >
<ele>408.195</ele>
<time>2010-10-09T11:10:13Z</time>
<speed>1.9831</speed>
<name>trkpt-2010-10-09T11:10:13Z</name>
<cmt>
<![CDATA[TIME: 09-OCT-10 11:10:13<br>RCR: T <b>(TimeStamp)</b>
<br>VALID: SPS<br>LATITUDE: 50.400723 N<br>LONGITUDE: 9.685978 E<br>HEIGHT: 408.195 m<br>SPEED: 7.139 km/h<br>DISTANCE: 23.81 m]]>
</cmt>
<sym>TimeStamp</sym>
<type>T</type>
<fix>3d</fix>
</trkpt>
<trkpt lat="50.40050536" lon="9.68616302" >
<ele>413.283</ele>
<time>2010-10-09T11:10:23Z</time>
<speed>1.6918</speed>
<name>trkpt-2010-10-09T11:10:23Z</name>
<cmt>
<![CDATA[TIME: 09-OCT-10 11:10:23<br>RCR: T <b>(TimeStamp)</b>
<br>VALID: SPS<br>LATITUDE: 50.400505 N<br>LONGITUDE: 9.686163 E<br>HEIGHT: 413.283 m<br>SPEED: 6.090 km/h<br>DISTANCE: 28.00 m]]>
</cmt>
<sym>TimeStamp</sym>
<type>T</type>
<fix>3d</fix>
</trkpt>
<trkpt lat="50.40031394" lon="9.68630336" >
<ele>412.623</ele>
<time>2010-10-09T11:10:33Z</time>
<speed>2.0199</speed>
<name>trkpt-2010-10-09T11:10:33Z</name>
<cmt>
<![CDATA[TIME: 09-OCT-10 11:10:33<br>RCR: T <b>(TimeStamp)</b>
<br>VALID: SPS<br>LATITUDE: 50.400314 N<br>LONGITUDE: 9.686303 E<br>HEIGHT: 412.623 m<br>SPEED: 7.272 km/h<br>DISTANCE: 23.53 m]]>
</cmt>
<sym>TimeStamp</sym>
<type>T</type>
<fix>3d</fix>
</trkpt>
<trkpt lat="50.40015839" lon="9.68644723" >
<ele>415.249</ele>
<time>2010-10-09T11:10:43Z</time>
<speed>1.7129</speed>
<name>trkpt-2010-10-09T11:10:43Z</name>
<cmt>
<![CDATA[TIME: 09-OCT-10 11:10:43<br>RCR: T <b>(TimeStamp)</b>
<br>VALID: SPS<br>LATITUDE: 50.400158 N<br>LONGITUDE: 9.686447 E<br>HEIGHT: 415.249 m<br>SPEED: 6.167 km/h<br>DISTANCE: 20.27 m]]>
</cmt>
<sym>TimeStamp</sym>
<type>T</type>
<fix>3d</fix>
</trkpt>
<trkpt lat="50.39999937" lon="9.68654769" >
<ele>415.038</ele>
<time>2010-10-09T11:10:53Z</time>
<speed>1.6083</speed>
<name>trkpt-2010-10-09T11:10:53Z</name>
<cmt>
<![CDATA[TIME: 09-OCT-10 11:10:53<br>RCR: T <b>(TimeStamp)</b>
<br>VALID: SPS<br>LATITUDE: 50.399999 N<br>LONGITUDE: 9.686548 E<br>HEIGHT: 415.038 m<br>SPEED: 5.790 km/h<br>DISTANCE: 19.08 m]]>
</cmt>
<sym>TimeStamp</sym>
<type>T</type>
<fix>3d</fix>
</trkpt>
<trkpt lat="50.39983000" lon="9.68662529" >
<ele>416.480</ele>
<time>2010-10-09T11:11:03Z</time>
<speed>1.5279</speed>
<name>trkpt-2010-10-09T11:11:03Z</name>
<cmt>
<![CDATA[TIME: 09-OCT-10 11:11:03<br>RCR: T <b>(TimeStamp)</b>
<br>VALID: SPS<br>LATITUDE: 50.399830 N<br>LONGITUDE: 9.686625 E<br>HEIGHT: 416.480 m<br>SPEED: 5.500 km/h<br>DISTANCE: 19.69 m]]>
</cmt>
<sym>TimeStamp</sym>
<type>T</type>
<fix>3d</fix>
</trkpt>
<trkpt lat="50.39963881" lon="9.68680741" >
<ele>418.975</ele>
<time>2010-10-09T11:11:13Z</time>
<speed>1.8860</speed>
<name>trkpt-2010-10-09T11:11:13Z</name>
<cmt>
<![CDATA[TIME: 09-OCT-10 11:11:13<br>RCR: T <b>(TimeStamp)</b>
<br>VALID: SPS<br>LATITUDE: 50.399639 N<br>LONGITUDE: 9.686807 E<br>HEIGHT: 418.975 m<br>SPEED: 6.790 km/h<br>DISTANCE: 25.03 m]]>
</cmt>
<sym>TimeStamp</sym>
<type>T</type>
<fix>3d</fix>
</trkpt>
<trkpt lat="50.39944674" lon="9.68694921" >
<ele>422.689</ele>
<time>2010-10-09T11:11:23Z</time>
<speed>1.5741</speed>
<name>trkpt-2010-10-09T11:11:23Z</name>
<cmt>
<![CDATA[TIME: 09-OCT-10 11:11:23<br>RCR: T <b>(TimeStamp)</b>
<br>VALID: SPS<br>LATITUDE: 50.399447 N<br>LONGITUDE: 9.686949 E<br>HEIGHT: 422.689 m<br>SPEED: 5.667 km/h<br>DISTANCE: 23.92 m]]>
</cmt>
<sym>TimeStamp</sym>
<type>T</type>
<fix>3d</fix>
</trkpt>
<trkpt lat="50.39931160" lon="9.68707347" >
<ele>423.104</ele>
<time>2010-10-09T11:11:33Z</time>
<speed>1.4617</speed>
<name>trkpt-2010-10-09T11:11:33Z</name>
<cmt>
<![CDATA[TIME: 09-OCT-10 11:11:33<br>RCR: T <b>(TimeStamp)</b>
<br>VALID: SPS<br>LATITUDE: 50.399312 N<br>LONGITUDE: 9.687073 E<br>HEIGHT: 423.104 m<br>SPEED: 5.262 km/h<br>DISTANCE: 17.44 m]]>
</cmt>
<sym>TimeStamp</sym>
<type>T</type>
<fix>3d</fix>
</trkpt>
<trkpt lat="50.39915762" lon="9.68722699" >
<ele>424.959</ele>
<time>2010-10-09T11:11:43Z</time>
<speed>1.6739</speed>
<name>trkpt-2010-10-09T11:11:43Z</name>
<cmt>
<![CDATA[TIME: 09-OCT-10 11:11:43<br>RCR: T <b>(TimeStamp)</b>
<br>VALID: SPS<br>LATITUDE: 50.399158 N<br>LONGITUDE: 9.687227 E<br>HEIGHT: 424.959 m<br>SPEED: 6.026 km/h<br>DISTANCE: 20.40 m]]>
</cmt>
<sym>TimeStamp</sym>
<type>T</type>
<fix>3d</fix>
</trkpt>
<trkpt lat="50.39899883" lon="9.68740665" >
<ele>428.838</ele>
<time>2010-10-09T11:11:53Z</time>
<speed>1.8174</speed>
<name>trkpt-2010-10-09T11:11:53Z</name>
<cmt>
<![CDATA[TIME: 09-OCT-10 11:11:53<br>RCR: T <b>(TimeStamp)</b>
<br>VALID: SPS<br>LATITUDE: 50.398999 N<br>LONGITUDE: 9.687407 E<br>HEIGHT: 428.838 m<br>SPEED: 6.543 km/h<br>DISTANCE: 22.14 m]]>
</cmt>
<sym>TimeStamp</sym>
<type>T</type>
<fix>3d</fix>
</trkpt>
<trkpt lat="50.39883518" lon="9.68757357" >
<ele>429.528</ele>
<time>2010-10-09T11:12:03Z</time>
<speed>1.9240</speed>
<name>trkpt-2010-10-09T11:12:03Z</name>
<cmt>
<![CDATA[TIME: 09-OCT-10 11:12:03<br>RCR: T <b>(TimeStamp)</b>
<br>VALID: SPS<br>LATITUDE: 50.398835 N<br>LONGITUDE: 9.687574 E<br>HEIGHT: 429.528 m<br>SPEED: 6.926 km/h<br>DISTANCE: 21.74 m]]>
</cmt>
<sym>TimeStamp</sym>
<type>T</type>
<fix>3d</fix>
</trkpt>
<trkpt lat="50.39865420" lon="9.68776113" >
<ele>430.010</ele>
<time>2010-10-09T11:12:13Z</time>
<speed>1.6905</speed>
<name>trkpt-2010-10-09T11:12:13Z</name>
<cmt>
<![CDATA[TIME: 09-OCT-10 11:12:13<br>RCR: T <b>(TimeStamp)</b>
<br>VALID: SPS<br>LATITUDE: 50.398654 N<br>LONGITUDE: 9.687761 E<br>HEIGHT: 430.010 m<br>SPEED: 6.086 km/h<br>DISTANCE: 24.16 m]]>
</cmt>
<sym>TimeStamp</sym>
<type>T</type>
<fix>3d</fix>
</trkpt>
<trkpt lat="50.39848327" lon="9.68793377" >
<ele>432.523</ele>
<time>2010-10-09T11:12:23Z</time>
<speed>2.0540</speed>
<name>trkpt-2010-10-09T11:12:23Z</name>
<cmt>
<![CDATA[TIME: 09-OCT-10 11:12:23<br>RCR: T <b>(TimeStamp)</b>
<br>VALID: SPS<br>LATITUDE: 50.398483 N<br>LONGITUDE: 9.687934 E<br>HEIGHT: 432.523 m<br>SPEED: 7.395 km/h<br>DISTANCE: 22.77 m]]>
</cmt>
<sym>TimeStamp</sym>
<type>T</type>
<fix>3d</fix>
</trkpt>
<trkpt lat="50.39830992" lon="9.68810475" >
<ele>431.045</ele>
<time>2010-10-09T11:12:33Z</time>
<speed>2.2636</speed>
<name>trkpt-2010-10-09T11:12:33Z</name>
<cmt>
<![CDATA[TIME: 09-OCT-10 11:12:33<br>RCR: T <b>(TimeStamp)</b>
<br>VALID: SPS<br>LATITUDE: 50.398310 N<br>LONGITUDE: 9.688105 E<br>HEIGHT: 431.045 m<br>SPEED: 8.149 km/h<br>DISTANCE: 22.84 m]]>
</cmt>
<sym>TimeStamp</sym>
<type>T</type>
<fix>3d</fix>
</trkpt>
<trkpt lat="50.39811334" lon="9.68830799" >
<ele>432.328</ele>
<time>2010-10-09T11:12:43Z</time>
<speed>2.0303</speed>
<name>trkpt-2010-10-09T11:12:43Z</name>
<cmt>
<![CDATA[TIME: 09-OCT-10 11:12:43<br>RCR: T <b>(TimeStamp)</b>
<br>VALID: SPS<br>LATITUDE: 50.398113 N<br>LONGITUDE: 9.688308 E<br>HEIGHT: 432.328 m<br>SPEED: 7.309 km/h<br>DISTANCE: 26.24 m]]>
</cmt>
<sym>TimeStamp</sym>
<type>T</type>
<fix>3d</fix>
</trkpt>
<trkpt lat="50.39791366" lon="9.68849127" >
<ele>436.061</ele>
<time>2010-10-09T11:12:53Z</time>
<speed>2.2364</speed>
<name>trkpt-2010-10-09T11:12:53Z</name>
<cmt>
<![CDATA[TIME: 09-OCT-10 11:12:53<br>RCR: T <b>(TimeStamp)</b>
<br>VALID: SPS<br>LATITUDE: 50.397914 N<br>LONGITUDE: 9.688491 E<br>HEIGHT: 436.061 m<br>SPEED: 8.051 km/h<br>DISTANCE: 26.02 m]]>
</cmt>
<sym>TimeStamp</sym>
<type>T</type>
<fix>3d</fix>
</trkpt>
<trkpt lat="50.39778238" lon="9.68869624" >
<ele>439.468</ele>
<time>2010-10-09T11:13:03Z</time>
<speed>1.8438</speed>
<name>trkpt-2010-10-09T11:13:03Z</name>
<cmt>
<![CDATA[TIME: 09-OCT-10 11:13:03<br>RCR: T <b>(TimeStamp)</b>
<br>VALID: SPS<br>LATITUDE: 50.397782 N<br>LONGITUDE: 9.688696 E<br>HEIGHT: 439.468 m<br>SPEED: 6.638 km/h<br>DISTANCE: 20.91 m]]>
</cmt>
<sym>TimeStamp</sym>
<type>T</type>
<fix>3d</fix>
</trkpt>
<trkpt lat="50.39755217" lon="9.68912018" >
<ele>440.224</ele>
<time>2010-10-09T11:13:13Z</time>
<speed>2.3156</speed>
<name>trkpt-2010-10-09T11:13:13Z</name>
<cmt>
<![CDATA[TIME: 09-OCT-10 11:13:13<br>RCR: T <b>(TimeStamp)</b>
<br>VALID: SPS<br>LATITUDE: 50.397552 N<br>LONGITUDE: 9.689120 E<br>HEIGHT: 440.224 m<br>SPEED: 8.336 km/h<br>DISTANCE: 39.56 m]]>
</cmt>
<sym>TimeStamp</sym>
<type>T</type>
<fix>3d</fix>
</trkpt>
<trkpt lat="50.39739199" lon="9.68944766" >
<ele>442.107</ele>
<time>2010-10-09T11:13:23Z</time>
<speed>2.4360</speed>
<name>trkpt-2010-10-09T11:13:23Z</name>
<cmt>
<![CDATA[TIME: 09-OCT-10 11:13:23<br>RCR: T <b>(TimeStamp)</b>
<br>VALID: SPS<br>LATITUDE: 50.397392 N<br>LONGITUDE: 9.689448 E<br>HEIGHT: 442.107 m<br>SPEED: 8.770 km/h<br>DISTANCE: 29.38 m]]>
</cmt>
<sym>TimeStamp</sym>
<type>T</type>
<fix>3d</fix>
</trkpt>
<trkpt lat="50.39722452" lon="9.68967104" >
<ele>442.693</ele>
<time>2010-10-09T11:13:33Z</time>
<speed>1.4999</speed>
<name>trkpt-2010-10-09T11:13:33Z</name>
<cmt>
<![CDATA[TIME: 09-OCT-10 11:13:33<br>RCR: T <b>(TimeStamp)</b>
<br>VALID: SPS<br>LATITUDE: 50.397225 N<br>LONGITUDE: 9.689671 E<br>HEIGHT: 442.693 m<br>SPEED: 5.400 km/h<br>DISTANCE: 24.49 m]]>
</cmt>
<sym>TimeStamp</sym>
<type>T</type>
<fix>3d</fix>
</trkpt>
<trkpt lat="50.39704093" lon="9.68990147" >
<ele>440.816</ele>
<time>2010-10-09T11:13:43Z</time>
<speed>2.0532</speed>
<name>trkpt-2010-10-09T11:13:43Z</name>
<cmt>
<![CDATA[TIME: 09-OCT-10 11:13:43<br>RCR: T <b>(TimeStamp)</b>
<br>VALID: SPS<br>LATITUDE: 50.397041 N<br>LONGITUDE: 9.689901 E<br>HEIGHT: 440.816 m<br>SPEED: 7.392 km/h<br>DISTANCE: 26.25 m]]>
</cmt>
<sym>TimeStamp</sym>
<type>T</type>
<fix>3d</fix>
</trkpt>
<trkpt lat="50.39684569" lon="9.69009799" >
<ele>437.419</ele>
<time>2010-10-09T11:13:53Z</time>
<speed>1.4747</speed>
<name>trkpt-2010-10-09T11:13:53Z</name>
<cmt>
<![CDATA[TIME: 09-OCT-10 11:13:53<br>RCR: T <b>(TimeStamp)</b>
<br>VALID: SPS<br>LATITUDE: 50.396846 N<br>LONGITUDE: 9.690098 E<br>HEIGHT: 437.419 m<br>SPEED: 5.309 km/h<br>DISTANCE: 26.05 m]]>
</cmt>
<sym>TimeStamp</sym>
<type>T</type>
<fix>3d</fix>
</trkpt>
<trkpt lat="50.39664562" lon="9.69032365" >
<ele>439.023</ele>
<time>2010-10-09T11:14:03Z</time>
<speed>1.8651</speed>
<name>trkpt-2010-10-09T11:14:03Z</name>
<cmt>
<![CDATA[TIME: 09-OCT-10 11:14:03<br>RCR: T <b>(TimeStamp)</b>
<br>VALID: SPS<br>LATITUDE: 50.396646 N<br>LONGITUDE: 9.690324 E<br>HEIGHT: 439.023 m<br>SPEED: 6.714 km/h<br>DISTANCE: 27.48 m]]>
</cmt>
<sym>TimeStamp</sym>
<type>T</type>
<fix>3d</fix>
</trkpt>
<trkpt lat="50.39643677" lon="9.69046214" >
<ele>441.144</ele>
<time>2010-10-09T11:14:13Z</time>
<speed>1.6023</speed>
<name>trkpt-2010-10-09T11:14:13Z</name>
<cmt>
<![CDATA[TIME: 09-OCT-10 11:14:13<br>RCR: T <b>(TimeStamp)</b>
<br>VALID: SPS<br>LATITUDE: 50.396437 N<br>LONGITUDE: 9.690462 E<br>HEIGHT: 441.144 m<br>SPEED: 5.768 km/h<br>DISTANCE: 25.32 m]]>
</cmt>
<sym>TimeStamp</sym>
<type>T</type>
<fix>3d</fix>
</trkpt>
<trkpt lat="50.39624076" lon="9.69050834" >
<ele>439.270</ele>
<time>2010-10-09T11:14:23Z</time>
<speed>1.7536</speed>
<name>trkpt-2010-10-09T11:14:23Z</name>
<cmt>
<![CDATA[TIME: 09-OCT-10 11:14:23<br>RCR: T <b>(TimeStamp)</b>
<br>VALID: SPS<br>LATITUDE: 50.396241 N<br>LONGITUDE: 9.690508 E<br>HEIGHT: 439.270 m<br>SPEED: 6.313 km/h<br>DISTANCE: 22.13 m]]>
</cmt>
<sym>TimeStamp</sym>
<type>T</type>
<fix>3d</fix>
</trkpt>
<trkpt lat="50.39607884" lon="9.69061008" >
<ele>442.217</ele>
<time>2010-10-09T11:14:33Z</time>
<speed>1.8336</speed>
<name>trkpt-2010-10-09T11:14:33Z</name>
<cmt>
<![CDATA[TIME: 09-OCT-10 11:14:33<br>RCR: T <b>(TimeStamp)</b>
<br>VALID: SPS<br>LATITUDE: 50.396079 N<br>LONGITUDE: 9.690610 E<br>HEIGHT: 442.217 m<br>SPEED: 6.601 km/h<br>DISTANCE: 19.63 m]]>
</cmt>
<sym>TimeStamp</sym>
<type>T</type>
<fix>3d</fix>
</trkpt>
<trkpt lat="50.39592865" lon="9.69069005" >
<ele>445.769</ele>
<time>2010-10-09T11:14:43Z</time>
<speed>1.8523</speed>
<name>trkpt-2010-10-09T11:14:43Z</name>
<cmt>
<![CDATA[TIME: 09-OCT-10 11:14:43<br>RCR: T <b>(TimeStamp)</b>
<br>VALID: SPS<br>LATITUDE: 50.395929 N<br>LONGITUDE: 9.690690 E<br>HEIGHT: 445.769 m<br>SPEED: 6.668 km/h<br>DISTANCE: 18.00 m]]>
</cmt>
<sym>TimeStamp</sym>
<type>T</type>
<fix>3d</fix>
</trkpt>
<trkpt lat="50.39578103" lon="9.69077613" >
<ele>448.729</ele>
<time>2010-10-09T11:14:53Z</time>
<speed>1.8170</speed>
<name>trkpt-2010-10-09T11:14:53Z</name>
<cmt>
<![CDATA[TIME: 09-OCT-10 11:14:53<br>RCR: T <b>(TimeStamp)</b>
<br>VALID: SPS<br>LATITUDE: 50.395781 N<br>LONGITUDE: 9.690776 E<br>HEIGHT: 448.729 m<br>SPEED: 6.541 km/h<br>DISTANCE: 17.77 m]]>
</cmt>
<sym>TimeStamp</sym>
<type>T</type>
<fix>3d</fix>
</trkpt>
<trkpt lat="50.39562262" lon="9.69087749" >
<ele>451.489</ele>
<time>2010-10-09T11:15:03Z</time>
<speed>1.6007</speed>
<name>trkpt-2010-10-09T11:15:03Z</name>
<cmt>
<![CDATA[TIME: 09-OCT-10 11:15:03<br>RCR: T <b>(TimeStamp)</b>
<br>VALID: SPS<br>LATITUDE: 50.395623 N<br>LONGITUDE: 9.690877 E<br>HEIGHT: 451.489 m<br>SPEED: 5.763 km/h<br>DISTANCE: 19.24 m]]>
</cmt>
<sym>TimeStamp</sym>
<type>T</type>
<fix>3d</fix>
</trkpt>
<trkpt lat="50.39544119" lon="9.69094959" >
<ele>451.351</ele>
<time>2010-10-09T11:15:13Z</time>
<speed>1.7306</speed>
<name>trkpt-2010-10-09T11:15:13Z</name>
<cmt>
<![CDATA[TIME: 09-OCT-10 11:15:13<br>RCR: T <b>(TimeStamp)</b>
<br>VALID: SPS<br>LATITUDE: 50.395441 N<br>LONGITUDE: 9.690950 E<br>HEIGHT: 451.351 m<br>SPEED: 6.230 km/h<br>DISTANCE: 20.83 m]]>
</cmt>
<sym>TimeStamp</sym>
<type>T</type>
<fix>3d</fix>
</trkpt>
<trkpt lat="50.39528651" lon="9.69101190" >
<ele>452.076</ele>
<time>2010-10-09T11:15:23Z</time>
<speed>1.7732</speed>
<name>trkpt-2010-10-09T11:15:23Z</name>
<cmt>
<![CDATA[TIME: 09-OCT-10 11:15:23<br>RCR: T <b>(TimeStamp)</b>
<br>VALID: SPS<br>LATITUDE: 50.395287 N<br>LONGITUDE: 9.691012 E<br>HEIGHT: 452.076 m<br>SPEED: 6.383 km/h<br>DISTANCE: 17.78 m]]>
</cmt>
<sym>TimeStamp</sym>
<type>T</type>
<fix>3d</fix>
</trkpt>
<trkpt lat="50.39515086" lon="9.69103905" >
<ele>452.189</ele>
<time>2010-10-09T11:15:33Z</time>
<speed>1.2417</speed>
<name>trkpt-2010-10-09T11:15:33Z</name>
<cmt>
<![CDATA[TIME: 09-OCT-10 11:15:33<br>RCR: T <b>(TimeStamp)</b>
<br>VALID: SPS<br>LATITUDE: 50.395151 N<br>LONGITUDE: 9.691039 E<br>HEIGHT: 452.189 m<br>SPEED: 4.470 km/h<br>DISTANCE: 15.21 m]]>
</cmt>
<sym>TimeStamp</sym>
<type>T</type>
<fix>3d</fix>
</trkpt>
<trkpt lat="50.39499392" lon="9.69111488" >
<ele>453.748</ele>
<time>2010-10-09T11:15:43Z</time>
<speed>1.5898</speed>
<name>trkpt-2010-10-09T11:15:43Z</name>
<cmt>
<![CDATA[TIME: 09-OCT-10 11:15:43<br>RCR: T <b>(TimeStamp)</b>
<br>VALID: SPS<br>LATITUDE: 50.394994 N<br>LONGITUDE: 9.691115 E<br>HEIGHT: 453.748 m<br>SPEED: 5.723 km/h<br>DISTANCE: 18.34 m]]>
</cmt>
<sym>TimeStamp</sym>
<type>T</type>
<fix>3d</fix>
</trkpt>
<trkpt lat="50.39481221" lon="9.69119186" >
<ele>452.248</ele>
<time>2010-10-09T11:15:53Z</time>
<speed>1.5257</speed>
<name>trkpt-2010-10-09T11:15:53Z</name>
<cmt>
<![CDATA[TIME: 09-OCT-10 11:15:53<br>RCR: T <b>(TimeStamp)</b>
<br>VALID: SPS<br>LATITUDE: 50.394812 N<br>LONGITUDE: 9.691192 E<br>HEIGHT: 452.248 m<br>SPEED: 5.493 km/h<br>DISTANCE: 21.00 m]]>
</cmt>
<sym>TimeStamp</sym>
<type>T</type>
<fix>3d</fix>
</trkpt>
<trkpt lat="50.39468680" lon="9.69127384" >
<ele>456.284</ele>
<time>2010-10-09T11:16:03Z</time>
<speed>1.3358</speed>
<name>trkpt-2010-10-09T11:16:03Z</name>
<cmt>
<![CDATA[TIME: 09-OCT-10 11:16:03<br>RCR: T <b>(TimeStamp)</b>
<br>VALID: SPS<br>LATITUDE: 50.394687 N<br>LONGITUDE: 9.691274 E<br>HEIGHT: 456.284 m<br>SPEED: 4.809 km/h<br>DISTANCE: 15.65 m]]>
</cmt>
<sym>TimeStamp</sym>
<type>T</type>
<fix>3d</fix>
</trkpt>
<trkpt lat="50.39451446" lon="9.69133143" >
<ele>458.792</ele>
<time>2010-10-09T11:16:13Z</time>
<speed>1.7149</speed>
<name>trkpt-2010-10-09T11:16:13Z</name>
<cmt>
<![CDATA[TIME: 09-OCT-10 11:16:13<br>RCR: T <b>(TimeStamp)</b>
<br>VALID: SPS<br>LATITUDE: 50.394514 N<br>LONGITUDE: 9.691331 E<br>HEIGHT: 458.792 m<br>SPEED: 6.174 km/h<br>DISTANCE: 19.76 m]]>
</cmt>
<sym>TimeStamp</sym>
<type>T</type>
<fix>3d</fix>
</trkpt>
<trkpt lat="50.39435616" lon="9.69141883" >
<ele>460.164</ele>
<time>2010-10-09T11:16:23Z</time>
<speed>1.5010</speed>
<name>trkpt-2010-10-09T11:16:23Z</name>
<cmt>
<![CDATA[TIME: 09-OCT-10 11:16:23<br>RCR: T <b>(TimeStamp)</b>
<br>VALID: SPS<br>LATITUDE: 50.394356 N<br>LONGITUDE: 9.691419 E<br>HEIGHT: 460.164 m<br>SPEED: 5.404 km/h<br>DISTANCE: 18.73 m]]>
</cmt>
<sym>TimeStamp</sym>
<type>T</type>
<fix>3d</fix>
</trkpt>
<trkpt lat="50.39420403" lon="9.69147799" >
<ele>459.305</ele>
<time>2010-10-09T11:16:33Z</time>
<speed>1.3406</speed>
<name>trkpt-2010-10-09T11:16:33Z</name>
<cmt>
<![CDATA[TIME: 09-OCT-10 11:16:33<br>RCR: T <b>(TimeStamp)</b>
<br>VALID: SPS<br>LATITUDE: 50.394204 N<br>LONGITUDE: 9.691478 E<br>HEIGHT: 459.305 m<br>SPEED: 4.826 km/h<br>DISTANCE: 17.46 m]]>
</cmt>
<sym>TimeStamp</sym>
<type>T</type>
<fix>3d</fix>
</trkpt>
<trkpt lat="50.39402447" lon="9.69155472" >
<ele>458.308</ele>
<time>2010-10-09T11:16:43Z</time>
<speed>1.2146</speed>
<name>trkpt-2010-10-09T11:16:43Z</name>
<cmt>
<![CDATA[TIME: 09-OCT-10 11:16:43<br>RCR: T <b>(TimeStamp)</b>
<br>VALID: SPS<br>LATITUDE: 50.394024 N<br>LONGITUDE: 9.691555 E<br>HEIGHT: 458.308 m<br>SPEED: 4.373 km/h<br>DISTANCE: 20.73 m]]>
</cmt>
<sym>TimeStamp</sym>
<type>T</type>
<fix>3d</fix>
</trkpt>
<trkpt lat="50.39384557" lon="9.69158165" >
<ele>455.201</ele>
<time>2010-10-09T11:16:53Z</time>
<speed>1.5344</speed>
<name>trkpt-2010-10-09T11:16:53Z</name>
<cmt>
<![CDATA[TIME: 09-OCT-10 11:16:53<br>RCR: T <b>(TimeStamp)</b>
<br>VALID: SPS<br>LATITUDE: 50.393846 N<br>LONGITUDE: 9.691582 E<br>HEIGHT: 455.201 m<br>SPEED: 5.524 km/h<br>DISTANCE: 20.23 m]]>
</cmt>
<sym>TimeStamp</sym>
<type>T</type>
<fix>3d</fix>
</trkpt>
<trkpt lat="50.39372061" lon="9.69163939" >
<ele>453.428</ele>
<time>2010-10-09T11:17:03Z</time>
<speed>1.3546</speed>
<name>trkpt-2010-10-09T11:17:03Z</name>
<cmt>
<![CDATA[TIME: 09-OCT-10 11:17:03<br>RCR: T <b>(TimeStamp)</b>
<br>VALID: SPS<br>LATITUDE: 50.393721 N<br>LONGITUDE: 9.691639 E<br>HEIGHT: 453.428 m<br>SPEED: 4.877 km/h<br>DISTANCE: 14.60 m]]>
</cmt>
<sym>TimeStamp</sym>
<type>T</type>
<fix>3d</fix>
</trkpt>
<trkpt lat="50.39362736" lon="9.69163080" >
<ele>456.199</ele>
<time>2010-10-09T11:17:13Z</time>
<speed>0.8975</speed>
<name>trkpt-2010-10-09T11:17:13Z</name>
<cmt>
<![CDATA[TIME: 09-OCT-10 11:17:13<br>RCR: T <b>(TimeStamp)</b>
<br>VALID: SPS<br>LATITUDE: 50.393627 N<br>LONGITUDE: 9.691631 E<br>HEIGHT: 456.199 m<br>SPEED: 3.231 km/h<br>DISTANCE: 10.75 m]]>
</cmt>
<sym>TimeStamp</sym>
<type>T</type>
<fix>3d</fix>
</trkpt>
<trkpt lat="50.39346112" lon="9.69156419" >
<ele>458.562</ele>
<time>2010-10-09T11:17:23Z</time>
<speed>1.1770</speed>
<name>trkpt-2010-10-09T11:17:23Z</name>
<cmt>
<![CDATA[TIME: 09-OCT-10 11:17:23<br>RCR: T <b>(TimeStamp)</b>
<br>VALID: SPS<br>LATITUDE: 50.393461 N<br>LONGITUDE: 9.691564 E<br>HEIGHT: 458.562 m<br>SPEED: 4.237 km/h<br>DISTANCE: 19.24 m]]>
</cmt>
<sym>TimeStamp</sym>
<type>T</type>
<fix>3d</fix>
</trkpt>
<trkpt lat="50.39333420" lon="9.69154213" >
<ele>460.821</ele>
<time>2010-10-09T11:17:33Z</time>
<speed>0.4393</speed>
<name>trkpt-2010-10-09T11:17:33Z</name>
<cmt>
<![CDATA[TIME: 09-OCT-10 11:17:33<br>RCR: T <b>(TimeStamp)</b>
<br>VALID: SPS<br>LATITUDE: 50.393334 N<br>LONGITUDE: 9.691542 E<br>HEIGHT: 460.821 m<br>SPEED: 1.581 km/h<br>DISTANCE: 14.38 m]]>
</cmt>
<sym>TimeStamp</sym>
<type>T</type>
<fix>3d</fix>
</trkpt>
<trkpt lat="50.39316867" lon="9.69142363" >
<ele>461.520</ele>
<time>2010-10-09T11:17:43Z</time>
<speed>1.3539</speed>
<name>trkpt-2010-10-09T11:17:43Z</name>
<cmt>
<![CDATA[TIME: 09-OCT-10 11:17:43<br>RCR: T <b>(TimeStamp)</b>
<br>VALID: SPS<br>LATITUDE: 50.393169 N<br>LONGITUDE: 9.691424 E<br>HEIGHT: 461.520 m<br>SPEED: 4.874 km/h<br>DISTANCE: 20.26 m]]>
</cmt>
<sym>TimeStamp</sym>
<type>T</type>
<fix>3d</fix>
</trkpt>
<trkpt lat="50.39304358" lon="9.69131879" >
<ele>459.862</ele>
<time>2010-10-09T11:17:53Z</time>
<speed>1.9133</speed>
<name>trkpt-2010-10-09T11:17:53Z</name>
<cmt>
<![CDATA[TIME: 09-OCT-10 11:17:53<br>RCR: T <b>(TimeStamp)</b>
<br>VALID: SPS<br>LATITUDE: 50.393044 N<br>LONGITUDE: 9.691319 E<br>HEIGHT: 459.862 m<br>SPEED: 6.888 km/h<br>DISTANCE: 15.87 m]]>
</cmt>
<sym>TimeStamp</sym>
<type>T</type>
<fix>3d</fix>
</trkpt>
<trkpt lat="50.39292942" lon="9.69115681" >
<ele>454.835</ele>
<time>2010-10-09T11:18:03Z</time>
<speed>1.3619</speed>
<name>trkpt-2010-10-09T11:18:03Z</name>
<cmt>
<![CDATA[TIME: 09-OCT-10 11:18:03<br>RCR: T <b>(TimeStamp)</b>
<br>VALID: SPS<br>LATITUDE: 50.392929 N<br>LONGITUDE: 9.691157 E<br>HEIGHT: 454.835 m<br>SPEED: 4.903 km/h<br>DISTANCE: 17.87 m]]>
</cmt>
<sym>TimeStamp</sym>
<type>T</type>
<fix>3d</fix>
</trkpt>
<trkpt lat="50.39281568" lon="9.69096312" >
<ele>450.047</ele>
<time>2010-10-09T11:18:13Z</time>
<speed>1.7696</speed>
<name>trkpt-2010-10-09T11:18:13Z</name>
<cmt>
<![CDATA[TIME: 09-OCT-10 11:18:13<br>RCR: T <b>(TimeStamp)</b>
<br>VALID: SPS<br>LATITUDE: 50.392816 N<br>LONGITUDE: 9.690963 E<br>HEIGHT: 450.047 m<br>SPEED: 6.371 km/h<br>DISTANCE: 19.31 m]]>
</cmt>
<sym>TimeStamp</sym>
<type>T</type>
<fix>3d</fix>
</trkpt>
<trkpt lat="50.39273557" lon="9.69074270" >
<ele>447.463</ele>
<time>2010-10-09T11:18:23Z</time>
<speed>1.0246</speed>
<name>trkpt-2010-10-09T11:18:23Z</name>
<cmt>
<![CDATA[TIME: 09-OCT-10 11:18:23<br>RCR: T <b>(TimeStamp)</b>
<br>VALID: SPS<br>LATITUDE: 50.392736 N<br>LONGITUDE: 9.690743 E<br>HEIGHT: 447.463 m<br>SPEED: 3.689 km/h<br>DISTANCE: 18.22 m]]>
</cmt>
<sym>TimeStamp</sym>
<type>T</type>
<fix>3d</fix>
</trkpt>
<trkpt lat="50.39259726" lon="9.69071845" >
<ele>445.699</ele>
<time>2010-10-09T11:18:33Z</time>
<speed>1.4514</speed>
<name>trkpt-2010-10-09T11:18:33Z</name>
<cmt>
<![CDATA[TIME: 09-OCT-10 11:18:33<br>RCR: T <b>(TimeStamp)</b>
<br>VALID: SPS<br>LATITUDE: 50.392597 N<br>LONGITUDE: 9.690718 E<br>HEIGHT: 445.699 m<br>SPEED: 5.225 km/h<br>DISTANCE: 15.58 m]]>
</cmt>
<sym>TimeStamp</sym>
<type>T</type>
<fix>3d</fix>
</trkpt>
<trkpt lat="50.39247115" lon="9.69068358" >
<ele>445.867</ele>
<time>2010-10-09T11:18:43Z</time>
<speed>1.1863</speed>
<name>trkpt-2010-10-09T11:18:43Z</name>
<cmt>
<![CDATA[TIME: 09-OCT-10 11:18:43<br>RCR: T <b>(TimeStamp)</b>
<br>VALID: SPS<br>LATITUDE: 50.392471 N<br>LONGITUDE: 9.690684 E<br>HEIGHT: 445.867 m<br>SPEED: 4.271 km/h<br>DISTANCE: 14.25 m]]>
</cmt>
<sym>TimeStamp</sym>
<type>T</type>
<fix>3d</fix>
</trkpt>
<trkpt lat="50.39239256" lon="9.69056316" >
<ele>443.948</ele>
<time>2010-10-09T11:18:53Z</time>
<speed>1.0826</speed>
<name>trkpt-2010-10-09T11:18:53Z</name>
<cmt>
<![CDATA[TIME: 09-OCT-10 11:18:53<br>RCR: T <b>(TimeStamp)</b>
<br>VALID: SPS<br>LATITUDE: 50.392393 N<br>LONGITUDE: 9.690563 E<br>HEIGHT: 443.948 m<br>SPEED: 3.897 km/h<br>DISTANCE: 12.39 m]]>
</cmt>
<sym>TimeStamp</sym>
<type>T</type>
<fix>3d</fix>
</trkpt>
<trkpt lat="50.39228237" lon="9.69049778" >
<ele>441.113</ele>
<time>2010-10-09T11:19:03Z</time>
<speed>1.2630</speed>
<name>trkpt-2010-10-09T11:19:03Z</name>
<cmt>
<![CDATA[TIME: 09-OCT-10 11:19:03<br>RCR: T <b>(TimeStamp)</b>
<br>VALID: SPS<br>LATITUDE: 50.392282 N<br>LONGITUDE: 9.690498 E<br>HEIGHT: 441.113 m<br>SPEED: 4.547 km/h<br>DISTANCE: 13.41 m]]>
</cmt>
<sym>TimeStamp</sym>
<type>T</type>
<fix>3d</fix>
</trkpt>
<trkpt lat="50.39218466" lon="9.69048378" >
<ele>440.224</ele>
<time>2010-10-09T11:19:13Z</time>
<speed>0.2445</speed>
<name>trkpt-2010-10-09T11:19:13Z</name>
<cmt>
<![CDATA[TIME: 09-OCT-10 11:19:13<br>RCR: T <b>(TimeStamp)</b>
<br>VALID: SPS<br>LATITUDE: 50.392185 N<br>LONGITUDE: 9.690484 E<br>HEIGHT: 440.224 m<br>SPEED: 0.880 km/h<br>DISTANCE: 10.95 m]]>
</cmt>
<sym>TimeStamp</sym>
<type>T</type>
<fix>3d</fix>
</trkpt>
<trkpt lat="50.39193305" lon="9.69047856" >
<ele>448.691</ele>
<time>2010-10-09T11:19:23Z</time>
<speed>1.1198</speed>
<name>trkpt-2010-10-09T11:19:23Z</name>
<cmt>
<![CDATA[TIME: 09-OCT-10 11:19:23<br>RCR: T <b>(TimeStamp)</b>
<br>VALID: SPS<br>LATITUDE: 50.391933 N<br>LONGITUDE: 9.690479 E<br>HEIGHT: 448.691 m<br>SPEED: 4.031 km/h<br>DISTANCE: 29.25 m]]>
</cmt>
<sym>TimeStamp</sym>
<type>T</type>
<fix>3d</fix>
</trkpt>
<trkpt lat="50.39170474" lon="9.69054633" >
<ele>455.416</ele>
<time>2010-10-09T11:19:33Z</time>
<speed>0.7933</speed>
<name>trkpt-2010-10-09T11:19:33Z</name>
<cmt>
<![CDATA[TIME: 09-OCT-10 11:19:33<br>RCR: T <b>(TimeStamp)</b>
<br>VALID: SPS<br>LATITUDE: 50.391705 N<br>LONGITUDE: 9.690546 E<br>HEIGHT: 455.416 m<br>SPEED: 2.856 km/h<br>DISTANCE: 26.71 m]]>
</cmt>
<sym>TimeStamp</sym>
<type>T</type>
<fix>3d</fix>
</trkpt>
<trkpt lat="50.39147184" lon="9.69064390" >
<ele>460.961</ele>
<time>2010-10-09T11:19:43Z</time>
<speed>1.6233</speed>
<name>trkpt-2010-10-09T11:19:43Z</name>
<cmt>
<![CDATA[TIME: 09-OCT-10 11:19:43<br>RCR: T <b>(TimeStamp)</b>
<br>VALID: SPS<br>LATITUDE: 50.391472 N<br>LONGITUDE: 9.690644 E<br>HEIGHT: 460.961 m<br>SPEED: 5.844 km/h<br>DISTANCE: 27.39 m]]>
</cmt>
<sym>TimeStamp</sym>
<type>T</type>
<fix>3d</fix>
</trkpt>
<trkpt lat="50.39116966" lon="9.69079926" >
<ele>469.634</ele>
<time>2010-10-09T11:19:53Z</time>
<speed>1.9320</speed>
<name>trkpt-2010-10-09T11:19:53Z</name>
<cmt>
<![CDATA[TIME: 09-OCT-10 11:19:53<br>RCR: T <b>(TimeStamp)</b>
<br>VALID: SPS<br>LATITUDE: 50.391170 N<br>LONGITUDE: 9.690799 E<br>HEIGHT: 469.634 m<br>SPEED: 6.955 km/h<br>DISTANCE: 36.43 m]]>
</cmt>
<sym>TimeStamp</sym>
<type>T</type>
<fix>3d</fix>
</trkpt>
<trkpt lat="50.39090730" lon="9.69092316" >
<ele>478.336</ele>
<time>2010-10-09T11:20:03Z</time>
<speed>1.7095</speed>
<name>trkpt-2010-10-09T11:20:03Z</name>
<cmt>
<![CDATA[TIME: 09-OCT-10 11:20:03<br>RCR: T <b>(TimeStamp)</b>
<br>VALID: SPS<br>LATITUDE: 50.390907 N<br>LONGITUDE: 9.690923 E<br>HEIGHT: 478.336 m<br>SPEED: 6.154 km/h<br>DISTANCE: 31.70 m]]>
</cmt>
<sym>TimeStamp</sym>
<type>T</type>
<fix>3d</fix>
</trkpt>
<trkpt lat="50.39071336" lon="9.69094636" >
<ele>481.260</ele>
<time>2010-10-09T11:20:13Z</time>
<speed>2.2296</speed>
<name>trkpt-2010-10-09T11:20:13Z</name>
<cmt>
<![CDATA[TIME: 09-OCT-10 11:20:13<br>RCR: T <b>(TimeStamp)</b>
<br>VALID: SPS<br>LATITUDE: 50.390713 N<br>LONGITUDE: 9.690946 E<br>HEIGHT: 481.260 m<br>SPEED: 8.026 km/h<br>DISTANCE: 21.83 m]]>
</cmt>
<sym>TimeStamp</sym>
<type>T</type>
<fix>3d</fix>
</trkpt>
<trkpt lat="50.39051322" lon="9.69096145" >
<ele>483.075</ele>
<time>2010-10-09T11:20:23Z</time>
<speed>1.5945</speed>
<name>trkpt-2010-10-09T11:20:23Z</name>
<cmt>
<![CDATA[TIME: 09-OCT-10 11:20:23<br>RCR: T <b>(TimeStamp)</b>
<br>VALID: SPS<br>LATITUDE: 50.390513 N<br>LONGITUDE: 9.690961 E<br>HEIGHT: 483.075 m<br>SPEED: 5.740 km/h<br>DISTANCE: 22.36 m]]>
</cmt>
<sym>TimeStamp</sym>
<type>T</type>
<fix>3d</fix>
</trkpt>
<trkpt lat="50.39030479" lon="9.69101279" >
<ele>487.653</ele>
<time>2010-10-09T11:20:33Z</time>
<speed>2.4327</speed>
<name>trkpt-2010-10-09T11:20:33Z</name>
<cmt>
<![CDATA[TIME: 09-OCT-10 11:20:33<br>RCR: T <b>(TimeStamp)</b>
<br>VALID: SPS<br>LATITUDE: 50.390305 N<br>LONGITUDE: 9.691013 E<br>HEIGHT: 487.653 m<br>SPEED: 8.758 km/h<br>DISTANCE: 23.91 m]]>
</cmt>
<sym>TimeStamp</sym>
<type>T</type>
<fix>3d</fix>
</trkpt>
<trkpt lat="50.39008133" lon="9.69100312" >
<ele>490.382</ele>
<time>2010-10-09T11:20:43Z</time>
<speed>1.8804</speed>
<name>trkpt-2010-10-09T11:20:43Z</name>
<cmt>
<![CDATA[TIME: 09-OCT-10 11:20:43<br>RCR: T <b>(TimeStamp)</b>
<br>VALID: SPS<br>LATITUDE: 50.390081 N<br>LONGITUDE: 9.691003 E<br>HEIGHT: 490.382 m<br>SPEED: 6.769 km/h<br>DISTANCE: 25.02 m]]>
</cmt>
<sym>TimeStamp</sym>
<type>T</type>
<fix>3d</fix>
</trkpt>
<trkpt lat="50.38989374" lon="9.69100106" >
<ele>490.532</ele>
<time>2010-10-09T11:20:53Z</time>
<speed>2.1868</speed>
<name>trkpt-2010-10-09T11:20:53Z</name>
<cmt>
<![CDATA[TIME: 09-OCT-10 11:20:53<br>RCR: T <b>(TimeStamp)</b>
<br>VALID: SPS<br>LATITUDE: 50.389894 N<br>LONGITUDE: 9.691001 E<br>HEIGHT: 490.532 m<br>SPEED: 7.873 km/h<br>DISTANCE: 20.87 m]]>
</cmt>
<sym>TimeStamp</sym>
<type>T</type>
<fix>3d</fix>
</trkpt>
<trkpt lat="50.38967211" lon="9.69101072" >
<ele>491.399</ele>
<time>2010-10-09T11:21:03Z</time>
<speed>2.5349</speed>
<name>trkpt-2010-10-09T11:21:03Z</name>
<cmt>
<![CDATA[TIME: 09-OCT-10 11:21:03<br>RCR: T <b>(TimeStamp)</b>
<br>VALID: SPS<br>LATITUDE: 50.389672 N<br>LONGITUDE: 9.691011 E<br>HEIGHT: 491.399 m<br>SPEED: 9.126 km/h<br>DISTANCE: 24.68 m]]>
</cmt>
<sym>TimeStamp</sym>
<type>T</type>
<fix>3d</fix>
</trkpt>
<trkpt lat="50.38946915" lon="9.69113423" >
<ele>494.729</ele>
<time>2010-10-09T11:21:13Z</time>
<speed>2.4568</speed>
<name>trkpt-2010-10-09T11:21:13Z</name>
<cmt>
<![CDATA[TIME: 09-OCT-10 11:21:13<br>RCR: T <b>(TimeStamp)</b>
<br>VALID: SPS<br>LATITUDE: 50.389469 N<br>LONGITUDE: 9.691134 E<br>HEIGHT: 494.729 m<br>SPEED: 8.844 km/h<br>DISTANCE: 24.45 m]]>
</cmt>
<sym>TimeStamp</sym>
<type>T</type>
<fix>3d</fix>
</trkpt>
<trkpt lat="50.38922303" lon="9.69124467" >
<ele>492.934</ele>
<time>2010-10-09T11:21:23Z</time>
<speed>3.0632</speed>
<name>trkpt-2010-10-09T11:21:23Z</name>
<cmt>
<![CDATA[TIME: 09-OCT-10 11:21:23<br>RCR: T <b>(TimeStamp)</b>
<br>VALID: SPS<br>LATITUDE: 50.389223 N<br>LONGITUDE: 9.691245 E<br>HEIGHT: 492.934 m<br>SPEED: 11.027 km/h<br>DISTANCE: 28.54 m]]>
</cmt>
<sym>TimeStamp</sym>
<type>T</type>
<fix>3d</fix>
</trkpt>
<trkpt lat="50.38897605" lon="9.69138498" >
<ele>493.461</ele>
<time>2010-10-09T11:21:33Z</time>
<speed>2.9536</speed>
<name>trkpt-2010-10-09T11:21:33Z</name>
<cmt>
<![CDATA[TIME: 09-OCT-10 11:21:33<br>RCR: T <b>(TimeStamp)</b>
<br>VALID: SPS<br>LATITUDE: 50.388976 N<br>LONGITUDE: 9.691385 E<br>HEIGHT: 493.461 m<br>SPEED: 10.633 km/h<br>DISTANCE: 29.24 m]]>
</cmt>
<sym>TimeStamp</sym>
<type>T</type>
<fix>3d</fix>
</trkpt>
<trkpt lat="50.38870834" lon="9.69153199" >
<ele>493.970</ele>
<time>2010-10-09T11:21:43Z</time>
<speed>3.1012</speed>
<name>trkpt-2010-10-09T11:21:43Z</name>
<cmt>
<![CDATA[TIME: 09-OCT-10 11:21:43<br>RCR: T <b>(TimeStamp)</b>
<br>VALID: SPS<br>LATITUDE: 50.388708 N<br>LONGITUDE: 9.691532 E<br>HEIGHT: 493.970 m<br>SPEED: 11.164 km/h<br>DISTANCE: 31.57 m]]>
</cmt>
<sym>TimeStamp</sym>
<type>T</type>
<fix>3d</fix>
</trkpt>
<trkpt lat="50.38842374" lon="9.69170291" >
<ele>492.485</ele>
<time>2010-10-09T11:21:53Z</time>
<speed>3.2524</speed>
<name>trkpt-2010-10-09T11:21:53Z</name>
<cmt>
<![CDATA[TIME: 09-OCT-10 11:21:53<br>RCR: T <b>(TimeStamp)</b>
<br>VALID: SPS<br>LATITUDE: 50.388424 N<br>LONGITUDE: 9.691703 E<br>HEIGHT: 492.485 m<br>SPEED: 11.709 km/h<br>DISTANCE: 33.95 m]]>
</cmt>
<sym>TimeStamp</sym>
<type>T</type>
<fix>3d</fix>
</trkpt>
<trkpt lat="50.38816801" lon="9.69193771" >
<ele>493.454</ele>
<time>2010-10-09T11:22:03Z</time>
<speed>3.0576</speed>
<name>trkpt-2010-10-09T11:22:03Z</name>
<cmt>
<![CDATA[TIME: 09-OCT-10 11:22:03<br>RCR: T <b>(TimeStamp)</b>
<br>VALID: SPS<br>LATITUDE: 50.388168 N<br>LONGITUDE: 9.691938 E<br>HEIGHT: 493.454 m<br>SPEED: 11.007 km/h<br>DISTANCE: 33.00 m]]>
</cmt>
<sym>TimeStamp</sym>
<type>T</type>
<fix>3d</fix>
</trkpt>
<trkpt lat="50.38791426" lon="9.69206516" >
<ele>492.903</ele>
<time>2010-10-09T11:22:13Z</time>
<speed>3.1878</speed>
<name>trkpt-2010-10-09T11:22:13Z</name>
<cmt>
<![CDATA[TIME: 09-OCT-10 11:22:13<br>RCR: T <b>(TimeStamp)</b>
<br>VALID: SPS<br>LATITUDE: 50.387914 N<br>LONGITUDE: 9.692065 E<br>HEIGHT: 492.903 m<br>SPEED: 11.476 km/h<br>DISTANCE: 29.65 m]]>
</cmt>
<sym>TimeStamp</sym>
<type>T</type>
<fix>3d</fix>
</trkpt>
<trkpt lat="50.38764232" lon="9.69222188" >
<ele>496.644</ele>
<time>2010-10-09T11:22:23Z</time>
<speed>2.8618</speed>
<name>trkpt-2010-10-09T11:22:23Z</name>
<cmt>
<![CDATA[TIME: 09-OCT-10 11:22:23<br>RCR: T <b>(TimeStamp)</b>
<br>VALID: SPS<br>LATITUDE: 50.387642 N<br>LONGITUDE: 9.692222 E<br>HEIGHT: 496.644 m<br>SPEED: 10.303 km/h<br>DISTANCE: 32.46 m]]>
</cmt>
<sym>TimeStamp</sym>
<type>T</type>
<fix>3d</fix>
</trkpt>
<trkpt lat="50.38736078" lon="9.69234122" >
<ele>497.582</ele>
<time>2010-10-09T11:22:33Z</time>
<speed>3.0822</speed>
<name>trkpt-2010-10-09T11:22:33Z</name>
<cmt>
<![CDATA[TIME: 09-OCT-10 11:22:33<br>RCR: T <b>(TimeStamp)</b>
<br>VALID: SPS<br>LATITUDE: 50.387361 N<br>LONGITUDE: 9.692341 E<br>HEIGHT: 497.582 m<br>SPEED: 11.096 km/h<br>DISTANCE: 32.46 m]]>
</cmt>
<sym>TimeStamp</sym>
<type>T</type>
<fix>3d</fix>
</trkpt>
<trkpt lat="50.38710032" lon="9.69252641" >
<ele>498.712</ele>
<time>2010-10-09T11:22:43Z</time>
<speed>2.9044</speed>
<name>trkpt-2010-10-09T11:22:43Z</name>
<cmt>
<![CDATA[TIME: 09-OCT-10 11:22:43<br>RCR: T <b>(TimeStamp)</b>
<br>VALID: SPS<br>LATITUDE: 50.387100 N<br>LONGITUDE: 9.692526 E<br>HEIGHT: 498.712 m<br>SPEED: 10.456 km/h<br>DISTANCE: 31.85 m]]>
</cmt>
<sym>TimeStamp</sym>
<type>T</type>
<fix>3d</fix>
</trkpt>
<trkpt lat="50.38680515" lon="9.69267627" >
<ele>499.582</ele>
<time>2010-10-09T11:22:53Z</time>
<speed>3.1521</speed>
<name>trkpt-2010-10-09T11:22:53Z</name>
<cmt>
<![CDATA[TIME: 09-OCT-10 11:22:53<br>RCR: T <b>(TimeStamp)</b>
<br>VALID: SPS<br>LATITUDE: 50.386805 N<br>LONGITUDE: 9.692676 E<br>HEIGHT: 499.582 m<br>SPEED: 11.348 km/h<br>DISTANCE: 34.53 m]]>
</cmt>
<sym>TimeStamp</sym>
<type>T</type>
<fix>3d</fix>
</trkpt>
<trkpt lat="50.38651105" lon="9.69285376" >
<ele>503.759</ele>
<time>2010-10-09T11:23:03Z</time>
<speed>3.2838</speed>
<name>trkpt-2010-10-09T11:23:03Z</name>
<cmt>
<![CDATA[TIME: 09-OCT-10 11:23:03<br>RCR: T <b>(TimeStamp)</b>
<br>VALID: SPS<br>LATITUDE: 50.386511 N<br>LONGITUDE: 9.692854 E<br>HEIGHT: 503.759 m<br>SPEED: 11.822 km/h<br>DISTANCE: 35.32 m]]>
</cmt>
<sym>TimeStamp</sym>
<type>T</type>
<fix>3d</fix>
</trkpt>
<trkpt lat="50.38627416" lon="9.69299783" >
<ele>506.987</ele>
<time>2010-10-09T11:23:13Z</time>
<speed>1.7113</speed>
<name>trkpt-2010-10-09T11:23:13Z</name>
<cmt>
<![CDATA[TIME: 09-OCT-10 11:23:13<br>RCR: T <b>(TimeStamp)</b>
<br>VALID: SPS<br>LATITUDE: 50.386274 N<br>LONGITUDE: 9.692998 E<br>HEIGHT: 506.987 m<br>SPEED: 6.161 km/h<br>DISTANCE: 28.46 m]]>
</cmt>
<sym>TimeStamp</sym>
<type>T</type>
<fix>3d</fix>
</trkpt>
<trkpt lat="50.38610422" lon="9.69311238" >
<ele>506.842</ele>
<time>2010-10-09T11:23:23Z</time>
<speed>2.6739</speed>
<name>trkpt-2010-10-09T11:23:23Z</name>
<cmt>
<![CDATA[TIME: 09-OCT-10 11:23:23<br>RCR: T <b>(TimeStamp)</b>
<br>VALID: SPS<br>LATITUDE: 50.386104 N<br>LONGITUDE: 9.693112 E<br>HEIGHT: 506.842 m<br>SPEED: 9.626 km/h<br>DISTANCE: 20.59 m]]>
</cmt>
<sym>TimeStamp</sym>
<type>T</type>
<fix>3d</fix>
</trkpt>
<trkpt lat="50.38590053" lon="9.69321529" >
<ele>508.677</ele>
<time>2010-10-09T11:23:33Z</time>
<speed>1.9331</speed>
<name>trkpt-2010-10-09T11:23:33Z</name>
<cmt>
<![CDATA[TIME: 09-OCT-10 11:23:33<br>RCR: T <b>(TimeStamp)</b>
<br>VALID: SPS<br>LATITUDE: 50.385901 N<br>LONGITUDE: 9.693215 E<br>HEIGHT: 508.677 m<br>SPEED: 6.959 km/h<br>DISTANCE: 23.88 m]]>
</cmt>
<sym>TimeStamp</sym>
<type>T</type>
<fix>3d</fix>
</trkpt>
<trkpt lat="50.38571867" lon="9.69333422" >
<ele>509.763</ele>
<time>2010-10-09T11:23:43Z</time>
<speed>2.3213</speed>
<name>trkpt-2010-10-09T11:23:43Z</name>
<cmt>
<![CDATA[TIME: 09-OCT-10 11:23:43<br>RCR: T <b>(TimeStamp)</b>
<br>VALID: SPS<br>LATITUDE: 50.385719 N<br>LONGITUDE: 9.693334 E<br>HEIGHT: 509.763 m<br>SPEED: 8.357 km/h<br>DISTANCE: 21.96 m]]>
</cmt>
<sym>TimeStamp</sym>
<type>T</type>
<fix>3d</fix>
</trkpt>
<trkpt lat="50.38551764" lon="9.69344721" >
<ele>512.356</ele>
<time>2010-10-09T11:23:53Z</time>
<speed>1.9670</speed>
<name>trkpt-2010-10-09T11:23:53Z</name>
<cmt>
<![CDATA[TIME: 09-OCT-10 11:23:53<br>RCR: T <b>(TimeStamp)</b>
<br>VALID: SPS<br>LATITUDE: 50.385518 N<br>LONGITUDE: 9.693447 E<br>HEIGHT: 512.356 m<br>SPEED: 7.081 km/h<br>DISTANCE: 23.90 m]]>
</cmt>
<sym>TimeStamp</sym>
<type>T</type>
<fix>3d</fix>
</trkpt>
<trkpt lat="50.38537066" lon="9.69352308" >
<ele>513.277</ele>
<time>2010-10-09T11:24:03Z</time>
<speed>0.8518</speed>
<name>trkpt-2010-10-09T11:24:03Z</name>
<cmt>
<![CDATA[TIME: 09-OCT-10 11:24:03<br>RCR: T <b>(TimeStamp)</b>
<br>VALID: SPS<br>LATITUDE: 50.385371 N<br>LONGITUDE: 9.693523 E<br>HEIGHT: 513.277 m<br>SPEED: 3.066 km/h<br>DISTANCE: 17.24 m]]>
</cmt>
<sym>TimeStamp</sym>
<type>T</type>
<fix>3d</fix>
</trkpt>
<trkpt lat="50.38530903" lon="9.69336655" >
<ele>513.209</ele>
<time>2010-10-09T11:24:13Z</time>
<speed>1.3529</speed>
<name>trkpt-2010-10-09T11:24:13Z</name>
<cmt>
<![CDATA[TIME: 09-OCT-10 11:24:13<br>RCR: T <b>(TimeStamp)</b>
<br>VALID: SPS<br>LATITUDE: 50.385309 N<br>LONGITUDE: 9.693367 E<br>HEIGHT: 513.209 m<br>SPEED: 4.870 km/h<br>DISTANCE: 13.08 m]]>
</cmt>
<sym>TimeStamp</sym>
<type>T</type>
<fix>3d</fix>
</trkpt>
<trkpt lat="50.38529554" lon="9.69309907" >
<ele>515.865</ele>
<time>2010-10-09T11:24:23Z</time>
<speed>1.9039</speed>
<name>trkpt-2010-10-09T11:24:23Z</name>
<cmt>
<![CDATA[TIME: 09-OCT-10 11:24:23<br>RCR: T <b>(TimeStamp)</b>
<br>VALID: SPS<br>LATITUDE: 50.385296 N<br>LONGITUDE: 9.693099 E<br>HEIGHT: 515.865 m<br>SPEED: 6.854 km/h<br>DISTANCE: 19.27 m]]>
</cmt>
<sym>TimeStamp</sym>
<type>T</type>
<fix>3d</fix>
</trkpt>
<trkpt lat="50.38525797" lon="9.69278785" >
<ele>518.712</ele>
<time>2010-10-09T11:24:33Z</time>
<speed>1.9138</speed>
<name>trkpt-2010-10-09T11:24:33Z</name>
<cmt>
<![CDATA[TIME: 09-OCT-10 11:24:33<br>RCR: T <b>(TimeStamp)</b>
<br>VALID: SPS<br>LATITUDE: 50.385258 N<br>LONGITUDE: 9.692788 E<br>HEIGHT: 518.712 m<br>SPEED: 6.890 km/h<br>DISTANCE: 22.71 m]]>
</cmt>
<sym>TimeStamp</sym>
<type>T</type>
<fix>3d</fix>
</trkpt>
<trkpt lat="50.38518067" lon="9.69257131" >
<ele>532.912</ele>
<time>2010-10-09T11:24:43Z</time>
<speed>2.2508</speed>
<name>trkpt-2010-10-09T11:24:43Z</name>
<cmt>
<![CDATA[TIME: 09-OCT-10 11:24:43<br>RCR: T <b>(TimeStamp)</b>
<br>VALID: SPS<br>LATITUDE: 50.385181 N<br>LONGITUDE: 9.692571 E<br>HEIGHT: 532.912 m<br>SPEED: 8.103 km/h<br>DISTANCE: 22.65 m]]>
</cmt>
<sym>TimeStamp</sym>
<type>T</type>
<fix>3d</fix>
</trkpt>
<trkpt lat="50.38515079" lon="9.69227770" >
<ele>538.118</ele>
<time>2010-10-09T11:24:53Z</time>
<speed>2.3231</speed>
<name>trkpt-2010-10-09T11:24:53Z</name>
<cmt>
<![CDATA[TIME: 09-OCT-10 11:24:53<br>RCR: T <b>(TimeStamp)</b>
<br>VALID: SPS<br>LATITUDE: 50.385151 N<br>LONGITUDE: 9.692278 E<br>HEIGHT: 538.118 m<br>SPEED: 8.363 km/h<br>DISTANCE: 21.78 m]]>
</cmt>
<sym>TimeStamp</sym>
<type>T</type>
<fix>3d</fix>
</trkpt>
<trkpt lat="50.38514564" lon="9.69201385" >
<ele>543.993</ele>
<time>2010-10-09T11:25:03Z</time>
<speed>1.9461</speed>
<name>trkpt-2010-10-09T11:25:03Z</name>
<cmt>
<![CDATA[TIME: 09-OCT-10 11:25:03<br>RCR: T <b>(TimeStamp)</b>
<br>VALID: SPS<br>LATITUDE: 50.385146 N<br>LONGITUDE: 9.692014 E<br>HEIGHT: 543.993 m<br>SPEED: 7.006 km/h<br>DISTANCE: 19.67 m]]>
</cmt>
<sym>TimeStamp</sym>
<type>T</type>
<fix>3d</fix>
</trkpt>
<trkpt lat="50.38510942" lon="9.69173698" >
<ele>545.566</ele>
<time>2010-10-09T11:25:13Z</time>
<speed>2.0129</speed>
<name>trkpt-2010-10-09T11:25:13Z</name>
<cmt>
<![CDATA[TIME: 09-OCT-10 11:25:13<br>RCR: T <b>(TimeStamp)</b>
<br>VALID: SPS<br>LATITUDE: 50.385109 N<br>LONGITUDE: 9.691737 E<br>HEIGHT: 545.566 m<br>SPEED: 7.247 km/h<br>DISTANCE: 20.16 m]]>
</cmt>
<sym>TimeStamp</sym>
<type>T</type>
<fix>3d</fix>
</trkpt>
<trkpt lat="50.38507159" lon="9.69145095" >
<ele>548.796</ele>
<time>2010-10-09T11:25:23Z</time>
<speed>1.6490</speed>
<name>trkpt-2010-10-09T11:25:23Z</name>
<cmt>
<![CDATA[TIME: 09-OCT-10 11:25:23<br>RCR: T <b>(TimeStamp)</b>
<br>VALID: SPS<br>LATITUDE: 50.385072 N<br>LONGITUDE: 9.691451 E<br>HEIGHT: 548.796 m<br>SPEED: 5.936 km/h<br>DISTANCE: 21.03 m]]>
</cmt>
<sym>TimeStamp</sym>
<type>T</type>
<fix>3d</fix>
</trkpt>
<trkpt lat="50.38504499" lon="9.69115731" >
<ele>552.046</ele>
<time>2010-10-09T11:25:33Z</time>
<speed>1.7166</speed>
<name>trkpt-2010-10-09T11:25:33Z</name>
<cmt>
<![CDATA[TIME: 09-OCT-10 11:25:33<br>RCR: T <b>(TimeStamp)</b>
<br>VALID: SPS<br>LATITUDE: 50.385045 N<br>LONGITUDE: 9.691157 E<br>HEIGHT: 552.046 m<br>SPEED: 6.180 km/h<br>DISTANCE: 21.34 m]]>
</cmt>
<sym>TimeStamp</sym>
<type>T</type>
<fix>3d</fix>
</trkpt>
<trkpt lat="50.38502011" lon="9.69092150" >
<ele>553.808</ele>
<time>2010-10-09T11:25:43Z</time>
<speed>0.5824</speed>
<name>trkpt-2010-10-09T11:25:43Z</name>
<cmt>
<![CDATA[TIME: 09-OCT-10 11:25:43<br>RCR: T <b>(TimeStamp)</b>
<br>VALID: SPS<br>LATITUDE: 50.385020 N<br>LONGITUDE: 9.690921 E<br>HEIGHT: 553.808 m<br>SPEED: 2.097 km/h<br>DISTANCE: 17.09 m]]>
</cmt>
<sym>TimeStamp</sym>
<type>T</type>
<fix>3d</fix>
</trkpt>
<trkpt lat="50.38498166" lon="9.69059552" >
<ele>555.669</ele>
<time>2010-10-09T11:25:53Z</time>
<speed>1.9586</speed>
<name>trkpt-2010-10-09T11:25:53Z</name>
<cmt>
<![CDATA[TIME: 09-OCT-10 11:25:53<br>RCR: T <b>(TimeStamp)</b>
<br>VALID: SPS<br>LATITUDE: 50.384982 N<br>LONGITUDE: 9.690596 E<br>HEIGHT: 555.669 m<br>SPEED: 7.051 km/h<br>DISTANCE: 23.65 m]]>
</cmt>
<sym>TimeStamp</sym>
<type>T</type>
<fix>3d</fix>
</trkpt>
<trkpt lat="50.38490106" lon="9.69022547" >
<ele>556.183</ele>
<time>2010-10-09T11:26:03Z</time>
<speed>3.0346</speed>
<name>trkpt-2010-10-09T11:26:03Z</name>
<cmt>
<![CDATA[TIME: 09-OCT-10 11:26:03<br>RCR: T <b>(TimeStamp)</b>
<br>VALID: SPS<br>LATITUDE: 50.384901 N<br>LONGITUDE: 9.690225 E<br>HEIGHT: 556.183 m<br>SPEED: 10.925 km/h<br>DISTANCE: 27.81 m]]>
</cmt>
<sym>TimeStamp</sym>
<type>T</type>
<fix>3d</fix>
</trkpt>
<trkpt lat="50.38481455" lon="9.68983653" >
<ele>552.579</ele>
<time>2010-10-09T11:26:13Z</time>
<speed>3.3453</speed>
<name>trkpt-2010-10-09T11:26:13Z</name>
<cmt>
<![CDATA[TIME: 09-OCT-10 11:26:13<br>RCR: T <b>(TimeStamp)</b>
<br>VALID: SPS<br>LATITUDE: 50.384815 N<br>LONGITUDE: 9.689837 E<br>HEIGHT: 552.579 m<br>SPEED: 12.043 km/h<br>DISTANCE: 29.51 m]]>
</cmt>
<sym>TimeStamp</sym>
<type>T</type>
<fix>3d</fix>
</trkpt>
<trkpt lat="50.38471221" lon="9.68937924" >
<ele>549.323</ele>
<time>2010-10-09T11:26:23Z</time>
<speed>3.3133</speed>
<name>trkpt-2010-10-09T11:26:23Z</name>
<cmt>
<![CDATA[TIME: 09-OCT-10 11:26:23<br>RCR: T <b>(TimeStamp)</b>
<br>VALID: SPS<br>LATITUDE: 50.384712 N<br>LONGITUDE: 9.689379 E<br>HEIGHT: 549.323 m<br>SPEED: 11.928 km/h<br>DISTANCE: 34.61 m]]>
</cmt>
<sym>TimeStamp</sym>
<type>T</type>
<fix>3d</fix>
</trkpt>
<trkpt lat="50.38460782" lon="9.68893451" >
<ele>548.303</ele>
<time>2010-10-09T11:26:33Z</time>
<speed>3.7131</speed>
<name>trkpt-2010-10-09T11:26:33Z</name>
<cmt>
<![CDATA[TIME: 09-OCT-10 11:26:33<br>RCR: T <b>(TimeStamp)</b>
<br>VALID: SPS<br>LATITUDE: 50.384608 N<br>LONGITUDE: 9.688935 E<br>HEIGHT: 548.303 m<br>SPEED: 13.367 km/h<br>DISTANCE: 33.71 m]]>
</cmt>
<sym>TimeStamp</sym>
<type>T</type>
<fix>3d</fix>
</trkpt>
<trkpt lat="50.38447581" lon="9.68835165" >
<ele>548.514</ele>
<time>2010-10-09T11:26:43Z</time>
<speed>4.7226</speed>
<name>trkpt-2010-10-09T11:26:43Z</name>
<cmt>
<![CDATA[TIME: 09-OCT-10 11:26:43<br>RCR: T <b>(TimeStamp)</b>
<br>VALID: SPS<br>LATITUDE: 50.384476 N<br>LONGITUDE: 9.688352 E<br>HEIGHT: 548.514 m<br>SPEED: 17.001 km/h<br>DISTANCE: 43.98 m]]>
</cmt>
<sym>TimeStamp</sym>
<type>T</type>
<fix>3d</fix>
</trkpt>
<trkpt lat="50.38431085" lon="9.68767602" >
<ele>545.536</ele>
<time>2010-10-09T11:26:53Z</time>
<speed>5.3610</speed>
<name>trkpt-2010-10-09T11:26:53Z</name>
<cmt>
<![CDATA[TIME: 09-OCT-10 11:26:53<br>RCR: T <b>(TimeStamp)</b>
<br>VALID: SPS<br>LATITUDE: 50.384311 N<br>LONGITUDE: 9.687676 E<br>HEIGHT: 545.536 m<br>SPEED: 19.299 km/h<br>DISTANCE: 51.53 m]]>
</cmt>
<sym>TimeStamp</sym>
<type>T</type>
<fix>3d</fix>
</trkpt>
<trkpt lat="50.38400660" lon="9.68702332" >
<ele>542.244</ele>
<time>2010-10-09T11:27:03Z</time>
<speed>6.1222</speed>
<name>trkpt-2010-10-09T11:27:03Z</name>
<cmt>
<![CDATA[TIME: 09-OCT-10 11:27:03<br>RCR: T <b>(TimeStamp)</b>
<br>VALID: SPS<br>LATITUDE: 50.384007 N<br>LONGITUDE: 9.687023 E<br>HEIGHT: 542.244 m<br>SPEED: 22.040 km/h<br>DISTANCE: 57.55 m]]>
</cmt>
<sym>TimeStamp</sym>
<type>T</type>
<fix>3d</fix>
</trkpt>
<trkpt lat="50.38357679" lon="9.68647409" >
<ele>536.236</ele>
<time>2010-10-09T11:27:13Z</time>
<speed>5.6543</speed>
<name>trkpt-2010-10-09T11:27:13Z</name>
<cmt>
<![CDATA[TIME: 09-OCT-10 11:27:13<br>RCR: T <b>(TimeStamp)</b>
<br>VALID: SPS<br>LATITUDE: 50.383577 N<br>LONGITUDE: 9.686474 E<br>HEIGHT: 536.236 m<br>SPEED: 20.355 km/h<br>DISTANCE: 62.04 m]]>
</cmt>
<sym>TimeStamp</sym>
<type>T</type>
<fix>3d</fix>
</trkpt>
<trkpt lat="50.38321144" lon="9.68605422" >
<ele>535.272</ele>
<time>2010-10-09T11:27:23Z</time>
<speed>4.1065</speed>
<name>trkpt-2010-10-09T11:27:23Z</name>
<cmt>
<![CDATA[TIME: 09-OCT-10 11:27:23<br>RCR: T <b>(TimeStamp)</b>
<br>VALID: SPS<br>LATITUDE: 50.383211 N<br>LONGITUDE: 9.686054 E<br>HEIGHT: 535.272 m<br>SPEED: 14.783 km/h<br>DISTANCE: 50.45 m]]>
</cmt>
<sym>TimeStamp</sym>
<type>T</type>
<fix>3d</fix>
</trkpt>
<trkpt lat="50.38294333" lon="9.68572792" >
<ele>535.614</ele>
<time>2010-10-09T11:27:33Z</time>
<speed>2.0432</speed>
<name>trkpt-2010-10-09T11:27:33Z</name>
<cmt>
<![CDATA[TIME: 09-OCT-10 11:27:33<br>RCR: T <b>(TimeStamp)</b>
<br>VALID: SPS<br>LATITUDE: 50.382943 N<br>LONGITUDE: 9.685728 E<br>HEIGHT: 535.614 m<br>SPEED: 7.356 km/h<br>DISTANCE: 37.79 m]]>
</cmt>
<sym>TimeStamp</sym>
<type>T</type>
<fix>3d</fix>
</trkpt>
<trkpt lat="50.38266819" lon="9.68535459" >
<ele>536.232</ele>
<time>2010-10-09T11:27:43Z</time>
<speed>1.2819</speed>
<name>trkpt-2010-10-09T11:27:43Z</name>
<cmt>
<![CDATA[TIME: 09-OCT-10 11:27:43<br>RCR: T <b>(TimeStamp)</b>
<br>VALID: SPS<br>LATITUDE: 50.382668 N<br>LONGITUDE: 9.685355 E<br>HEIGHT: 536.232 m<br>SPEED: 4.615 km/h<br>DISTANCE: 40.53 m]]>
</cmt>
<sym>TimeStamp</sym>
<type>T</type>
<fix>3d</fix>
</trkpt>
<trkpt lat="50.38246945" lon="9.68504778" >
<ele>532.199</ele>
<time>2010-10-09T11:27:53Z</time>
<speed>1.6150</speed>
<name>trkpt-2010-10-09T11:27:53Z</name>
<cmt>
<![CDATA[TIME: 09-OCT-10 11:27:53<br>RCR: T <b>(TimeStamp)</b>
<br>VALID: SPS<br>LATITUDE: 50.382469 N<br>LONGITUDE: 9.685048 E<br>HEIGHT: 532.199 m<br>SPEED: 5.814 km/h<br>DISTANCE: 31.33 m]]>
</cmt>
<sym>TimeStamp</sym>
<type>T</type>
<fix>3d</fix>
</trkpt>
<trkpt lat="50.38224155" lon="9.68473831" >
<ele>523.348</ele>
<time>2010-10-09T11:28:03Z</time>
<speed>3.6031</speed>
<name>trkpt-2010-10-09T11:28:03Z</name>
<cmt>
<![CDATA[TIME: 09-OCT-10 11:28:03<br>RCR: T <b>(TimeStamp)</b>
<br>VALID: SPS<br>LATITUDE: 50.382242 N<br>LONGITUDE: 9.684738 E<br>HEIGHT: 523.348 m<br>SPEED: 12.971 km/h<br>DISTANCE: 34.72 m]]>
</cmt>
<sym>TimeStamp</sym>
<type>T</type>
<fix>3d</fix>
</trkpt>
<trkpt lat="50.38187506" lon="9.68439379" >
<ele>518.794</ele>
<time>2010-10-09T11:28:13Z</time>
<speed>4.7785</speed>
<name>trkpt-2010-10-09T11:28:13Z</name>
<cmt>
<![CDATA[TIME: 09-OCT-10 11:28:13<br>RCR: T <b>(TimeStamp)</b>
<br>VALID: SPS<br>LATITUDE: 50.381875 N<br>LONGITUDE: 9.684394 E<br>HEIGHT: 518.794 m<br>SPEED: 17.202 km/h<br>DISTANCE: 47.79 m]]>
</cmt>
<sym>TimeStamp</sym>
<type>T</type>
<fix>3d</fix>
</trkpt>
<trkpt lat="50.38141561" lon="9.68404110" >
<ele>518.655</ele>
<time>2010-10-09T11:28:23Z</time>
<speed>5.7503</speed>
<name>trkpt-2010-10-09T11:28:23Z</name>
<cmt>
<![CDATA[TIME: 09-OCT-10 11:28:23<br>RCR: T <b>(TimeStamp)</b>
<br>VALID: SPS<br>LATITUDE: 50.381416 N<br>LONGITUDE: 9.684041 E<br>HEIGHT: 518.655 m<br>SPEED: 20.701 km/h<br>DISTANCE: 56.94 m]]>
</cmt>
<sym>TimeStamp</sym>
<type>T</type>
<fix>3d</fix>
</trkpt>
<trkpt lat="50.38082085" lon="9.68364174" >
<ele>528.772</ele>
<time>2010-10-09T11:28:33Z</time>
<speed>6.0742</speed>
<name>trkpt-2010-10-09T11:28:33Z</name>
<cmt>
<![CDATA[TIME: 09-OCT-10 11:28:33<br>RCR: T <b>(TimeStamp)</b>
<br>VALID: SPS<br>LATITUDE: 50.380821 N<br>LONGITUDE: 9.683642 E<br>HEIGHT: 528.772 m<br>SPEED: 21.867 km/h<br>DISTANCE: 72.71 m]]>
</cmt>
<sym>TimeStamp</sym>
<type>T</type>
<fix>3d</fix>
</trkpt>
<trkpt lat="50.38033051" lon="9.68322516" >
<ele>530.115</ele>
<time>2010-10-09T11:28:43Z</time>
<speed>6.2781</speed>
<name>trkpt-2010-10-09T11:28:43Z</name>
<cmt>
<![CDATA[TIME: 09-OCT-10 11:28:43<br>RCR: T <b>(TimeStamp)</b>
<br>VALID: SPS<br>LATITUDE: 50.380331 N<br>LONGITUDE: 9.683225 E<br>HEIGHT: 530.115 m<br>SPEED: 22.601 km/h<br>DISTANCE: 62.09 m]]>
</cmt>
<sym>TimeStamp</sym>
<type>T</type>
<fix>3d</fix>
</trkpt>
<trkpt lat="50.37986272" lon="9.68280722" >
<ele>530.912</ele>
<time>2010-10-09T11:28:53Z</time>
<speed>3.9148</speed>
<name>trkpt-2010-10-09T11:28:53Z</name>
<cmt>
<![CDATA[TIME: 09-OCT-10 11:28:53<br>RCR: T <b>(TimeStamp)</b>
<br>VALID: SPS<br>LATITUDE: 50.379863 N<br>LONGITUDE: 9.682807 E<br>HEIGHT: 530.912 m<br>SPEED: 14.093 km/h<br>DISTANCE: 59.94 m]]>
</cmt>
<sym>TimeStamp</sym>
<type>T</type>
<fix>3d</fix>
</trkpt>
<trkpt lat="50.37961710" lon="9.68255070" >
<ele>529.458</ele>
<time>2010-10-09T11:29:03Z</time>
<speed>2.5208</speed>
<name>trkpt-2010-10-09T11:29:03Z</name>
<cmt>
<![CDATA[TIME: 09-OCT-10 11:29:03<br>RCR: T <b>(TimeStamp)</b>
<br>VALID: SPS<br>LATITUDE: 50.379617 N<br>LONGITUDE: 9.682551 E<br>HEIGHT: 529.458 m<br>SPEED: 9.075 km/h<br>DISTANCE: 32.89 m]]>
</cmt>
<sym>TimeStamp</sym>
<type>T</type>
<fix>3d</fix>
</trkpt>
<trkpt lat="50.37940102" lon="9.68231119" >
<ele>531.729</ele>
<time>2010-10-09T11:29:13Z</time>
<speed>2.5272</speed>
<name>trkpt-2010-10-09T11:29:13Z</name>
<cmt>
<![CDATA[TIME: 09-OCT-10 11:29:13<br>RCR: T <b>(TimeStamp)</b>
<br>VALID: SPS<br>LATITUDE: 50.379401 N<br>LONGITUDE: 9.682311 E<br>HEIGHT: 531.729 m<br>SPEED: 9.098 km/h<br>DISTANCE: 29.55 m]]>
</cmt>
<sym>TimeStamp</sym>
<type>T</type>
<fix>3d</fix>
</trkpt>
<trkpt lat="50.37918815" lon="9.68215279" >
<ele>531.763</ele>
<time>2010-10-09T11:29:23Z</time>
<speed>2.6238</speed>
<name>trkpt-2010-10-09T11:29:23Z</name>
<cmt>
<![CDATA[TIME: 09-OCT-10 11:29:23<br>RCR: T <b>(TimeStamp)</b>
<br>VALID: SPS<br>LATITUDE: 50.379188 N<br>LONGITUDE: 9.682153 E<br>HEIGHT: 531.763 m<br>SPEED: 9.446 km/h<br>DISTANCE: 26.23 m]]>
</cmt>
<sym>TimeStamp</sym>
<type>T</type>
<fix>3d</fix>
</trkpt>
<trkpt lat="50.37896321" lon="9.68191247" >
<ele>528.991</ele>
<time>2010-10-09T11:29:33Z</time>
<speed>2.7684</speed>
<name>trkpt-2010-10-09T11:29:33Z</name>
<cmt>
<![CDATA[TIME: 09-OCT-10 11:29:33<br>RCR: T <b>(TimeStamp)</b>
<br>VALID: SPS<br>LATITUDE: 50.378963 N<br>LONGITUDE: 9.681912 E<br>HEIGHT: 528.991 m<br>SPEED: 9.966 km/h<br>DISTANCE: 30.43 m]]>
</cmt>
<sym>TimeStamp</sym>
<type>T</type>
<fix>3d</fix>
</trkpt>
<trkpt lat="50.37870112" lon="9.68171011" >
<ele>531.068</ele>
<time>2010-10-09T11:29:43Z</time>
<speed>2.8010</speed>
<name>trkpt-2010-10-09T11:29:43Z</name>
<cmt>
<![CDATA[TIME: 09-OCT-10 11:29:43<br>RCR: T <b>(TimeStamp)</b>
<br>VALID: SPS<br>LATITUDE: 50.378701 N<br>LONGITUDE: 9.681710 E<br>HEIGHT: 531.068 m<br>SPEED: 10.084 km/h<br>DISTANCE: 32.58 m]]>
</cmt>
<sym>TimeStamp</sym>
<type>T</type>
<fix>3d</fix>
</trkpt>
<trkpt lat="50.37844451" lon="9.68147178" >
<ele>532.007</ele>
<time>2010-10-09T11:29:53Z</time>
<speed>2.7657</speed>
<name>trkpt-2010-10-09T11:29:53Z</name>
<cmt>
<![CDATA[TIME: 09-OCT-10 11:29:53<br>RCR: T <b>(TimeStamp)</b>
<br>VALID: SPS<br>LATITUDE: 50.378445 N<br>LONGITUDE: 9.681472 E<br>HEIGHT: 532.007 m<br>SPEED: 9.956 km/h<br>DISTANCE: 33.22 m]]>
</cmt>
<sym>TimeStamp</sym>
<type>T</type>
<fix>3d</fix>
</trkpt>
<trkpt lat="50.37820569" lon="9.68124116" >
<ele>535.368</ele>
<time>2010-10-09T11:30:03Z</time>
<speed>2.6521</speed>
<name>trkpt-2010-10-09T11:30:03Z</name>
<cmt>
<![CDATA[TIME: 09-OCT-10 11:30:03<br>RCR: T <b>(TimeStamp)</b>
<br>VALID: SPS<br>LATITUDE: 50.378206 N<br>LONGITUDE: 9.681241 E<br>HEIGHT: 535.368 m<br>SPEED: 9.548 km/h<br>DISTANCE: 31.41 m]]>
</cmt>
<sym>TimeStamp</sym>
<type>T</type>
<fix>3d</fix>
</trkpt>
<trkpt lat="50.37797321" lon="9.68102784" >
<ele>538.622</ele>
<time>2010-10-09T11:30:13Z</time>
<speed>2.9630</speed>
<name>trkpt-2010-10-09T11:30:13Z</name>
<cmt>
<![CDATA[TIME: 09-OCT-10 11:30:13<br>RCR: T <b>(TimeStamp)</b>
<br>VALID: SPS<br>LATITUDE: 50.377973 N<br>LONGITUDE: 9.681028 E<br>HEIGHT: 538.622 m<br>SPEED: 10.667 km/h<br>DISTANCE: 30.16 m]]>
</cmt>
<sym>TimeStamp</sym>
<type>T</type>
<fix>3d</fix>
</trkpt>
<trkpt lat="50.37774803" lon="9.68085147" >
<ele>539.987</ele>
<time>2010-10-09T11:30:23Z</time>
<speed>2.5416</speed>
<name>trkpt-2010-10-09T11:30:23Z</name>
<cmt>
<![CDATA[TIME: 09-OCT-10 11:30:23<br>RCR: T <b>(TimeStamp)</b>
<br>VALID: SPS<br>LATITUDE: 50.377748 N<br>LONGITUDE: 9.680851 E<br>HEIGHT: 539.987 m<br>SPEED: 9.150 km/h<br>DISTANCE: 28.05 m]]>
</cmt>
<sym>TimeStamp</sym>
<type>T</type>
<fix>3d</fix>
</trkpt>
<trkpt lat="50.37752092" lon="9.68071204" >
<ele>539.555</ele>
<time>2010-10-09T11:30:33Z</time>
<speed>1.8818</speed>
<name>trkpt-2010-10-09T11:30:33Z</name>
<cmt>
<![CDATA[TIME: 09-OCT-10 11:30:33<br>RCR: T <b>(TimeStamp)</b>
<br>VALID: SPS<br>LATITUDE: 50.377521 N<br>LONGITUDE: 9.680712 E<br>HEIGHT: 539.555 m<br>SPEED: 6.775 km/h<br>DISTANCE: 27.15 m]]>
</cmt>
<sym>TimeStamp</sym>
<type>T</type>
<fix>3d</fix>
</trkpt>
<trkpt lat="50.37743753" lon="9.68059361" >
<ele>538.348</ele>
<time>2010-10-09T11:30:43Z</time>
<speed>2.0714</speed>
<name>trkpt-2010-10-09T11:30:43Z</name>
<cmt>
<![CDATA[TIME: 09-OCT-10 11:30:43<br>RCR: T <b>(TimeStamp)</b>
<br>VALID: SPS<br>LATITUDE: 50.377438 N<br>LONGITUDE: 9.680594 E<br>HEIGHT: 538.348 m<br>SPEED: 7.457 km/h<br>DISTANCE: 12.59 m]]>
</cmt>
<sym>TimeStamp</sym>
<type>T</type>
<fix>3d</fix>
</trkpt>
<trkpt lat="50.37764524" lon="9.68035266" >
<ele>537.535</ele>
<time>2010-10-09T11:30:53Z</time>
<speed>3.7181</speed>
<name>trkpt-2010-10-09T11:30:53Z</name>
<cmt>
<![CDATA[TIME: 09-OCT-10 11:30:53<br>RCR: T <b>(TimeStamp)</b>
<br>VALID: SPS<br>LATITUDE: 50.377645 N<br>LONGITUDE: 9.680353 E<br>HEIGHT: 537.535 m<br>SPEED: 13.385 km/h<br>DISTANCE: 28.78 m]]>
</cmt>
<sym>TimeStamp</sym>
<type>T</type>
<fix>3d</fix>
</trkpt>
<trkpt lat="50.37789145" lon="9.67987011" >
<ele>537.581</ele>
<time>2010-10-09T11:31:03Z</time>
<speed>4.8083</speed>
<name>trkpt-2010-10-09T11:31:03Z</name>
<cmt>
<![CDATA[TIME: 09-OCT-10 11:31:03<br>RCR: T <b>(TimeStamp)</b>
<br>VALID: SPS<br>LATITUDE: 50.377891 N<br>LONGITUDE: 9.679870 E<br>HEIGHT: 537.581 m<br>SPEED: 17.310 km/h<br>DISTANCE: 43.92 m]]>
</cmt>
<sym>TimeStamp</sym>
<type>T</type>
<fix>3d</fix>
</trkpt>
<trkpt lat="50.37819272" lon="9.67929513" >
<ele>541.978</ele>
<time>2010-10-09T11:31:13Z</time>
<speed>5.3931</speed>
<name>trkpt-2010-10-09T11:31:13Z</name>
<cmt>
<![CDATA[TIME: 09-OCT-10 11:31:13<br>RCR: T <b>(TimeStamp)</b>
<br>VALID: SPS<br>LATITUDE: 50.378193 N<br>LONGITUDE: 9.679295 E<br>HEIGHT: 541.978 m<br>SPEED: 19.415 km/h<br>DISTANCE: 53.06 m]]>
</cmt>
<sym>TimeStamp</sym>
<type>T</type>
<fix>3d</fix>
</trkpt>
<trkpt lat="50.37841483" lon="9.67877106" >
<ele>548.039</ele>
<time>2010-10-09T11:31:23Z</time>
<speed>2.8659</speed>
<name>trkpt-2010-10-09T11:31:23Z</name>
<cmt>
<![CDATA[TIME: 09-OCT-10 11:31:23<br>RCR: T <b>(TimeStamp)</b>
<br>VALID: SPS<br>LATITUDE: 50.378415 N<br>LONGITUDE: 9.678771 E<br>HEIGHT: 548.039 m<br>SPEED: 10.317 km/h<br>DISTANCE: 45.14 m]]>
</cmt>
<sym>TimeStamp</sym>
<type>T</type>
<fix>3d</fix>
</trkpt>
<trkpt lat="50.37877653" lon="9.67815390" >
<ele>554.124</ele>
<time>2010-10-09T11:31:33Z</time>
<speed>5.4828</speed>
<name>trkpt-2010-10-09T11:31:33Z</name>
<cmt>
<![CDATA[TIME: 09-OCT-10 11:31:33<br>RCR: T <b>(TimeStamp)</b>
<br>VALID: SPS<br>LATITUDE: 50.378777 N<br>LONGITUDE: 9.678154 E<br>HEIGHT: 554.124 m<br>SPEED: 19.738 km/h<br>DISTANCE: 59.86 m]]>
</cmt>
<sym>TimeStamp</sym>
<type>T</type>
<fix>3d</fix>
</trkpt>
<trkpt lat="50.37946827" lon="9.67757453" >
<ele>557.457</ele>
<time>2010-10-09T11:31:43Z</time>
<speed>9.1648</speed>
<name>trkpt-2010-10-09T11:31:43Z</name>
<cmt>
<![CDATA[TIME: 09-OCT-10 11:31:43<br>RCR: T <b>(TimeStamp)</b>
<br>VALID: SPS<br>LATITUDE: 50.379468 N<br>LONGITUDE: 9.677575 E<br>HEIGHT: 557.457 m<br>SPEED: 32.993 km/h<br>DISTANCE: 87.36 m]]>
</cmt>
<sym>TimeStamp</sym>
<type>T</type>
<fix>3d</fix>
</trkpt>
<trkpt lat="50.38037575" lon="9.67686358" >
<ele>562.110</ele>
<time>2010-10-09T11:31:53Z</time>
<speed>10.3870</speed>
<name>trkpt-2010-10-09T11:31:53Z</name>
<cmt>
<![CDATA[TIME: 09-OCT-10 11:31:53<br>RCR: T <b>(TimeStamp)</b>
<br>VALID: SPS<br>LATITUDE: 50.380376 N<br>LONGITUDE: 9.676864 E<br>HEIGHT: 562.110 m<br>SPEED: 37.393 km/h<br>DISTANCE: 113.01 m]]>
</cmt>
<sym>TimeStamp</sym>
<type>T</type>
<fix>3d</fix>
</trkpt>
<trkpt lat="50.38107418" lon="9.67593378" >
<ele>565.612</ele>
<time>2010-10-09T11:32:03Z</time>
<speed>11.2322</speed>
<name>trkpt-2010-10-09T11:32:03Z</name>
<cmt>
<![CDATA[TIME: 09-OCT-10 11:32:03<br>RCR: T <b>(TimeStamp)</b>
<br>VALID: SPS<br>LATITUDE: 50.381074 N<br>LONGITUDE: 9.675934 E<br>HEIGHT: 565.612 m<br>SPEED: 40.436 km/h<br>DISTANCE: 102.10 m]]>
</cmt>
<sym>TimeStamp</sym>
<type>T</type>
<fix>3d</fix>
</trkpt>
<trkpt lat="50.38177928" lon="9.67468384" >
<ele>547.439</ele>
<time>2010-10-09T11:32:13Z</time>
<speed>13.1276</speed>
<name>trkpt-2010-10-09T11:32:13Z</name>
<cmt>
<![CDATA[TIME: 09-OCT-10 11:32:13<br>RCR: T <b>(TimeStamp)</b>
<br>VALID: SPS<br>LATITUDE: 50.381779 N<br>LONGITUDE: 9.674684 E<br>HEIGHT: 547.439 m<br>SPEED: 47.260 km/h<br>DISTANCE: 119.95 m]]>
</cmt>
<sym>TimeStamp</sym>
<type>T</type>
<fix>3d</fix>
</trkpt>
<trkpt lat="50.38234258" lon="9.67315926" >
<ele>543.908</ele>
<time>2010-10-09T11:32:23Z</time>
<speed>11.5662</speed>
<name>trkpt-2010-10-09T11:32:23Z</name>
<cmt>
<![CDATA[TIME: 09-OCT-10 11:32:23<br>RCR: T <b>(TimeStamp)</b>
<br>VALID: SPS<br>LATITUDE: 50.382343 N<br>LONGITUDE: 9.673159 E<br>HEIGHT: 543.908 m<br>SPEED: 41.638 km/h<br>DISTANCE: 125.30 m]]>
</cmt>
<sym>TimeStamp</sym>
<type>T</type>
<fix>3d</fix>
</trkpt>
<trkpt lat="50.38231161" lon="9.67198962" >
<ele>551.938</ele>
<time>2010-10-09T11:32:33Z</time>
<speed>5.7025</speed>
<name>trkpt-2010-10-09T11:32:33Z</name>
<cmt>
<![CDATA[TIME: 09-OCT-10 11:32:33<br>RCR: T <b>(TimeStamp)</b>
<br>VALID: SPS<br>LATITUDE: 50.382312 N<br>LONGITUDE: 9.671990 E<br>HEIGHT: 551.938 m<br>SPEED: 20.529 km/h<br>DISTANCE: 83.66 m]]>
</cmt>
<sym>TimeStamp</sym>
<type>T</type>
<fix>3d</fix>
</trkpt>
<trkpt lat="50.38229501" lon="9.67134922" >
<ele>556.977</ele>
<time>2010-10-09T11:32:43Z</time>
<speed>5.5886</speed>
<name>trkpt-2010-10-09T11:32:43Z</name>
<cmt>
<![CDATA[TIME: 09-OCT-10 11:32:43<br>RCR: T <b>(TimeStamp)</b>
<br>VALID: SPS<br>LATITUDE: 50.382295 N<br>LONGITUDE: 9.671349 E<br>HEIGHT: 556.977 m<br>SPEED: 20.119 km/h<br>DISTANCE: 45.87 m]]>
</cmt>
<sym>TimeStamp</sym>
<type>T</type>
<fix>3d</fix>
</trkpt>
<trkpt lat="50.38246708" lon="9.67044103" >
<ele>552.207</ele>
<time>2010-10-09T11:32:53Z</time>
<speed>7.0873</speed>
<name>trkpt-2010-10-09T11:32:53Z</name>
<cmt>
<![CDATA[TIME: 09-OCT-10 11:32:53<br>RCR: T <b>(TimeStamp)</b>
<br>VALID: SPS<br>LATITUDE: 50.382467 N<br>LONGITUDE: 9.670441 E<br>HEIGHT: 552.207 m<br>SPEED: 25.514 km/h<br>DISTANCE: 67.55 m]]>
</cmt>
<sym>TimeStamp</sym>
<type>T</type>
<fix>3d</fix>
</trkpt>
<trkpt lat="50.38278011" lon="9.66961235" >
<ele>547.925</ele>
<time>2010-10-09T11:33:03Z</time>
<speed>6.4288</speed>
<name>trkpt-2010-10-09T11:33:03Z</name>
<cmt>
<![CDATA[TIME: 09-OCT-10 11:33:03<br>RCR: T <b>(TimeStamp)</b>
<br>VALID: SPS<br>LATITUDE: 50.382780 N<br>LONGITUDE: 9.669612 E<br>HEIGHT: 547.925 m<br>SPEED: 23.144 km/h<br>DISTANCE: 68.60 m]]>
</cmt>
<sym>TimeStamp</sym>
<type>T</type>
<fix>3d</fix>
</trkpt>
<trkpt lat="50.38322722" lon="9.66867544" >
<ele>538.796</ele>
<time>2010-10-09T11:33:13Z</time>
<speed>9.1099</speed>
<name>trkpt-2010-10-09T11:33:13Z</name>
<cmt>
<![CDATA[TIME: 09-OCT-10 11:33:13<br>RCR: T <b>(TimeStamp)</b>
<br>VALID: SPS<br>LATITUDE: 50.383227 N<br>LONGITUDE: 9.668675 E<br>HEIGHT: 538.796 m<br>SPEED: 32.796 km/h<br>DISTANCE: 83.66 m]]>
</cmt>
<sym>TimeStamp</sym>
<type>T</type>
<fix>3d</fix>
</trkpt>
<trkpt lat="50.38377867" lon="9.66743453" >
<ele>528.536</ele>
<time>2010-10-09T11:33:23Z</time>
<speed>13.4526</speed>
<name>trkpt-2010-10-09T11:33:23Z</name>
<cmt>
<![CDATA[TIME: 09-OCT-10 11:33:23<br>RCR: T <b>(TimeStamp)</b>
<br>VALID: SPS<br>LATITUDE: 50.383779 N<br>LONGITUDE: 9.667435 E<br>HEIGHT: 528.536 m<br>SPEED: 48.429 km/h<br>DISTANCE: 107.98 m]]>
</cmt>
<sym>TimeStamp</sym>
<type>T</type>
<fix>3d</fix>
</trkpt>
<trkpt lat="50.38440732" lon="9.66591438" >
<ele>525.093</ele>
<time>2010-10-09T11:33:33Z</time>
<speed>12.0627</speed>
<name>trkpt-2010-10-09T11:33:33Z</name>
<cmt>
<![CDATA[TIME: 09-OCT-10 11:33:33<br>RCR: T <b>(TimeStamp)</b>
<br>VALID: SPS<br>LATITUDE: 50.384407 N<br>LONGITUDE: 9.665914 E<br>HEIGHT: 525.093 m<br>SPEED: 43.426 km/h<br>DISTANCE: 128.82 m]]>
</cmt>
<sym>TimeStamp</sym>
<type>T</type>
<fix>3d</fix>
</trkpt>
<trkpt lat="50.38534713" lon="9.66633405" >
<ele>527.014</ele>
<time>2010-10-09T11:33:43Z</time>
<speed>10.3703</speed>
<name>trkpt-2010-10-09T11:33:43Z</name>
<cmt>
<![CDATA[TIME: 09-OCT-10 11:33:43<br>RCR: T <b>(TimeStamp)</b>
<br>VALID: SPS<br>LATITUDE: 50.385347 N<br>LONGITUDE: 9.666334 E<br>HEIGHT: 527.014 m<br>SPEED: 37.333 km/h<br>DISTANCE: 108.75 m]]>
</cmt>
<sym>TimeStamp</sym>
<type>T</type>
<fix>3d</fix>
</trkpt>
<trkpt lat="50.38574717" lon="9.66761578" >
<ele>515.333</ele>
<time>2010-10-09T11:33:53Z</time>
<speed>9.1514</speed>
<name>trkpt-2010-10-09T11:33:53Z</name>
<cmt>
<![CDATA[TIME: 09-OCT-10 11:33:53<br>RCR: T <b>(TimeStamp)</b>
<br>VALID: SPS<br>LATITUDE: 50.385747 N<br>LONGITUDE: 9.667616 E<br>HEIGHT: 515.333 m<br>SPEED: 32.945 km/h<br>DISTANCE: 102.12 m]]>
</cmt>
<sym>TimeStamp</sym>
<type>T</type>
<fix>3d</fix>
</trkpt>
<trkpt lat="50.38619931" lon="9.66865820" >
<ele>508.161</ele>
<time>2010-10-09T11:34:03Z</time>
<speed>9.7122</speed>
<name>trkpt-2010-10-09T11:34:03Z</name>
<cmt>
<![CDATA[TIME: 09-OCT-10 11:34:03<br>RCR: T <b>(TimeStamp)</b>
<br>VALID: SPS<br>LATITUDE: 50.386199 N<br>LONGITUDE: 9.668658 E<br>HEIGHT: 508.161 m<br>SPEED: 34.964 km/h<br>DISTANCE: 89.88 m]]>
</cmt>
<sym>TimeStamp</sym>
<type>T</type>
<fix>3d</fix>
</trkpt>
<trkpt lat="50.38709428" lon="9.66908036" >
<ele>510.898</ele>
<time>2010-10-09T11:34:13Z</time>
<speed>10.7776</speed>
<name>trkpt-2010-10-09T11:34:13Z</name>
<cmt>
<![CDATA[TIME: 09-OCT-10 11:34:13<br>RCR: T <b>(TimeStamp)</b>
<br>VALID: SPS<br>LATITUDE: 50.387094 N<br>LONGITUDE: 9.669080 E<br>HEIGHT: 510.898 m<br>SPEED: 38.799 km/h<br>DISTANCE: 104.03 m]]>
</cmt>
<sym>TimeStamp</sym>
<type>T</type>
<fix>3d</fix>
</trkpt>
<trkpt lat="50.38803225" lon="9.66845992" >
<ele>519.980</ele>
<time>2010-10-09T11:34:23Z</time>
<speed>11.4879</speed>
<name>trkpt-2010-10-09T11:34:23Z</name>
<cmt>
<![CDATA[TIME: 09-OCT-10 11:34:23<br>RCR: T <b>(TimeStamp)</b>
<br>VALID: SPS<br>LATITUDE: 50.388032 N<br>LONGITUDE: 9.668460 E<br>HEIGHT: 519.980 m<br>SPEED: 41.356 km/h<br>DISTANCE: 113.66 m]]>
</cmt>
<sym>TimeStamp</sym>
<type>T</type>
<fix>3d</fix>
</trkpt>
<trkpt lat="50.38881656" lon="9.66736567" >
<ele>517.865</ele>
<time>2010-10-09T11:34:33Z</time>
<speed>11.7510</speed>
<name>trkpt-2010-10-09T11:34:33Z</name>
<cmt>
<![CDATA[TIME: 09-OCT-10 11:34:33<br>RCR: T <b>(TimeStamp)</b>
<br>VALID: SPS<br>LATITUDE: 50.388817 N<br>LONGITUDE: 9.667366 E<br>HEIGHT: 517.865 m<br>SPEED: 42.304 km/h<br>DISTANCE: 116.94 m]]>
</cmt>
<sym>TimeStamp</sym>
<type>T</type>
<fix>3d</fix>
</trkpt>
<trkpt lat="50.38965106" lon="9.66644108" >
<ele>515.613</ele>
<time>2010-10-09T11:34:43Z</time>
<speed>10.9251</speed>
<name>trkpt-2010-10-09T11:34:43Z</name>
<cmt>
<![CDATA[TIME: 09-OCT-10 11:34:43<br>RCR: T <b>(TimeStamp)</b>
<br>VALID: SPS<br>LATITUDE: 50.389651 N<br>LONGITUDE: 9.666441 E<br>HEIGHT: 515.613 m<br>SPEED: 39.330 km/h<br>DISTANCE: 113.79 m]]>
</cmt>
<sym>TimeStamp</sym>
<type>T</type>
<fix>3d</fix>
</trkpt>
<trkpt lat="50.39038189" lon="9.66549364" >
<ele>512.104</ele>
<time>2010-10-09T11:34:53Z</time>
<speed>10.4467</speed>
<name>trkpt-2010-10-09T11:34:53Z</name>
<cmt>
<![CDATA[TIME: 09-OCT-10 11:34:53<br>RCR: T <b>(TimeStamp)</b>
<br>VALID: SPS<br>LATITUDE: 50.390382 N<br>LONGITUDE: 9.665494 E<br>HEIGHT: 512.104 m<br>SPEED: 37.608 km/h<br>DISTANCE: 105.65 m]]>
</cmt>
<sym>TimeStamp</sym>
<type>T</type>
<fix>3d</fix>
</trkpt>
<trkpt lat="50.39103557" lon="9.66437657" >
<ele>509.900</ele>
<time>2010-10-09T11:35:03Z</time>
<speed>10.9692</speed>
<name>trkpt-2010-10-09T11:35:03Z</name>
<cmt>
<![CDATA[TIME: 09-OCT-10 11:35:03<br>RCR: T <b>(TimeStamp)</b>
<br>VALID: SPS<br>LATITUDE: 50.391036 N<br>LONGITUDE: 9.664377 E<br>HEIGHT: 509.900 m<br>SPEED: 39.489 km/h<br>DISTANCE: 107.72 m]]>
</cmt>
<sym>TimeStamp</sym>
<type>T</type>
<fix>3d</fix>
</trkpt>
<trkpt lat="50.39165129" lon="9.66321432" >
<ele>510.159</ele>
<time>2010-10-09T11:35:13Z</time>
<speed>9.9218</speed>
<name>trkpt-2010-10-09T11:35:13Z</name>
<cmt>
<![CDATA[TIME: 09-OCT-10 11:35:13<br>RCR: T <b>(TimeStamp)</b>
<br>VALID: SPS<br>LATITUDE: 50.391651 N<br>LONGITUDE: 9.663214 E<br>HEIGHT: 510.159 m<br>SPEED: 35.718 km/h<br>DISTANCE: 107.35 m]]>
</cmt>
<sym>TimeStamp</sym>
<type>T</type>
<fix>3d</fix>
</trkpt>
<trkpt lat="50.39213847" lon="9.66222836" >
<ele>512.778</ele>
<time>2010-10-09T11:35:23Z</time>
<speed>7.4002</speed>
<name>trkpt-2010-10-09T11:35:23Z</name>
<cmt>
<![CDATA[TIME: 09-OCT-10 11:35:23<br>RCR: T <b>(TimeStamp)</b>
<br>VALID: SPS<br>LATITUDE: 50.392138 N<br>LONGITUDE: 9.662228 E<br>HEIGHT: 512.778 m<br>SPEED: 26.641 km/h<br>DISTANCE: 88.66 m]]>
</cmt>
<sym>TimeStamp</sym>
<type>T</type>
<fix>3d</fix>
</trkpt>
<trkpt lat="50.39248931" lon="9.66154609" >
<ele>515.405</ele>
<time>2010-10-09T11:35:33Z</time>
<speed>4.9597</speed>
<name>trkpt-2010-10-09T11:35:33Z</name>
<cmt>
<![CDATA[TIME: 09-OCT-10 11:35:33<br>RCR: T <b>(TimeStamp)</b>
<br>VALID: SPS<br>LATITUDE: 50.392489 N<br>LONGITUDE: 9.661546 E<br>HEIGHT: 515.405 m<br>SPEED: 17.855 km/h<br>DISTANCE: 62.33 m]]>
</cmt>
<sym>TimeStamp</sym>
<type>T</type>
<fix>3d</fix>
</trkpt>
<trkpt lat="50.39268680" lon="9.66111542" >
<ele>516.260</ele>
<time>2010-10-09T11:35:43Z</time>
<speed>3.2446</speed>
<name>trkpt-2010-10-09T11:35:43Z</name>
<cmt>
<![CDATA[TIME: 09-OCT-10 11:35:43<br>RCR: T <b>(TimeStamp)</b>
<br>VALID: SPS<br>LATITUDE: 50.392687 N<br>LONGITUDE: 9.661115 E<br>HEIGHT: 516.260 m<br>SPEED: 11.680 km/h<br>DISTANCE: 37.70 m]]>
</cmt>
<sym>TimeStamp</sym>
<type>T</type>
<fix>3d</fix>
</trkpt>
<trkpt lat="50.39282558" lon="9.66072426" >
<ele>516.958</ele>
<time>2010-10-09T11:35:53Z</time>
<speed>3.0089</speed>
<name>trkpt-2010-10-09T11:35:53Z</name>
<cmt>
<![CDATA[TIME: 09-OCT-10 11:35:53<br>RCR: T <b>(TimeStamp)</b>
<br>VALID: SPS<br>LATITUDE: 50.392826 N<br>LONGITUDE: 9.660724 E<br>HEIGHT: 516.958 m<br>SPEED: 10.832 km/h<br>DISTANCE: 31.82 m]]>
</cmt>
<sym>TimeStamp</sym>
<type>T</type>
<fix>3d</fix>
</trkpt>
<trkpt lat="50.39295006" lon="9.66036411" >
<ele>519.475</ele>
<time>2010-10-09T11:36:03Z</time>
<speed>4.1559</speed>
<name>trkpt-2010-10-09T11:36:03Z</name>
<cmt>
<![CDATA[TIME: 09-OCT-10 11:36:03<br>RCR: T <b>(TimeStamp)</b>
<br>VALID: SPS<br>LATITUDE: 50.392950 N<br>LONGITUDE: 9.660364 E<br>HEIGHT: 519.475 m<br>SPEED: 14.961 km/h<br>DISTANCE: 29.23 m]]>
</cmt>
<sym>TimeStamp</sym>
<type>T</type>
<fix>3d</fix>
</trkpt>
<trkpt lat="50.39318091" lon="9.65972973" >
<ele>520.193</ele>
<time>2010-10-09T11:36:13Z</time>
<speed>4.9619</speed>
<name>trkpt-2010-10-09T11:36:13Z</name>
<cmt>
<![CDATA[TIME: 09-OCT-10 11:36:13<br>RCR: T <b>(TimeStamp)</b>
<br>VALID: SPS<br>LATITUDE: 50.393181 N<br>LONGITUDE: 9.659730 E<br>HEIGHT: 520.193 m<br>SPEED: 17.863 km/h<br>DISTANCE: 51.92 m]]>
</cmt>
<sym>TimeStamp</sym>
<type>T</type>
<fix>3d</fix>
</trkpt>
<trkpt lat="50.39331311" lon="9.65914728" >
<ele>512.819</ele>
<time>2010-10-09T11:36:23Z</time>
<speed>4.2595</speed>
<name>trkpt-2010-10-09T11:36:23Z</name>
<cmt>
<![CDATA[TIME: 09-OCT-10 11:36:23<br>RCR: T <b>(TimeStamp)</b>
<br>VALID: SPS<br>LATITUDE: 50.393313 N<br>LONGITUDE: 9.659147 E<br>HEIGHT: 512.819 m<br>SPEED: 15.334 km/h<br>DISTANCE: 44.57 m]]>
</cmt>
<sym>TimeStamp</sym>
<type>T</type>
<fix>3d</fix>
</trkpt>
<trkpt lat="50.39351948" lon="9.65856266" >
<ele>509.132</ele>
<time>2010-10-09T11:36:33Z</time>
<speed>4.4992</speed>
<name>trkpt-2010-10-09T11:36:33Z</name>
<cmt>
<![CDATA[TIME: 09-OCT-10 11:36:33<br>RCR: T <b>(TimeStamp)</b>
<br>VALID: SPS<br>LATITUDE: 50.393519 N<br>LONGITUDE: 9.658563 E<br>HEIGHT: 509.132 m<br>SPEED: 16.197 km/h<br>DISTANCE: 47.64 m]]>
</cmt>
<sym>TimeStamp</sym>
<type>T</type>
<fix>3d</fix>
</trkpt>
<trkpt lat="50.39374516" lon="9.65797346" >
<ele>506.180</ele>
<time>2010-10-09T11:36:43Z</time>
<speed>4.0402</speed>
<name>trkpt-2010-10-09T11:36:43Z</name>
<cmt>
<![CDATA[TIME: 09-OCT-10 11:36:43<br>RCR: T <b>(TimeStamp)</b>
<br>VALID: SPS<br>LATITUDE: 50.393745 N<br>LONGITUDE: 9.657973 E<br>HEIGHT: 506.180 m<br>SPEED: 14.545 km/h<br>DISTANCE: 48.94 m]]>
</cmt>
<sym>TimeStamp</sym>
<type>T</type>
<fix>3d</fix>
</trkpt>
<trkpt lat="50.39393962" lon="9.65717706" >
<ele>498.657</ele>
<time>2010-10-09T11:36:53Z</time>
<speed>7.2781</speed>
<name>trkpt-2010-10-09T11:36:53Z</name>
<cmt>
<![CDATA[TIME: 09-OCT-10 11:36:53<br>RCR: T <b>(TimeStamp)</b>
<br>VALID: SPS<br>LATITUDE: 50.393940 N<br>LONGITUDE: 9.657177 E<br>HEIGHT: 498.657 m<br>SPEED: 26.201 km/h<br>DISTANCE: 61.09 m]]>
</cmt>
<sym>TimeStamp</sym>
<type>T</type>
<fix>3d</fix>
</trkpt>
<trkpt lat="50.39410279" lon="9.65569451" >
<ele>503.763</ele>
<time>2010-10-09T11:37:03Z</time>
<speed>13.4691</speed>
<name>trkpt-2010-10-09T11:37:03Z</name>
<cmt>
<![CDATA[TIME: 09-OCT-10 11:37:03<br>RCR: T <b>(TimeStamp)</b>
<br>VALID: SPS<br>LATITUDE: 50.394103 N<br>LONGITUDE: 9.655695 E<br>HEIGHT: 503.763 m<br>SPEED: 48.489 km/h<br>DISTANCE: 107.10 m]]>
</cmt>
<sym>TimeStamp</sym>
<type>T</type>
<fix>3d</fix>
</trkpt>
<trkpt lat="50.39414902" lon="9.65383595" >
<ele>494.363</ele>
<time>2010-10-09T11:37:13Z</time>
<speed>9.2033</speed>
<name>trkpt-2010-10-09T11:37:13Z</name>
<cmt>
<![CDATA[TIME: 09-OCT-10 11:37:13<br>RCR: T <b>(TimeStamp)</b>
<br>VALID: SPS<br>LATITUDE: 50.394149 N<br>LONGITUDE: 9.653836 E<br>HEIGHT: 494.363 m<br>SPEED: 33.132 km/h<br>DISTANCE: 132.60 m]]>
</cmt>
<sym>TimeStamp</sym>
<type>T</type>
<fix>3d</fix>
</trkpt>
<trkpt lat="50.39431467" lon="9.65342938" >
<ele>490.374</ele>
<time>2010-10-09T11:37:23Z</time>
<speed>2.7982</speed>
<name>trkpt-2010-10-09T11:37:23Z</name>
<cmt>
<![CDATA[TIME: 09-OCT-10 11:37:23<br>RCR: T <b>(TimeStamp)</b>
<br>VALID: SPS<br>LATITUDE: 50.394315 N<br>LONGITUDE: 9.653429 E<br>HEIGHT: 490.374 m<br>SPEED: 10.074 km/h<br>DISTANCE: 34.52 m]]>
</cmt>
<sym>TimeStamp</sym>
<type>T</type>
<fix>3d</fix>
</trkpt>
<trkpt lat="50.39421023" lon="9.65352008" >
<ele>489.452</ele>
<time>2010-10-09T11:37:33Z</time>
<speed>0.8227</speed>
<name>trkpt-2010-10-09T11:37:33Z</name>
<cmt>
<![CDATA[TIME: 09-OCT-10 11:37:33<br>RCR: T <b>(TimeStamp)</b>
<br>VALID: SPS<br>LATITUDE: 50.394210 N<br>LONGITUDE: 9.653520 E<br>HEIGHT: 489.452 m<br>SPEED: 2.962 km/h<br>DISTANCE: 13.32 m]]>
</cmt>
<sym>TimeStamp</sym>
<type>T</type>
<fix>3d</fix>
</trkpt>
<trkpt lat="50.39453791" lon="9.65310564" >
<ele>484.732</ele>
<time>2010-10-09T11:37:43Z</time>
<speed>8.3121</speed>
<name>trkpt-2010-10-09T11:37:43Z</name>
<cmt>
<![CDATA[TIME: 09-OCT-10 11:37:43<br>RCR: T <b>(TimeStamp)</b>
<br>VALID: SPS<br>LATITUDE: 50.394538 N<br>LONGITUDE: 9.653106 E<br>HEIGHT: 484.732 m<br>SPEED: 29.924 km/h<br>DISTANCE: 47.11 m]]>
</cmt>
<sym>TimeStamp</sym>
<type>T</type>
<fix>3d</fix>
</trkpt>
<trkpt lat="50.39501440" lon="9.65216667" >
<ele>478.519</ele>
<time>2010-10-09T11:37:53Z</time>
<speed>7.0247</speed>
<name>trkpt-2010-10-09T11:37:53Z</name>
<cmt>
<![CDATA[TIME: 09-OCT-10 11:37:53<br>RCR: T <b>(TimeStamp)</b>
<br>VALID: SPS<br>LATITUDE: 50.395014 N<br>LONGITUDE: 9.652167 E<br>HEIGHT: 478.519 m<br>SPEED: 25.289 km/h<br>DISTANCE: 85.48 m]]>
</cmt>
<sym>TimeStamp</sym>
<type>T</type>
<fix>3d</fix>
</trkpt>
<trkpt lat="50.39497678" lon="9.65109546" >
<ele>485.012</ele>
<time>2010-10-09T11:38:03Z</time>
<speed>7.2670</speed>
<name>trkpt-2010-10-09T11:38:03Z</name>
<cmt>
<![CDATA[TIME: 09-OCT-10 11:38:03<br>RCR: T <b>(TimeStamp)</b>
<br>VALID: SPS<br>LATITUDE: 50.394977 N<br>LONGITUDE: 9.651095 E<br>HEIGHT: 485.012 m<br>SPEED: 26.161 km/h<br>DISTANCE: 76.57 m]]>
</cmt>
<sym>TimeStamp</sym>
<type>T</type>
<fix>3d</fix>
</trkpt>
<trkpt lat="50.39495400" lon="9.64970115" >
<ele>483.294</ele>
<time>2010-10-09T11:38:13Z</time>
<speed>10.9218</speed>
<name>trkpt-2010-10-09T11:38:13Z</name>
<cmt>
<![CDATA[TIME: 09-OCT-10 11:38:13<br>RCR: T <b>(TimeStamp)</b>
<br>VALID: SPS<br>LATITUDE: 50.394954 N<br>LONGITUDE: 9.649701 E<br>HEIGHT: 483.294 m<br>SPEED: 39.319 km/h<br>DISTANCE: 99.20 m]]>
</cmt>
<sym>TimeStamp</sym>
<type>T</type>
<fix>3d</fix>
</trkpt>
<trkpt lat="50.39475532" lon="9.64843604" >
<ele>489.861</ele>
<time>2010-10-09T11:38:23Z</time>
<speed>8.2494</speed>
<name>trkpt-2010-10-09T11:38:23Z</name>
<cmt>
<![CDATA[TIME: 09-OCT-10 11:38:23<br>RCR: T <b>(TimeStamp)</b>
<br>VALID: SPS<br>LATITUDE: 50.394755 N<br>LONGITUDE: 9.648436 E<br>HEIGHT: 489.861 m<br>SPEED: 29.698 km/h<br>DISTANCE: 92.87 m]]>
</cmt>
<sym>TimeStamp</sym>
<type>T</type>
<fix>3d</fix>
</trkpt>
<trkpt lat="50.39456837" lon="9.64740534" >
<ele>492.321</ele>
<time>2010-10-09T11:38:33Z</time>
<speed>7.6081</speed>
<name>trkpt-2010-10-09T11:38:33Z</name>
<cmt>
<![CDATA[TIME: 09-OCT-10 11:38:33<br>RCR: T <b>(TimeStamp)</b>
<br>VALID: SPS<br>LATITUDE: 50.394568 N<br>LONGITUDE: 9.647405 E<br>HEIGHT: 492.321 m<br>SPEED: 27.389 km/h<br>DISTANCE: 76.23 m]]>
</cmt>
<sym>TimeStamp</sym>
<type>T</type>
<fix>3d</fix>
</trkpt>
<trkpt lat="50.39460123" lon="9.64619023" >
<ele>486.687</ele>
<time>2010-10-09T11:38:43Z</time>
<speed>9.2891</speed>
<name>trkpt-2010-10-09T11:38:43Z</name>
<cmt>
<![CDATA[TIME: 09-OCT-10 11:38:43<br>RCR: T <b>(TimeStamp)</b>
<br>VALID: SPS<br>LATITUDE: 50.394601 N<br>LONGITUDE: 9.646190 E<br>HEIGHT: 486.687 m<br>SPEED: 33.441 km/h<br>DISTANCE: 86.67 m]]>
</cmt>
<sym>TimeStamp</sym>
<type>T</type>
<fix>3d</fix>
</trkpt>
<trkpt lat="50.39471195" lon="9.64489808" >
<ele>486.007</ele>
<time>2010-10-09T11:38:53Z</time>
<speed>9.0954</speed>
<name>trkpt-2010-10-09T11:38:53Z</name>
<cmt>
<![CDATA[TIME: 09-OCT-10 11:38:53<br>RCR: T <b>(TimeStamp)</b>
<br>VALID: SPS<br>LATITUDE: 50.394712 N<br>LONGITUDE: 9.644898 E<br>HEIGHT: 486.007 m<br>SPEED: 32.744 km/h<br>DISTANCE: 92.71 m]]>
</cmt>
<sym>TimeStamp</sym>
<type>T</type>
<fix>3d</fix>
</trkpt>
<trkpt lat="50.39487151" lon="9.64366453" >
<ele>484.108</ele>
<time>2010-10-09T11:39:03Z</time>
<speed>8.3795</speed>
<name>trkpt-2010-10-09T11:39:03Z</name>
<cmt>
<![CDATA[TIME: 09-OCT-10 11:39:03<br>RCR: T <b>(TimeStamp)</b>
<br>VALID: SPS<br>LATITUDE: 50.394872 N<br>LONGITUDE: 9.643665 E<br>HEIGHT: 484.108 m<br>SPEED: 30.166 km/h<br>DISTANCE: 89.52 m]]>
</cmt>
<sym>TimeStamp</sym>
<type>T</type>
<fix>3d</fix>
</trkpt>
<trkpt lat="50.39509707" lon="9.64248928" >
<ele>476.539</ele>
<time>2010-10-09T11:39:13Z</time>
<speed>8.8539</speed>
<name>trkpt-2010-10-09T11:39:13Z</name>
<cmt>
<![CDATA[TIME: 09-OCT-10 11:39:13<br>RCR: T <b>(TimeStamp)</b>
<br>VALID: SPS<br>LATITUDE: 50.395097 N<br>LONGITUDE: 9.642489 E<br>HEIGHT: 476.539 m<br>SPEED: 31.874 km/h<br>DISTANCE: 87.59 m]]>
</cmt>
<sym>TimeStamp</sym>
<type>T</type>
<fix>3d</fix>
</trkpt>
<trkpt lat="50.39532987" lon="9.64109355" >
<ele>471.347</ele>
<time>2010-10-09T11:39:23Z</time>
<speed>10.9944</speed>
<name>trkpt-2010-10-09T11:39:23Z</name>
<cmt>
<![CDATA[TIME: 09-OCT-10 11:39:23<br>RCR: T <b>(TimeStamp)</b>
<br>VALID: SPS<br>LATITUDE: 50.395330 N<br>LONGITUDE: 9.641094 E<br>HEIGHT: 471.347 m<br>SPEED: 39.580 km/h<br>DISTANCE: 102.71 m]]>
</cmt>
<sym>TimeStamp</sym>
<type>T</type>
<fix>3d</fix>
</trkpt>
<trkpt lat="50.39545980" lon="9.63946103" >
<ele>467.293</ele>
<time>2010-10-09T11:39:33Z</time>
<speed>11.5408</speed>
<name>trkpt-2010-10-09T11:39:33Z</name>
<cmt>
<![CDATA[TIME: 09-OCT-10 11:39:33<br>RCR: T <b>(TimeStamp)</b>
<br>VALID: SPS<br>LATITUDE: 50.395460 N<br>LONGITUDE: 9.639461 E<br>HEIGHT: 467.293 m<br>SPEED: 41.547 km/h<br>DISTANCE: 117.06 m]]>
</cmt>
<sym>TimeStamp</sym>
<type>T</type>
<fix>3d</fix>
</trkpt>
<trkpt lat="50.39532975" lon="9.63837816" >
<ele>459.109</ele>
<time>2010-10-09T11:39:43Z</time>
<speed>5.1887</speed>
<name>trkpt-2010-10-09T11:39:43Z</name>
<cmt>
<![CDATA[TIME: 09-OCT-10 11:39:43<br>RCR: T <b>(TimeStamp)</b>
<br>VALID: SPS<br>LATITUDE: 50.395330 N<br>LONGITUDE: 9.638378 E<br>HEIGHT: 459.109 m<br>SPEED: 18.679 km/h<br>DISTANCE: 78.78 m]]>
</cmt>
<sym>TimeStamp</sym>
<type>T</type>
<fix>3d</fix>
</trkpt>
<trkpt lat="50.39486530" lon="9.63861107" >
<ele>452.001</ele>
<time>2010-10-09T11:39:53Z</time>
<speed>4.4000</speed>
<name>trkpt-2010-10-09T11:39:53Z</name>
<cmt>
<![CDATA[TIME: 09-OCT-10 11:39:53<br>RCR: T <b>(TimeStamp)</b>
<br>VALID: SPS<br>LATITUDE: 50.394865 N<br>LONGITUDE: 9.638611 E<br>HEIGHT: 452.001 m<br>SPEED: 15.840 km/h<br>DISTANCE: 54.72 m]]>
</cmt>
<sym>TimeStamp</sym>
<type>T</type>
<fix>3d</fix>
</trkpt>
<trkpt lat="50.39447221" lon="9.63873788" >
<ele>447.008</ele>
<time>2010-10-09T11:40:03Z</time>
<speed>3.8383</speed>
<name>trkpt-2010-10-09T11:40:03Z</name>
<cmt>
<![CDATA[TIME: 09-OCT-10 11:40:03<br>RCR: T <b>(TimeStamp)</b>
<br>VALID: SPS<br>LATITUDE: 50.394472 N<br>LONGITUDE: 9.638738 E<br>HEIGHT: 447.008 m<br>SPEED: 13.818 km/h<br>DISTANCE: 44.93 m]]>
</cmt>
<sym>TimeStamp</sym>
<type>T</type>
<fix>3d</fix>
</trkpt>
<trkpt lat="50.39436940" lon="9.63781502" >
<ele>452.129</ele>
<time>2010-10-09T11:40:13Z</time>
<speed>9.1038</speed>
<name>trkpt-2010-10-09T11:40:13Z</name>
<cmt>
<![CDATA[TIME: 09-OCT-10 11:40:13<br>RCR: T <b>(TimeStamp)</b>
<br>VALID: SPS<br>LATITUDE: 50.394369 N<br>LONGITUDE: 9.637815 E<br>HEIGHT: 452.129 m<br>SPEED: 32.774 km/h<br>DISTANCE: 66.81 m]]>
</cmt>
<sym>TimeStamp</sym>
<type>T</type>
<fix>3d</fix>
</trkpt>
<trkpt lat="50.39426498" lon="9.63618033" >
<ele>449.217</ele>
<time>2010-10-09T11:40:23Z</time>
<speed>13.0603</speed>
<name>trkpt-2010-10-09T11:40:23Z</name>
<cmt>
<![CDATA[TIME: 09-OCT-10 11:40:23<br>RCR: T <b>(TimeStamp)</b>
<br>VALID: SPS<br>LATITUDE: 50.394265 N<br>LONGITUDE: 9.636180 E<br>HEIGHT: 449.217 m<br>SPEED: 47.017 km/h<br>DISTANCE: 116.86 m]]>
</cmt>
<sym>TimeStamp</sym>
<type>T</type>
<fix>3d</fix>
</trkpt>
<trkpt lat="50.39486940" lon="9.63447250" >
<ele>439.777</ele>
<time>2010-10-09T11:40:33Z</time>
<speed>15.7046</speed>
<name>trkpt-2010-10-09T11:40:33Z</name>
<cmt>
<![CDATA[TIME: 09-OCT-10 11:40:33<br>RCR: T <b>(TimeStamp)</b>
<br>VALID: SPS<br>LATITUDE: 50.394869 N<br>LONGITUDE: 9.634472 E<br>HEIGHT: 439.777 m<br>SPEED: 56.537 km/h<br>DISTANCE: 139.14 m]]>
</cmt>
<sym>TimeStamp</sym>
<type>T</type>
<fix>3d</fix>
</trkpt>
<trkpt lat="50.39465792" lon="9.63219736" >
<ele>430.102</ele>
<time>2010-10-09T11:40:43Z</time>
<speed>16.3077</speed>
<name>trkpt-2010-10-09T11:40:43Z</name>
<cmt>
<![CDATA[TIME: 09-OCT-10 11:40:43<br>RCR: T <b>(TimeStamp)</b>
<br>VALID: SPS<br>LATITUDE: 50.394658 N<br>LONGITUDE: 9.632197 E<br>HEIGHT: 430.102 m<br>SPEED: 58.708 km/h<br>DISTANCE: 163.78 m]]>
</cmt>
<sym>TimeStamp</sym>
<type>T</type>
<fix>3d</fix>
</trkpt>
<trkpt lat="50.39447311" lon="9.62995156" >
<ele>418.919</ele>
<time>2010-10-09T11:40:53Z</time>
<speed>16.0494</speed>
<name>trkpt-2010-10-09T11:40:53Z</name>
<cmt>
<![CDATA[TIME: 09-OCT-10 11:40:53<br>RCR: T <b>(TimeStamp)</b>
<br>VALID: SPS<br>LATITUDE: 50.394473 N<br>LONGITUDE: 9.629952 E<br>HEIGHT: 418.919 m<br>SPEED: 57.778 km/h<br>DISTANCE: 161.41 m]]>
</cmt>
<sym>TimeStamp</sym>
<type>T</type>
<fix>3d</fix>
</trkpt>
<trkpt lat="50.39501458" lon="9.62809573" >
<ele>404.651</ele>
<time>2010-10-09T11:41:03Z</time>
<speed>14.0684</speed>
<name>trkpt-2010-10-09T11:41:03Z</name>
<cmt>
<![CDATA[TIME: 09-OCT-10 11:41:03<br>RCR: T <b>(TimeStamp)</b>
<br>VALID: SPS<br>LATITUDE: 50.395015 N<br>LONGITUDE: 9.628096 E<br>HEIGHT: 404.651 m<br>SPEED: 50.646 km/h<br>DISTANCE: 145.77 m]]>
</cmt>
<sym>TimeStamp</sym>
<type>T</type>
<fix>3d</fix>
</trkpt>
<trkpt lat="50.39571551" lon="9.62650599" >
<ele>396.934</ele>
<time>2010-10-09T11:41:13Z</time>
<speed>12.9852</speed>
<name>trkpt-2010-10-09T11:41:13Z</name>
<cmt>
<![CDATA[TIME: 09-OCT-10 11:41:13<br>RCR: T <b>(TimeStamp)</b>
<br>VALID: SPS<br>LATITUDE: 50.395716 N<br>LONGITUDE: 9.626506 E<br>HEIGHT: 396.934 m<br>SPEED: 46.747 km/h<br>DISTANCE: 137.55 m]]>
</cmt>
<sym>TimeStamp</sym>
<type>T</type>
<fix>3d</fix>
</trkpt>
<trkpt lat="50.39637439" lon="9.62506653" >
<ele>394.376</ele>
<time>2010-10-09T11:41:23Z</time>
<speed>11.6786</speed>
<name>trkpt-2010-10-09T11:41:23Z</name>
<cmt>
<![CDATA[TIME: 09-OCT-10 11:41:23<br>RCR: T <b>(TimeStamp)</b>
<br>VALID: SPS<br>LATITUDE: 50.396374 N<br>LONGITUDE: 9.625067 E<br>HEIGHT: 394.376 m<br>SPEED: 42.043 km/h<br>DISTANCE: 125.92 m]]>
</cmt>
<sym>TimeStamp</sym>
<type>T</type>
<fix>3d</fix>
</trkpt>
<trkpt lat="50.39665944" lon="9.62350608" >
<ele>394.915</ele>
<time>2010-10-09T11:41:33Z</time>
<speed>11.4047</speed>
<name>trkpt-2010-10-09T11:41:33Z</name>
<cmt>
<![CDATA[TIME: 09-OCT-10 11:41:33<br>RCR: T <b>(TimeStamp)</b>
<br>VALID: SPS<br>LATITUDE: 50.396659 N<br>LONGITUDE: 9.623506 E<br>HEIGHT: 394.915 m<br>SPEED: 41.057 km/h<br>DISTANCE: 115.41 m]]>
</cmt>
<sym>TimeStamp</sym>
<type>T</type>
<fix>3d</fix>
</trkpt>
<trkpt lat="50.39689257" lon="9.62189057" >
<ele>390.779</ele>
<time>2010-10-09T11:41:43Z</time>
<speed>11.8086</speed>
<name>trkpt-2010-10-09T11:41:43Z</name>
<cmt>
<![CDATA[TIME: 09-OCT-10 11:41:43<br>RCR: T <b>(TimeStamp)</b>
<br>VALID: SPS<br>LATITUDE: 50.396893 N<br>LONGITUDE: 9.621891 E<br>HEIGHT: 390.779 m<br>SPEED: 42.511 km/h<br>DISTANCE: 117.84 m]]>
</cmt>
<sym>TimeStamp</sym>
<type>T</type>
<fix>3d</fix>
</trkpt>
<trkpt lat="50.39715800" lon="9.62040024" >
<ele>394.562</ele>
<time>2010-10-09T11:41:53Z</time>
<speed>10.3197</speed>
<name>trkpt-2010-10-09T11:41:53Z</name>
<cmt>
<![CDATA[TIME: 09-OCT-10 11:41:53<br>RCR: T <b>(TimeStamp)</b>
<br>VALID: SPS<br>LATITUDE: 50.397158 N<br>LONGITUDE: 9.620400 E<br>HEIGHT: 394.562 m<br>SPEED: 37.151 km/h<br>DISTANCE: 110.08 m]]>
</cmt>
<sym>TimeStamp</sym>
<type>T</type>
<fix>3d</fix>
</trkpt>
<trkpt lat="50.39773167" lon="9.61933810" >
<ele>391.551</ele>
<time>2010-10-09T11:42:03Z</time>
<speed>10.9394</speed>
<name>trkpt-2010-10-09T11:42:03Z</name>
<cmt>
<![CDATA[TIME: 09-OCT-10 11:42:03<br>RCR: T <b>(TimeStamp)</b>
<br>VALID: SPS<br>LATITUDE: 50.397732 N<br>LONGITUDE: 9.619338 E<br>HEIGHT: 391.551 m<br>SPEED: 39.382 km/h<br>DISTANCE: 98.92 m]]>
</cmt>
<sym>TimeStamp</sym>
<type>T</type>
<fix>3d</fix>
</trkpt>
<trkpt lat="50.39823705" lon="9.61789137" >
<ele>384.318</ele>
<time>2010-10-09T11:42:13Z</time>
<speed>10.6633</speed>
<name>trkpt-2010-10-09T11:42:13Z</name>
<cmt>
<![CDATA[TIME: 09-OCT-10 11:42:13<br>RCR: T <b>(TimeStamp)</b>
<br>VALID: SPS<br>LATITUDE: 50.398237 N<br>LONGITUDE: 9.617891 E<br>HEIGHT: 384.318 m<br>SPEED: 38.388 km/h<br>DISTANCE: 117.46 m]]>
</cmt>
<sym>TimeStamp</sym>
<type>T</type>
<fix>3d</fix>
</trkpt>
<trkpt lat="50.39872969" lon="9.61709657" >
<ele>381.369</ele>
<time>2010-10-09T11:42:23Z</time>
<speed>7.6249</speed>
<name>trkpt-2010-10-09T11:42:23Z</name>
<cmt>
<![CDATA[TIME: 09-OCT-10 11:42:23<br>RCR: T <b>(TimeStamp)</b>
<br>VALID: SPS<br>LATITUDE: 50.398730 N<br>LONGITUDE: 9.617097 E<br>HEIGHT: 381.369 m<br>SPEED: 27.449 km/h<br>DISTANCE: 78.78 m]]>
</cmt>
<sym>TimeStamp</sym>
<type>T</type>
<fix>3d</fix>
</trkpt>
<trkpt lat="50.39889359" lon="9.61615766" >
<ele>383.033</ele>
<time>2010-10-09T11:42:33Z</time>
<speed>6.5195</speed>
<name>trkpt-2010-10-09T11:42:33Z</name>
<cmt>
<![CDATA[TIME: 09-OCT-10 11:42:33<br>RCR: T <b>(TimeStamp)</b>
<br>VALID: SPS<br>LATITUDE: 50.398894 N<br>LONGITUDE: 9.616158 E<br>HEIGHT: 383.033 m<br>SPEED: 23.470 km/h<br>DISTANCE: 69.23 m]]>
</cmt>
<sym>TimeStamp</sym>
<type>T</type>
<fix>3d</fix>
</trkpt>
<trkpt lat="50.39869418" lon="9.61465125" >
<ele>393.423</ele>
<time>2010-10-09T11:42:43Z</time>
<speed>10.7837</speed>
<name>trkpt-2010-10-09T11:42:43Z</name>
<cmt>
<![CDATA[TIME: 09-OCT-10 11:42:43<br>RCR: T <b>(TimeStamp)</b>
<br>VALID: SPS<br>LATITUDE: 50.398694 N<br>LONGITUDE: 9.614651 E<br>HEIGHT: 393.423 m<br>SPEED: 38.821 km/h<br>DISTANCE: 109.88 m]]>
</cmt>
<sym>TimeStamp</sym>
<type>T</type>
<fix>3d</fix>
</trkpt>
<trkpt lat="50.39846530" lon="9.61332489" >
<ele>396.919</ele>
<time>2010-10-09T11:42:53Z</time>
<speed>7.9870</speed>
<name>trkpt-2010-10-09T11:42:53Z</name>
<cmt>
<![CDATA[TIME: 09-OCT-10 11:42:53<br>RCR: T <b>(TimeStamp)</b>
<br>VALID: SPS<br>LATITUDE: 50.398465 N<br>LONGITUDE: 9.613325 E<br>HEIGHT: 396.919 m<br>SPEED: 28.753 km/h<br>DISTANCE: 97.75 m]]>
</cmt>
<sym>TimeStamp</sym>
<type>T</type>
<fix>3d</fix>
</trkpt>
<trkpt lat="50.39856838" lon="9.61209903" >
<ele>393.222</ele>
<time>2010-10-09T11:43:03Z</time>
<speed>9.0427</speed>
<name>trkpt-2010-10-09T11:43:03Z</name>
<cmt>
<![CDATA[TIME: 09-OCT-10 11:43:03<br>RCR: T <b>(TimeStamp)</b>
<br>VALID: SPS<br>LATITUDE: 50.398568 N<br>LONGITUDE: 9.612099 E<br>HEIGHT: 393.222 m<br>SPEED: 32.554 km/h<br>DISTANCE: 88.00 m]]>
</cmt>
<sym>TimeStamp</sym>
<type>T</type>
<fix>3d</fix>
</trkpt>
<trkpt lat="50.39872170" lon="9.61077596" >
<ele>383.608</ele>
<time>2010-10-09T11:43:13Z</time>
<speed>8.6272</speed>
<name>trkpt-2010-10-09T11:43:13Z</name>
<cmt>
<![CDATA[TIME: 09-OCT-10 11:43:13<br>RCR: T <b>(TimeStamp)</b>
<br>VALID: SPS<br>LATITUDE: 50.398722 N<br>LONGITUDE: 9.610776 E<br>HEIGHT: 383.608 m<br>SPEED: 31.058 km/h<br>DISTANCE: 96.09 m]]>
</cmt>
<sym>TimeStamp</sym>
<type>T</type>
<fix>3d</fix>
</trkpt>
<trkpt lat="50.39901120" lon="9.60975329" >
<ele>381.901</ele>
<time>2010-10-09T11:43:23Z</time>
<speed>7.0880</speed>
<name>trkpt-2010-10-09T11:43:23Z</name>
<cmt>
<![CDATA[TIME: 09-OCT-10 11:43:23<br>RCR: T <b>(TimeStamp)</b>
<br>VALID: SPS<br>LATITUDE: 50.399011 N<br>LONGITUDE: 9.609753 E<br>HEIGHT: 381.901 m<br>SPEED: 25.517 km/h<br>DISTANCE: 79.55 m]]>
</cmt>
<sym>TimeStamp</sym>
<type>T</type>
<fix>3d</fix>
</trkpt>
<trkpt lat="50.39925487" lon="9.60868353" >
<ele>383.732</ele>
<time>2010-10-09T11:43:33Z</time>
<speed>7.8175</speed>
<name>trkpt-2010-10-09T11:43:33Z</name>
<cmt>
<![CDATA[TIME: 09-OCT-10 11:43:33<br>RCR: T <b>(TimeStamp)</b>
<br>VALID: SPS<br>LATITUDE: 50.399255 N<br>LONGITUDE: 9.608684 E<br>HEIGHT: 383.732 m<br>SPEED: 28.143 km/h<br>DISTANCE: 80.77 m]]>
</cmt>
<sym>TimeStamp</sym>
<type>T</type>
<fix>3d</fix>
</trkpt>
<trkpt lat="50.39968069" lon="9.60756795" >
<ele>383.119</ele>
<time>2010-10-09T11:43:43Z</time>
<speed>8.5838</speed>
<name>trkpt-2010-10-09T11:43:43Z</name>
<cmt>
<![CDATA[TIME: 09-OCT-10 11:43:43<br>RCR: T <b>(TimeStamp)</b>
<br>VALID: SPS<br>LATITUDE: 50.399681 N<br>LONGITUDE: 9.607568 E<br>HEIGHT: 383.119 m<br>SPEED: 30.902 km/h<br>DISTANCE: 92.39 m]]>
</cmt>
<sym>TimeStamp</sym>
<type>T</type>
<fix>3d</fix>
</trkpt>
<trkpt lat="50.40012011" lon="9.60647824" >
<ele>382.481</ele>
<time>2010-10-09T11:43:53Z</time>
<speed>10.7384</speed>
<name>trkpt-2010-10-09T11:43:53Z</name>
<cmt>
<![CDATA[TIME: 09-OCT-10 11:43:53<br>RCR: T <b>(TimeStamp)</b>
<br>VALID: SPS<br>LATITUDE: 50.400120 N<br>LONGITUDE: 9.606478 E<br>HEIGHT: 382.481 m<br>SPEED: 38.658 km/h<br>DISTANCE: 91.62 m]]>
</cmt>
<sym>TimeStamp</sym>
<type>T</type>
<fix>3d</fix>
</trkpt>
<trkpt lat="50.40089322" lon="9.60573118" >
<ele>381.143</ele>
<time>2010-10-09T11:44:03Z</time>
<speed>9.7290</speed>
<name>trkpt-2010-10-09T11:44:03Z</name>
<cmt>
<![CDATA[TIME: 09-OCT-10 11:44:03<br>RCR: T <b>(TimeStamp)</b>
<br>VALID: SPS<br>LATITUDE: 50.400893 N<br>LONGITUDE: 9.605731 E<br>HEIGHT: 381.143 m<br>SPEED: 35.025 km/h<br>DISTANCE: 101.09 m]]>
</cmt>
<sym>TimeStamp</sym>
<type>T</type>
<fix>3d</fix>
</trkpt>
<trkpt lat="50.40157557" lon="9.60493354" >
<ele>377.447</ele>
<time>2010-10-09T11:44:13Z</time>
<speed>9.9465</speed>
<name>trkpt-2010-10-09T11:44:13Z</name>
<cmt>
<![CDATA[TIME: 09-OCT-10 11:44:13<br>RCR: T <b>(TimeStamp)</b>
<br>VALID: SPS<br>LATITUDE: 50.401576 N<br>LONGITUDE: 9.604934 E<br>HEIGHT: 377.447 m<br>SPEED: 35.807 km/h<br>DISTANCE: 94.83 m]]>
</cmt>
<sym>TimeStamp</sym>
<type>T</type>
<fix>3d</fix>
</trkpt>
<trkpt lat="50.40217841" lon="9.60390955" >
<ele>372.401</ele>
<time>2010-10-09T11:44:23Z</time>
<speed>10.1166</speed>
<name>trkpt-2010-10-09T11:44:23Z</name>
<cmt>
<![CDATA[TIME: 09-OCT-10 11:44:23<br>RCR: T <b>(TimeStamp)</b>
<br>VALID: SPS<br>LATITUDE: 50.402178 N<br>LONGITUDE: 9.603910 E<br>HEIGHT: 372.401 m<br>SPEED: 36.420 km/h<br>DISTANCE: 99.11 m]]>
</cmt>
<sym>TimeStamp</sym>
<type>T</type>
<fix>3d</fix>
</trkpt>
<trkpt lat="50.40284832" lon="9.60311269" >
<ele>367.591</ele>
<time>2010-10-09T11:44:33Z</time>
<speed>10.4672</speed>
<name>trkpt-2010-10-09T11:44:33Z</name>
<cmt>
<![CDATA[TIME: 09-OCT-10 11:44:33<br>RCR: T <b>(TimeStamp)</b>
<br>VALID: SPS<br>LATITUDE: 50.402848 N<br>LONGITUDE: 9.603113 E<br>HEIGHT: 367.591 m<br>SPEED: 37.682 km/h<br>DISTANCE: 93.74 m]]>
</cmt>
<sym>TimeStamp</sym>
<type>T</type>
<fix>3d</fix>
</trkpt>
<trkpt lat="50.40280242" lon="9.60164394" >
<ele>375.239</ele>
<time>2010-10-09T11:44:43Z</time>
<speed>10.3548</speed>
<name>trkpt-2010-10-09T11:44:43Z</name>
<cmt>
<![CDATA[TIME: 09-OCT-10 11:44:43<br>RCR: T <b>(TimeStamp)</b>
<br>VALID: SPS<br>LATITUDE: 50.402802 N<br>LONGITUDE: 9.601644 E<br>HEIGHT: 375.239 m<br>SPEED: 37.277 km/h<br>DISTANCE: 104.83 m]]>
</cmt>
<sym>TimeStamp</sym>
<type>T</type>
<fix>3d</fix>
</trkpt>
<trkpt lat="50.40296660" lon="9.60030324" >
<ele>371.127</ele>
<time>2010-10-09T11:44:53Z</time>
<speed>8.4393</speed>
<name>trkpt-2010-10-09T11:44:53Z</name>
<cmt>
<![CDATA[TIME: 09-OCT-10 11:44:53<br>RCR: T <b>(TimeStamp)</b>
<br>VALID: SPS<br>LATITUDE: 50.402967 N<br>LONGITUDE: 9.600303 E<br>HEIGHT: 371.127 m<br>SPEED: 30.382 km/h<br>DISTANCE: 97.14 m]]>
</cmt>
<sym>TimeStamp</sym>
<type>T</type>
<fix>3d</fix>
</trkpt>
<trkpt lat="50.40324944" lon="9.59921104" >
<ele>368.150</ele>
<time>2010-10-09T11:45:03Z</time>
<speed>8.8387</speed>
<name>trkpt-2010-10-09T11:45:03Z</name>
<cmt>
<![CDATA[TIME: 09-OCT-10 11:45:03<br>RCR: T <b>(TimeStamp)</b>
<br>VALID: SPS<br>LATITUDE: 50.403249 N<br>LONGITUDE: 9.599211 E<br>HEIGHT: 368.150 m<br>SPEED: 31.819 km/h<br>DISTANCE: 83.84 m]]>
</cmt>
<sym>TimeStamp</sym>
<type>T</type>
<fix>3d</fix>
</trkpt>
<trkpt lat="50.40348386" lon="9.59806240" >
<ele>364.968</ele>
<time>2010-10-09T11:45:13Z</time>
<speed>8.5333</speed>
<name>trkpt-2010-10-09T11:45:13Z</name>
<cmt>
<![CDATA[TIME: 09-OCT-10 11:45:13<br>RCR: T <b>(TimeStamp)</b>
<br>VALID: SPS<br>LATITUDE: 50.403484 N<br>LONGITUDE: 9.598062 E<br>HEIGHT: 364.968 m<br>SPEED: 30.720 km/h<br>DISTANCE: 85.79 m]]>
</cmt>
<sym>TimeStamp</sym>
<type>T</type>
<fix>3d</fix>
</trkpt>
<trkpt lat="50.40402617" lon="9.59724785" >
<ele>362.257</ele>
<time>2010-10-09T11:45:23Z</time>
<speed>9.3768</speed>
<name>trkpt-2010-10-09T11:45:23Z</name>
<cmt>
<![CDATA[TIME: 09-OCT-10 11:45:23<br>RCR: T <b>(TimeStamp)</b>
<br>VALID: SPS<br>LATITUDE: 50.404026 N<br>LONGITUDE: 9.597248 E<br>HEIGHT: 362.257 m<br>SPEED: 33.757 km/h<br>DISTANCE: 83.67 m]]>
</cmt>
<sym>TimeStamp</sym>
<type>T</type>
<fix>3d</fix>
</trkpt>
<trkpt lat="50.40465847" lon="9.59613305" >
<ele>355.697</ele>
<time>2010-10-09T11:45:33Z</time>
<speed>11.1209</speed>
<name>trkpt-2010-10-09T11:45:33Z</name>
<cmt>
<![CDATA[TIME: 09-OCT-10 11:45:33<br>RCR: T <b>(TimeStamp)</b>
<br>VALID: SPS<br>LATITUDE: 50.404658 N<br>LONGITUDE: 9.596133 E<br>HEIGHT: 355.697 m<br>SPEED: 40.035 km/h<br>DISTANCE: 106.17 m]]>
</cmt>
<sym>TimeStamp</sym>
<type>T</type>
<fix>3d</fix>
</trkpt>
<trkpt lat="50.40531068" lon="9.59499528" >
<ele>352.283</ele>
<time>2010-10-09T11:45:43Z</time>
<speed>10.9053</speed>
<name>trkpt-2010-10-09T11:45:43Z</name>
<cmt>
<![CDATA[TIME: 09-OCT-10 11:45:43<br>RCR: T <b>(TimeStamp)</b>
<br>VALID: SPS<br>LATITUDE: 50.405311 N<br>LONGITUDE: 9.594995 E<br>HEIGHT: 352.283 m<br>SPEED: 39.259 km/h<br>DISTANCE: 108.72 m]]>
</cmt>
<sym>TimeStamp</sym>
<type>T</type>
<fix>3d</fix>
</trkpt>
<trkpt lat="50.40571648" lon="9.59371106" >
<ele>343.945</ele>
<time>2010-10-09T11:45:53Z</time>
<speed>9.4211</speed>
<name>trkpt-2010-10-09T11:45:53Z</name>
<cmt>
<![CDATA[TIME: 09-OCT-10 11:45:53<br>RCR: T <b>(TimeStamp)</b>
<br>VALID: SPS<br>LATITUDE: 50.405716 N<br>LONGITUDE: 9.593711 E<br>HEIGHT: 343.945 m<br>SPEED: 33.916 km/h<br>DISTANCE: 102.19 m]]>
</cmt>
<sym>TimeStamp</sym>
<type>T</type>
<fix>3d</fix>
</trkpt>
<trkpt lat="50.40587584" lon="9.59286569" >
<ele>349.506</ele>
<time>2010-10-09T11:46:03Z</time>
<speed>6.3312</speed>
<name>trkpt-2010-10-09T11:46:03Z</name>
<cmt>
<![CDATA[TIME: 09-OCT-10 11:46:03<br>RCR: T <b>(TimeStamp)</b>
<br>VALID: SPS<br>LATITUDE: 50.405876 N<br>LONGITUDE: 9.592866 E<br>HEIGHT: 349.506 m<br>SPEED: 22.792 km/h<br>DISTANCE: 62.91 m]]>
</cmt>
<sym>TimeStamp</sym>
<type>T</type>
<fix>3d</fix>
</trkpt>
<trkpt lat="50.40509566" lon="9.59227500" >
<ele>338.379</ele>
<time>2010-10-09T11:46:13Z</time>
<speed>11.5523</speed>
<name>trkpt-2010-10-09T11:46:13Z</name>
<cmt>
<![CDATA[TIME: 09-OCT-10 11:46:13<br>RCR: T <b>(TimeStamp)</b>
<br>VALID: SPS<br>LATITUDE: 50.405096 N<br>LONGITUDE: 9.592275 E<br>HEIGHT: 338.379 m<br>SPEED: 41.588 km/h<br>DISTANCE: 97.06 m]]>
</cmt>
<sym>TimeStamp</sym>
<type>T</type>
<fix>3d</fix>
</trkpt>
<trkpt lat="50.40430379" lon="9.59162152" >
<ele>336.850</ele>
<time>2010-10-09T11:46:23Z</time>
<speed>8.7958</speed>
<name>trkpt-2010-10-09T11:46:23Z</name>
<cmt>
<![CDATA[TIME: 09-OCT-10 11:46:23<br>RCR: T <b>(TimeStamp)</b>
<br>VALID: SPS<br>LATITUDE: 50.404304 N<br>LONGITUDE: 9.591622 E<br>HEIGHT: 336.850 m<br>SPEED: 31.665 km/h<br>DISTANCE: 99.60 m]]>
</cmt>
<sym>TimeStamp</sym>
<type>T</type>
<fix>3d</fix>
</trkpt>
<trkpt lat="50.40372037" lon="9.59079527" >
<ele>343.113</ele>
<time>2010-10-09T11:46:33Z</time>
<speed>9.7561</speed>
<name>trkpt-2010-10-09T11:46:33Z</name>
<cmt>
<![CDATA[TIME: 09-OCT-10 11:46:33<br>RCR: T <b>(TimeStamp)</b>
<br>VALID: SPS<br>LATITUDE: 50.403720 N<br>LONGITUDE: 9.590795 E<br>HEIGHT: 343.113 m<br>SPEED: 35.122 km/h<br>DISTANCE: 87.76 m]]>
</cmt>
<sym>TimeStamp</sym>
<type>T</type>
<fix>3d</fix>
</trkpt>
<trkpt lat="50.40324206" lon="9.58954579" >
<ele>349.426</ele>
<time>2010-10-09T11:46:43Z</time>
<speed>9.2875</speed>
<name>trkpt-2010-10-09T11:46:43Z</name>
<cmt>
<![CDATA[TIME: 09-OCT-10 11:46:43<br>RCR: T <b>(TimeStamp)</b>
<br>VALID: SPS<br>LATITUDE: 50.403242 N<br>LONGITUDE: 9.589546 E<br>HEIGHT: 349.426 m<br>SPEED: 33.435 km/h<br>DISTANCE: 103.74 m]]>
</cmt>
<sym>TimeStamp</sym>
<type>T</type>
<fix>3d</fix>
</trkpt>
<trkpt lat="50.40296547" lon="9.58835659" >
<ele>352.015</ele>
<time>2010-10-09T11:46:53Z</time>
<speed>9.5814</speed>
<name>trkpt-2010-10-09T11:46:53Z</name>
<cmt>
<![CDATA[TIME: 09-OCT-10 11:46:53<br>RCR: T <b>(TimeStamp)</b>
<br>VALID: SPS<br>LATITUDE: 50.402965 N<br>LONGITUDE: 9.588357 E<br>HEIGHT: 352.015 m<br>SPEED: 34.493 km/h<br>DISTANCE: 90.01 m]]>
</cmt>
<sym>TimeStamp</sym>
<type>T</type>
<fix>3d</fix>
</trkpt>
<trkpt lat="50.40279247" lon="9.58691659" >
<ele>348.394</ele>
<time>2010-10-09T11:47:03Z</time>
<speed>11.3512</speed>
<name>trkpt-2010-10-09T11:47:03Z</name>
<cmt>
<![CDATA[TIME: 09-OCT-10 11:47:03<br>RCR: T <b>(TimeStamp)</b>
<br>VALID: SPS<br>LATITUDE: 50.402792 N<br>LONGITUDE: 9.586917 E<br>HEIGHT: 348.394 m<br>SPEED: 40.864 km/h<br>DISTANCE: 104.24 m]]>
</cmt>
<sym>TimeStamp</sym>
<type>T</type>
<fix>3d</fix>
</trkpt>
<trkpt lat="50.40269496" lon="9.58582056" >
<ele>338.879</ele>
<time>2010-10-09T11:47:13Z</time>
<speed>6.1872</speed>
<name>trkpt-2010-10-09T11:47:13Z</name>
<cmt>
<![CDATA[TIME: 09-OCT-10 11:47:13<br>RCR: T <b>(TimeStamp)</b>
<br>VALID: SPS<br>LATITUDE: 50.402695 N<br>LONGITUDE: 9.585821 E<br>HEIGHT: 338.879 m<br>SPEED: 22.274 km/h<br>DISTANCE: 79.25 m]]>
</cmt>
<sym>TimeStamp</sym>
<type>T</type>
<fix>3d</fix>
</trkpt>
<trkpt lat="50.40325689" lon="9.58506144" >
<ele>327.577</ele>
<time>2010-10-09T11:47:23Z</time>
<speed>9.6801</speed>
<name>trkpt-2010-10-09T11:47:23Z</name>
<cmt>
<![CDATA[TIME: 09-OCT-10 11:47:23<br>RCR: T <b>(TimeStamp)</b>
<br>VALID: SPS<br>LATITUDE: 50.403257 N<br>LONGITUDE: 9.585061 E<br>HEIGHT: 327.577 m<br>SPEED: 34.848 km/h<br>DISTANCE: 83.36 m]]>
</cmt>
<sym>TimeStamp</sym>
<type>T</type>
<fix>3d</fix>
</trkpt>
<trkpt lat="50.40373462" lon="9.58395972" >
<ele>315.536</ele>
<time>2010-10-09T11:47:33Z</time>
<speed>8.1403</speed>
<name>trkpt-2010-10-09T11:47:33Z</name>
<cmt>
<![CDATA[TIME: 09-OCT-10 11:47:33<br>RCR: T <b>(TimeStamp)</b>
<br>VALID: SPS<br>LATITUDE: 50.403735 N<br>LONGITUDE: 9.583960 E<br>HEIGHT: 315.536 m<br>SPEED: 29.305 km/h<br>DISTANCE: 95.42 m]]>
</cmt>
<sym>TimeStamp</sym>
<type>T</type>
<fix>3d</fix>
</trkpt>
<trkpt lat="50.40414097" lon="9.58285199" >
<ele>312.337</ele>
<time>2010-10-09T11:47:43Z</time>
<speed>8.8489</speed>
<name>trkpt-2010-10-09T11:47:43Z</name>
<cmt>
<![CDATA[TIME: 09-OCT-10 11:47:43<br>RCR: T <b>(TimeStamp)</b>
<br>VALID: SPS<br>LATITUDE: 50.404141 N<br>LONGITUDE: 9.582852 E<br>HEIGHT: 312.337 m<br>SPEED: 31.856 km/h<br>DISTANCE: 90.86 m]]>
</cmt>
<sym>TimeStamp</sym>
<type>T</type>
<fix>3d</fix>
</trkpt>
<trkpt lat="50.40455231" lon="9.58187850" >
<ele>311.018</ele>
<time>2010-10-09T11:47:53Z</time>
<speed>8.0206</speed>
<name>trkpt-2010-10-09T11:47:53Z</name>
<cmt>
<![CDATA[TIME: 09-OCT-10 11:47:53<br>RCR: T <b>(TimeStamp)</b>
<br>VALID: SPS<br>LATITUDE: 50.404552 N<br>LONGITUDE: 9.581878 E<br>HEIGHT: 311.018 m<br>SPEED: 28.874 km/h<br>DISTANCE: 82.98 m]]>
</cmt>
<sym>TimeStamp</sym>
<type>T</type>
<fix>3d</fix>
</trkpt>
<trkpt lat="50.40487170" lon="9.58091946" >
<ele>318.978</ele>
<time>2010-10-09T11:48:03Z</time>
<speed>7.5090</speed>
<name>trkpt-2010-10-09T11:48:03Z</name>
<cmt>
<![CDATA[TIME: 09-OCT-10 11:48:03<br>RCR: T <b>(TimeStamp)</b>
<br>VALID: SPS<br>LATITUDE: 50.404872 N<br>LONGITUDE: 9.580919 E<br>HEIGHT: 318.978 m<br>SPEED: 27.033 km/h<br>DISTANCE: 77.30 m]]>
</cmt>
<sym>TimeStamp</sym>
<type>T</type>
<fix>3d</fix>
</trkpt>
<trkpt lat="50.40486850" lon="9.58006424" >
<ele>325.072</ele>
<time>2010-10-09T11:48:13Z</time>
<speed>6.7097</speed>
<name>trkpt-2010-10-09T11:48:13Z</name>
<cmt>
<![CDATA[TIME: 09-OCT-10 11:48:13<br>RCR: T <b>(TimeStamp)</b>
<br>VALID: SPS<br>LATITUDE: 50.404869 N<br>LONGITUDE: 9.580064 E<br>HEIGHT: 325.072 m<br>SPEED: 24.155 km/h<br>DISTANCE: 61.11 m]]>
</cmt>
<sym>TimeStamp</sym>
<type>T</type>
<fix>3d</fix>
</trkpt>
<trkpt lat="50.40491432" lon="9.57937407" >
<ele>326.085</ele>
<time>2010-10-09T11:48:23Z</time>
<speed>5.5550</speed>
<name>trkpt-2010-10-09T11:48:23Z</name>
<cmt>
<![CDATA[TIME: 09-OCT-10 11:48:23<br>RCR: T <b>(TimeStamp)</b>
<br>VALID: SPS<br>LATITUDE: 50.404914 N<br>LONGITUDE: 9.579374 E<br>HEIGHT: 326.085 m<br>SPEED: 19.998 km/h<br>DISTANCE: 49.34 m]]>
</cmt>
<sym>TimeStamp</sym>
<type>T</type>
<fix>3d</fix>
</trkpt>
<trkpt lat="50.40530992" lon="9.57917131" >
<ele>326.693</ele>
<time>2010-10-09T11:48:33Z</time>
<speed>4.3048</speed>
<name>trkpt-2010-10-09T11:48:33Z</name>
<cmt>
<![CDATA[TIME: 09-OCT-10 11:48:33<br>RCR: T <b>(TimeStamp)</b>
<br>VALID: SPS<br>LATITUDE: 50.405310 N<br>LONGITUDE: 9.579171 E<br>HEIGHT: 326.693 m<br>SPEED: 15.497 km/h<br>DISTANCE: 46.31 m]]>
</cmt>
<sym>TimeStamp</sym>
<type>T</type>
<fix>3d</fix>
</trkpt>
<trkpt lat="50.40559392" lon="9.57877562" >
<ele>326.490</ele>
<time>2010-10-09T11:48:43Z</time>
<speed>3.5026</speed>
<name>trkpt-2010-10-09T11:48:43Z</name>
<cmt>
<![CDATA[TIME: 09-OCT-10 11:48:43<br>RCR: T <b>(TimeStamp)</b>
<br>VALID: SPS<br>LATITUDE: 50.405594 N<br>LONGITUDE: 9.578776 E<br>HEIGHT: 326.490 m<br>SPEED: 12.609 km/h<br>DISTANCE: 42.30 m]]>
</cmt>
<sym>TimeStamp</sym>
<type>T</type>
<fix>3d</fix>
</trkpt>
<trkpt lat="50.40586173" lon="9.57852267" >
<ele>326.492</ele>
<time>2010-10-09T11:48:53Z</time>
<speed>3.2441</speed>
<name>trkpt-2010-10-09T11:48:53Z</name>
<cmt>
<![CDATA[TIME: 09-OCT-10 11:48:53<br>RCR: T <b>(TimeStamp)</b>
<br>VALID: SPS<br>LATITUDE: 50.405862 N<br>LONGITUDE: 9.578523 E<br>HEIGHT: 326.492 m<br>SPEED: 11.679 km/h<br>DISTANCE: 34.80 m]]>
</cmt>
<sym>TimeStamp</sym>
<type>T</type>
<fix>3d</fix>
</trkpt>
<trkpt lat="50.40610519" lon="9.57812716" >
<ele>318.089</ele>
<time>2010-10-09T11:49:03Z</time>
<speed>5.2983</speed>
<name>trkpt-2010-10-09T11:49:03Z</name>
<cmt>
<![CDATA[TIME: 09-OCT-10 11:49:03<br>RCR: T <b>(TimeStamp)</b>
<br>VALID: SPS<br>LATITUDE: 50.406105 N<br>LONGITUDE: 9.578127 E<br>HEIGHT: 318.089 m<br>SPEED: 19.074 km/h<br>DISTANCE: 39.93 m]]>
</cmt>
<sym>TimeStamp</sym>
<type>T</type>
<fix>3d</fix>
</trkpt>
<trkpt lat="50.40645034" lon="9.57765989" >
<ele>310.034</ele>
<time>2010-10-09T11:49:13Z</time>
<speed>5.8593</speed>
<name>trkpt-2010-10-09T11:49:13Z</name>
<cmt>
<![CDATA[TIME: 09-OCT-10 11:49:13<br>RCR: T <b>(TimeStamp)</b>
<br>VALID: SPS<br>LATITUDE: 50.406450 N<br>LONGITUDE: 9.577660 E<br>HEIGHT: 310.034 m<br>SPEED: 21.093 km/h<br>DISTANCE: 51.41 m]]>
</cmt>
<sym>TimeStamp</sym>
<type>T</type>
<fix>3d</fix>
</trkpt>
<trkpt lat="50.40701277" lon="9.57740759" >
<ele>304.434</ele>
<time>2010-10-09T11:49:23Z</time>
<speed>6.6341</speed>
<name>trkpt-2010-10-09T11:49:23Z</name>
<cmt>
<![CDATA[TIME: 09-OCT-10 11:49:23<br>RCR: T <b>(TimeStamp)</b>
<br>VALID: SPS<br>LATITUDE: 50.407013 N<br>LONGITUDE: 9.577408 E<br>HEIGHT: 304.434 m<br>SPEED: 23.883 km/h<br>DISTANCE: 65.33 m]]>
</cmt>
<sym>TimeStamp</sym>
<type>T</type>
<fix>3d</fix>
</trkpt>
<trkpt lat="50.40750045" lon="9.57680009" >
<ele>299.699</ele>
<time>2010-10-09T11:49:33Z</time>
<speed>7.1107</speed>
<name>trkpt-2010-10-09T11:49:33Z</name>
<cmt>
<![CDATA[TIME: 09-OCT-10 11:49:33<br>RCR: T <b>(TimeStamp)</b>
<br>VALID: SPS<br>LATITUDE: 50.407500 N<br>LONGITUDE: 9.576800 E<br>HEIGHT: 299.699 m<br>SPEED: 25.598 km/h<br>DISTANCE: 69.50 m]]>
</cmt>
<sym>TimeStamp</sym>
<type>T</type>
<fix>3d</fix>
</trkpt>
<trkpt lat="50.40766355" lon="9.57576181" >
<ele>305.596</ele>
<time>2010-10-09T11:49:43Z</time>
<speed>7.5270</speed>
<name>trkpt-2010-10-09T11:49:43Z</name>
<cmt>
<![CDATA[TIME: 09-OCT-10 11:49:43<br>RCR: T <b>(TimeStamp)</b>
<br>VALID: SPS<br>LATITUDE: 50.407664 N<br>LONGITUDE: 9.575762 E<br>HEIGHT: 305.596 m<br>SPEED: 27.097 km/h<br>DISTANCE: 76.24 m]]>
</cmt>
<sym>TimeStamp</sym>
<type>T</type>
<fix>3d</fix>
</trkpt>
<trkpt lat="50.40780245" lon="9.57474815" >
<ele>306.910</ele>
<time>2010-10-09T11:49:53Z</time>
<speed>6.4544</speed>
<name>trkpt-2010-10-09T11:49:53Z</name>
<cmt>
<![CDATA[TIME: 09-OCT-10 11:49:53<br>RCR: T <b>(TimeStamp)</b>
<br>VALID: SPS<br>LATITUDE: 50.407802 N<br>LONGITUDE: 9.574748 E<br>HEIGHT: 306.910 m<br>SPEED: 23.236 km/h<br>DISTANCE: 73.71 m]]>
</cmt>
<sym>TimeStamp</sym>
<type>T</type>
<fix>3d</fix>
</trkpt>
<trkpt lat="50.40793938" lon="9.57390218" >
<ele>308.805</ele>
<time>2010-10-09T11:50:03Z</time>
<speed>6.1668</speed>
<name>trkpt-2010-10-09T11:50:03Z</name>
<cmt>
<![CDATA[TIME: 09-OCT-10 11:50:03<br>RCR: T <b>(TimeStamp)</b>
<br>VALID: SPS<br>LATITUDE: 50.407939 N<br>LONGITUDE: 9.573902 E<br>HEIGHT: 308.805 m<br>SPEED: 22.200 km/h<br>DISTANCE: 62.07 m]]>
</cmt>
<sym>TimeStamp</sym>
<type>T</type>
<fix>3d</fix>
</trkpt>
<trkpt lat="50.40811991" lon="9.57320587" >
<ele>310.853</ele>
<time>2010-10-09T11:50:13Z</time>
<speed>4.5080</speed>
<name>trkpt-2010-10-09T11:50:13Z</name>
<cmt>
<![CDATA[TIME: 09-OCT-10 11:50:13<br>RCR: T <b>(TimeStamp)</b>
<br>VALID: SPS<br>LATITUDE: 50.408120 N<br>LONGITUDE: 9.573206 E<br>HEIGHT: 310.853 m<br>SPEED: 16.229 km/h<br>DISTANCE: 53.46 m]]>
</cmt>
<sym>TimeStamp</sym>
<type>T</type>
<fix>3d</fix>
</trkpt>
<trkpt lat="50.40833576" lon="9.57267677" >
<ele>309.530</ele>
<time>2010-10-09T11:50:23Z</time>
<speed>5.0619</speed>
<name>trkpt-2010-10-09T11:50:23Z</name>
<cmt>
<![CDATA[TIME: 09-OCT-10 11:50:23<br>RCR: T <b>(TimeStamp)</b>
<br>VALID: SPS<br>LATITUDE: 50.408336 N<br>LONGITUDE: 9.572677 E<br>HEIGHT: 309.530 m<br>SPEED: 18.223 km/h<br>DISTANCE: 44.64 m]]>
</cmt>
<sym>TimeStamp</sym>
<type>T</type>
<fix>3d</fix>
</trkpt>
<trkpt lat="50.40863908" lon="9.57164644" >
<ele>300.353</ele>
<time>2010-10-09T11:50:33Z</time>
<speed>9.2124</speed>
<name>trkpt-2010-10-09T11:50:33Z</name>
<cmt>
<![CDATA[TIME: 09-OCT-10 11:50:33<br>RCR: T <b>(TimeStamp)</b>
<br>VALID: SPS<br>LATITUDE: 50.408639 N<br>LONGITUDE: 9.571646 E<br>HEIGHT: 300.353 m<br>SPEED: 33.165 km/h<br>DISTANCE: 81.17 m]]>
</cmt>
<sym>TimeStamp</sym>
<type>T</type>
<fix>3d</fix>
</trkpt>
<trkpt lat="50.40871319" lon="9.57039939" >
<ele>304.854</ele>
<time>2010-10-09T11:50:43Z</time>
<speed>8.5606</speed>
<name>trkpt-2010-10-09T11:50:43Z</name>
<cmt>
<![CDATA[TIME: 09-OCT-10 11:50:43<br>RCR: T <b>(TimeStamp)</b>
<br>VALID: SPS<br>LATITUDE: 50.408713 N<br>LONGITUDE: 9.570399 E<br>HEIGHT: 304.854 m<br>SPEED: 30.818 km/h<br>DISTANCE: 89.15 m]]>
</cmt>
<sym>TimeStamp</sym>
<type>T</type>
<fix>3d</fix>
</trkpt>
<trkpt lat="50.40876823" lon="9.56904156" >
<ele>302.344</ele>
<time>2010-10-09T11:50:53Z</time>
<speed>10.1584</speed>
<name>trkpt-2010-10-09T11:50:53Z</name>
<cmt>
<![CDATA[TIME: 09-OCT-10 11:50:53<br>RCR: T <b>(TimeStamp)</b>
<br>VALID: SPS<br>LATITUDE: 50.408768 N<br>LONGITUDE: 9.569042 E<br>HEIGHT: 302.344 m<br>SPEED: 36.570 km/h<br>DISTANCE: 96.75 m]]>
</cmt>
<sym>TimeStamp</sym>
<type>T</type>
<fix>3d</fix>
</trkpt>
<trkpt lat="50.40926110" lon="9.56785242" >
<ele>293.700</ele>
<time>2010-10-09T11:51:03Z</time>
<speed>10.7724</speed>
<name>trkpt-2010-10-09T11:51:03Z</name>
<cmt>
<![CDATA[TIME: 09-OCT-10 11:51:03<br>RCR: T <b>(TimeStamp)</b>
<br>VALID: SPS<br>LATITUDE: 50.409261 N<br>LONGITUDE: 9.567852 E<br>HEIGHT: 293.700 m<br>SPEED: 38.781 km/h<br>DISTANCE: 101.13 m]]>
</cmt>
<sym>TimeStamp</sym>
<type>T</type>
<fix>3d</fix>
</trkpt>
<trkpt lat="50.41011178" lon="9.56693612" >
<ele>285.521</ele>
<time>2010-10-09T11:51:13Z</time>
<speed>12.4739</speed>
<name>trkpt-2010-10-09T11:51:13Z</name>
<cmt>
<![CDATA[TIME: 09-OCT-10 11:51:13<br>RCR: T <b>(TimeStamp)</b>
<br>VALID: SPS<br>LATITUDE: 50.410112 N<br>LONGITUDE: 9.566936 E<br>HEIGHT: 285.521 m<br>SPEED: 44.906 km/h<br>DISTANCE: 115.17 m]]>
</cmt>
<sym>TimeStamp</sym>
<type>T</type>
<fix>3d</fix>
</trkpt>
<trkpt lat="50.41128788" lon="9.56654001" >
<ele>276.783</ele>
<time>2010-10-09T11:51:23Z</time>
<speed>13.0755</speed>
<name>trkpt-2010-10-09T11:51:23Z</name>
<cmt>
<![CDATA[TIME: 09-OCT-10 11:51:23<br>RCR: T <b>(TimeStamp)</b>
<br>VALID: SPS<br>LATITUDE: 50.411288 N<br>LONGITUDE: 9.566540 E<br>HEIGHT: 276.783 m<br>SPEED: 47.072 km/h<br>DISTANCE: 134.11 m]]>
</cmt>
<sym>TimeStamp</sym>
<type>T</type>
<fix>3d</fix>
</trkpt>
<trkpt lat="50.41220769" lon="9.56650359" >
<ele>273.307</ele>
<time>2010-10-09T11:51:33Z</time>
<speed>8.1919</speed>
<name>trkpt-2010-10-09T11:51:33Z</name>
<cmt>
<![CDATA[TIME: 09-OCT-10 11:51:33<br>RCR: T <b>(TimeStamp)</b>
<br>VALID: SPS<br>LATITUDE: 50.412208 N<br>LONGITUDE: 9.566504 E<br>HEIGHT: 273.307 m<br>SPEED: 29.491 km/h<br>DISTANCE: 102.41 m]]>
</cmt>
<sym>TimeStamp</sym>
<type>T</type>
<fix>3d</fix>
</trkpt>
<trkpt lat="50.41284406" lon="9.56651102" >
<ele>279.630</ele>
<time>2010-10-09T11:51:43Z</time>
<speed>5.8243</speed>
<name>trkpt-2010-10-09T11:51:43Z</name>
<cmt>
<![CDATA[TIME: 09-OCT-10 11:51:43<br>RCR: T <b>(TimeStamp)</b>
<br>VALID: SPS<br>LATITUDE: 50.412844 N<br>LONGITUDE: 9.566511 E<br>HEIGHT: 279.630 m<br>SPEED: 20.967 km/h<br>DISTANCE: 71.07 m]]>
</cmt>
<sym>TimeStamp</sym>
<type>T</type>
<fix>3d</fix>
</trkpt>
<trkpt lat="50.41337702" lon="9.56647156" >
<ele>282.573</ele>
<time>2010-10-09T11:51:53Z</time>
<speed>6.0371</speed>
<name>trkpt-2010-10-09T11:51:53Z</name>
<cmt>
<![CDATA[TIME: 09-OCT-10 11:51:53<br>RCR: T <b>(TimeStamp)</b>
<br>VALID: SPS<br>LATITUDE: 50.413377 N<br>LONGITUDE: 9.566472 E<br>HEIGHT: 282.573 m<br>SPEED: 21.734 km/h<br>DISTANCE: 59.43 m]]>
</cmt>
<sym>TimeStamp</sym>
<type>T</type>
<fix>3d</fix>
</trkpt>
<trkpt lat="50.41398089" lon="9.56656557" >
<ele>289.040</ele>
<time>2010-10-09T11:52:03Z</time>
<speed>6.1427</speed>
<name>trkpt-2010-10-09T11:52:03Z</name>
<cmt>
<![CDATA[TIME: 09-OCT-10 11:52:03<br>RCR: T <b>(TimeStamp)</b>
<br>VALID: SPS<br>LATITUDE: 50.413981 N<br>LONGITUDE: 9.566566 E<br>HEIGHT: 289.040 m<br>SPEED: 22.114 km/h<br>DISTANCE: 67.82 m]]>
</cmt>
<sym>TimeStamp</sym>
<type>T</type>
<fix>3d</fix>
</trkpt>
<trkpt lat="50.41445800" lon="9.56629259" >
<ele>287.489</ele>
<time>2010-10-09T11:52:13Z</time>
<speed>6.6114</speed>
<name>trkpt-2010-10-09T11:52:13Z</name>
<cmt>
<![CDATA[TIME: 09-OCT-10 11:52:13<br>RCR: T <b>(TimeStamp)</b>
<br>VALID: SPS<br>LATITUDE: 50.414458 N<br>LONGITUDE: 9.566293 E<br>HEIGHT: 287.489 m<br>SPEED: 23.801 km/h<br>DISTANCE: 56.53 m]]>
</cmt>
<sym>TimeStamp</sym>
<type>T</type>
<fix>3d</fix>
</trkpt>
<trkpt lat="50.41495966" lon="9.56560333" >
<ele>283.139</ele>
<time>2010-10-09T11:52:23Z</time>
<speed>9.6906</speed>
<name>trkpt-2010-10-09T11:52:23Z</name>
<cmt>
<![CDATA[TIME: 09-OCT-10 11:52:23<br>RCR: T <b>(TimeStamp)</b>
<br>VALID: SPS<br>LATITUDE: 50.414960 N<br>LONGITUDE: 9.565603 E<br>HEIGHT: 283.139 m<br>SPEED: 34.886 km/h<br>DISTANCE: 74.39 m]]>
</cmt>
<sym>TimeStamp</sym>
<type>T</type>
<fix>3d</fix>
</trkpt>
<trkpt lat="50.41584877" lon="9.56513729" >
<ele>276.583</ele>
<time>2010-10-09T11:52:33Z</time>
<speed>11.3156</speed>
<name>trkpt-2010-10-09T11:52:33Z</name>
<cmt>
<![CDATA[TIME: 09-OCT-10 11:52:33<br>RCR: T <b>(TimeStamp)</b>
<br>VALID: SPS<br>LATITUDE: 50.415849 N<br>LONGITUDE: 9.565137 E<br>HEIGHT: 276.583 m<br>SPEED: 40.736 km/h<br>DISTANCE: 104.51 m]]>
</cmt>
<sym>TimeStamp</sym>
<type>T</type>
<fix>3d</fix>
</trkpt>
<trkpt lat="50.41688173" lon="9.56497545" >
<ele>267.917</ele>
<time>2010-10-09T11:52:43Z</time>
<speed>11.6246</speed>
<name>trkpt-2010-10-09T11:52:43Z</name>
<cmt>
<![CDATA[TIME: 09-OCT-10 11:52:43<br>RCR: T <b>(TimeStamp)</b>
<br>VALID: SPS<br>LATITUDE: 50.416882 N<br>LONGITUDE: 9.564975 E<br>HEIGHT: 267.917 m<br>SPEED: 41.849 km/h<br>DISTANCE: 115.81 m]]>
</cmt>
<sym>TimeStamp</sym>
<type>T</type>
<fix>3d</fix>
</trkpt>
<trkpt lat="50.41790333" lon="9.56497196" >
<ele>269.380</ele>
<time>2010-10-09T11:52:53Z</time>
<speed>10.6873</speed>
<name>trkpt-2010-10-09T11:52:53Z</name>
<cmt>
<![CDATA[TIME: 09-OCT-10 11:52:53<br>RCR: T <b>(TimeStamp)</b>
<br>VALID: SPS<br>LATITUDE: 50.417903 N<br>LONGITUDE: 9.564972 E<br>HEIGHT: 269.380 m<br>SPEED: 38.474 km/h<br>DISTANCE: 113.66 m]]>
</cmt>
<sym>TimeStamp</sym>
<type>T</type>
<fix>3d</fix>
</trkpt>
<trkpt lat="50.41877169" lon="9.56542172" >
<ele>274.867</ele>
<time>2010-10-09T11:53:03Z</time>
<speed>8.9183</speed>
<name>trkpt-2010-10-09T11:53:03Z</name>
<cmt>
<![CDATA[TIME: 09-OCT-10 11:53:03<br>RCR: T <b>(TimeStamp)</b>
<br>VALID: SPS<br>LATITUDE: 50.418772 N<br>LONGITUDE: 9.565422 E<br>HEIGHT: 274.867 m<br>SPEED: 32.106 km/h<br>DISTANCE: 101.90 m]]>
</cmt>
<sym>TimeStamp</sym>
<type>T</type>
<fix>3d</fix>
</trkpt>
<trkpt lat="50.41948216" lon="9.56588520" >
<ele>279.555</ele>
<time>2010-10-09T11:53:13Z</time>
<speed>7.7680</speed>
<name>trkpt-2010-10-09T11:53:13Z</name>
<cmt>
<![CDATA[TIME: 09-OCT-10 11:53:13<br>RCR: T <b>(TimeStamp)</b>
<br>VALID: SPS<br>LATITUDE: 50.419482 N<br>LONGITUDE: 9.565885 E<br>HEIGHT: 279.555 m<br>SPEED: 27.965 km/h<br>DISTANCE: 85.75 m]]>
</cmt>
<sym>TimeStamp</sym>
<type>T</type>
<fix>3d</fix>
</trkpt>
<trkpt lat="50.42011344" lon="9.56623504" >
<ele>285.348</ele>
<time>2010-10-09T11:53:23Z</time>
<speed>7.7315</speed>
<name>trkpt-2010-10-09T11:53:23Z</name>
<cmt>
<![CDATA[TIME: 09-OCT-10 11:53:23<br>RCR: T <b>(TimeStamp)</b>
<br>VALID: SPS<br>LATITUDE: 50.420113 N<br>LONGITUDE: 9.566235 E<br>HEIGHT: 285.348 m<br>SPEED: 27.834 km/h<br>DISTANCE: 74.72 m]]>
</cmt>
<sym>TimeStamp</sym>
<type>T</type>
<fix>3d</fix>
</trkpt>
<trkpt lat="50.42077318" lon="9.56611200" >
<ele>279.594</ele>
<time>2010-10-09T11:53:33Z</time>
<speed>7.6809</speed>
<name>trkpt-2010-10-09T11:53:33Z</name>
<cmt>
<![CDATA[TIME: 09-OCT-10 11:53:33<br>RCR: T <b>(TimeStamp)</b>
<br>VALID: SPS<br>LATITUDE: 50.420773 N<br>LONGITUDE: 9.566112 E<br>HEIGHT: 279.594 m<br>SPEED: 27.651 km/h<br>DISTANCE: 74.13 m]]>
</cmt>
<sym>TimeStamp</sym>
<type>T</type>
<fix>3d</fix>
</trkpt>
<trkpt lat="50.42145309" lon="9.56593124" >
<ele>278.564</ele>
<time>2010-10-09T11:53:43Z</time>
<speed>7.8412</speed>
<name>trkpt-2010-10-09T11:53:43Z</name>
<cmt>
<![CDATA[TIME: 09-OCT-10 11:53:43<br>RCR: T <b>(TimeStamp)</b>
<br>VALID: SPS<br>LATITUDE: 50.421453 N<br>LONGITUDE: 9.565931 E<br>HEIGHT: 278.564 m<br>SPEED: 28.228 km/h<br>DISTANCE: 76.72 m]]>
</cmt>
<sym>TimeStamp</sym>
<type>T</type>
<fix>3d</fix>
</trkpt>
<trkpt lat="50.42205715" lon="9.56535931" >
<ele>275.398</ele>
<time>2010-10-09T11:53:53Z</time>
<speed>8.3905</speed>
<name>trkpt-2010-10-09T11:53:53Z</name>
<cmt>
<![CDATA[TIME: 09-OCT-10 11:53:53<br>RCR: T <b>(TimeStamp)</b>
<br>VALID: SPS<br>LATITUDE: 50.422057 N<br>LONGITUDE: 9.565359 E<br>HEIGHT: 275.398 m<br>SPEED: 30.206 km/h<br>DISTANCE: 78.60 m]]>
</cmt>
<sym>TimeStamp</sym>
<type>T</type>
<fix>3d</fix>
</trkpt>
<trkpt lat="50.42266937" lon="9.56517455" >
<ele>278.585</ele>
<time>2010-10-09T11:54:03Z</time>
<speed>3.7505</speed>
<name>trkpt-2010-10-09T11:54:03Z</name>
<cmt>
<![CDATA[TIME: 09-OCT-10 11:54:03<br>RCR: T <b>(TimeStamp)</b>
<br>VALID: SPS<br>LATITUDE: 50.422669 N<br>LONGITUDE: 9.565175 E<br>HEIGHT: 278.585 m<br>SPEED: 13.502 km/h<br>DISTANCE: 69.43 m]]>
</cmt>
<sym>TimeStamp</sym>
<type>T</type>
<fix>3d</fix>
</trkpt>
<trkpt lat="50.42268749" lon="9.56471691" >
<ele>294.899</ele>
<time>2010-10-09T11:54:13Z</time>
<speed>4.1294</speed>
<name>trkpt-2010-10-09T11:54:13Z</name>
<cmt>
<![CDATA[TIME: 09-OCT-10 11:54:13<br>RCR: T <b>(TimeStamp)</b>
<br>VALID: SPS<br>LATITUDE: 50.422687 N<br>LONGITUDE: 9.564717 E<br>HEIGHT: 294.899 m<br>SPEED: 14.866 km/h<br>DISTANCE: 36.44 m]]>
</cmt>
<sym>TimeStamp</sym>
<type>T</type>
<fix>3d</fix>
</trkpt>
<trkpt lat="50.42258214" lon="9.56396689" >
<ele>302.192</ele>
<time>2010-10-09T11:54:23Z</time>
<speed>4.7456</speed>
<name>trkpt-2010-10-09T11:54:23Z</name>
<cmt>
<![CDATA[TIME: 09-OCT-10 11:54:23<br>RCR: T <b>(TimeStamp)</b>
<br>VALID: SPS<br>LATITUDE: 50.422582 N<br>LONGITUDE: 9.563967 E<br>HEIGHT: 302.192 m<br>SPEED: 17.084 km/h<br>DISTANCE: 55.06 m]]>
</cmt>
<sym>TimeStamp</sym>
<type>T</type>
<fix>3d</fix>
</trkpt>
<trkpt lat="50.42268374" lon="9.56358667" >
<ele>298.243</ele>
<time>2010-10-09T11:54:33Z</time>
<speed>2.5808</speed>
<name>trkpt-2010-10-09T11:54:33Z</name>
<cmt>
<![CDATA[TIME: 09-OCT-10 11:54:33<br>RCR: T <b>(TimeStamp)</b>
<br>VALID: SPS<br>LATITUDE: 50.422684 N<br>LONGITUDE: 9.563587 E<br>HEIGHT: 298.243 m<br>SPEED: 9.291 km/h<br>DISTANCE: 29.56 m]]>
</cmt>
<sym>TimeStamp</sym>
<type>T</type>
<fix>3d</fix>
</trkpt>
<trkpt lat="50.42288720" lon="9.56348340" >
<ele>295.076</ele>
<time>2010-10-09T11:54:43Z</time>
<speed>1.9359</speed>
<name>trkpt-2010-10-09T11:54:43Z</name>
<cmt>
<![CDATA[TIME: 09-OCT-10 11:54:43<br>RCR: T <b>(TimeStamp)</b>
<br>VALID: SPS<br>LATITUDE: 50.422887 N<br>LONGITUDE: 9.563483 E<br>HEIGHT: 295.076 m<br>SPEED: 6.969 km/h<br>DISTANCE: 24.00 m]]>
</cmt>
<sym>TimeStamp</sym>
<type>T</type>
<fix>3d</fix>
</trkpt>
<trkpt lat="50.42316611" lon="9.56320303" >
<ele>291.114</ele>
<time>2010-10-09T11:54:53Z</time>
<speed>5.1067</speed>
<name>trkpt-2010-10-09T11:54:53Z</name>
<cmt>
<![CDATA[TIME: 09-OCT-10 11:54:53<br>RCR: T <b>(TimeStamp)</b>
<br>VALID: SPS<br>LATITUDE: 50.423166 N<br>LONGITUDE: 9.563203 E<br>HEIGHT: 291.114 m<br>SPEED: 18.384 km/h<br>DISTANCE: 37.09 m]]>
</cmt>
<sym>TimeStamp</sym>
<type>T</type>
<fix>3d</fix>
</trkpt>
<trkpt lat="50.42334722" lon="9.56286141" >
<ele>291.200</ele>
<time>2010-10-09T11:55:03Z</time>
<speed>1.6477</speed>
<name>trkpt-2010-10-09T11:55:03Z</name>
<cmt>
<![CDATA[TIME: 09-OCT-10 11:55:03<br>RCR: T <b>(TimeStamp)</b>
<br>VALID: SPS<br>LATITUDE: 50.423347 N<br>LONGITUDE: 9.562861 E<br>HEIGHT: 291.200 m<br>SPEED: 5.932 km/h<br>DISTANCE: 31.55 m]]>
</cmt>
<sym>TimeStamp</sym>
<type>T</type>
<fix>3d</fix>
</trkpt>
<trkpt lat="50.42336658" lon="9.56253811" >
<ele>294.094</ele>
<time>2010-10-09T11:55:13Z</time>
<speed>1.6940</speed>
<name>trkpt-2010-10-09T11:55:13Z</name>
<cmt>
<![CDATA[TIME: 09-OCT-10 11:55:13<br>RCR: T <b>(TimeStamp)</b>
<br>VALID: SPS<br>LATITUDE: 50.423367 N<br>LONGITUDE: 9.562538 E<br>HEIGHT: 294.094 m<br>SPEED: 6.098 km/h<br>DISTANCE: 23.26 m]]>
</cmt>
<sym>TimeStamp</sym>
<type>T</type>
<fix>3d</fix>
</trkpt>
<trkpt lat="50.42336722" lon="9.56222862" >
<ele>299.247</ele>
<time>2010-10-09T11:55:23Z</time>
<speed>1.3958</speed>
<name>trkpt-2010-10-09T11:55:23Z</name>
<cmt>
<![CDATA[TIME: 09-OCT-10 11:55:23<br>RCR: T <b>(TimeStamp)</b>
<br>VALID: SPS<br>LATITUDE: 50.423367 N<br>LONGITUDE: 9.562229 E<br>HEIGHT: 299.247 m<br>SPEED: 5.025 km/h<br>DISTANCE: 22.59 m]]>
</cmt>
<sym>TimeStamp</sym>
<type>T</type>
<fix>3d</fix>
</trkpt>
<trkpt lat="50.42337716" lon="9.56194559" >
<ele>304.513</ele>
<time>2010-10-09T11:55:33Z</time>
<speed>1.8466</speed>
<name>trkpt-2010-10-09T11:55:33Z</name>
<cmt>
<![CDATA[TIME: 09-OCT-10 11:55:33<br>RCR: T <b>(TimeStamp)</b>
<br>VALID: SPS<br>LATITUDE: 50.423377 N<br>LONGITUDE: 9.561946 E<br>HEIGHT: 304.513 m<br>SPEED: 6.648 km/h<br>DISTANCE: 20.82 m]]>
</cmt>
<sym>TimeStamp</sym>
<type>T</type>
<fix>3d</fix>
</trkpt>
<trkpt lat="50.42340940" lon="9.56161576" >
<ele>310.001</ele>
<time>2010-10-09T11:55:43Z</time>
<speed>2.5526</speed>
<name>trkpt-2010-10-09T11:55:43Z</name>
<cmt>
<![CDATA[TIME: 09-OCT-10 11:55:43<br>RCR: T <b>(TimeStamp)</b>
<br>VALID: SPS<br>LATITUDE: 50.423409 N<br>LONGITUDE: 9.561616 E<br>HEIGHT: 310.001 m<br>SPEED: 9.189 km/h<br>DISTANCE: 24.34 m]]>
</cmt>
<sym>TimeStamp</sym>
<type>T</type>
<fix>3d</fix>
</trkpt>
<trkpt lat="50.42354825" lon="9.56126508" >
<ele>309.008</ele>
<time>2010-10-09T11:55:53Z</time>
<speed>2.5762</speed>
<name>trkpt-2010-10-09T11:55:53Z</name>
<cmt>
<![CDATA[TIME: 09-OCT-10 11:55:53<br>RCR: T <b>(TimeStamp)</b>
<br>VALID: SPS<br>LATITUDE: 50.423548 N<br>LONGITUDE: 9.561265 E<br>HEIGHT: 309.008 m<br>SPEED: 9.274 km/h<br>DISTANCE: 29.34 m]]>
</cmt>
<sym>TimeStamp</sym>
<type>T</type>
<fix>3d</fix>
</trkpt>
<trkpt lat="50.42364784" lon="9.56097328" >
<ele>312.709</ele>
<time>2010-10-09T11:56:03Z</time>
<speed>1.6441</speed>
<name>trkpt-2010-10-09T11:56:03Z</name>
<cmt>
<![CDATA[TIME: 09-OCT-10 11:56:03<br>RCR: T <b>(TimeStamp)</b>
<br>VALID: SPS<br>LATITUDE: 50.423648 N<br>LONGITUDE: 9.560973 E<br>HEIGHT: 312.709 m<br>SPEED: 5.919 km/h<br>DISTANCE: 23.80 m]]>
</cmt>
<sym>TimeStamp</sym>
<type>T</type>
<fix>3d</fix>
</trkpt>
<trkpt lat="50.42366013" lon="9.56087574" >
<ele>316.559</ele>
<time>2010-10-09T11:56:13Z</time>
<speed>0.3096</speed>
<name>trkpt-2010-10-09T11:56:13Z</name>
<cmt>
<![CDATA[TIME: 09-OCT-10 11:56:13<br>RCR: T <b>(TimeStamp)</b>
<br>VALID: SPS<br>LATITUDE: 50.423660 N<br>LONGITUDE: 9.560876 E<br>HEIGHT: 316.559 m<br>SPEED: 1.115 km/h<br>DISTANCE: 8.05 m]]>
</cmt>
<sym>TimeStamp</sym>
<type>T</type>
<fix>3d</fix>
</trkpt>
<trkpt lat="50.42366099" lon="9.56087105" >
<ele>317.748</ele>
<time>2010-10-09T11:56:23Z</time>
<speed>0.1877</speed>
<name>trkpt-2010-10-09T11:56:23Z</name>
<cmt>
<![CDATA[TIME: 09-OCT-10 11:56:23<br>RCR: T <b>(TimeStamp)</b>
<br>VALID: SPS<br>LATITUDE: 50.423661 N<br>LONGITUDE: 9.560871 E<br>HEIGHT: 317.748 m<br>SPEED: 0.676 km/h<br>DISTANCE: 1.24 m]]>
</cmt>
<sym>TimeStamp</sym>
<type>T</type>
<fix>3d</fix>
</trkpt>
</trkseg>
</trk>
</gpx>